<?xml version="1.0" encoding="UTF-8" standalone="no" ?>
<gpx xmlns="http://www.topografix.com/GPX/1/1" xmlns:xsi="http://www.w3.org/2001/XMLSchema-instance" xsi:schemaLocation="http://www.topografix.com/GPX/1/1 http://www.topografix.com/GPX/1/1/gpx.xsd" version="1.1" creator="VisuGPX - https://www.visugpx.com">
  <metadata>
    <name>Sortie La rando de Grigny version longue 34km - 170312</name>
    <desc><![CDATA[Une version remaniée de la trace Uta dénommée \"La rando de Grigny 2009\"]]></desc>
  </metadata>
  <trk>
    <name><![CDATA[TracÃ© actuel: 17 MARS 2012 08:07]]></name>
    <trkseg>
      <trkpt lat="45.61702" lon="4.80053">
        <ele>162</ele>
        <time>2012-03-17T07:07:08Z</time>
      </trkpt>
      <trkpt lat="45.61702" lon="4.80053">
        <ele>165</ele>
        <time>2012-03-17T07:07:10Z</time>
      </trkpt>
      <trkpt lat="45.617" lon="4.80053">
        <ele>165</ele>
        <time>2012-03-17T07:07:21Z</time>
      </trkpt>
      <trkpt lat="45.61688" lon="4.80054">
        <ele>165</ele>
        <time>2012-03-17T07:07:28Z</time>
      </trkpt>
      <trkpt lat="45.61674" lon="4.80066">
        <ele>165</ele>
        <time>2012-03-17T07:07:35Z</time>
      </trkpt>
      <trkpt lat="45.61658" lon="4.80064">
        <ele>166</ele>
        <time>2012-03-17T07:07:41Z</time>
      </trkpt>
      <trkpt lat="45.61653" lon="4.80047">
        <ele>167</ele>
        <time>2012-03-17T07:07:46Z</time>
      </trkpt>
      <trkpt lat="45.61662" lon="4.80031">
        <ele>167</ele>
        <time>2012-03-17T07:07:51Z</time>
      </trkpt>
      <trkpt lat="45.61681" lon="4.8001">
        <ele>168</ele>
        <time>2012-03-17T07:07:59Z</time>
      </trkpt>
      <trkpt lat="45.6168" lon="4.79985">
        <ele>169</ele>
        <time>2012-03-17T07:08:05Z</time>
      </trkpt>
      <trkpt lat="45.6168" lon="4.79963">
        <ele>169</ele>
        <time>2012-03-17T07:08:11Z</time>
      </trkpt>
      <trkpt lat="45.61686" lon="4.79933">
        <ele>169</ele>
        <time>2012-03-17T07:08:19Z</time>
      </trkpt>
      <trkpt lat="45.61675" lon="4.79902">
        <ele>171</ele>
        <time>2012-03-17T07:08:28Z</time>
      </trkpt>
      <trkpt lat="45.61657" lon="4.79884">
        <ele>174</ele>
        <time>2012-03-17T07:08:36Z</time>
      </trkpt>
      <trkpt lat="45.61642" lon="4.79868">
        <ele>174</ele>
        <time>2012-03-17T07:08:43Z</time>
      </trkpt>
      <trkpt lat="45.61618" lon="4.79845">
        <ele>176</ele>
        <time>2012-03-17T07:08:54Z</time>
      </trkpt>
      <trkpt lat="45.61598" lon="4.79825">
        <ele>177</ele>
        <time>2012-03-17T07:09:03Z</time>
      </trkpt>
      <trkpt lat="45.61581" lon="4.7981">
        <ele>177</ele>
        <time>2012-03-17T07:09:10Z</time>
      </trkpt>
      <trkpt lat="45.61552" lon="4.79783">
        <ele>177</ele>
        <time>2012-03-17T07:09:21Z</time>
      </trkpt>
      <trkpt lat="45.61533" lon="4.79761">
        <ele>178</ele>
        <time>2012-03-17T07:09:29Z</time>
      </trkpt>
      <trkpt lat="45.61521" lon="4.79734">
        <ele>179</ele>
        <time>2012-03-17T07:09:37Z</time>
      </trkpt>
      <trkpt lat="45.61512" lon="4.79707">
        <ele>181</ele>
        <time>2012-03-17T07:09:46Z</time>
      </trkpt>
      <trkpt lat="45.61507" lon="4.79678">
        <ele>182</ele>
        <time>2012-03-17T07:09:55Z</time>
      </trkpt>
      <trkpt lat="45.61504" lon="4.79666">
        <ele>184</ele>
        <time>2012-03-17T07:09:59Z</time>
      </trkpt>
      <trkpt lat="45.61495" lon="4.79638">
        <ele>186</ele>
        <time>2012-03-17T07:10:08Z</time>
      </trkpt>
      <trkpt lat="45.61484" lon="4.79615">
        <ele>187</ele>
        <time>2012-03-17T07:10:16Z</time>
      </trkpt>
      <trkpt lat="45.61473" lon="4.79599">
        <ele>188</ele>
        <time>2012-03-17T07:10:23Z</time>
      </trkpt>
      <trkpt lat="45.61453" lon="4.79577">
        <ele>189</ele>
        <time>2012-03-17T07:10:32Z</time>
      </trkpt>
      <trkpt lat="45.61434" lon="4.79557">
        <ele>190</ele>
        <time>2012-03-17T07:10:40Z</time>
      </trkpt>
      <trkpt lat="45.61414" lon="4.79533">
        <ele>190</ele>
        <time>2012-03-17T07:10:48Z</time>
      </trkpt>
      <trkpt lat="45.61394" lon="4.79508">
        <ele>190</ele>
        <time>2012-03-17T07:10:56Z</time>
      </trkpt>
      <trkpt lat="45.61375" lon="4.79483">
        <ele>190</ele>
        <time>2012-03-17T07:11:04Z</time>
      </trkpt>
      <trkpt lat="45.61352" lon="4.7945">
        <ele>191</ele>
        <time>2012-03-17T07:11:14Z</time>
      </trkpt>
      <trkpt lat="45.61331" lon="4.79418">
        <ele>192</ele>
        <time>2012-03-17T07:11:24Z</time>
      </trkpt>
      <trkpt lat="45.61315" lon="4.7939">
        <ele>194</ele>
        <time>2012-03-17T07:11:33Z</time>
      </trkpt>
      <trkpt lat="45.61303" lon="4.7937">
        <ele>195</ele>
        <time>2012-03-17T07:11:40Z</time>
      </trkpt>
      <trkpt lat="45.61289" lon="4.79347">
        <ele>197</ele>
        <time>2012-03-17T07:11:48Z</time>
      </trkpt>
      <trkpt lat="45.61278" lon="4.79328">
        <ele>198</ele>
        <time>2012-03-17T07:11:55Z</time>
      </trkpt>
      <trkpt lat="45.61262" lon="4.79298">
        <ele>199</ele>
        <time>2012-03-17T07:12:05Z</time>
      </trkpt>
      <trkpt lat="45.61247" lon="4.7927">
        <ele>200</ele>
        <time>2012-03-17T07:12:14Z</time>
      </trkpt>
      <trkpt lat="45.61228" lon="4.79238">
        <ele>200</ele>
        <time>2012-03-17T07:12:24Z</time>
      </trkpt>
      <trkpt lat="45.61209" lon="4.79203">
        <ele>200</ele>
        <time>2012-03-17T07:12:33Z</time>
      </trkpt>
      <trkpt lat="45.61207" lon="4.79199">
        <ele>200</ele>
        <time>2012-03-17T07:12:34Z</time>
      </trkpt>
      <trkpt lat="45.61205" lon="4.79193">
        <ele>199</ele>
        <time>2012-03-17T07:12:35Z</time>
      </trkpt>
      <trkpt lat="45.61193" lon="4.79159">
        <ele>198</ele>
        <time>2012-03-17T07:12:42Z</time>
      </trkpt>
      <trkpt lat="45.61189" lon="4.79147">
        <ele>197</ele>
        <time>2012-03-17T07:12:44Z</time>
      </trkpt>
      <trkpt lat="45.61189" lon="4.79141">
        <ele>198</ele>
        <time>2012-03-17T07:12:45Z</time>
      </trkpt>
      <trkpt lat="45.6119" lon="4.79135">
        <ele>198</ele>
        <time>2012-03-17T07:12:46Z</time>
      </trkpt>
      <trkpt lat="45.61191" lon="4.79131">
        <ele>198</ele>
        <time>2012-03-17T07:12:47Z</time>
      </trkpt>
      <trkpt lat="45.61193" lon="4.79128">
        <ele>198</ele>
        <time>2012-03-17T07:12:48Z</time>
      </trkpt>
      <trkpt lat="45.61195" lon="4.79125">
        <ele>198</ele>
        <time>2012-03-17T07:12:49Z</time>
      </trkpt>
      <trkpt lat="45.612" lon="4.79103">
        <ele>200</ele>
        <time>2012-03-17T07:12:55Z</time>
      </trkpt>
      <trkpt lat="45.61191" lon="4.79058">
        <ele>201</ele>
        <time>2012-03-17T07:13:05Z</time>
      </trkpt>
      <trkpt lat="45.61178" lon="4.79005">
        <ele>201</ele>
        <time>2012-03-17T07:13:16Z</time>
      </trkpt>
      <trkpt lat="45.61174" lon="4.78988">
        <ele>201</ele>
        <time>2012-03-17T07:13:19Z</time>
      </trkpt>
      <trkpt lat="45.61169" lon="4.78965">
        <ele>201</ele>
        <time>2012-03-17T07:13:23Z</time>
      </trkpt>
      <trkpt lat="45.61161" lon="4.78935">
        <ele>200</ele>
        <time>2012-03-17T07:13:28Z</time>
      </trkpt>
      <trkpt lat="45.6116" lon="4.78929">
        <ele>200</ele>
        <time>2012-03-17T07:13:29Z</time>
      </trkpt>
      <trkpt lat="45.6116" lon="4.78922">
        <ele>201</ele>
        <time>2012-03-17T07:13:30Z</time>
      </trkpt>
      <trkpt lat="45.61162" lon="4.78916">
        <ele>200</ele>
        <time>2012-03-17T07:13:31Z</time>
      </trkpt>
      <trkpt lat="45.61165" lon="4.78912">
        <ele>201</ele>
        <time>2012-03-17T07:13:32Z</time>
      </trkpt>
      <trkpt lat="45.61168" lon="4.78908">
        <ele>201</ele>
        <time>2012-03-17T07:13:33Z</time>
      </trkpt>
      <trkpt lat="45.61185" lon="4.78882">
        <ele>202</ele>
        <time>2012-03-17T07:13:40Z</time>
      </trkpt>
      <trkpt lat="45.61197" lon="4.78859">
        <ele>203</ele>
        <time>2012-03-17T07:13:47Z</time>
      </trkpt>
      <trkpt lat="45.61197" lon="4.78854">
        <ele>203</ele>
        <time>2012-03-17T07:13:48Z</time>
      </trkpt>
      <trkpt lat="45.61196" lon="4.7885">
        <ele>204</ele>
        <time>2012-03-17T07:13:49Z</time>
      </trkpt>
      <trkpt lat="45.61187" lon="4.78806">
        <ele>202</ele>
        <time>2012-03-17T07:13:57Z</time>
      </trkpt>
      <trkpt lat="45.61169" lon="4.78731">
        <ele>201</ele>
        <time>2012-03-17T07:14:08Z</time>
      </trkpt>
      <trkpt lat="45.61168" lon="4.78725">
        <ele>202</ele>
        <time>2012-03-17T07:14:09Z</time>
      </trkpt>
      <trkpt lat="45.61158" lon="4.78671">
        <ele>202</ele>
        <time>2012-03-17T07:14:18Z</time>
      </trkpt>
      <trkpt lat="45.61143" lon="4.78604">
        <ele>201</ele>
        <time>2012-03-17T07:14:28Z</time>
      </trkpt>
      <trkpt lat="45.61138" lon="4.7858">
        <ele>201</ele>
        <time>2012-03-17T07:14:31Z</time>
      </trkpt>
      <trkpt lat="45.61134" lon="4.78565">
        <ele>201</ele>
        <time>2012-03-17T07:14:33Z</time>
      </trkpt>
      <trkpt lat="45.61132" lon="4.78557">
        <ele>201</ele>
        <time>2012-03-17T07:14:34Z</time>
      </trkpt>
      <trkpt lat="45.61131" lon="4.78548">
        <ele>201</ele>
        <time>2012-03-17T07:14:35Z</time>
      </trkpt>
      <trkpt lat="45.61128" lon="4.78531">
        <ele>200</ele>
        <time>2012-03-17T07:14:37Z</time>
      </trkpt>
      <trkpt lat="45.61127" lon="4.78473">
        <ele>199</ele>
        <time>2012-03-17T07:14:44Z</time>
      </trkpt>
      <trkpt lat="45.61128" lon="4.78466">
        <ele>200</ele>
        <time>2012-03-17T07:14:45Z</time>
      </trkpt>
      <trkpt lat="45.6113" lon="4.78451">
        <ele>199</ele>
        <time>2012-03-17T07:14:47Z</time>
      </trkpt>
      <trkpt lat="45.6113" lon="4.78442">
        <ele>200</ele>
        <time>2012-03-17T07:14:48Z</time>
      </trkpt>
      <trkpt lat="45.6113" lon="4.78434">
        <ele>199</ele>
        <time>2012-03-17T07:14:49Z</time>
      </trkpt>
      <trkpt lat="45.61128" lon="4.78426">
        <ele>200</ele>
        <time>2012-03-17T07:14:50Z</time>
      </trkpt>
      <trkpt lat="45.61126" lon="4.78418">
        <ele>199</ele>
        <time>2012-03-17T07:14:51Z</time>
      </trkpt>
      <trkpt lat="45.61123" lon="4.7841">
        <ele>199</ele>
        <time>2012-03-17T07:14:52Z</time>
      </trkpt>
      <trkpt lat="45.6112" lon="4.78403">
        <ele>199</ele>
        <time>2012-03-17T07:14:53Z</time>
      </trkpt>
      <trkpt lat="45.61115" lon="4.78396">
        <ele>199</ele>
        <time>2012-03-17T07:14:54Z</time>
      </trkpt>
      <trkpt lat="45.6111" lon="4.78391">
        <ele>199</ele>
        <time>2012-03-17T07:14:55Z</time>
      </trkpt>
      <trkpt lat="45.61105" lon="4.78386">
        <ele>199</ele>
        <time>2012-03-17T07:14:56Z</time>
      </trkpt>
      <trkpt lat="45.61099" lon="4.78382">
        <ele>197</ele>
        <time>2012-03-17T07:14:57Z</time>
      </trkpt>
      <trkpt lat="45.61092" lon="4.7838">
        <ele>198</ele>
        <time>2012-03-17T07:14:58Z</time>
      </trkpt>
      <trkpt lat="45.61085" lon="4.78378">
        <ele>197</ele>
        <time>2012-03-17T07:14:59Z</time>
      </trkpt>
      <trkpt lat="45.61077" lon="4.78377">
        <ele>197</ele>
        <time>2012-03-17T07:15:00Z</time>
      </trkpt>
      <trkpt lat="45.61062" lon="4.78374">
        <ele>196</ele>
        <time>2012-03-17T07:15:02Z</time>
      </trkpt>
      <trkpt lat="45.61013" lon="4.7837">
        <ele>194</ele>
        <time>2012-03-17T07:15:09Z</time>
      </trkpt>
      <trkpt lat="45.61007" lon="4.7837">
        <ele>194</ele>
        <time>2012-03-17T07:15:10Z</time>
      </trkpt>
      <trkpt lat="45.61001" lon="4.78367">
        <ele>193</ele>
        <time>2012-03-17T07:15:11Z</time>
      </trkpt>
      <trkpt lat="45.60998" lon="4.78361">
        <ele>194</ele>
        <time>2012-03-17T07:15:12Z</time>
      </trkpt>
      <trkpt lat="45.60996" lon="4.78353">
        <ele>193</ele>
        <time>2012-03-17T07:15:13Z</time>
      </trkpt>
      <trkpt lat="45.60997" lon="4.78345">
        <ele>193</ele>
        <time>2012-03-17T07:15:14Z</time>
      </trkpt>
      <trkpt lat="45.60997" lon="4.78338">
        <ele>193</ele>
        <time>2012-03-17T07:15:15Z</time>
      </trkpt>
      <trkpt lat="45.60997" lon="4.78329">
        <ele>193</ele>
        <time>2012-03-17T07:15:16Z</time>
      </trkpt>
      <trkpt lat="45.60994" lon="4.78257">
        <ele>193</ele>
        <time>2012-03-17T07:15:25Z</time>
      </trkpt>
      <trkpt lat="45.61001" lon="4.782">
        <ele>192</ele>
        <time>2012-03-17T07:15:32Z</time>
      </trkpt>
      <trkpt lat="45.61021" lon="4.78122">
        <ele>190</ele>
        <time>2012-03-17T07:15:41Z</time>
      </trkpt>
      <trkpt lat="45.61022" lon="4.78113">
        <ele>190</ele>
        <time>2012-03-17T07:15:42Z</time>
      </trkpt>
      <trkpt lat="45.61024" lon="4.78103">
        <ele>189</ele>
        <time>2012-03-17T07:15:43Z</time>
      </trkpt>
      <trkpt lat="45.61024" lon="4.78092">
        <ele>189</ele>
        <time>2012-03-17T07:15:44Z</time>
      </trkpt>
      <trkpt lat="45.61024" lon="4.78056">
        <ele>187</ele>
        <time>2012-03-17T07:15:47Z</time>
      </trkpt>
      <trkpt lat="45.61018" lon="4.78001">
        <ele>183</ele>
        <time>2012-03-17T07:15:51Z</time>
      </trkpt>
      <trkpt lat="45.61011" lon="4.77929">
        <ele>180</ele>
        <time>2012-03-17T07:15:56Z</time>
      </trkpt>
      <trkpt lat="45.61014" lon="4.77915">
        <ele>179</ele>
        <time>2012-03-17T07:15:57Z</time>
      </trkpt>
      <trkpt lat="45.61018" lon="4.77902">
        <ele>177</ele>
        <time>2012-03-17T07:15:58Z</time>
      </trkpt>
      <trkpt lat="45.61023" lon="4.77891">
        <ele>178</ele>
        <time>2012-03-17T07:15:59Z</time>
      </trkpt>
      <trkpt lat="45.61025" lon="4.77881">
        <ele>177</ele>
        <time>2012-03-17T07:16:00Z</time>
      </trkpt>
      <trkpt lat="45.61026" lon="4.7787">
        <ele>176</ele>
        <time>2012-03-17T07:16:01Z</time>
      </trkpt>
      <trkpt lat="45.61024" lon="4.77859">
        <ele>176</ele>
        <time>2012-03-17T07:16:02Z</time>
      </trkpt>
      <trkpt lat="45.61022" lon="4.77848">
        <ele>175</ele>
        <time>2012-03-17T07:16:03Z</time>
      </trkpt>
      <trkpt lat="45.61002" lon="4.77787">
        <ele>172</ele>
        <time>2012-03-17T07:16:08Z</time>
      </trkpt>
      <trkpt lat="45.60996" lon="4.77775">
        <ele>172</ele>
        <time>2012-03-17T07:16:09Z</time>
      </trkpt>
      <trkpt lat="45.60987" lon="4.77748">
        <ele>170</ele>
        <time>2012-03-17T07:16:11Z</time>
      </trkpt>
      <trkpt lat="45.60984" lon="4.77735">
        <ele>170</ele>
        <time>2012-03-17T07:16:12Z</time>
      </trkpt>
      <trkpt lat="45.60966" lon="4.77655">
        <ele>166</ele>
        <time>2012-03-17T07:16:18Z</time>
      </trkpt>
      <trkpt lat="45.60954" lon="4.77604">
        <ele>165</ele>
        <time>2012-03-17T07:16:23Z</time>
      </trkpt>
      <trkpt lat="45.60951" lon="4.77585">
        <ele>164</ele>
        <time>2012-03-17T07:16:27Z</time>
      </trkpt>
      <trkpt lat="45.60945" lon="4.77565">
        <ele>164</ele>
        <time>2012-03-17T07:16:32Z</time>
      </trkpt>
      <trkpt lat="45.60943" lon="4.77558">
        <ele>164</ele>
        <time>2012-03-17T07:16:33Z</time>
      </trkpt>
      <trkpt lat="45.60942" lon="4.7755">
        <ele>164</ele>
        <time>2012-03-17T07:16:34Z</time>
      </trkpt>
      <trkpt lat="45.60932" lon="4.77502">
        <ele>164</ele>
        <time>2012-03-17T07:16:39Z</time>
      </trkpt>
      <trkpt lat="45.60931" lon="4.77493">
        <ele>164</ele>
        <time>2012-03-17T07:16:40Z</time>
      </trkpt>
      <trkpt lat="45.60932" lon="4.77483">
        <ele>164</ele>
        <time>2012-03-17T07:16:41Z</time>
      </trkpt>
      <trkpt lat="45.60933" lon="4.77474">
        <ele>165</ele>
        <time>2012-03-17T07:16:42Z</time>
      </trkpt>
      <trkpt lat="45.60935" lon="4.77466">
        <ele>165</ele>
        <time>2012-03-17T07:16:43Z</time>
      </trkpt>
      <trkpt lat="45.60937" lon="4.77458">
        <ele>165</ele>
        <time>2012-03-17T07:16:44Z</time>
      </trkpt>
      <trkpt lat="45.60956" lon="4.77397">
        <ele>164</ele>
        <time>2012-03-17T07:16:51Z</time>
      </trkpt>
      <trkpt lat="45.60968" lon="4.77346">
        <ele>165</ele>
        <time>2012-03-17T07:16:57Z</time>
      </trkpt>
      <trkpt lat="45.60974" lon="4.77292">
        <ele>165</ele>
        <time>2012-03-17T07:17:04Z</time>
      </trkpt>
      <trkpt lat="45.60981" lon="4.77232">
        <ele>165</ele>
        <time>2012-03-17T07:17:12Z</time>
      </trkpt>
      <trkpt lat="45.60984" lon="4.77185">
        <ele>166</ele>
        <time>2012-03-17T07:17:19Z</time>
      </trkpt>
      <trkpt lat="45.60981" lon="4.77152">
        <ele>166</ele>
        <time>2012-03-17T07:17:25Z</time>
      </trkpt>
      <trkpt lat="45.60977" lon="4.77124">
        <ele>167</ele>
        <time>2012-03-17T07:17:32Z</time>
      </trkpt>
      <trkpt lat="45.60975" lon="4.77104">
        <ele>169</ele>
        <time>2012-03-17T07:17:39Z</time>
      </trkpt>
      <trkpt lat="45.60974" lon="4.77089">
        <ele>171</ele>
        <time>2012-03-17T07:17:45Z</time>
      </trkpt>
      <trkpt lat="45.60977" lon="4.77076">
        <ele>173</ele>
        <time>2012-03-17T07:17:51Z</time>
      </trkpt>
      <trkpt lat="45.60978" lon="4.77074">
        <ele>173</ele>
        <time>2012-03-17T07:17:52Z</time>
      </trkpt>
      <trkpt lat="45.60979" lon="4.77072">
        <ele>173</ele>
        <time>2012-03-17T07:17:53Z</time>
      </trkpt>
      <trkpt lat="45.6098" lon="4.77071">
        <ele>173</ele>
        <time>2012-03-17T07:17:54Z</time>
      </trkpt>
      <trkpt lat="45.60981" lon="4.77069">
        <ele>174</ele>
        <time>2012-03-17T07:17:55Z</time>
      </trkpt>
      <trkpt lat="45.60983" lon="4.77066">
        <ele>175</ele>
        <time>2012-03-17T07:17:57Z</time>
      </trkpt>
      <trkpt lat="45.60989" lon="4.77056">
        <ele>176</ele>
        <time>2012-03-17T07:18:03Z</time>
      </trkpt>
      <trkpt lat="45.60995" lon="4.77045">
        <ele>177</ele>
        <time>2012-03-17T07:18:10Z</time>
      </trkpt>
      <trkpt lat="45.60997" lon="4.77039">
        <ele>178</ele>
        <time>2012-03-17T07:18:14Z</time>
      </trkpt>
      <trkpt lat="45.60998" lon="4.77038">
        <ele>179</ele>
        <time>2012-03-17T07:18:15Z</time>
      </trkpt>
      <trkpt lat="45.60999" lon="4.77036">
        <ele>178</ele>
        <time>2012-03-17T07:18:16Z</time>
      </trkpt>
      <trkpt lat="45.60999" lon="4.77034">
        <ele>179</ele>
        <time>2012-03-17T07:18:17Z</time>
      </trkpt>
      <trkpt lat="45.61" lon="4.77033">
        <ele>179</ele>
        <time>2012-03-17T07:18:18Z</time>
      </trkpt>
      <trkpt lat="45.61001" lon="4.77032">
        <ele>179</ele>
        <time>2012-03-17T07:18:19Z</time>
      </trkpt>
      <trkpt lat="45.61008" lon="4.77024">
        <ele>181</ele>
        <time>2012-03-17T07:18:27Z</time>
      </trkpt>
      <trkpt lat="45.61011" lon="4.77022">
        <ele>181</ele>
        <time>2012-03-17T07:18:29Z</time>
      </trkpt>
      <trkpt lat="45.61013" lon="4.77021">
        <ele>182</ele>
        <time>2012-03-17T07:18:30Z</time>
      </trkpt>
      <trkpt lat="45.61014" lon="4.77019">
        <ele>182</ele>
        <time>2012-03-17T07:18:31Z</time>
      </trkpt>
      <trkpt lat="45.61016" lon="4.77019">
        <ele>182</ele>
        <time>2012-03-17T07:18:32Z</time>
      </trkpt>
      <trkpt lat="45.61018" lon="4.77018">
        <ele>182</ele>
        <time>2012-03-17T07:18:33Z</time>
      </trkpt>
      <trkpt lat="45.61019" lon="4.77016">
        <ele>182</ele>
        <time>2012-03-17T07:18:34Z</time>
      </trkpt>
      <trkpt lat="45.6102" lon="4.77015">
        <ele>183</ele>
        <time>2012-03-17T07:18:35Z</time>
      </trkpt>
      <trkpt lat="45.61021" lon="4.77014">
        <ele>183</ele>
        <time>2012-03-17T07:18:36Z</time>
      </trkpt>
      <trkpt lat="45.61022" lon="4.77013">
        <ele>183</ele>
        <time>2012-03-17T07:18:37Z</time>
      </trkpt>
      <trkpt lat="45.61023" lon="4.77011">
        <ele>183</ele>
        <time>2012-03-17T07:18:38Z</time>
      </trkpt>
      <trkpt lat="45.61024" lon="4.7701">
        <ele>183</ele>
        <time>2012-03-17T07:18:39Z</time>
      </trkpt>
      <trkpt lat="45.61025" lon="4.7701">
        <ele>184</ele>
        <time>2012-03-17T07:18:40Z</time>
      </trkpt>
      <trkpt lat="45.61026" lon="4.77009">
        <ele>184</ele>
        <time>2012-03-17T07:18:41Z</time>
      </trkpt>
      <trkpt lat="45.61028" lon="4.77007">
        <ele>184</ele>
        <time>2012-03-17T07:18:42Z</time>
      </trkpt>
      <trkpt lat="45.61029" lon="4.77006">
        <ele>185</ele>
        <time>2012-03-17T07:18:43Z</time>
      </trkpt>
      <trkpt lat="45.6103" lon="4.77004">
        <ele>185</ele>
        <time>2012-03-17T07:18:44Z</time>
      </trkpt>
      <trkpt lat="45.61042" lon="4.76993">
        <ele>188</ele>
        <time>2012-03-17T07:18:54Z</time>
      </trkpt>
      <trkpt lat="45.6105" lon="4.76985">
        <ele>190</ele>
        <time>2012-03-17T07:19:01Z</time>
      </trkpt>
      <trkpt lat="45.61058" lon="4.76976">
        <ele>192</ele>
        <time>2012-03-17T07:19:10Z</time>
      </trkpt>
      <trkpt lat="45.61062" lon="4.76973">
        <ele>192</ele>
        <time>2012-03-17T07:19:14Z</time>
      </trkpt>
      <trkpt lat="45.61063" lon="4.76973">
        <ele>192</ele>
        <time>2012-03-17T07:19:15Z</time>
      </trkpt>
      <trkpt lat="45.61072" lon="4.76964">
        <ele>194</ele>
        <time>2012-03-17T07:19:24Z</time>
      </trkpt>
      <trkpt lat="45.61077" lon="4.76954">
        <ele>196</ele>
        <time>2012-03-17T07:19:31Z</time>
      </trkpt>
      <trkpt lat="45.61077" lon="4.76948">
        <ele>197</ele>
        <time>2012-03-17T07:19:34Z</time>
      </trkpt>
      <trkpt lat="45.61077" lon="4.76946">
        <ele>197</ele>
        <time>2012-03-17T07:19:35Z</time>
      </trkpt>
      <trkpt lat="45.61076" lon="4.76944">
        <ele>198</ele>
        <time>2012-03-17T07:19:36Z</time>
      </trkpt>
      <trkpt lat="45.61076" lon="4.76942">
        <ele>197</ele>
        <time>2012-03-17T07:19:37Z</time>
      </trkpt>
      <trkpt lat="45.61075" lon="4.7694">
        <ele>197</ele>
        <time>2012-03-17T07:19:38Z</time>
      </trkpt>
      <trkpt lat="45.61075" lon="4.76938">
        <ele>197</ele>
        <time>2012-03-17T07:19:39Z</time>
      </trkpt>
      <trkpt lat="45.61074" lon="4.76937">
        <ele>197</ele>
        <time>2012-03-17T07:19:40Z</time>
      </trkpt>
      <trkpt lat="45.61074" lon="4.76935">
        <ele>198</ele>
        <time>2012-03-17T07:19:41Z</time>
      </trkpt>
      <trkpt lat="45.61073" lon="4.7692">
        <ele>199</ele>
        <time>2012-03-17T07:19:49Z</time>
      </trkpt>
      <trkpt lat="45.61073" lon="4.76907">
        <ele>200</ele>
        <time>2012-03-17T07:19:56Z</time>
      </trkpt>
      <trkpt lat="45.61072" lon="4.76888">
        <ele>202</ele>
        <time>2012-03-17T07:20:05Z</time>
      </trkpt>
      <trkpt lat="45.6107" lon="4.7687">
        <ele>202</ele>
        <time>2012-03-17T07:20:13Z</time>
      </trkpt>
      <trkpt lat="45.61067" lon="4.7685">
        <ele>202</ele>
        <time>2012-03-17T07:20:22Z</time>
      </trkpt>
      <trkpt lat="45.61067" lon="4.76831">
        <ele>202</ele>
        <time>2012-03-17T07:20:30Z</time>
      </trkpt>
      <trkpt lat="45.61062" lon="4.76807">
        <ele>201</ele>
        <time>2012-03-17T07:20:39Z</time>
      </trkpt>
      <trkpt lat="45.6106" lon="4.76785">
        <ele>201</ele>
        <time>2012-03-17T07:20:46Z</time>
      </trkpt>
      <trkpt lat="45.61059" lon="4.76783">
        <ele>202</ele>
        <time>2012-03-17T07:20:47Z</time>
      </trkpt>
      <trkpt lat="45.61059" lon="4.76781">
        <ele>202</ele>
        <time>2012-03-17T07:20:48Z</time>
      </trkpt>
      <trkpt lat="45.61059" lon="4.76779">
        <ele>201</ele>
        <time>2012-03-17T07:20:49Z</time>
      </trkpt>
      <trkpt lat="45.61058" lon="4.76778">
        <ele>202</ele>
        <time>2012-03-17T07:20:50Z</time>
      </trkpt>
      <trkpt lat="45.61057" lon="4.76776">
        <ele>202</ele>
        <time>2012-03-17T07:20:51Z</time>
      </trkpt>
      <trkpt lat="45.61056" lon="4.76774">
        <ele>202</ele>
        <time>2012-03-17T07:20:52Z</time>
      </trkpt>
      <trkpt lat="45.61056" lon="4.76773">
        <ele>202</ele>
        <time>2012-03-17T07:20:58Z</time>
      </trkpt>
      <trkpt lat="45.61056" lon="4.76773">
        <ele>202</ele>
        <time>2012-03-17T07:21:20Z</time>
      </trkpt>
      <trkpt lat="45.61056" lon="4.76774">
        <ele>202</ele>
        <time>2012-03-17T07:21:41Z</time>
      </trkpt>
      <trkpt lat="45.61056" lon="4.76774">
        <ele>202</ele>
        <time>2012-03-17T07:21:42Z</time>
      </trkpt>
      <trkpt lat="45.61055" lon="4.76767">
        <ele>202</ele>
        <time>2012-03-17T07:21:51Z</time>
      </trkpt>
      <trkpt lat="45.61052" lon="4.76744">
        <ele>202</ele>
        <time>2012-03-17T07:21:58Z</time>
      </trkpt>
      <trkpt lat="45.61046" lon="4.76714">
        <ele>201</ele>
        <time>2012-03-17T07:22:05Z</time>
      </trkpt>
      <trkpt lat="45.61042" lon="4.76676">
        <ele>201</ele>
        <time>2012-03-17T07:22:13Z</time>
      </trkpt>
      <trkpt lat="45.61039" lon="4.76644">
        <ele>201</ele>
        <time>2012-03-17T07:22:20Z</time>
      </trkpt>
      <trkpt lat="45.61037" lon="4.76641">
        <ele>201</ele>
        <time>2012-03-17T07:22:21Z</time>
      </trkpt>
      <trkpt lat="45.61034" lon="4.7664">
        <ele>201</ele>
        <time>2012-03-17T07:22:22Z</time>
      </trkpt>
      <trkpt lat="45.61031" lon="4.76639">
        <ele>201</ele>
        <time>2012-03-17T07:22:23Z</time>
      </trkpt>
      <trkpt lat="45.61029" lon="4.76628">
        <ele>200</ele>
        <time>2012-03-17T07:22:26Z</time>
      </trkpt>
      <trkpt lat="45.61032" lon="4.76613">
        <ele>200</ele>
        <time>2012-03-17T07:22:29Z</time>
      </trkpt>
      <trkpt lat="45.61034" lon="4.76607">
        <ele>199</ele>
        <time>2012-03-17T07:22:30Z</time>
      </trkpt>
      <trkpt lat="45.61037" lon="4.766">
        <ele>199</ele>
        <time>2012-03-17T07:22:31Z</time>
      </trkpt>
      <trkpt lat="45.61039" lon="4.76591">
        <ele>198</ele>
        <time>2012-03-17T07:22:32Z</time>
      </trkpt>
      <trkpt lat="45.6104" lon="4.76583">
        <ele>197</ele>
        <time>2012-03-17T07:22:33Z</time>
      </trkpt>
      <trkpt lat="45.61042" lon="4.76574">
        <ele>196</ele>
        <time>2012-03-17T07:22:34Z</time>
      </trkpt>
      <trkpt lat="45.61045" lon="4.76567">
        <ele>195</ele>
        <time>2012-03-17T07:22:35Z</time>
      </trkpt>
      <trkpt lat="45.61046" lon="4.76562">
        <ele>194</ele>
        <time>2012-03-17T07:22:36Z</time>
      </trkpt>
      <trkpt lat="45.61046" lon="4.76556">
        <ele>194</ele>
        <time>2012-03-17T07:22:37Z</time>
      </trkpt>
      <trkpt lat="45.61046" lon="4.7655">
        <ele>193</ele>
        <time>2012-03-17T07:22:38Z</time>
      </trkpt>
      <trkpt lat="45.61046" lon="4.76543">
        <ele>192</ele>
        <time>2012-03-17T07:22:39Z</time>
      </trkpt>
      <trkpt lat="45.61045" lon="4.76538">
        <ele>191</ele>
        <time>2012-03-17T07:22:40Z</time>
      </trkpt>
      <trkpt lat="45.61044" lon="4.76533">
        <ele>190</ele>
        <time>2012-03-17T07:22:41Z</time>
      </trkpt>
      <trkpt lat="45.61045" lon="4.76528">
        <ele>190</ele>
        <time>2012-03-17T07:22:42Z</time>
      </trkpt>
      <trkpt lat="45.61046" lon="4.76523">
        <ele>189</ele>
        <time>2012-03-17T07:22:43Z</time>
      </trkpt>
      <trkpt lat="45.61048" lon="4.76517">
        <ele>189</ele>
        <time>2012-03-17T07:22:44Z</time>
      </trkpt>
      <trkpt lat="45.61048" lon="4.76511">
        <ele>188</ele>
        <time>2012-03-17T07:22:45Z</time>
      </trkpt>
      <trkpt lat="45.61046" lon="4.76505">
        <ele>187</ele>
        <time>2012-03-17T07:22:46Z</time>
      </trkpt>
      <trkpt lat="45.61046" lon="4.765">
        <ele>186</ele>
        <time>2012-03-17T07:22:47Z</time>
      </trkpt>
      <trkpt lat="45.61046" lon="4.76493">
        <ele>185</ele>
        <time>2012-03-17T07:22:48Z</time>
      </trkpt>
      <trkpt lat="45.61048" lon="4.76485">
        <ele>185</ele>
        <time>2012-03-17T07:22:49Z</time>
      </trkpt>
      <trkpt lat="45.61052" lon="4.76477">
        <ele>184</ele>
        <time>2012-03-17T07:22:50Z</time>
      </trkpt>
      <trkpt lat="45.61056" lon="4.76471">
        <ele>182</ele>
        <time>2012-03-17T07:22:51Z</time>
      </trkpt>
      <trkpt lat="45.61061" lon="4.76466">
        <ele>180</ele>
        <time>2012-03-17T07:22:52Z</time>
      </trkpt>
      <trkpt lat="45.61066" lon="4.76464">
        <ele>180</ele>
        <time>2012-03-17T07:22:53Z</time>
      </trkpt>
      <trkpt lat="45.61071" lon="4.76464">
        <ele>178</ele>
        <time>2012-03-17T07:22:54Z</time>
      </trkpt>
      <trkpt lat="45.61077" lon="4.76466">
        <ele>178</ele>
        <time>2012-03-17T07:22:55Z</time>
      </trkpt>
      <trkpt lat="45.61082" lon="4.76468">
        <ele>178</ele>
        <time>2012-03-17T07:22:56Z</time>
      </trkpt>
      <trkpt lat="45.61096" lon="4.76475">
        <ele>178</ele>
        <time>2012-03-17T07:22:59Z</time>
      </trkpt>
      <trkpt lat="45.611" lon="4.76476">
        <ele>178</ele>
        <time>2012-03-17T07:23:00Z</time>
      </trkpt>
      <trkpt lat="45.61103" lon="4.76476">
        <ele>178</ele>
        <time>2012-03-17T07:23:01Z</time>
      </trkpt>
      <trkpt lat="45.61106" lon="4.76475">
        <ele>178</ele>
        <time>2012-03-17T07:23:02Z</time>
      </trkpt>
      <trkpt lat="45.6111" lon="4.76473">
        <ele>178</ele>
        <time>2012-03-17T07:23:03Z</time>
      </trkpt>
      <trkpt lat="45.61114" lon="4.7647">
        <ele>177</ele>
        <time>2012-03-17T07:23:04Z</time>
      </trkpt>
      <trkpt lat="45.61119" lon="4.76466">
        <ele>177</ele>
        <time>2012-03-17T07:23:05Z</time>
      </trkpt>
      <trkpt lat="45.61123" lon="4.76461">
        <ele>176</ele>
        <time>2012-03-17T07:23:06Z</time>
      </trkpt>
      <trkpt lat="45.61134" lon="4.76449">
        <ele>174</ele>
        <time>2012-03-17T07:23:08Z</time>
      </trkpt>
      <trkpt lat="45.61139" lon="4.76441">
        <ele>174</ele>
        <time>2012-03-17T07:23:09Z</time>
      </trkpt>
      <trkpt lat="45.61145" lon="4.76434">
        <ele>173</ele>
        <time>2012-03-17T07:23:10Z</time>
      </trkpt>
      <trkpt lat="45.61151" lon="4.76427">
        <ele>173</ele>
        <time>2012-03-17T07:23:11Z</time>
      </trkpt>
      <trkpt lat="45.61158" lon="4.76417">
        <ele>172</ele>
        <time>2012-03-17T07:23:12Z</time>
      </trkpt>
      <trkpt lat="45.61174" lon="4.7639">
        <ele>171</ele>
        <time>2012-03-17T07:23:15Z</time>
      </trkpt>
      <trkpt lat="45.61179" lon="4.76384">
        <ele>171</ele>
        <time>2012-03-17T07:23:16Z</time>
      </trkpt>
      <trkpt lat="45.61192" lon="4.76373">
        <ele>172</ele>
        <time>2012-03-17T07:23:19Z</time>
      </trkpt>
      <trkpt lat="45.61195" lon="4.76369">
        <ele>173</ele>
        <time>2012-03-17T07:23:20Z</time>
      </trkpt>
      <trkpt lat="45.61202" lon="4.76345">
        <ele>174</ele>
        <time>2012-03-17T07:23:26Z</time>
      </trkpt>
      <trkpt lat="45.61205" lon="4.7633">
        <ele>174</ele>
        <time>2012-03-17T07:23:30Z</time>
      </trkpt>
      <trkpt lat="45.61206" lon="4.76327">
        <ele>174</ele>
        <time>2012-03-17T07:23:31Z</time>
      </trkpt>
      <trkpt lat="45.61208" lon="4.76313">
        <ele>174</ele>
        <time>2012-03-17T07:23:35Z</time>
      </trkpt>
      <trkpt lat="45.61208" lon="4.76309">
        <ele>174</ele>
        <time>2012-03-17T07:23:36Z</time>
      </trkpt>
      <trkpt lat="45.61201" lon="4.7629">
        <ele>173</ele>
        <time>2012-03-17T07:23:39Z</time>
      </trkpt>
      <trkpt lat="45.61192" lon="4.76262">
        <ele>171</ele>
        <time>2012-03-17T07:23:42Z</time>
      </trkpt>
      <trkpt lat="45.61185" lon="4.76231">
        <ele>169</ele>
        <time>2012-03-17T07:23:45Z</time>
      </trkpt>
      <trkpt lat="45.61184" lon="4.76222">
        <ele>168</ele>
        <time>2012-03-17T07:23:46Z</time>
      </trkpt>
      <trkpt lat="45.61184" lon="4.76213">
        <ele>168</ele>
        <time>2012-03-17T07:23:47Z</time>
      </trkpt>
      <trkpt lat="45.61186" lon="4.76206">
        <ele>168</ele>
        <time>2012-03-17T07:23:48Z</time>
      </trkpt>
      <trkpt lat="45.61189" lon="4.762">
        <ele>168</ele>
        <time>2012-03-17T07:23:49Z</time>
      </trkpt>
      <trkpt lat="45.61191" lon="4.76195">
        <ele>169</ele>
        <time>2012-03-17T07:23:50Z</time>
      </trkpt>
      <trkpt lat="45.61194" lon="4.7619">
        <ele>169</ele>
        <time>2012-03-17T07:23:51Z</time>
      </trkpt>
      <trkpt lat="45.61206" lon="4.76167">
        <ele>169</ele>
        <time>2012-03-17T07:23:57Z</time>
      </trkpt>
      <trkpt lat="45.61224" lon="4.76158">
        <ele>171</ele>
        <time>2012-03-17T07:24:03Z</time>
      </trkpt>
      <trkpt lat="45.61232" lon="4.76145">
        <ele>172</ele>
        <time>2012-03-17T07:24:07Z</time>
      </trkpt>
      <trkpt lat="45.61233" lon="4.76124">
        <ele>173</ele>
        <time>2012-03-17T07:24:12Z</time>
      </trkpt>
      <trkpt lat="45.61229" lon="4.76117">
        <ele>173</ele>
        <time>2012-03-17T07:24:14Z</time>
      </trkpt>
      <trkpt lat="45.61226" lon="4.76115">
        <ele>174</ele>
        <time>2012-03-17T07:24:15Z</time>
      </trkpt>
      <trkpt lat="45.61222" lon="4.76113">
        <ele>174</ele>
        <time>2012-03-17T07:24:16Z</time>
      </trkpt>
      <trkpt lat="45.61218" lon="4.76113">
        <ele>174</ele>
        <time>2012-03-17T07:24:17Z</time>
      </trkpt>
      <trkpt lat="45.61215" lon="4.76113">
        <ele>174</ele>
        <time>2012-03-17T07:24:18Z</time>
      </trkpt>
      <trkpt lat="45.61211" lon="4.76113">
        <ele>175</ele>
        <time>2012-03-17T07:24:19Z</time>
      </trkpt>
      <trkpt lat="45.6118" lon="4.76104">
        <ele>176</ele>
        <time>2012-03-17T07:24:28Z</time>
      </trkpt>
      <trkpt lat="45.61166" lon="4.76096">
        <ele>176</ele>
        <time>2012-03-17T07:24:32Z</time>
      </trkpt>
      <trkpt lat="45.61163" lon="4.76093">
        <ele>176</ele>
        <time>2012-03-17T07:24:33Z</time>
      </trkpt>
      <trkpt lat="45.61143" lon="4.7608">
        <ele>176</ele>
        <time>2012-03-17T07:24:39Z</time>
      </trkpt>
      <trkpt lat="45.61131" lon="4.76071">
        <ele>176</ele>
        <time>2012-03-17T07:24:42Z</time>
      </trkpt>
      <trkpt lat="45.61095" lon="4.76052">
        <ele>173</ele>
        <time>2012-03-17T07:24:49Z</time>
      </trkpt>
      <trkpt lat="45.61089" lon="4.76051">
        <ele>173</ele>
        <time>2012-03-17T07:24:50Z</time>
      </trkpt>
      <trkpt lat="45.61083" lon="4.7605">
        <ele>172</ele>
        <time>2012-03-17T07:24:51Z</time>
      </trkpt>
      <trkpt lat="45.61077" lon="4.76051">
        <ele>172</ele>
        <time>2012-03-17T07:24:52Z</time>
      </trkpt>
      <trkpt lat="45.61071" lon="4.76051">
        <ele>171</ele>
        <time>2012-03-17T07:24:53Z</time>
      </trkpt>
      <trkpt lat="45.61044" lon="4.76053">
        <ele>170</ele>
        <time>2012-03-17T07:24:58Z</time>
      </trkpt>
      <trkpt lat="45.61039" lon="4.76051">
        <ele>171</ele>
        <time>2012-03-17T07:24:59Z</time>
      </trkpt>
      <trkpt lat="45.61034" lon="4.76049">
        <ele>170</ele>
        <time>2012-03-17T07:25:00Z</time>
      </trkpt>
      <trkpt lat="45.6103" lon="4.76046">
        <ele>171</ele>
        <time>2012-03-17T07:25:01Z</time>
      </trkpt>
      <trkpt lat="45.61026" lon="4.76042">
        <ele>171</ele>
        <time>2012-03-17T07:25:02Z</time>
      </trkpt>
      <trkpt lat="45.61019" lon="4.76034">
        <ele>171</ele>
        <time>2012-03-17T07:25:04Z</time>
      </trkpt>
      <trkpt lat="45.6101" lon="4.7602">
        <ele>171</ele>
        <time>2012-03-17T07:25:07Z</time>
      </trkpt>
      <trkpt lat="45.60977" lon="4.75987">
        <ele>171</ele>
        <time>2012-03-17T07:25:16Z</time>
      </trkpt>
      <trkpt lat="45.60973" lon="4.75983">
        <ele>171</ele>
        <time>2012-03-17T07:25:17Z</time>
      </trkpt>
      <trkpt lat="45.6097" lon="4.75979">
        <ele>171</ele>
        <time>2012-03-17T07:25:18Z</time>
      </trkpt>
      <trkpt lat="45.60967" lon="4.75974">
        <ele>172</ele>
        <time>2012-03-17T07:25:19Z</time>
      </trkpt>
      <trkpt lat="45.60964" lon="4.75969">
        <ele>171</ele>
        <time>2012-03-17T07:25:20Z</time>
      </trkpt>
      <trkpt lat="45.60961" lon="4.75966">
        <ele>172</ele>
        <time>2012-03-17T07:25:21Z</time>
      </trkpt>
      <trkpt lat="45.60957" lon="4.75962">
        <ele>172</ele>
        <time>2012-03-17T07:25:22Z</time>
      </trkpt>
      <trkpt lat="45.60954" lon="4.75957">
        <ele>172</ele>
        <time>2012-03-17T07:25:23Z</time>
      </trkpt>
      <trkpt lat="45.60951" lon="4.75952">
        <ele>172</ele>
        <time>2012-03-17T07:25:24Z</time>
      </trkpt>
      <trkpt lat="45.60948" lon="4.75947">
        <ele>172</ele>
        <time>2012-03-17T07:25:25Z</time>
      </trkpt>
      <trkpt lat="45.60945" lon="4.75943">
        <ele>172</ele>
        <time>2012-03-17T07:25:26Z</time>
      </trkpt>
      <trkpt lat="45.60942" lon="4.75939">
        <ele>172</ele>
        <time>2012-03-17T07:25:27Z</time>
      </trkpt>
      <trkpt lat="45.60924" lon="4.75911">
        <ele>172</ele>
        <time>2012-03-17T07:25:33Z</time>
      </trkpt>
      <trkpt lat="45.6092" lon="4.759">
        <ele>172</ele>
        <time>2012-03-17T07:25:35Z</time>
      </trkpt>
      <trkpt lat="45.60918" lon="4.75895">
        <ele>172</ele>
        <time>2012-03-17T07:25:36Z</time>
      </trkpt>
      <trkpt lat="45.60916" lon="4.75889">
        <ele>172</ele>
        <time>2012-03-17T07:25:37Z</time>
      </trkpt>
      <trkpt lat="45.60906" lon="4.75844">
        <ele>173</ele>
        <time>2012-03-17T07:25:45Z</time>
      </trkpt>
      <trkpt lat="45.60899" lon="4.75801">
        <ele>174</ele>
        <time>2012-03-17T07:25:53Z</time>
      </trkpt>
      <trkpt lat="45.60886" lon="4.75784">
        <ele>174</ele>
        <time>2012-03-17T07:25:58Z</time>
      </trkpt>
      <trkpt lat="45.60875" lon="4.75777">
        <ele>175</ele>
        <time>2012-03-17T07:26:02Z</time>
      </trkpt>
      <trkpt lat="45.60875" lon="4.75773">
        <ele>175</ele>
        <time>2012-03-17T07:26:03Z</time>
      </trkpt>
      <trkpt lat="45.60875" lon="4.75768">
        <ele>174</ele>
        <time>2012-03-17T07:26:04Z</time>
      </trkpt>
      <trkpt lat="45.60879" lon="4.75731">
        <ele>175</ele>
        <time>2012-03-17T07:26:12Z</time>
      </trkpt>
      <trkpt lat="45.60873" lon="4.75703">
        <ele>176</ele>
        <time>2012-03-17T07:26:19Z</time>
      </trkpt>
      <trkpt lat="45.60866" lon="4.7568">
        <ele>177</ele>
        <time>2012-03-17T07:26:26Z</time>
      </trkpt>
      <trkpt lat="45.60857" lon="4.75659">
        <ele>179</ele>
        <time>2012-03-17T07:26:34Z</time>
      </trkpt>
      <trkpt lat="45.6085" lon="4.75641">
        <ele>182</ele>
        <time>2012-03-17T07:26:43Z</time>
      </trkpt>
      <trkpt lat="45.60843" lon="4.75633">
        <ele>184</ele>
        <time>2012-03-17T07:26:50Z</time>
      </trkpt>
      <trkpt lat="45.6084" lon="4.75628">
        <ele>185</ele>
        <time>2012-03-17T07:26:57Z</time>
      </trkpt>
      <trkpt lat="45.60838" lon="4.75624">
        <ele>188</ele>
        <time>2012-03-17T07:27:05Z</time>
      </trkpt>
      <trkpt lat="45.60838" lon="4.75622">
        <ele>188</ele>
        <time>2012-03-17T07:27:09Z</time>
      </trkpt>
      <trkpt lat="45.60837" lon="4.75617">
        <ele>189</ele>
        <time>2012-03-17T07:27:14Z</time>
      </trkpt>
      <trkpt lat="45.60838" lon="4.75604">
        <ele>191</ele>
        <time>2012-03-17T07:27:23Z</time>
      </trkpt>
      <trkpt lat="45.60838" lon="4.75595">
        <ele>192</ele>
        <time>2012-03-17T07:27:29Z</time>
      </trkpt>
      <trkpt lat="45.60838" lon="4.75594">
        <ele>192</ele>
        <time>2012-03-17T07:27:39Z</time>
      </trkpt>
      <trkpt lat="45.60837" lon="4.75592">
        <ele>192</ele>
        <time>2012-03-17T07:27:47Z</time>
      </trkpt>
      <trkpt lat="45.60837" lon="4.75589">
        <ele>193</ele>
        <time>2012-03-17T07:27:53Z</time>
      </trkpt>
      <trkpt lat="45.60838" lon="4.75576">
        <ele>195</ele>
        <time>2012-03-17T07:28:00Z</time>
      </trkpt>
      <trkpt lat="45.60839" lon="4.7556">
        <ele>196</ele>
        <time>2012-03-17T07:28:08Z</time>
      </trkpt>
      <trkpt lat="45.60839" lon="4.75557">
        <ele>196</ele>
        <time>2012-03-17T07:28:10Z</time>
      </trkpt>
      <trkpt lat="45.60839" lon="4.75556">
        <ele>197</ele>
        <time>2012-03-17T07:28:11Z</time>
      </trkpt>
      <trkpt lat="45.60837" lon="4.75539">
        <ele>198</ele>
        <time>2012-03-17T07:28:19Z</time>
      </trkpt>
      <trkpt lat="45.60836" lon="4.75533">
        <ele>200</ele>
        <time>2012-03-17T07:28:22Z</time>
      </trkpt>
      <trkpt lat="45.60835" lon="4.75531">
        <ele>200</ele>
        <time>2012-03-17T07:28:23Z</time>
      </trkpt>
      <trkpt lat="45.60835" lon="4.7553">
        <ele>200</ele>
        <time>2012-03-17T07:28:24Z</time>
      </trkpt>
      <trkpt lat="45.60834" lon="4.75528">
        <ele>201</ele>
        <time>2012-03-17T07:28:25Z</time>
      </trkpt>
      <trkpt lat="45.60832" lon="4.75521">
        <ele>202</ele>
        <time>2012-03-17T07:28:31Z</time>
      </trkpt>
      <trkpt lat="45.60833" lon="4.75517">
        <ele>204</ele>
        <time>2012-03-17T07:28:34Z</time>
      </trkpt>
      <trkpt lat="45.60832" lon="4.75515">
        <ele>204</ele>
        <time>2012-03-17T07:28:36Z</time>
      </trkpt>
      <trkpt lat="45.6083" lon="4.75514">
        <ele>205</ele>
        <time>2012-03-17T07:28:41Z</time>
      </trkpt>
      <trkpt lat="45.60828" lon="4.75519">
        <ele>206</ele>
        <time>2012-03-17T07:28:49Z</time>
      </trkpt>
      <trkpt lat="45.60823" lon="4.75516">
        <ele>207</ele>
        <time>2012-03-17T07:28:56Z</time>
      </trkpt>
      <trkpt lat="45.60819" lon="4.75514">
        <ele>208</ele>
        <time>2012-03-17T07:29:04Z</time>
      </trkpt>
      <trkpt lat="45.60815" lon="4.75515">
        <ele>209</ele>
        <time>2012-03-17T07:29:11Z</time>
      </trkpt>
      <trkpt lat="45.60812" lon="4.75517">
        <ele>210</ele>
        <time>2012-03-17T07:29:17Z</time>
      </trkpt>
      <trkpt lat="45.60808" lon="4.75519">
        <ele>211</ele>
        <time>2012-03-17T07:29:23Z</time>
      </trkpt>
      <trkpt lat="45.60805" lon="4.75521">
        <ele>212</ele>
        <time>2012-03-17T07:29:29Z</time>
      </trkpt>
      <trkpt lat="45.60804" lon="4.75521">
        <ele>212</ele>
        <time>2012-03-17T07:29:30Z</time>
      </trkpt>
      <trkpt lat="45.60799" lon="4.75516">
        <ele>214</ele>
        <time>2012-03-17T07:29:37Z</time>
      </trkpt>
      <trkpt lat="45.60795" lon="4.75511">
        <ele>215</ele>
        <time>2012-03-17T07:29:44Z</time>
      </trkpt>
      <trkpt lat="45.60793" lon="4.75505">
        <ele>216</ele>
        <time>2012-03-17T07:29:50Z</time>
      </trkpt>
      <trkpt lat="45.60791" lon="4.75503">
        <ele>217</ele>
        <time>2012-03-17T07:29:56Z</time>
      </trkpt>
      <trkpt lat="45.60791" lon="4.75503">
        <ele>217</ele>
        <time>2012-03-17T07:30:03Z</time>
      </trkpt>
      <trkpt lat="45.6079" lon="4.75503">
        <ele>217</ele>
        <time>2012-03-17T07:30:11Z</time>
      </trkpt>
      <trkpt lat="45.6079" lon="4.75503">
        <ele>217</ele>
        <time>2012-03-17T07:30:25Z</time>
      </trkpt>
      <trkpt lat="45.6079" lon="4.75503">
        <ele>216</ele>
        <time>2012-03-17T07:30:44Z</time>
      </trkpt>
      <trkpt lat="45.6079" lon="4.75503">
        <ele>217</ele>
        <time>2012-03-17T07:31:08Z</time>
      </trkpt>
      <trkpt lat="45.6079" lon="4.75503">
        <ele>216</ele>
        <time>2012-03-17T07:31:26Z</time>
      </trkpt>
      <trkpt lat="45.6079" lon="4.75503">
        <ele>217</ele>
        <time>2012-03-17T07:31:44Z</time>
      </trkpt>
      <trkpt lat="45.6079" lon="4.75503">
        <ele>217</ele>
        <time>2012-03-17T07:32:05Z</time>
      </trkpt>
      <trkpt lat="45.6079" lon="4.75503">
        <ele>217</ele>
        <time>2012-03-17T07:32:24Z</time>
      </trkpt>
      <trkpt lat="45.6079" lon="4.75503">
        <ele>218</ele>
        <time>2012-03-17T07:32:41Z</time>
      </trkpt>
      <trkpt lat="45.6079" lon="4.75502">
        <ele>217</ele>
        <time>2012-03-17T07:33:03Z</time>
      </trkpt>
      <trkpt lat="45.6079" lon="4.75502">
        <ele>217</ele>
        <time>2012-03-17T07:33:23Z</time>
      </trkpt>
      <trkpt lat="45.60789" lon="4.75502">
        <ele>217</ele>
        <time>2012-03-17T07:33:41Z</time>
      </trkpt>
      <trkpt lat="45.60789" lon="4.75502">
        <ele>217</ele>
        <time>2012-03-17T07:34:01Z</time>
      </trkpt>
      <trkpt lat="45.60789" lon="4.75502">
        <ele>217</ele>
        <time>2012-03-17T07:34:21Z</time>
      </trkpt>
      <trkpt lat="45.60789" lon="4.75502">
        <ele>217</ele>
        <time>2012-03-17T07:34:41Z</time>
      </trkpt>
      <trkpt lat="45.60789" lon="4.75501">
        <ele>218</ele>
        <time>2012-03-17T07:35:01Z</time>
      </trkpt>
      <trkpt lat="45.60789" lon="4.75501">
        <ele>218</ele>
        <time>2012-03-17T07:35:17Z</time>
      </trkpt>
      <trkpt lat="45.60789" lon="4.75501">
        <ele>218</ele>
        <time>2012-03-17T07:35:35Z</time>
      </trkpt>
      <trkpt lat="45.60789" lon="4.75501">
        <ele>217</ele>
        <time>2012-03-17T07:35:47Z</time>
      </trkpt>
      <trkpt lat="45.60776" lon="4.75498">
        <ele>217</ele>
        <time>2012-03-17T07:35:55Z</time>
      </trkpt>
      <trkpt lat="45.60766" lon="4.75491">
        <ele>216</ele>
        <time>2012-03-17T07:35:59Z</time>
      </trkpt>
      <trkpt lat="45.60762" lon="4.75485">
        <ele>217</ele>
        <time>2012-03-17T07:36:02Z</time>
      </trkpt>
      <trkpt lat="45.60753" lon="4.75482">
        <ele>218</ele>
        <time>2012-03-17T07:36:07Z</time>
      </trkpt>
      <trkpt lat="45.60736" lon="4.75478">
        <ele>220</ele>
        <time>2012-03-17T07:36:16Z</time>
      </trkpt>
      <trkpt lat="45.60734" lon="4.75478">
        <ele>220</ele>
        <time>2012-03-17T07:36:17Z</time>
      </trkpt>
      <trkpt lat="45.60722" lon="4.7547">
        <ele>221</ele>
        <time>2012-03-17T07:36:24Z</time>
      </trkpt>
      <trkpt lat="45.60716" lon="4.75466">
        <ele>222</ele>
        <time>2012-03-17T07:36:28Z</time>
      </trkpt>
      <trkpt lat="45.60709" lon="4.75458">
        <ele>224</ele>
        <time>2012-03-17T07:36:35Z</time>
      </trkpt>
      <trkpt lat="45.60701" lon="4.7545">
        <ele>226</ele>
        <time>2012-03-17T07:36:41Z</time>
      </trkpt>
      <trkpt lat="45.60696" lon="4.75445">
        <ele>227</ele>
        <time>2012-03-17T07:36:46Z</time>
      </trkpt>
      <trkpt lat="45.60693" lon="4.75443">
        <ele>227</ele>
        <time>2012-03-17T07:36:49Z</time>
      </trkpt>
      <trkpt lat="45.60676" lon="4.75439">
        <ele>227</ele>
        <time>2012-03-17T07:36:56Z</time>
      </trkpt>
      <trkpt lat="45.60663" lon="4.75435">
        <ele>227</ele>
        <time>2012-03-17T07:37:03Z</time>
      </trkpt>
      <trkpt lat="45.60654" lon="4.75434">
        <ele>227</ele>
        <time>2012-03-17T07:37:09Z</time>
      </trkpt>
      <trkpt lat="45.60641" lon="4.75429">
        <ele>229</ele>
        <time>2012-03-17T07:37:16Z</time>
      </trkpt>
      <trkpt lat="45.6064" lon="4.75427">
        <ele>229</ele>
        <time>2012-03-17T07:37:17Z</time>
      </trkpt>
      <trkpt lat="45.60638" lon="4.75424">
        <ele>230</ele>
        <time>2012-03-17T07:37:19Z</time>
      </trkpt>
      <trkpt lat="45.60629" lon="4.75419">
        <ele>231</ele>
        <time>2012-03-17T07:37:25Z</time>
      </trkpt>
      <trkpt lat="45.60623" lon="4.75415">
        <ele>233</ele>
        <time>2012-03-17T07:37:30Z</time>
      </trkpt>
      <trkpt lat="45.60625" lon="4.75406">
        <ele>233</ele>
        <time>2012-03-17T07:37:35Z</time>
      </trkpt>
      <trkpt lat="45.60628" lon="4.75406">
        <ele>235</ele>
        <time>2012-03-17T07:37:39Z</time>
      </trkpt>
      <trkpt lat="45.60636" lon="4.754">
        <ele>237</ele>
        <time>2012-03-17T07:37:46Z</time>
      </trkpt>
      <trkpt lat="45.60639" lon="4.75397">
        <ele>237</ele>
        <time>2012-03-17T07:37:53Z</time>
      </trkpt>
      <trkpt lat="45.60643" lon="4.75391">
        <ele>239</ele>
        <time>2012-03-17T07:38:01Z</time>
      </trkpt>
      <trkpt lat="45.60645" lon="4.75388">
        <ele>240</ele>
        <time>2012-03-17T07:38:04Z</time>
      </trkpt>
      <trkpt lat="45.60647" lon="4.75385">
        <ele>239</ele>
        <time>2012-03-17T07:38:11Z</time>
      </trkpt>
      <trkpt lat="45.60647" lon="4.75385">
        <ele>240</ele>
        <time>2012-03-17T07:38:20Z</time>
      </trkpt>
      <trkpt lat="45.60651" lon="4.75382">
        <ele>241</ele>
        <time>2012-03-17T07:38:26Z</time>
      </trkpt>
      <trkpt lat="45.60656" lon="4.7537">
        <ele>244</ele>
        <time>2012-03-17T07:38:32Z</time>
      </trkpt>
      <trkpt lat="45.60661" lon="4.75368">
        <ele>246</ele>
        <time>2012-03-17T07:38:38Z</time>
      </trkpt>
      <trkpt lat="45.60663" lon="4.75367">
        <ele>246</ele>
        <time>2012-03-17T07:38:47Z</time>
      </trkpt>
      <trkpt lat="45.60668" lon="4.75365">
        <ele>248</ele>
        <time>2012-03-17T07:38:54Z</time>
      </trkpt>
      <trkpt lat="45.6067" lon="4.75362">
        <ele>250</ele>
        <time>2012-03-17T07:38:58Z</time>
      </trkpt>
      <trkpt lat="45.60671" lon="4.75358">
        <ele>251</ele>
        <time>2012-03-17T07:39:05Z</time>
      </trkpt>
      <trkpt lat="45.60671" lon="4.75358">
        <ele>250</ele>
        <time>2012-03-17T07:39:15Z</time>
      </trkpt>
      <trkpt lat="45.60671" lon="4.75358">
        <ele>250</ele>
        <time>2012-03-17T07:39:27Z</time>
      </trkpt>
      <trkpt lat="45.60671" lon="4.75358">
        <ele>251</ele>
        <time>2012-03-17T07:39:36Z</time>
      </trkpt>
      <trkpt lat="45.60671" lon="4.75357">
        <ele>251</ele>
        <time>2012-03-17T07:39:37Z</time>
      </trkpt>
      <trkpt lat="45.60672" lon="4.75345">
        <ele>252</ele>
        <time>2012-03-17T07:39:42Z</time>
      </trkpt>
      <trkpt lat="45.60679" lon="4.75325">
        <ele>253</ele>
        <time>2012-03-17T07:39:51Z</time>
      </trkpt>
      <trkpt lat="45.60692" lon="4.75315">
        <ele>255</ele>
        <time>2012-03-17T07:39:59Z</time>
      </trkpt>
      <trkpt lat="45.607" lon="4.75312">
        <ele>257</ele>
        <time>2012-03-17T07:40:04Z</time>
      </trkpt>
      <trkpt lat="45.60709" lon="4.75305">
        <ele>257</ele>
        <time>2012-03-17T07:40:10Z</time>
      </trkpt>
      <trkpt lat="45.6071" lon="4.75303">
        <ele>257</ele>
        <time>2012-03-17T07:40:11Z</time>
      </trkpt>
      <trkpt lat="45.60712" lon="4.753">
        <ele>258</ele>
        <time>2012-03-17T07:40:13Z</time>
      </trkpt>
      <trkpt lat="45.6072" lon="4.75295">
        <ele>259</ele>
        <time>2012-03-17T07:40:18Z</time>
      </trkpt>
      <trkpt lat="45.60722" lon="4.75293">
        <ele>261</ele>
        <time>2012-03-17T07:40:20Z</time>
      </trkpt>
      <trkpt lat="45.60721" lon="4.75275">
        <ele>262</ele>
        <time>2012-03-17T07:40:28Z</time>
      </trkpt>
      <trkpt lat="45.60718" lon="4.75252">
        <ele>262</ele>
        <time>2012-03-17T07:40:37Z</time>
      </trkpt>
      <trkpt lat="45.60715" lon="4.75229">
        <ele>264</ele>
        <time>2012-03-17T07:40:46Z</time>
      </trkpt>
      <trkpt lat="45.60711" lon="4.752">
        <ele>266</ele>
        <time>2012-03-17T07:40:57Z</time>
      </trkpt>
      <trkpt lat="45.60707" lon="4.75178">
        <ele>267</ele>
        <time>2012-03-17T07:41:06Z</time>
      </trkpt>
      <trkpt lat="45.60707" lon="4.75164">
        <ele>269</ele>
        <time>2012-03-17T07:41:12Z</time>
      </trkpt>
      <trkpt lat="45.60706" lon="4.75154">
        <ele>270</ele>
        <time>2012-03-17T07:41:16Z</time>
      </trkpt>
      <trkpt lat="45.60705" lon="4.75137">
        <ele>270</ele>
        <time>2012-03-17T07:41:24Z</time>
      </trkpt>
      <trkpt lat="45.60706" lon="4.75118">
        <ele>272</ele>
        <time>2012-03-17T07:41:32Z</time>
      </trkpt>
      <trkpt lat="45.60706" lon="4.75102">
        <ele>272</ele>
        <time>2012-03-17T07:41:39Z</time>
      </trkpt>
      <trkpt lat="45.60708" lon="4.75079">
        <ele>274</ele>
        <time>2012-03-17T07:41:47Z</time>
      </trkpt>
      <trkpt lat="45.60712" lon="4.75053">
        <ele>275</ele>
        <time>2012-03-17T07:41:55Z</time>
      </trkpt>
      <trkpt lat="45.60719" lon="4.7503">
        <ele>274</ele>
        <time>2012-03-17T07:42:02Z</time>
      </trkpt>
      <trkpt lat="45.6073" lon="4.74998">
        <ele>273</ele>
        <time>2012-03-17T07:42:10Z</time>
      </trkpt>
      <trkpt lat="45.60742" lon="4.74969">
        <ele>273</ele>
        <time>2012-03-17T07:42:18Z</time>
      </trkpt>
      <trkpt lat="45.60752" lon="4.74953">
        <ele>273</ele>
        <time>2012-03-17T07:42:23Z</time>
      </trkpt>
      <trkpt lat="45.60758" lon="4.74927">
        <ele>275</ele>
        <time>2012-03-17T07:42:30Z</time>
      </trkpt>
      <trkpt lat="45.60758" lon="4.74894">
        <ele>276</ele>
        <time>2012-03-17T07:42:39Z</time>
      </trkpt>
      <trkpt lat="45.60758" lon="4.74867">
        <ele>277</ele>
        <time>2012-03-17T07:42:47Z</time>
      </trkpt>
      <trkpt lat="45.60758" lon="4.74832">
        <ele>279</ele>
        <time>2012-03-17T07:42:57Z</time>
      </trkpt>
      <trkpt lat="45.60759" lon="4.74805">
        <ele>281</ele>
        <time>2012-03-17T07:43:05Z</time>
      </trkpt>
      <trkpt lat="45.60757" lon="4.74775">
        <ele>283</ele>
        <time>2012-03-17T07:43:14Z</time>
      </trkpt>
      <trkpt lat="45.60754" lon="4.74747">
        <ele>284</ele>
        <time>2012-03-17T07:43:22Z</time>
      </trkpt>
      <trkpt lat="45.60751" lon="4.74704">
        <ele>285</ele>
        <time>2012-03-17T07:43:33Z</time>
      </trkpt>
      <trkpt lat="45.60747" lon="4.74663">
        <ele>286</ele>
        <time>2012-03-17T07:43:43Z</time>
      </trkpt>
      <trkpt lat="45.60744" lon="4.7463">
        <ele>286</ele>
        <time>2012-03-17T07:43:51Z</time>
      </trkpt>
      <trkpt lat="45.60739" lon="4.74592">
        <ele>287</ele>
        <time>2012-03-17T07:44:00Z</time>
      </trkpt>
      <trkpt lat="45.60735" lon="4.74546">
        <ele>286</ele>
        <time>2012-03-17T07:44:11Z</time>
      </trkpt>
      <trkpt lat="45.60733" lon="4.74513">
        <ele>288</ele>
        <time>2012-03-17T07:44:19Z</time>
      </trkpt>
      <trkpt lat="45.60733" lon="4.74472">
        <ele>289</ele>
        <time>2012-03-17T07:44:29Z</time>
      </trkpt>
      <trkpt lat="45.60732" lon="4.74441">
        <ele>290</ele>
        <time>2012-03-17T07:44:37Z</time>
      </trkpt>
      <trkpt lat="45.60732" lon="4.74413">
        <ele>291</ele>
        <time>2012-03-17T07:44:44Z</time>
      </trkpt>
      <trkpt lat="45.60733" lon="4.74376">
        <ele>292</ele>
        <time>2012-03-17T07:44:53Z</time>
      </trkpt>
      <trkpt lat="45.60736" lon="4.74349">
        <ele>293</ele>
        <time>2012-03-17T07:45:00Z</time>
      </trkpt>
      <trkpt lat="45.60738" lon="4.74313">
        <ele>295</ele>
        <time>2012-03-17T07:45:09Z</time>
      </trkpt>
      <trkpt lat="45.60737" lon="4.74277">
        <ele>296</ele>
        <time>2012-03-17T07:45:18Z</time>
      </trkpt>
      <trkpt lat="45.60734" lon="4.74244">
        <ele>297</ele>
        <time>2012-03-17T07:45:26Z</time>
      </trkpt>
      <trkpt lat="45.60733" lon="4.74205">
        <ele>298</ele>
        <time>2012-03-17T07:45:36Z</time>
      </trkpt>
      <trkpt lat="45.6073" lon="4.74167">
        <ele>297</ele>
        <time>2012-03-17T07:45:44Z</time>
      </trkpt>
      <trkpt lat="45.60728" lon="4.74144">
        <ele>297</ele>
        <time>2012-03-17T07:45:48Z</time>
      </trkpt>
      <trkpt lat="45.60718" lon="4.74124">
        <ele>297</ele>
        <time>2012-03-17T07:45:53Z</time>
      </trkpt>
      <trkpt lat="45.60697" lon="4.74106">
        <ele>298</ele>
        <time>2012-03-17T07:46:01Z</time>
      </trkpt>
      <trkpt lat="45.60679" lon="4.7409">
        <ele>299</ele>
        <time>2012-03-17T07:46:08Z</time>
      </trkpt>
      <trkpt lat="45.60655" lon="4.74066">
        <ele>301</ele>
        <time>2012-03-17T07:46:17Z</time>
      </trkpt>
      <trkpt lat="45.60641" lon="4.74041">
        <ele>301</ele>
        <time>2012-03-17T07:46:24Z</time>
      </trkpt>
      <trkpt lat="45.60622" lon="4.74015">
        <ele>300</ele>
        <time>2012-03-17T07:46:32Z</time>
      </trkpt>
      <trkpt lat="45.60602" lon="4.74004">
        <ele>300</ele>
        <time>2012-03-17T07:46:38Z</time>
      </trkpt>
      <trkpt lat="45.60575" lon="4.73987">
        <ele>300</ele>
        <time>2012-03-17T07:46:46Z</time>
      </trkpt>
      <trkpt lat="45.60553" lon="4.73973">
        <ele>299</ele>
        <time>2012-03-17T07:46:53Z</time>
      </trkpt>
      <trkpt lat="45.60547" lon="4.73966">
        <ele>299</ele>
        <time>2012-03-17T07:46:55Z</time>
      </trkpt>
      <trkpt lat="45.60545" lon="4.73961">
        <ele>299</ele>
        <time>2012-03-17T07:46:56Z</time>
      </trkpt>
      <trkpt lat="45.60543" lon="4.73955">
        <ele>299</ele>
        <time>2012-03-17T07:46:57Z</time>
      </trkpt>
      <trkpt lat="45.60543" lon="4.73948">
        <ele>299</ele>
        <time>2012-03-17T07:46:58Z</time>
      </trkpt>
      <trkpt lat="45.60544" lon="4.7394">
        <ele>299</ele>
        <time>2012-03-17T07:46:59Z</time>
      </trkpt>
      <trkpt lat="45.60544" lon="4.73933">
        <ele>298</ele>
        <time>2012-03-17T07:47:00Z</time>
      </trkpt>
      <trkpt lat="45.60542" lon="4.73873">
        <ele>296</ele>
        <time>2012-03-17T07:47:07Z</time>
      </trkpt>
      <trkpt lat="45.60542" lon="4.73855">
        <ele>295</ele>
        <time>2012-03-17T07:47:09Z</time>
      </trkpt>
      <trkpt lat="45.60536" lon="4.73772">
        <ele>291</ele>
        <time>2012-03-17T07:47:18Z</time>
      </trkpt>
      <trkpt lat="45.60532" lon="4.73757">
        <ele>290</ele>
        <time>2012-03-17T07:47:20Z</time>
      </trkpt>
      <trkpt lat="45.60528" lon="4.73743">
        <ele>290</ele>
        <time>2012-03-17T07:47:22Z</time>
      </trkpt>
      <trkpt lat="45.60527" lon="4.73735">
        <ele>289</ele>
        <time>2012-03-17T07:47:23Z</time>
      </trkpt>
      <trkpt lat="45.60526" lon="4.73727">
        <ele>289</ele>
        <time>2012-03-17T07:47:24Z</time>
      </trkpt>
      <trkpt lat="45.60527" lon="4.73719">
        <ele>289</ele>
        <time>2012-03-17T07:47:25Z</time>
      </trkpt>
      <trkpt lat="45.60527" lon="4.73712">
        <ele>289</ele>
        <time>2012-03-17T07:47:26Z</time>
      </trkpt>
      <trkpt lat="45.60528" lon="4.73704">
        <ele>289</ele>
        <time>2012-03-17T07:47:27Z</time>
      </trkpt>
      <trkpt lat="45.60533" lon="4.73681">
        <ele>289</ele>
        <time>2012-03-17T07:47:30Z</time>
      </trkpt>
      <trkpt lat="45.60553" lon="4.73625">
        <ele>292</ele>
        <time>2012-03-17T07:47:39Z</time>
      </trkpt>
      <trkpt lat="45.60561" lon="4.73596">
        <ele>292</ele>
        <time>2012-03-17T07:47:44Z</time>
      </trkpt>
      <trkpt lat="45.6057" lon="4.73553">
        <ele>293</ele>
        <time>2012-03-17T07:47:52Z</time>
      </trkpt>
      <trkpt lat="45.6058" lon="4.73501">
        <ele>296</ele>
        <time>2012-03-17T07:48:02Z</time>
      </trkpt>
      <trkpt lat="45.60585" lon="4.73463">
        <ele>298</ele>
        <time>2012-03-17T07:48:09Z</time>
      </trkpt>
      <trkpt lat="45.6059" lon="4.73431">
        <ele>300</ele>
        <time>2012-03-17T07:48:16Z</time>
      </trkpt>
      <trkpt lat="45.60589" lon="4.73427">
        <ele>300</ele>
        <time>2012-03-17T07:48:17Z</time>
      </trkpt>
      <trkpt lat="45.60587" lon="4.73425">
        <ele>300</ele>
        <time>2012-03-17T07:48:18Z</time>
      </trkpt>
      <trkpt lat="45.60584" lon="4.73423">
        <ele>300</ele>
        <time>2012-03-17T07:48:19Z</time>
      </trkpt>
      <trkpt lat="45.60582" lon="4.73421">
        <ele>300</ele>
        <time>2012-03-17T07:48:20Z</time>
      </trkpt>
      <trkpt lat="45.60579" lon="4.7342">
        <ele>300</ele>
        <time>2012-03-17T07:48:21Z</time>
      </trkpt>
      <trkpt lat="45.60576" lon="4.73419">
        <ele>300</ele>
        <time>2012-03-17T07:48:22Z</time>
      </trkpt>
      <trkpt lat="45.60552" lon="4.73418">
        <ele>300</ele>
        <time>2012-03-17T07:48:29Z</time>
      </trkpt>
      <trkpt lat="45.6053" lon="4.73412">
        <ele>300</ele>
        <time>2012-03-17T07:48:35Z</time>
      </trkpt>
      <trkpt lat="45.60491" lon="4.7341">
        <ele>298</ele>
        <time>2012-03-17T07:48:45Z</time>
      </trkpt>
      <trkpt lat="45.60446" lon="4.7341">
        <ele>297</ele>
        <time>2012-03-17T07:48:55Z</time>
      </trkpt>
      <trkpt lat="45.60424" lon="4.73412">
        <ele>296</ele>
        <time>2012-03-17T07:49:00Z</time>
      </trkpt>
      <trkpt lat="45.60386" lon="4.73413">
        <ele>296</ele>
        <time>2012-03-17T07:49:08Z</time>
      </trkpt>
      <trkpt lat="45.60382" lon="4.73412">
        <ele>295</ele>
        <time>2012-03-17T07:49:09Z</time>
      </trkpt>
      <trkpt lat="45.6038" lon="4.73415">
        <ele>294</ele>
        <time>2012-03-17T07:49:10Z</time>
      </trkpt>
      <trkpt lat="45.60379" lon="4.73419">
        <ele>295</ele>
        <time>2012-03-17T07:49:11Z</time>
      </trkpt>
      <trkpt lat="45.60379" lon="4.73425">
        <ele>295</ele>
        <time>2012-03-17T07:49:12Z</time>
      </trkpt>
      <trkpt lat="45.60379" lon="4.73431">
        <ele>294</ele>
        <time>2012-03-17T07:49:13Z</time>
      </trkpt>
      <trkpt lat="45.60382" lon="4.73488">
        <ele>292</ele>
        <time>2012-03-17T07:49:22Z</time>
      </trkpt>
      <trkpt lat="45.6038" lon="4.73505">
        <ele>292</ele>
        <time>2012-03-17T07:49:25Z</time>
      </trkpt>
      <trkpt lat="45.60378" lon="4.7351">
        <ele>292</ele>
        <time>2012-03-17T07:49:26Z</time>
      </trkpt>
      <trkpt lat="45.60375" lon="4.73514">
        <ele>292</ele>
        <time>2012-03-17T07:49:27Z</time>
      </trkpt>
      <trkpt lat="45.60364" lon="4.73524">
        <ele>292</ele>
        <time>2012-03-17T07:49:30Z</time>
      </trkpt>
      <trkpt lat="45.60346" lon="4.7354">
        <ele>292</ele>
        <time>2012-03-17T07:49:35Z</time>
      </trkpt>
      <trkpt lat="45.60331" lon="4.73552">
        <ele>290</ele>
        <time>2012-03-17T07:49:38Z</time>
      </trkpt>
      <trkpt lat="45.60327" lon="4.73558">
        <ele>289</ele>
        <time>2012-03-17T07:49:39Z</time>
      </trkpt>
      <trkpt lat="45.60323" lon="4.73565">
        <ele>289</ele>
        <time>2012-03-17T07:49:40Z</time>
      </trkpt>
      <trkpt lat="45.60311" lon="4.73589">
        <ele>286</ele>
        <time>2012-03-17T07:49:43Z</time>
      </trkpt>
      <trkpt lat="45.60305" lon="4.73602">
        <ele>284</ele>
        <time>2012-03-17T07:49:45Z</time>
      </trkpt>
      <trkpt lat="45.60302" lon="4.73609">
        <ele>284</ele>
        <time>2012-03-17T07:49:46Z</time>
      </trkpt>
      <trkpt lat="45.60298" lon="4.73615">
        <ele>283</ele>
        <time>2012-03-17T07:49:47Z</time>
      </trkpt>
      <trkpt lat="45.60295" lon="4.73622">
        <ele>283</ele>
        <time>2012-03-17T07:49:48Z</time>
      </trkpt>
      <trkpt lat="45.60292" lon="4.73628">
        <ele>282</ele>
        <time>2012-03-17T07:49:49Z</time>
      </trkpt>
      <trkpt lat="45.60288" lon="4.73636">
        <ele>281</ele>
        <time>2012-03-17T07:49:50Z</time>
      </trkpt>
      <trkpt lat="45.60284" lon="4.73644">
        <ele>281</ele>
        <time>2012-03-17T07:49:51Z</time>
      </trkpt>
      <trkpt lat="45.60277" lon="4.73669">
        <ele>279</ele>
        <time>2012-03-17T07:49:54Z</time>
      </trkpt>
      <trkpt lat="45.60274" lon="4.73684">
        <ele>279</ele>
        <time>2012-03-17T07:49:56Z</time>
      </trkpt>
      <trkpt lat="45.60272" lon="4.73692">
        <ele>278</ele>
        <time>2012-03-17T07:49:57Z</time>
      </trkpt>
      <trkpt lat="45.60269" lon="4.73699">
        <ele>278</ele>
        <time>2012-03-17T07:49:58Z</time>
      </trkpt>
      <trkpt lat="45.60262" lon="4.73726">
        <ele>275</ele>
        <time>2012-03-17T07:50:02Z</time>
      </trkpt>
      <trkpt lat="45.6026" lon="4.73732">
        <ele>275</ele>
        <time>2012-03-17T07:50:03Z</time>
      </trkpt>
      <trkpt lat="45.60256" lon="4.73752">
        <ele>272</ele>
        <time>2012-03-17T07:50:07Z</time>
      </trkpt>
      <trkpt lat="45.60259" lon="4.73755">
        <ele>271</ele>
        <time>2012-03-17T07:50:08Z</time>
      </trkpt>
      <trkpt lat="45.60262" lon="4.73758">
        <ele>271</ele>
        <time>2012-03-17T07:50:09Z</time>
      </trkpt>
      <trkpt lat="45.6026" lon="4.73768">
        <ele>268</ele>
        <time>2012-03-17T07:50:13Z</time>
      </trkpt>
      <trkpt lat="45.60256" lon="4.73768">
        <ele>268</ele>
        <time>2012-03-17T07:50:14Z</time>
      </trkpt>
      <trkpt lat="45.60245" lon="4.7377">
        <ele>265</ele>
        <time>2012-03-17T07:50:18Z</time>
      </trkpt>
      <trkpt lat="45.6024" lon="4.73771">
        <ele>264</ele>
        <time>2012-03-17T07:50:20Z</time>
      </trkpt>
      <trkpt lat="45.60235" lon="4.73772">
        <ele>263</ele>
        <time>2012-03-17T07:50:22Z</time>
      </trkpt>
      <trkpt lat="45.60229" lon="4.73775">
        <ele>261</ele>
        <time>2012-03-17T07:50:24Z</time>
      </trkpt>
      <trkpt lat="45.60222" lon="4.73775">
        <ele>260</ele>
        <time>2012-03-17T07:50:26Z</time>
      </trkpt>
      <trkpt lat="45.60207" lon="4.73777">
        <ele>256</ele>
        <time>2012-03-17T07:50:31Z</time>
      </trkpt>
      <trkpt lat="45.60204" lon="4.73776">
        <ele>257</ele>
        <time>2012-03-17T07:50:32Z</time>
      </trkpt>
      <trkpt lat="45.602" lon="4.73772">
        <ele>255</ele>
        <time>2012-03-17T07:50:34Z</time>
      </trkpt>
      <trkpt lat="45.60198" lon="4.73767">
        <ele>255</ele>
        <time>2012-03-17T07:50:36Z</time>
      </trkpt>
      <trkpt lat="45.60199" lon="4.73753">
        <ele>252</ele>
        <time>2012-03-17T07:50:40Z</time>
      </trkpt>
      <trkpt lat="45.6019" lon="4.73754">
        <ele>250</ele>
        <time>2012-03-17T07:50:44Z</time>
      </trkpt>
      <trkpt lat="45.60183" lon="4.73763">
        <ele>248</ele>
        <time>2012-03-17T07:50:48Z</time>
      </trkpt>
      <trkpt lat="45.60178" lon="4.73766">
        <ele>246</ele>
        <time>2012-03-17T07:50:50Z</time>
      </trkpt>
      <trkpt lat="45.60169" lon="4.7377">
        <ele>244</ele>
        <time>2012-03-17T07:50:54Z</time>
      </trkpt>
      <trkpt lat="45.6016" lon="4.73775">
        <ele>242</ele>
        <time>2012-03-17T07:50:58Z</time>
      </trkpt>
      <trkpt lat="45.6015" lon="4.73778">
        <ele>240</ele>
        <time>2012-03-17T07:51:02Z</time>
      </trkpt>
      <trkpt lat="45.60146" lon="4.7378">
        <ele>240</ele>
        <time>2012-03-17T07:51:03Z</time>
      </trkpt>
      <trkpt lat="45.60125" lon="4.73793">
        <ele>238</ele>
        <time>2012-03-17T07:51:09Z</time>
      </trkpt>
      <trkpt lat="45.60109" lon="4.73802">
        <ele>237</ele>
        <time>2012-03-17T07:51:14Z</time>
      </trkpt>
      <trkpt lat="45.60098" lon="4.73809">
        <ele>236</ele>
        <time>2012-03-17T07:51:17Z</time>
      </trkpt>
      <trkpt lat="45.60085" lon="4.73821">
        <ele>234</ele>
        <time>2012-03-17T07:51:21Z</time>
      </trkpt>
      <trkpt lat="45.60083" lon="4.73826">
        <ele>234</ele>
        <time>2012-03-17T07:51:22Z</time>
      </trkpt>
      <trkpt lat="45.60071" lon="4.73843">
        <ele>232</ele>
        <time>2012-03-17T07:51:26Z</time>
      </trkpt>
      <trkpt lat="45.60062" lon="4.73851">
        <ele>230</ele>
        <time>2012-03-17T07:51:28Z</time>
      </trkpt>
      <trkpt lat="45.60054" lon="4.73855">
        <ele>230</ele>
        <time>2012-03-17T07:51:30Z</time>
      </trkpt>
      <trkpt lat="45.6005" lon="4.73857">
        <ele>229</ele>
        <time>2012-03-17T07:51:31Z</time>
      </trkpt>
      <trkpt lat="45.60047" lon="4.73859">
        <ele>228</ele>
        <time>2012-03-17T07:51:32Z</time>
      </trkpt>
      <trkpt lat="45.60041" lon="4.73863">
        <ele>227</ele>
        <time>2012-03-17T07:51:34Z</time>
      </trkpt>
      <trkpt lat="45.60029" lon="4.73873">
        <ele>223</ele>
        <time>2012-03-17T07:51:38Z</time>
      </trkpt>
      <trkpt lat="45.60027" lon="4.73878">
        <ele>223</ele>
        <time>2012-03-17T07:51:39Z</time>
      </trkpt>
      <trkpt lat="45.60028" lon="4.73884">
        <ele>223</ele>
        <time>2012-03-17T07:51:40Z</time>
      </trkpt>
      <trkpt lat="45.60031" lon="4.73889">
        <ele>222</ele>
        <time>2012-03-17T07:51:41Z</time>
      </trkpt>
      <trkpt lat="45.60034" lon="4.73893">
        <ele>222</ele>
        <time>2012-03-17T07:51:42Z</time>
      </trkpt>
      <trkpt lat="45.60037" lon="4.73896">
        <ele>221</ele>
        <time>2012-03-17T07:51:43Z</time>
      </trkpt>
      <trkpt lat="45.60039" lon="4.73899">
        <ele>220</ele>
        <time>2012-03-17T07:51:44Z</time>
      </trkpt>
      <trkpt lat="45.6004" lon="4.73902">
        <ele>220</ele>
        <time>2012-03-17T07:51:45Z</time>
      </trkpt>
      <trkpt lat="45.60042" lon="4.73906">
        <ele>218</ele>
        <time>2012-03-17T07:51:46Z</time>
      </trkpt>
      <trkpt lat="45.60044" lon="4.7391">
        <ele>219</ele>
        <time>2012-03-17T07:51:47Z</time>
      </trkpt>
      <trkpt lat="45.60046" lon="4.73915">
        <ele>218</ele>
        <time>2012-03-17T07:51:48Z</time>
      </trkpt>
      <trkpt lat="45.60048" lon="4.7392">
        <ele>217</ele>
        <time>2012-03-17T07:51:49Z</time>
      </trkpt>
      <trkpt lat="45.6005" lon="4.73923">
        <ele>216</ele>
        <time>2012-03-17T07:51:50Z</time>
      </trkpt>
      <trkpt lat="45.60053" lon="4.73926">
        <ele>214</ele>
        <time>2012-03-17T07:51:51Z</time>
      </trkpt>
      <trkpt lat="45.60056" lon="4.73928">
        <ele>214</ele>
        <time>2012-03-17T07:51:52Z</time>
      </trkpt>
      <trkpt lat="45.60058" lon="4.73932">
        <ele>213</ele>
        <time>2012-03-17T07:51:53Z</time>
      </trkpt>
      <trkpt lat="45.60059" lon="4.73935">
        <ele>212</ele>
        <time>2012-03-17T07:51:54Z</time>
      </trkpt>
      <trkpt lat="45.60058" lon="4.73938">
        <ele>212</ele>
        <time>2012-03-17T07:51:55Z</time>
      </trkpt>
      <trkpt lat="45.60058" lon="4.7394">
        <ele>212</ele>
        <time>2012-03-17T07:51:56Z</time>
      </trkpt>
      <trkpt lat="45.60056" lon="4.73942">
        <ele>212</ele>
        <time>2012-03-17T07:51:57Z</time>
      </trkpt>
      <trkpt lat="45.60055" lon="4.73942">
        <ele>211</ele>
        <time>2012-03-17T07:51:58Z</time>
      </trkpt>
      <trkpt lat="45.60052" lon="4.7394">
        <ele>211</ele>
        <time>2012-03-17T07:51:59Z</time>
      </trkpt>
      <trkpt lat="45.6005" lon="4.73938">
        <ele>211</ele>
        <time>2012-03-17T07:52:00Z</time>
      </trkpt>
      <trkpt lat="45.60048" lon="4.73936">
        <ele>210</ele>
        <time>2012-03-17T07:52:01Z</time>
      </trkpt>
      <trkpt lat="45.60046" lon="4.73935">
        <ele>210</ele>
        <time>2012-03-17T07:52:02Z</time>
      </trkpt>
      <trkpt lat="45.60043" lon="4.73934">
        <ele>210</ele>
        <time>2012-03-17T07:52:03Z</time>
      </trkpt>
      <trkpt lat="45.60037" lon="4.7393">
        <ele>210</ele>
        <time>2012-03-17T07:52:05Z</time>
      </trkpt>
      <trkpt lat="45.60034" lon="4.73927">
        <ele>210</ele>
        <time>2012-03-17T07:52:06Z</time>
      </trkpt>
      <trkpt lat="45.60031" lon="4.73925">
        <ele>210</ele>
        <time>2012-03-17T07:52:07Z</time>
      </trkpt>
      <trkpt lat="45.60028" lon="4.73923">
        <ele>209</ele>
        <time>2012-03-17T07:52:08Z</time>
      </trkpt>
      <trkpt lat="45.60025" lon="4.73921">
        <ele>209</ele>
        <time>2012-03-17T07:52:09Z</time>
      </trkpt>
      <trkpt lat="45.60022" lon="4.73918">
        <ele>209</ele>
        <time>2012-03-17T07:52:10Z</time>
      </trkpt>
      <trkpt lat="45.60019" lon="4.73915">
        <ele>208</ele>
        <time>2012-03-17T07:52:11Z</time>
      </trkpt>
      <trkpt lat="45.60015" lon="4.73911">
        <ele>207</ele>
        <time>2012-03-17T07:52:13Z</time>
      </trkpt>
      <trkpt lat="45.60013" lon="4.73909">
        <ele>207</ele>
        <time>2012-03-17T07:52:14Z</time>
      </trkpt>
      <trkpt lat="45.6001" lon="4.73909">
        <ele>207</ele>
        <time>2012-03-17T07:52:15Z</time>
      </trkpt>
      <trkpt lat="45.60008" lon="4.7391">
        <ele>207</ele>
        <time>2012-03-17T07:52:20Z</time>
      </trkpt>
      <trkpt lat="45.60008" lon="4.7391">
        <ele>206</ele>
        <time>2012-03-17T07:52:29Z</time>
      </trkpt>
      <trkpt lat="45.60008" lon="4.7391">
        <ele>205</ele>
        <time>2012-03-17T07:52:41Z</time>
      </trkpt>
      <trkpt lat="45.60008" lon="4.73911">
        <ele>205</ele>
        <time>2012-03-17T07:52:51Z</time>
      </trkpt>
      <trkpt lat="45.60008" lon="4.73911">
        <ele>206</ele>
        <time>2012-03-17T07:52:59Z</time>
      </trkpt>
      <trkpt lat="45.60007" lon="4.7391">
        <ele>206</ele>
        <time>2012-03-17T07:53:06Z</time>
      </trkpt>
      <trkpt lat="45.60007" lon="4.7391">
        <ele>206</ele>
        <time>2012-03-17T07:53:12Z</time>
      </trkpt>
      <trkpt lat="45.60007" lon="4.7391">
        <ele>205</ele>
        <time>2012-03-17T07:53:19Z</time>
      </trkpt>
      <trkpt lat="45.60007" lon="4.7391">
        <ele>206</ele>
        <time>2012-03-17T07:53:26Z</time>
      </trkpt>
      <trkpt lat="45.60003" lon="4.73911">
        <ele>208</ele>
        <time>2012-03-17T07:53:34Z</time>
      </trkpt>
      <trkpt lat="45.59998" lon="4.73911">
        <ele>208</ele>
        <time>2012-03-17T07:53:40Z</time>
      </trkpt>
      <trkpt lat="45.59996" lon="4.73911">
        <ele>208</ele>
        <time>2012-03-17T07:53:42Z</time>
      </trkpt>
      <trkpt lat="45.59989" lon="4.73913">
        <ele>208</ele>
        <time>2012-03-17T07:53:45Z</time>
      </trkpt>
      <trkpt lat="45.59986" lon="4.73913">
        <ele>209</ele>
        <time>2012-03-17T07:53:46Z</time>
      </trkpt>
      <trkpt lat="45.59983" lon="4.73913">
        <ele>208</ele>
        <time>2012-03-17T07:53:47Z</time>
      </trkpt>
      <trkpt lat="45.5998" lon="4.73913">
        <ele>209</ele>
        <time>2012-03-17T07:53:48Z</time>
      </trkpt>
      <trkpt lat="45.59977" lon="4.73913">
        <ele>209</ele>
        <time>2012-03-17T07:53:49Z</time>
      </trkpt>
      <trkpt lat="45.59975" lon="4.73914">
        <ele>209</ele>
        <time>2012-03-17T07:53:50Z</time>
      </trkpt>
      <trkpt lat="45.59955" lon="4.73916">
        <ele>209</ele>
        <time>2012-03-17T07:53:57Z</time>
      </trkpt>
      <trkpt lat="45.5994" lon="4.73911">
        <ele>209</ele>
        <time>2012-03-17T07:54:03Z</time>
      </trkpt>
      <trkpt lat="45.59937" lon="4.7391">
        <ele>210</ele>
        <time>2012-03-17T07:54:04Z</time>
      </trkpt>
      <trkpt lat="45.59924" lon="4.73909">
        <ele>210</ele>
        <time>2012-03-17T07:54:10Z</time>
      </trkpt>
      <trkpt lat="45.59913" lon="4.73908">
        <ele>211</ele>
        <time>2012-03-17T07:54:15Z</time>
      </trkpt>
      <trkpt lat="45.59899" lon="4.7391">
        <ele>211</ele>
        <time>2012-03-17T07:54:21Z</time>
      </trkpt>
      <trkpt lat="45.59892" lon="4.73905">
        <ele>211</ele>
        <time>2012-03-17T07:54:23Z</time>
      </trkpt>
      <trkpt lat="45.59882" lon="4.73901">
        <ele>212</ele>
        <time>2012-03-17T07:54:27Z</time>
      </trkpt>
      <trkpt lat="45.59877" lon="4.73898">
        <ele>212</ele>
        <time>2012-03-17T07:54:30Z</time>
      </trkpt>
      <trkpt lat="45.59876" lon="4.73896">
        <ele>211</ele>
        <time>2012-03-17T07:54:31Z</time>
      </trkpt>
      <trkpt lat="45.5987" lon="4.73892">
        <ele>212</ele>
        <time>2012-03-17T07:54:34Z</time>
      </trkpt>
      <trkpt lat="45.59868" lon="4.73891">
        <ele>212</ele>
        <time>2012-03-17T07:54:35Z</time>
      </trkpt>
      <trkpt lat="45.59855" lon="4.73886">
        <ele>212</ele>
        <time>2012-03-17T07:54:41Z</time>
      </trkpt>
      <trkpt lat="45.59853" lon="4.73884">
        <ele>212</ele>
        <time>2012-03-17T07:54:43Z</time>
      </trkpt>
      <trkpt lat="45.59842" lon="4.73878">
        <ele>213</ele>
        <time>2012-03-17T07:54:49Z</time>
      </trkpt>
      <trkpt lat="45.59829" lon="4.73866">
        <ele>214</ele>
        <time>2012-03-17T07:54:54Z</time>
      </trkpt>
      <trkpt lat="45.59817" lon="4.73858">
        <ele>213</ele>
        <time>2012-03-17T07:54:59Z</time>
      </trkpt>
      <trkpt lat="45.59816" lon="4.73855">
        <ele>214</ele>
        <time>2012-03-17T07:55:00Z</time>
      </trkpt>
      <trkpt lat="45.59815" lon="4.73853">
        <ele>214</ele>
        <time>2012-03-17T07:55:01Z</time>
      </trkpt>
      <trkpt lat="45.59811" lon="4.73846">
        <ele>214</ele>
        <time>2012-03-17T07:55:04Z</time>
      </trkpt>
      <trkpt lat="45.5981" lon="4.73845">
        <ele>214</ele>
        <time>2012-03-17T07:55:05Z</time>
      </trkpt>
      <trkpt lat="45.59809" lon="4.73844">
        <ele>214</ele>
        <time>2012-03-17T07:55:06Z</time>
      </trkpt>
      <trkpt lat="45.59808" lon="4.73842">
        <ele>214</ele>
        <time>2012-03-17T07:55:07Z</time>
      </trkpt>
      <trkpt lat="45.59806" lon="4.7384">
        <ele>214</ele>
        <time>2012-03-17T07:55:08Z</time>
      </trkpt>
      <trkpt lat="45.59804" lon="4.73838">
        <ele>214</ele>
        <time>2012-03-17T07:55:09Z</time>
      </trkpt>
      <trkpt lat="45.59802" lon="4.73837">
        <ele>214</ele>
        <time>2012-03-17T07:55:10Z</time>
      </trkpt>
      <trkpt lat="45.598" lon="4.73836">
        <ele>214</ele>
        <time>2012-03-17T07:55:11Z</time>
      </trkpt>
      <trkpt lat="45.59792" lon="4.7383">
        <ele>214</ele>
        <time>2012-03-17T07:55:15Z</time>
      </trkpt>
      <trkpt lat="45.59789" lon="4.73829">
        <ele>214</ele>
        <time>2012-03-17T07:55:16Z</time>
      </trkpt>
      <trkpt lat="45.59784" lon="4.73825">
        <ele>215</ele>
        <time>2012-03-17T07:55:19Z</time>
      </trkpt>
      <trkpt lat="45.59784" lon="4.73823">
        <ele>215</ele>
        <time>2012-03-17T07:55:20Z</time>
      </trkpt>
      <trkpt lat="45.59783" lon="4.73821">
        <ele>215</ele>
        <time>2012-03-17T07:55:21Z</time>
      </trkpt>
      <trkpt lat="45.59781" lon="4.73821">
        <ele>215</ele>
        <time>2012-03-17T07:55:22Z</time>
      </trkpt>
      <trkpt lat="45.59779" lon="4.73821">
        <ele>215</ele>
        <time>2012-03-17T07:55:23Z</time>
      </trkpt>
      <trkpt lat="45.59777" lon="4.7382">
        <ele>215</ele>
        <time>2012-03-17T07:55:24Z</time>
      </trkpt>
      <trkpt lat="45.59776" lon="4.73819">
        <ele>215</ele>
        <time>2012-03-17T07:55:25Z</time>
      </trkpt>
      <trkpt lat="45.59774" lon="4.73818">
        <ele>215</ele>
        <time>2012-03-17T07:55:26Z</time>
      </trkpt>
      <trkpt lat="45.59763" lon="4.7381">
        <ele>216</ele>
        <time>2012-03-17T07:55:33Z</time>
      </trkpt>
      <trkpt lat="45.59761" lon="4.73809">
        <ele>217</ele>
        <time>2012-03-17T07:55:34Z</time>
      </trkpt>
      <trkpt lat="45.5976" lon="4.73807">
        <ele>217</ele>
        <time>2012-03-17T07:55:35Z</time>
      </trkpt>
      <trkpt lat="45.59759" lon="4.73806">
        <ele>217</ele>
        <time>2012-03-17T07:55:36Z</time>
      </trkpt>
      <trkpt lat="45.59757" lon="4.73805">
        <ele>217</ele>
        <time>2012-03-17T07:55:37Z</time>
      </trkpt>
      <trkpt lat="45.59756" lon="4.73803">
        <ele>217</ele>
        <time>2012-03-17T07:55:38Z</time>
      </trkpt>
      <trkpt lat="45.59755" lon="4.73802">
        <ele>218</ele>
        <time>2012-03-17T07:55:39Z</time>
      </trkpt>
      <trkpt lat="45.59748" lon="4.73796">
        <ele>218</ele>
        <time>2012-03-17T07:55:45Z</time>
      </trkpt>
      <trkpt lat="45.59741" lon="4.73785">
        <ele>219</ele>
        <time>2012-03-17T07:55:50Z</time>
      </trkpt>
      <trkpt lat="45.59733" lon="4.73773">
        <ele>220</ele>
        <time>2012-03-17T07:55:55Z</time>
      </trkpt>
      <trkpt lat="45.59724" lon="4.73755">
        <ele>220</ele>
        <time>2012-03-17T07:56:01Z</time>
      </trkpt>
      <trkpt lat="45.59723" lon="4.73749">
        <ele>220</ele>
        <time>2012-03-17T07:56:03Z</time>
      </trkpt>
      <trkpt lat="45.59724" lon="4.73747">
        <ele>220</ele>
        <time>2012-03-17T07:56:04Z</time>
      </trkpt>
      <trkpt lat="45.5972" lon="4.7373">
        <ele>220</ele>
        <time>2012-03-17T07:56:10Z</time>
      </trkpt>
      <trkpt lat="45.59718" lon="4.73727">
        <ele>220</ele>
        <time>2012-03-17T07:56:11Z</time>
      </trkpt>
      <trkpt lat="45.59716" lon="4.73723">
        <ele>220</ele>
        <time>2012-03-17T07:56:12Z</time>
      </trkpt>
      <trkpt lat="45.59715" lon="4.7372">
        <ele>220</ele>
        <time>2012-03-17T07:56:13Z</time>
      </trkpt>
      <trkpt lat="45.59713" lon="4.73716">
        <ele>219</ele>
        <time>2012-03-17T07:56:14Z</time>
      </trkpt>
      <trkpt lat="45.59712" lon="4.73713">
        <ele>220</ele>
        <time>2012-03-17T07:56:15Z</time>
      </trkpt>
      <trkpt lat="45.59711" lon="4.7371">
        <ele>220</ele>
        <time>2012-03-17T07:56:16Z</time>
      </trkpt>
      <trkpt lat="45.5971" lon="4.73707">
        <ele>220</ele>
        <time>2012-03-17T07:56:17Z</time>
      </trkpt>
      <trkpt lat="45.59709" lon="4.73703">
        <ele>220</ele>
        <time>2012-03-17T07:56:18Z</time>
      </trkpt>
      <trkpt lat="45.59708" lon="4.73699">
        <ele>221</ele>
        <time>2012-03-17T07:56:19Z</time>
      </trkpt>
      <trkpt lat="45.59708" lon="4.73696">
        <ele>220</ele>
        <time>2012-03-17T07:56:20Z</time>
      </trkpt>
      <trkpt lat="45.59707" lon="4.73693">
        <ele>221</ele>
        <time>2012-03-17T07:56:21Z</time>
      </trkpt>
      <trkpt lat="45.59706" lon="4.7369">
        <ele>220</ele>
        <time>2012-03-17T07:56:22Z</time>
      </trkpt>
      <trkpt lat="45.59706" lon="4.73688">
        <ele>220</ele>
        <time>2012-03-17T07:56:23Z</time>
      </trkpt>
      <trkpt lat="45.59706" lon="4.73685">
        <ele>220</ele>
        <time>2012-03-17T07:56:24Z</time>
      </trkpt>
      <trkpt lat="45.59706" lon="4.73683">
        <ele>221</ele>
        <time>2012-03-17T07:56:25Z</time>
      </trkpt>
      <trkpt lat="45.59702" lon="4.73665">
        <ele>222</ele>
        <time>2012-03-17T07:56:30Z</time>
      </trkpt>
      <trkpt lat="45.597" lon="4.73655">
        <ele>222</ele>
        <time>2012-03-17T07:56:33Z</time>
      </trkpt>
      <trkpt lat="45.59698" lon="4.73652">
        <ele>222</ele>
        <time>2012-03-17T07:56:34Z</time>
      </trkpt>
      <trkpt lat="45.59697" lon="4.7365">
        <ele>221</ele>
        <time>2012-03-17T07:56:35Z</time>
      </trkpt>
      <trkpt lat="45.59696" lon="4.73649">
        <ele>222</ele>
        <time>2012-03-17T07:56:36Z</time>
      </trkpt>
      <trkpt lat="45.59695" lon="4.73644">
        <ele>222</ele>
        <time>2012-03-17T07:56:38Z</time>
      </trkpt>
      <trkpt lat="45.59689" lon="4.73616">
        <ele>224</ele>
        <time>2012-03-17T07:56:44Z</time>
      </trkpt>
      <trkpt lat="45.59688" lon="4.73612">
        <ele>224</ele>
        <time>2012-03-17T07:56:45Z</time>
      </trkpt>
      <trkpt lat="45.59687" lon="4.73607">
        <ele>224</ele>
        <time>2012-03-17T07:56:47Z</time>
      </trkpt>
      <trkpt lat="45.59686" lon="4.73604">
        <ele>224</ele>
        <time>2012-03-17T07:56:48Z</time>
      </trkpt>
      <trkpt lat="45.59685" lon="4.73589">
        <ele>225</ele>
        <time>2012-03-17T07:56:53Z</time>
      </trkpt>
      <trkpt lat="45.59684" lon="4.73586">
        <ele>226</ele>
        <time>2012-03-17T07:56:54Z</time>
      </trkpt>
      <trkpt lat="45.59684" lon="4.73584">
        <ele>226</ele>
        <time>2012-03-17T07:56:55Z</time>
      </trkpt>
      <trkpt lat="45.59683" lon="4.73581">
        <ele>226</ele>
        <time>2012-03-17T07:56:57Z</time>
      </trkpt>
      <trkpt lat="45.59678" lon="4.73566">
        <ele>226</ele>
        <time>2012-03-17T07:57:01Z</time>
      </trkpt>
      <trkpt lat="45.59678" lon="4.73564">
        <ele>227</ele>
        <time>2012-03-17T07:57:02Z</time>
      </trkpt>
      <trkpt lat="45.59677" lon="4.73559">
        <ele>227</ele>
        <time>2012-03-17T07:57:04Z</time>
      </trkpt>
      <trkpt lat="45.59676" lon="4.73552">
        <ele>227</ele>
        <time>2012-03-17T07:57:08Z</time>
      </trkpt>
      <trkpt lat="45.59675" lon="4.73549">
        <ele>227</ele>
        <time>2012-03-17T07:57:09Z</time>
      </trkpt>
      <trkpt lat="45.59674" lon="4.73545">
        <ele>227</ele>
        <time>2012-03-17T07:57:10Z</time>
      </trkpt>
      <trkpt lat="45.59673" lon="4.73542">
        <ele>228</ele>
        <time>2012-03-17T07:57:11Z</time>
      </trkpt>
      <trkpt lat="45.59672" lon="4.73539">
        <ele>228</ele>
        <time>2012-03-17T07:57:12Z</time>
      </trkpt>
      <trkpt lat="45.59668" lon="4.73525">
        <ele>228</ele>
        <time>2012-03-17T07:57:16Z</time>
      </trkpt>
      <trkpt lat="45.59667" lon="4.73521">
        <ele>228</ele>
        <time>2012-03-17T07:57:17Z</time>
      </trkpt>
      <trkpt lat="45.59666" lon="4.73518">
        <ele>228</ele>
        <time>2012-03-17T07:57:18Z</time>
      </trkpt>
      <trkpt lat="45.59664" lon="4.73514">
        <ele>228</ele>
        <time>2012-03-17T07:57:19Z</time>
      </trkpt>
      <trkpt lat="45.59663" lon="4.73511">
        <ele>228</ele>
        <time>2012-03-17T07:57:20Z</time>
      </trkpt>
      <trkpt lat="45.59662" lon="4.73508">
        <ele>229</ele>
        <time>2012-03-17T07:57:21Z</time>
      </trkpt>
      <trkpt lat="45.59662" lon="4.73505">
        <ele>228</ele>
        <time>2012-03-17T07:57:22Z</time>
      </trkpt>
      <trkpt lat="45.59661" lon="4.73502">
        <ele>228</ele>
        <time>2012-03-17T07:57:23Z</time>
      </trkpt>
      <trkpt lat="45.59661" lon="4.73499">
        <ele>228</ele>
        <time>2012-03-17T07:57:24Z</time>
      </trkpt>
      <trkpt lat="45.59662" lon="4.73496">
        <ele>228</ele>
        <time>2012-03-17T07:57:25Z</time>
      </trkpt>
      <trkpt lat="45.59662" lon="4.73493">
        <ele>228</ele>
        <time>2012-03-17T07:57:26Z</time>
      </trkpt>
      <trkpt lat="45.59662" lon="4.7349">
        <ele>228</ele>
        <time>2012-03-17T07:57:27Z</time>
      </trkpt>
      <trkpt lat="45.59661" lon="4.73486">
        <ele>228</ele>
        <time>2012-03-17T07:57:28Z</time>
      </trkpt>
      <trkpt lat="45.59656" lon="4.73463">
        <ele>229</ele>
        <time>2012-03-17T07:57:35Z</time>
      </trkpt>
      <trkpt lat="45.5965" lon="4.73444">
        <ele>229</ele>
        <time>2012-03-17T07:57:40Z</time>
      </trkpt>
      <trkpt lat="45.59638" lon="4.73417">
        <ele>231</ele>
        <time>2012-03-17T07:57:47Z</time>
      </trkpt>
      <trkpt lat="45.59624" lon="4.73391">
        <ele>231</ele>
        <time>2012-03-17T07:57:54Z</time>
      </trkpt>
      <trkpt lat="45.59623" lon="4.73387">
        <ele>231</ele>
        <time>2012-03-17T07:57:55Z</time>
      </trkpt>
      <trkpt lat="45.59623" lon="4.73383">
        <ele>231</ele>
        <time>2012-03-17T07:57:56Z</time>
      </trkpt>
      <trkpt lat="45.59622" lon="4.7338">
        <ele>232</ele>
        <time>2012-03-17T07:57:57Z</time>
      </trkpt>
      <trkpt lat="45.59622" lon="4.73377">
        <ele>232</ele>
        <time>2012-03-17T07:57:58Z</time>
      </trkpt>
      <trkpt lat="45.59622" lon="4.73374">
        <ele>232</ele>
        <time>2012-03-17T07:57:59Z</time>
      </trkpt>
      <trkpt lat="45.59622" lon="4.73367">
        <ele>233</ele>
        <time>2012-03-17T07:58:02Z</time>
      </trkpt>
      <trkpt lat="45.59624" lon="4.73358">
        <ele>235</ele>
        <time>2012-03-17T07:58:08Z</time>
      </trkpt>
      <trkpt lat="45.59625" lon="4.73356">
        <ele>234</ele>
        <time>2012-03-17T07:58:09Z</time>
      </trkpt>
      <trkpt lat="45.59625" lon="4.73355">
        <ele>235</ele>
        <time>2012-03-17T07:58:10Z</time>
      </trkpt>
      <trkpt lat="45.59625" lon="4.73353">
        <ele>236</ele>
        <time>2012-03-17T07:58:11Z</time>
      </trkpt>
      <trkpt lat="45.59625" lon="4.7335">
        <ele>236</ele>
        <time>2012-03-17T07:58:12Z</time>
      </trkpt>
      <trkpt lat="45.59626" lon="4.73346">
        <ele>236</ele>
        <time>2012-03-17T07:58:14Z</time>
      </trkpt>
      <trkpt lat="45.59626" lon="4.73343">
        <ele>237</ele>
        <time>2012-03-17T07:58:16Z</time>
      </trkpt>
      <trkpt lat="45.59625" lon="4.73332">
        <ele>239</ele>
        <time>2012-03-17T07:58:22Z</time>
      </trkpt>
      <trkpt lat="45.59625" lon="4.73327">
        <ele>239</ele>
        <time>2012-03-17T07:58:25Z</time>
      </trkpt>
      <trkpt lat="45.59626" lon="4.73325">
        <ele>240</ele>
        <time>2012-03-17T07:58:26Z</time>
      </trkpt>
      <trkpt lat="45.59626" lon="4.73319">
        <ele>240</ele>
        <time>2012-03-17T07:58:29Z</time>
      </trkpt>
      <trkpt lat="45.59625" lon="4.7331">
        <ele>241</ele>
        <time>2012-03-17T07:58:34Z</time>
      </trkpt>
      <trkpt lat="45.59624" lon="4.73308">
        <ele>241</ele>
        <time>2012-03-17T07:58:35Z</time>
      </trkpt>
      <trkpt lat="45.59623" lon="4.73305">
        <ele>241</ele>
        <time>2012-03-17T07:58:36Z</time>
      </trkpt>
      <trkpt lat="45.59622" lon="4.73301">
        <ele>241</ele>
        <time>2012-03-17T07:58:38Z</time>
      </trkpt>
      <trkpt lat="45.59621" lon="4.73292">
        <ele>242</ele>
        <time>2012-03-17T07:58:42Z</time>
      </trkpt>
      <trkpt lat="45.59617" lon="4.73281">
        <ele>243</ele>
        <time>2012-03-17T07:58:48Z</time>
      </trkpt>
      <trkpt lat="45.59615" lon="4.73268">
        <ele>244</ele>
        <time>2012-03-17T07:58:53Z</time>
      </trkpt>
      <trkpt lat="45.59614" lon="4.73265">
        <ele>245</ele>
        <time>2012-03-17T07:58:55Z</time>
      </trkpt>
      <trkpt lat="45.59613" lon="4.73262">
        <ele>245</ele>
        <time>2012-03-17T07:58:56Z</time>
      </trkpt>
      <trkpt lat="45.59612" lon="4.7326">
        <ele>245</ele>
        <time>2012-03-17T07:58:57Z</time>
      </trkpt>
      <trkpt lat="45.59611" lon="4.73258">
        <ele>246</ele>
        <time>2012-03-17T07:58:58Z</time>
      </trkpt>
      <trkpt lat="45.5961" lon="4.73256">
        <ele>245</ele>
        <time>2012-03-17T07:58:59Z</time>
      </trkpt>
      <trkpt lat="45.59609" lon="4.73255">
        <ele>246</ele>
        <time>2012-03-17T07:59:00Z</time>
      </trkpt>
      <trkpt lat="45.59608" lon="4.73253">
        <ele>246</ele>
        <time>2012-03-17T07:59:01Z</time>
      </trkpt>
      <trkpt lat="45.59608" lon="4.73251">
        <ele>246</ele>
        <time>2012-03-17T07:59:02Z</time>
      </trkpt>
      <trkpt lat="45.59607" lon="4.73249">
        <ele>246</ele>
        <time>2012-03-17T07:59:03Z</time>
      </trkpt>
      <trkpt lat="45.59606" lon="4.73247">
        <ele>247</ele>
        <time>2012-03-17T07:59:04Z</time>
      </trkpt>
      <trkpt lat="45.59606" lon="4.73245">
        <ele>247</ele>
        <time>2012-03-17T07:59:05Z</time>
      </trkpt>
      <trkpt lat="45.59606" lon="4.73243">
        <ele>247</ele>
        <time>2012-03-17T07:59:06Z</time>
      </trkpt>
      <trkpt lat="45.59606" lon="4.7324">
        <ele>248</ele>
        <time>2012-03-17T07:59:07Z</time>
      </trkpt>
      <trkpt lat="45.59606" lon="4.73238">
        <ele>248</ele>
        <time>2012-03-17T07:59:08Z</time>
      </trkpt>
      <trkpt lat="45.59605" lon="4.73236">
        <ele>248</ele>
        <time>2012-03-17T07:59:09Z</time>
      </trkpt>
      <trkpt lat="45.59603" lon="4.73229">
        <ele>249</ele>
        <time>2012-03-17T07:59:13Z</time>
      </trkpt>
      <trkpt lat="45.59602" lon="4.73227">
        <ele>249</ele>
        <time>2012-03-17T07:59:14Z</time>
      </trkpt>
      <trkpt lat="45.59598" lon="4.73217">
        <ele>251</ele>
        <time>2012-03-17T07:59:20Z</time>
      </trkpt>
      <trkpt lat="45.59597" lon="4.73215">
        <ele>251</ele>
        <time>2012-03-17T07:59:21Z</time>
      </trkpt>
      <trkpt lat="45.59597" lon="4.73213">
        <ele>251</ele>
        <time>2012-03-17T07:59:22Z</time>
      </trkpt>
      <trkpt lat="45.59594" lon="4.73201">
        <ele>252</ele>
        <time>2012-03-17T07:59:28Z</time>
      </trkpt>
      <trkpt lat="45.59591" lon="4.73186">
        <ele>253</ele>
        <time>2012-03-17T07:59:35Z</time>
      </trkpt>
      <trkpt lat="45.5959" lon="4.73184">
        <ele>253</ele>
        <time>2012-03-17T07:59:36Z</time>
      </trkpt>
      <trkpt lat="45.59586" lon="4.73172">
        <ele>255</ele>
        <time>2012-03-17T07:59:42Z</time>
      </trkpt>
      <trkpt lat="45.59585" lon="4.7317">
        <ele>255</ele>
        <time>2012-03-17T07:59:43Z</time>
      </trkpt>
      <trkpt lat="45.59584" lon="4.73168">
        <ele>255</ele>
        <time>2012-03-17T07:59:44Z</time>
      </trkpt>
      <trkpt lat="45.59583" lon="4.73166">
        <ele>255</ele>
        <time>2012-03-17T07:59:45Z</time>
      </trkpt>
      <trkpt lat="45.59583" lon="4.73164">
        <ele>255</ele>
        <time>2012-03-17T07:59:46Z</time>
      </trkpt>
      <trkpt lat="45.59583" lon="4.73162">
        <ele>256</ele>
        <time>2012-03-17T07:59:47Z</time>
      </trkpt>
      <trkpt lat="45.5958" lon="4.73157">
        <ele>257</ele>
        <time>2012-03-17T07:59:51Z</time>
      </trkpt>
      <trkpt lat="45.5958" lon="4.73155">
        <ele>257</ele>
        <time>2012-03-17T07:59:52Z</time>
      </trkpt>
      <trkpt lat="45.59575" lon="4.73146">
        <ele>258</ele>
        <time>2012-03-17T07:59:57Z</time>
      </trkpt>
      <trkpt lat="45.59575" lon="4.73145">
        <ele>258</ele>
        <time>2012-03-17T07:59:58Z</time>
      </trkpt>
      <trkpt lat="45.59571" lon="4.73134">
        <ele>259</ele>
        <time>2012-03-17T08:00:05Z</time>
      </trkpt>
      <trkpt lat="45.5957" lon="4.73133">
        <ele>259</ele>
        <time>2012-03-17T08:00:06Z</time>
      </trkpt>
      <trkpt lat="45.59564" lon="4.73122">
        <ele>261</ele>
        <time>2012-03-17T08:00:13Z</time>
      </trkpt>
      <trkpt lat="45.59561" lon="4.73113">
        <ele>263</ele>
        <time>2012-03-17T08:00:19Z</time>
      </trkpt>
      <trkpt lat="45.59556" lon="4.73104">
        <ele>264</ele>
        <time>2012-03-17T08:00:27Z</time>
      </trkpt>
      <trkpt lat="45.59552" lon="4.73098">
        <ele>265</ele>
        <time>2012-03-17T08:00:32Z</time>
      </trkpt>
      <trkpt lat="45.59552" lon="4.73097">
        <ele>265</ele>
        <time>2012-03-17T08:00:33Z</time>
      </trkpt>
      <trkpt lat="45.59551" lon="4.73095">
        <ele>265</ele>
        <time>2012-03-17T08:00:34Z</time>
      </trkpt>
      <trkpt lat="45.59551" lon="4.73093">
        <ele>265</ele>
        <time>2012-03-17T08:00:35Z</time>
      </trkpt>
      <trkpt lat="45.5955" lon="4.73091">
        <ele>265</ele>
        <time>2012-03-17T08:00:36Z</time>
      </trkpt>
      <trkpt lat="45.5955" lon="4.7309">
        <ele>265</ele>
        <time>2012-03-17T08:00:37Z</time>
      </trkpt>
      <trkpt lat="45.59547" lon="4.73085">
        <ele>267</ele>
        <time>2012-03-17T08:00:40Z</time>
      </trkpt>
      <trkpt lat="45.59543" lon="4.7308">
        <ele>267</ele>
        <time>2012-03-17T08:00:44Z</time>
      </trkpt>
      <trkpt lat="45.59542" lon="4.73078">
        <ele>268</ele>
        <time>2012-03-17T08:00:45Z</time>
      </trkpt>
      <trkpt lat="45.59541" lon="4.73076">
        <ele>268</ele>
        <time>2012-03-17T08:00:46Z</time>
      </trkpt>
      <trkpt lat="45.5954" lon="4.73075">
        <ele>269</ele>
        <time>2012-03-17T08:00:47Z</time>
      </trkpt>
      <trkpt lat="45.5954" lon="4.73073">
        <ele>269</ele>
        <time>2012-03-17T08:00:48Z</time>
      </trkpt>
      <trkpt lat="45.59538" lon="4.73066">
        <ele>270</ele>
        <time>2012-03-17T08:00:53Z</time>
      </trkpt>
      <trkpt lat="45.59537" lon="4.73064">
        <ele>270</ele>
        <time>2012-03-17T08:00:54Z</time>
      </trkpt>
      <trkpt lat="45.59536" lon="4.73062">
        <ele>270</ele>
        <time>2012-03-17T08:00:55Z</time>
      </trkpt>
      <trkpt lat="45.59536" lon="4.7306">
        <ele>270</ele>
        <time>2012-03-17T08:00:56Z</time>
      </trkpt>
      <trkpt lat="45.59535" lon="4.73057">
        <ele>271</ele>
        <time>2012-03-17T08:00:58Z</time>
      </trkpt>
      <trkpt lat="45.59533" lon="4.73047">
        <ele>271</ele>
        <time>2012-03-17T08:01:05Z</time>
      </trkpt>
      <trkpt lat="45.59532" lon="4.73044">
        <ele>272</ele>
        <time>2012-03-17T08:01:07Z</time>
      </trkpt>
      <trkpt lat="45.59532" lon="4.73037">
        <ele>273</ele>
        <time>2012-03-17T08:01:11Z</time>
      </trkpt>
      <trkpt lat="45.59533" lon="4.73037">
        <ele>273</ele>
        <time>2012-03-17T08:01:12Z</time>
      </trkpt>
      <trkpt lat="45.59537" lon="4.73043">
        <ele>274</ele>
        <time>2012-03-17T08:01:17Z</time>
      </trkpt>
      <trkpt lat="45.59545" lon="4.7305">
        <ele>276</ele>
        <time>2012-03-17T08:01:24Z</time>
      </trkpt>
      <trkpt lat="45.59552" lon="4.73052">
        <ele>278</ele>
        <time>2012-03-17T08:01:29Z</time>
      </trkpt>
      <trkpt lat="45.59553" lon="4.73052">
        <ele>278</ele>
        <time>2012-03-17T08:01:30Z</time>
      </trkpt>
      <trkpt lat="45.59563" lon="4.7306">
        <ele>279</ele>
        <time>2012-03-17T08:01:38Z</time>
      </trkpt>
      <trkpt lat="45.59575" lon="4.73069">
        <ele>278</ele>
        <time>2012-03-17T08:01:46Z</time>
      </trkpt>
      <trkpt lat="45.5958" lon="4.73073">
        <ele>279</ele>
        <time>2012-03-17T08:01:49Z</time>
      </trkpt>
      <trkpt lat="45.5959" lon="4.73079">
        <ele>279</ele>
        <time>2012-03-17T08:01:54Z</time>
      </trkpt>
      <trkpt lat="45.59595" lon="4.73079">
        <ele>280</ele>
        <time>2012-03-17T08:01:57Z</time>
      </trkpt>
      <trkpt lat="45.59598" lon="4.73069">
        <ele>282</ele>
        <time>2012-03-17T08:02:01Z</time>
      </trkpt>
      <trkpt lat="45.59599" lon="4.73066">
        <ele>282</ele>
        <time>2012-03-17T08:02:02Z</time>
      </trkpt>
      <trkpt lat="45.59606" lon="4.73047">
        <ele>284</ele>
        <time>2012-03-17T08:02:10Z</time>
      </trkpt>
      <trkpt lat="45.59613" lon="4.73025">
        <ele>284</ele>
        <time>2012-03-17T08:02:17Z</time>
      </trkpt>
      <trkpt lat="45.59615" lon="4.73014">
        <ele>284</ele>
        <time>2012-03-17T08:02:19Z</time>
      </trkpt>
      <trkpt lat="45.59618" lon="4.72996">
        <ele>283</ele>
        <time>2012-03-17T08:02:22Z</time>
      </trkpt>
      <trkpt lat="45.59619" lon="4.7299">
        <ele>283</ele>
        <time>2012-03-17T08:02:23Z</time>
      </trkpt>
      <trkpt lat="45.59626" lon="4.72946">
        <ele>282</ele>
        <time>2012-03-17T08:02:31Z</time>
      </trkpt>
      <trkpt lat="45.59632" lon="4.72908">
        <ele>283</ele>
        <time>2012-03-17T08:02:39Z</time>
      </trkpt>
      <trkpt lat="45.59635" lon="4.72872">
        <ele>283</ele>
        <time>2012-03-17T08:02:46Z</time>
      </trkpt>
      <trkpt lat="45.59637" lon="4.7284">
        <ele>284</ele>
        <time>2012-03-17T08:02:52Z</time>
      </trkpt>
      <trkpt lat="45.59633" lon="4.72795">
        <ele>285</ele>
        <time>2012-03-17T08:03:01Z</time>
      </trkpt>
      <trkpt lat="45.59633" lon="4.72766">
        <ele>286</ele>
        <time>2012-03-17T08:03:08Z</time>
      </trkpt>
      <trkpt lat="45.59646" lon="4.72735">
        <ele>287</ele>
        <time>2012-03-17T08:03:16Z</time>
      </trkpt>
      <trkpt lat="45.5966" lon="4.72702">
        <ele>288</ele>
        <time>2012-03-17T08:03:24Z</time>
      </trkpt>
      <trkpt lat="45.59667" lon="4.7267">
        <ele>289</ele>
        <time>2012-03-17T08:03:31Z</time>
      </trkpt>
      <trkpt lat="45.59674" lon="4.72631">
        <ele>290</ele>
        <time>2012-03-17T08:03:40Z</time>
      </trkpt>
      <trkpt lat="45.59678" lon="4.72598">
        <ele>292</ele>
        <time>2012-03-17T08:03:48Z</time>
      </trkpt>
      <trkpt lat="45.59682" lon="4.72562">
        <ele>293</ele>
        <time>2012-03-17T08:03:57Z</time>
      </trkpt>
      <trkpt lat="45.59687" lon="4.72523">
        <ele>295</ele>
        <time>2012-03-17T08:04:07Z</time>
      </trkpt>
      <trkpt lat="45.59689" lon="4.72507">
        <ele>295</ele>
        <time>2012-03-17T08:04:11Z</time>
      </trkpt>
      <trkpt lat="45.59687" lon="4.72505">
        <ele>295</ele>
        <time>2012-03-17T08:04:12Z</time>
      </trkpt>
      <trkpt lat="45.59684" lon="4.72502">
        <ele>295</ele>
        <time>2012-03-17T08:04:13Z</time>
      </trkpt>
      <trkpt lat="45.59661" lon="4.72494">
        <ele>293</ele>
        <time>2012-03-17T08:04:20Z</time>
      </trkpt>
      <trkpt lat="45.59638" lon="4.72501">
        <ele>292</ele>
        <time>2012-03-17T08:04:27Z</time>
      </trkpt>
      <trkpt lat="45.59616" lon="4.72512">
        <ele>290</ele>
        <time>2012-03-17T08:04:33Z</time>
      </trkpt>
      <trkpt lat="45.59604" lon="4.72515">
        <ele>289</ele>
        <time>2012-03-17T08:04:35Z</time>
      </trkpt>
      <trkpt lat="45.59597" lon="4.72515">
        <ele>290</ele>
        <time>2012-03-17T08:04:36Z</time>
      </trkpt>
      <trkpt lat="45.59582" lon="4.72514">
        <ele>288</ele>
        <time>2012-03-17T08:04:38Z</time>
      </trkpt>
      <trkpt lat="45.59575" lon="4.72512">
        <ele>288</ele>
        <time>2012-03-17T08:04:39Z</time>
      </trkpt>
      <trkpt lat="45.59567" lon="4.7251">
        <ele>287</ele>
        <time>2012-03-17T08:04:40Z</time>
      </trkpt>
      <trkpt lat="45.59559" lon="4.72508">
        <ele>286</ele>
        <time>2012-03-17T08:04:41Z</time>
      </trkpt>
      <trkpt lat="45.59552" lon="4.72505">
        <ele>286</ele>
        <time>2012-03-17T08:04:42Z</time>
      </trkpt>
      <trkpt lat="45.59544" lon="4.72501">
        <ele>285</ele>
        <time>2012-03-17T08:04:43Z</time>
      </trkpt>
      <trkpt lat="45.59529" lon="4.72491">
        <ele>284</ele>
        <time>2012-03-17T08:04:45Z</time>
      </trkpt>
      <trkpt lat="45.59521" lon="4.72487">
        <ele>283</ele>
        <time>2012-03-17T08:04:46Z</time>
      </trkpt>
      <trkpt lat="45.59514" lon="4.72487">
        <ele>284</ele>
        <time>2012-03-17T08:04:47Z</time>
      </trkpt>
      <trkpt lat="45.59508" lon="4.72489">
        <ele>284</ele>
        <time>2012-03-17T08:04:48Z</time>
      </trkpt>
      <trkpt lat="45.59503" lon="4.72494">
        <ele>283</ele>
        <time>2012-03-17T08:04:49Z</time>
      </trkpt>
      <trkpt lat="45.59498" lon="4.72498">
        <ele>284</ele>
        <time>2012-03-17T08:04:50Z</time>
      </trkpt>
      <trkpt lat="45.59491" lon="4.72508">
        <ele>285</ele>
        <time>2012-03-17T08:04:53Z</time>
      </trkpt>
      <trkpt lat="45.59484" lon="4.7252">
        <ele>287</ele>
        <time>2012-03-17T08:04:57Z</time>
      </trkpt>
      <trkpt lat="45.59483" lon="4.72523">
        <ele>287</ele>
        <time>2012-03-17T08:04:58Z</time>
      </trkpt>
      <trkpt lat="45.59481" lon="4.72526">
        <ele>288</ele>
        <time>2012-03-17T08:04:59Z</time>
      </trkpt>
      <trkpt lat="45.5948" lon="4.72529">
        <ele>288</ele>
        <time>2012-03-17T08:05:00Z</time>
      </trkpt>
      <trkpt lat="45.59478" lon="4.72533">
        <ele>289</ele>
        <time>2012-03-17T08:05:01Z</time>
      </trkpt>
      <trkpt lat="45.59477" lon="4.72536">
        <ele>289</ele>
        <time>2012-03-17T08:05:02Z</time>
      </trkpt>
      <trkpt lat="45.59472" lon="4.72545">
        <ele>289</ele>
        <time>2012-03-17T08:05:05Z</time>
      </trkpt>
      <trkpt lat="45.59471" lon="4.72549">
        <ele>289</ele>
        <time>2012-03-17T08:05:06Z</time>
      </trkpt>
      <trkpt lat="45.5947" lon="4.72552">
        <ele>289</ele>
        <time>2012-03-17T08:05:07Z</time>
      </trkpt>
      <trkpt lat="45.59468" lon="4.72555">
        <ele>289</ele>
        <time>2012-03-17T08:05:08Z</time>
      </trkpt>
      <trkpt lat="45.59466" lon="4.72558">
        <ele>289</ele>
        <time>2012-03-17T08:05:09Z</time>
      </trkpt>
      <trkpt lat="45.59465" lon="4.72561">
        <ele>289</ele>
        <time>2012-03-17T08:05:10Z</time>
      </trkpt>
      <trkpt lat="45.59448" lon="4.72598">
        <ele>290</ele>
        <time>2012-03-17T08:05:20Z</time>
      </trkpt>
      <trkpt lat="45.59432" lon="4.72617">
        <ele>291</ele>
        <time>2012-03-17T08:05:27Z</time>
      </trkpt>
      <trkpt lat="45.59409" lon="4.72615">
        <ele>291</ele>
        <time>2012-03-17T08:05:35Z</time>
      </trkpt>
      <trkpt lat="45.59386" lon="4.72609">
        <ele>293</ele>
        <time>2012-03-17T08:05:44Z</time>
      </trkpt>
      <trkpt lat="45.59364" lon="4.72602">
        <ele>295</ele>
        <time>2012-03-17T08:05:53Z</time>
      </trkpt>
      <trkpt lat="45.5934" lon="4.72595">
        <ele>297</ele>
        <time>2012-03-17T08:06:03Z</time>
      </trkpt>
      <trkpt lat="45.59333" lon="4.72592">
        <ele>299</ele>
        <time>2012-03-17T08:06:06Z</time>
      </trkpt>
      <trkpt lat="45.59319" lon="4.72574">
        <ele>301</ele>
        <time>2012-03-17T08:06:14Z</time>
      </trkpt>
      <trkpt lat="45.59309" lon="4.72558">
        <ele>300</ele>
        <time>2012-03-17T08:06:20Z</time>
      </trkpt>
      <trkpt lat="45.59295" lon="4.72551">
        <ele>300</ele>
        <time>2012-03-17T08:06:26Z</time>
      </trkpt>
      <trkpt lat="45.59293" lon="4.72552">
        <ele>300</ele>
        <time>2012-03-17T08:06:27Z</time>
      </trkpt>
      <trkpt lat="45.59291" lon="4.72554">
        <ele>301</ele>
        <time>2012-03-17T08:06:28Z</time>
      </trkpt>
      <trkpt lat="45.59289" lon="4.72556">
        <ele>301</ele>
        <time>2012-03-17T08:06:29Z</time>
      </trkpt>
      <trkpt lat="45.59273" lon="4.72566">
        <ele>301</ele>
        <time>2012-03-17T08:06:36Z</time>
      </trkpt>
      <trkpt lat="45.59251" lon="4.72558">
        <ele>303</ele>
        <time>2012-03-17T08:06:45Z</time>
      </trkpt>
      <trkpt lat="45.59232" lon="4.7255">
        <ele>303</ele>
        <time>2012-03-17T08:06:53Z</time>
      </trkpt>
      <trkpt lat="45.59214" lon="4.7254">
        <ele>305</ele>
        <time>2012-03-17T08:07:02Z</time>
      </trkpt>
      <trkpt lat="45.59213" lon="4.72539">
        <ele>305</ele>
        <time>2012-03-17T08:07:07Z</time>
      </trkpt>
      <trkpt lat="45.59211" lon="4.72539">
        <ele>304</ele>
        <time>2012-03-17T08:07:08Z</time>
      </trkpt>
      <trkpt lat="45.59209" lon="4.72538">
        <ele>305</ele>
        <time>2012-03-17T08:07:09Z</time>
      </trkpt>
      <trkpt lat="45.59206" lon="4.72537">
        <ele>305</ele>
        <time>2012-03-17T08:07:10Z</time>
      </trkpt>
      <trkpt lat="45.59203" lon="4.72536">
        <ele>305</ele>
        <time>2012-03-17T08:07:11Z</time>
      </trkpt>
      <trkpt lat="45.59201" lon="4.72535">
        <ele>305</ele>
        <time>2012-03-17T08:07:12Z</time>
      </trkpt>
      <trkpt lat="45.59184" lon="4.72526">
        <ele>307</ele>
        <time>2012-03-17T08:07:19Z</time>
      </trkpt>
      <trkpt lat="45.59176" lon="4.72516">
        <ele>309</ele>
        <time>2012-03-17T08:07:24Z</time>
      </trkpt>
      <trkpt lat="45.59176" lon="4.72514">
        <ele>308</ele>
        <time>2012-03-17T08:07:30Z</time>
      </trkpt>
      <trkpt lat="45.59176" lon="4.72514">
        <ele>309</ele>
        <time>2012-03-17T08:07:49Z</time>
      </trkpt>
      <trkpt lat="45.59175" lon="4.72513">
        <ele>309</ele>
        <time>2012-03-17T08:07:57Z</time>
      </trkpt>
      <trkpt lat="45.59173" lon="4.72511">
        <ele>309</ele>
        <time>2012-03-17T08:07:58Z</time>
      </trkpt>
      <trkpt lat="45.59172" lon="4.72508">
        <ele>309</ele>
        <time>2012-03-17T08:07:59Z</time>
      </trkpt>
      <trkpt lat="45.5917" lon="4.72505">
        <ele>309</ele>
        <time>2012-03-17T08:08:00Z</time>
      </trkpt>
      <trkpt lat="45.59168" lon="4.72502">
        <ele>309</ele>
        <time>2012-03-17T08:08:01Z</time>
      </trkpt>
      <trkpt lat="45.59167" lon="4.72499">
        <ele>309</ele>
        <time>2012-03-17T08:08:02Z</time>
      </trkpt>
      <trkpt lat="45.5916" lon="4.72479">
        <ele>311</ele>
        <time>2012-03-17T08:08:10Z</time>
      </trkpt>
      <trkpt lat="45.59154" lon="4.7246">
        <ele>313</ele>
        <time>2012-03-17T08:08:18Z</time>
      </trkpt>
      <trkpt lat="45.59144" lon="4.72441">
        <ele>315</ele>
        <time>2012-03-17T08:08:27Z</time>
      </trkpt>
      <trkpt lat="45.59134" lon="4.72424">
        <ele>318</ele>
        <time>2012-03-17T08:08:36Z</time>
      </trkpt>
      <trkpt lat="45.59123" lon="4.72406">
        <ele>320</ele>
        <time>2012-03-17T08:08:45Z</time>
      </trkpt>
      <trkpt lat="45.5911" lon="4.72391">
        <ele>323</ele>
        <time>2012-03-17T08:08:54Z</time>
      </trkpt>
      <trkpt lat="45.59107" lon="4.72382">
        <ele>324</ele>
        <time>2012-03-17T08:08:58Z</time>
      </trkpt>
      <trkpt lat="45.59106" lon="4.72379">
        <ele>324</ele>
        <time>2012-03-17T08:08:59Z</time>
      </trkpt>
      <trkpt lat="45.59105" lon="4.72377">
        <ele>324</ele>
        <time>2012-03-17T08:09:00Z</time>
      </trkpt>
      <trkpt lat="45.59095" lon="4.72362">
        <ele>326</ele>
        <time>2012-03-17T08:09:08Z</time>
      </trkpt>
      <trkpt lat="45.5908" lon="4.72342">
        <ele>326</ele>
        <time>2012-03-17T08:09:17Z</time>
      </trkpt>
      <trkpt lat="45.59067" lon="4.72319">
        <ele>327</ele>
        <time>2012-03-17T08:09:26Z</time>
      </trkpt>
      <trkpt lat="45.59054" lon="4.72292">
        <ele>328</ele>
        <time>2012-03-17T08:09:35Z</time>
      </trkpt>
      <trkpt lat="45.5904" lon="4.7227">
        <ele>329</ele>
        <time>2012-03-17T08:09:42Z</time>
      </trkpt>
      <trkpt lat="45.59018" lon="4.72253">
        <ele>328</ele>
        <time>2012-03-17T08:09:48Z</time>
      </trkpt>
      <trkpt lat="45.58989" lon="4.7224">
        <ele>329</ele>
        <time>2012-03-17T08:09:56Z</time>
      </trkpt>
      <trkpt lat="45.58971" lon="4.7223">
        <ele>329</ele>
        <time>2012-03-17T08:10:01Z</time>
      </trkpt>
      <trkpt lat="45.58941" lon="4.72217">
        <ele>328</ele>
        <time>2012-03-17T08:10:09Z</time>
      </trkpt>
      <trkpt lat="45.58915" lon="4.72202">
        <ele>327</ele>
        <time>2012-03-17T08:10:17Z</time>
      </trkpt>
      <trkpt lat="45.58912" lon="4.72197">
        <ele>326</ele>
        <time>2012-03-17T08:10:18Z</time>
      </trkpt>
      <trkpt lat="45.58911" lon="4.72191">
        <ele>326</ele>
        <time>2012-03-17T08:10:19Z</time>
      </trkpt>
      <trkpt lat="45.58911" lon="4.72186">
        <ele>326</ele>
        <time>2012-03-17T08:10:20Z</time>
      </trkpt>
      <trkpt lat="45.58911" lon="4.7218">
        <ele>326</ele>
        <time>2012-03-17T08:10:21Z</time>
      </trkpt>
      <trkpt lat="45.58911" lon="4.72175">
        <ele>326</ele>
        <time>2012-03-17T08:10:22Z</time>
      </trkpt>
      <trkpt lat="45.58907" lon="4.72135">
        <ele>326</ele>
        <time>2012-03-17T08:10:30Z</time>
      </trkpt>
      <trkpt lat="45.58907" lon="4.72134">
        <ele>327</ele>
        <time>2012-03-17T08:10:35Z</time>
      </trkpt>
      <trkpt lat="45.58907" lon="4.72134">
        <ele>327</ele>
        <time>2012-03-17T08:10:46Z</time>
      </trkpt>
      <trkpt lat="45.58907" lon="4.72134">
        <ele>328</ele>
        <time>2012-03-17T08:11:00Z</time>
      </trkpt>
      <trkpt lat="45.58907" lon="4.72134">
        <ele>327</ele>
        <time>2012-03-17T08:11:14Z</time>
      </trkpt>
      <trkpt lat="45.58907" lon="4.72134">
        <ele>328</ele>
        <time>2012-03-17T08:11:29Z</time>
      </trkpt>
      <trkpt lat="45.58907" lon="4.72134">
        <ele>327</ele>
        <time>2012-03-17T08:11:44Z</time>
      </trkpt>
      <trkpt lat="45.58907" lon="4.72134">
        <ele>327</ele>
        <time>2012-03-17T08:11:45Z</time>
      </trkpt>
      <trkpt lat="45.58906" lon="4.72133">
        <ele>327</ele>
        <time>2012-03-17T08:11:46Z</time>
      </trkpt>
      <trkpt lat="45.58896" lon="4.72118">
        <ele>327</ele>
        <time>2012-03-17T08:11:51Z</time>
      </trkpt>
      <trkpt lat="45.58872" lon="4.72082">
        <ele>327</ele>
        <time>2012-03-17T08:12:00Z</time>
      </trkpt>
      <trkpt lat="45.58854" lon="4.72056">
        <ele>327</ele>
        <time>2012-03-17T08:12:06Z</time>
      </trkpt>
      <trkpt lat="45.58852" lon="4.72051">
        <ele>326</ele>
        <time>2012-03-17T08:12:07Z</time>
      </trkpt>
      <trkpt lat="45.58821" lon="4.72006">
        <ele>326</ele>
        <time>2012-03-17T08:12:17Z</time>
      </trkpt>
      <trkpt lat="45.58814" lon="4.71997">
        <ele>326</ele>
        <time>2012-03-17T08:12:19Z</time>
      </trkpt>
      <trkpt lat="45.58808" lon="4.71987">
        <ele>326</ele>
        <time>2012-03-17T08:12:21Z</time>
      </trkpt>
      <trkpt lat="45.58788" lon="4.7196">
        <ele>326</ele>
        <time>2012-03-17T08:12:27Z</time>
      </trkpt>
      <trkpt lat="45.58785" lon="4.71956">
        <ele>326</ele>
        <time>2012-03-17T08:12:28Z</time>
      </trkpt>
      <trkpt lat="45.58782" lon="4.71952">
        <ele>326</ele>
        <time>2012-03-17T08:12:29Z</time>
      </trkpt>
      <trkpt lat="45.58753" lon="4.7191">
        <ele>326</ele>
        <time>2012-03-17T08:12:38Z</time>
      </trkpt>
      <trkpt lat="45.58723" lon="4.71869">
        <ele>326</ele>
        <time>2012-03-17T08:12:47Z</time>
      </trkpt>
      <trkpt lat="45.5871" lon="4.71849">
        <ele>326</ele>
        <time>2012-03-17T08:12:51Z</time>
      </trkpt>
      <trkpt lat="45.58707" lon="4.71843">
        <ele>326</ele>
        <time>2012-03-17T08:12:52Z</time>
      </trkpt>
      <trkpt lat="45.58705" lon="4.71837">
        <ele>326</ele>
        <time>2012-03-17T08:12:53Z</time>
      </trkpt>
      <trkpt lat="45.58703" lon="4.7183">
        <ele>326</ele>
        <time>2012-03-17T08:12:54Z</time>
      </trkpt>
      <trkpt lat="45.58701" lon="4.71823">
        <ele>325</ele>
        <time>2012-03-17T08:12:55Z</time>
      </trkpt>
      <trkpt lat="45.587" lon="4.71816">
        <ele>325</ele>
        <time>2012-03-17T08:12:56Z</time>
      </trkpt>
      <trkpt lat="45.587" lon="4.71809">
        <ele>325</ele>
        <time>2012-03-17T08:12:57Z</time>
      </trkpt>
      <trkpt lat="45.58696" lon="4.71746">
        <ele>325</ele>
        <time>2012-03-17T08:13:05Z</time>
      </trkpt>
      <trkpt lat="45.58692" lon="4.71681">
        <ele>325</ele>
        <time>2012-03-17T08:13:14Z</time>
      </trkpt>
      <trkpt lat="45.5869" lon="4.71667">
        <ele>325</ele>
        <time>2012-03-17T08:13:16Z</time>
      </trkpt>
      <trkpt lat="45.58688" lon="4.71661">
        <ele>326</ele>
        <time>2012-03-17T08:13:17Z</time>
      </trkpt>
      <trkpt lat="45.58684" lon="4.71649">
        <ele>326</ele>
        <time>2012-03-17T08:13:19Z</time>
      </trkpt>
      <trkpt lat="45.58662" lon="4.71604">
        <ele>326</ele>
        <time>2012-03-17T08:13:27Z</time>
      </trkpt>
      <trkpt lat="45.58656" lon="4.71594">
        <ele>326</ele>
        <time>2012-03-17T08:13:29Z</time>
      </trkpt>
      <trkpt lat="45.58653" lon="4.71588">
        <ele>326</ele>
        <time>2012-03-17T08:13:30Z</time>
      </trkpt>
      <trkpt lat="45.58649" lon="4.71578">
        <ele>326</ele>
        <time>2012-03-17T08:13:32Z</time>
      </trkpt>
      <trkpt lat="45.58637" lon="4.71559">
        <ele>326</ele>
        <time>2012-03-17T08:13:38Z</time>
      </trkpt>
      <trkpt lat="45.58636" lon="4.71558">
        <ele>326</ele>
        <time>2012-03-17T08:13:39Z</time>
      </trkpt>
      <trkpt lat="45.58635" lon="4.71557">
        <ele>327</ele>
        <time>2012-03-17T08:13:40Z</time>
      </trkpt>
      <trkpt lat="45.58632" lon="4.71558">
        <ele>327</ele>
        <time>2012-03-17T08:13:47Z</time>
      </trkpt>
      <trkpt lat="45.58632" lon="4.71558">
        <ele>326</ele>
        <time>2012-03-17T08:14:07Z</time>
      </trkpt>
      <trkpt lat="45.58632" lon="4.71558">
        <ele>326</ele>
        <time>2012-03-17T08:14:22Z</time>
      </trkpt>
      <trkpt lat="45.58632" lon="4.71558">
        <ele>327</ele>
        <time>2012-03-17T08:14:38Z</time>
      </trkpt>
      <trkpt lat="45.58632" lon="4.71558">
        <ele>327</ele>
        <time>2012-03-17T08:14:55Z</time>
      </trkpt>
      <trkpt lat="45.58632" lon="4.71559">
        <ele>328</ele>
        <time>2012-03-17T08:15:08Z</time>
      </trkpt>
      <trkpt lat="45.58632" lon="4.71559">
        <ele>326</ele>
        <time>2012-03-17T08:15:11Z</time>
      </trkpt>
      <trkpt lat="45.58632" lon="4.71559">
        <ele>327</ele>
        <time>2012-03-17T08:15:29Z</time>
      </trkpt>
      <trkpt lat="45.58632" lon="4.71558">
        <ele>326</ele>
        <time>2012-03-17T08:15:45Z</time>
      </trkpt>
      <trkpt lat="45.58632" lon="4.71558">
        <ele>326</ele>
        <time>2012-03-17T08:15:59Z</time>
      </trkpt>
      <trkpt lat="45.58632" lon="4.71558">
        <ele>326</ele>
        <time>2012-03-17T08:16:12Z</time>
      </trkpt>
      <trkpt lat="45.58631" lon="4.71559">
        <ele>326</ele>
        <time>2012-03-17T08:16:13Z</time>
      </trkpt>
      <trkpt lat="45.5863" lon="4.7156">
        <ele>327</ele>
        <time>2012-03-17T08:16:14Z</time>
      </trkpt>
      <trkpt lat="45.58627" lon="4.71561">
        <ele>327</ele>
        <time>2012-03-17T08:16:15Z</time>
      </trkpt>
      <trkpt lat="45.58623" lon="4.71559">
        <ele>328</ele>
        <time>2012-03-17T08:16:16Z</time>
      </trkpt>
      <trkpt lat="45.58619" lon="4.71555">
        <ele>328</ele>
        <time>2012-03-17T08:16:17Z</time>
      </trkpt>
      <trkpt lat="45.58616" lon="4.71551">
        <ele>326</ele>
        <time>2012-03-17T08:16:18Z</time>
      </trkpt>
      <trkpt lat="45.58612" lon="4.71546">
        <ele>325</ele>
        <time>2012-03-17T08:16:19Z</time>
      </trkpt>
      <trkpt lat="45.58607" lon="4.71542">
        <ele>325</ele>
        <time>2012-03-17T08:16:20Z</time>
      </trkpt>
      <trkpt lat="45.58601" lon="4.71539">
        <ele>325</ele>
        <time>2012-03-17T08:16:21Z</time>
      </trkpt>
      <trkpt lat="45.58596" lon="4.71536">
        <ele>325</ele>
        <time>2012-03-17T08:16:22Z</time>
      </trkpt>
      <trkpt lat="45.5856" lon="4.71527">
        <ele>325</ele>
        <time>2012-03-17T08:16:29Z</time>
      </trkpt>
      <trkpt lat="45.58551" lon="4.71529">
        <ele>324</ele>
        <time>2012-03-17T08:16:31Z</time>
      </trkpt>
      <trkpt lat="45.58547" lon="4.71531">
        <ele>324</ele>
        <time>2012-03-17T08:16:32Z</time>
      </trkpt>
      <trkpt lat="45.585" lon="4.71548">
        <ele>324</ele>
        <time>2012-03-17T08:16:42Z</time>
      </trkpt>
      <trkpt lat="45.58496" lon="4.71549">
        <ele>323</ele>
        <time>2012-03-17T08:16:43Z</time>
      </trkpt>
      <trkpt lat="45.58491" lon="4.7155">
        <ele>323</ele>
        <time>2012-03-17T08:16:44Z</time>
      </trkpt>
      <trkpt lat="45.58473" lon="4.71552">
        <ele>322</ele>
        <time>2012-03-17T08:16:49Z</time>
      </trkpt>
      <trkpt lat="45.58466" lon="4.71553">
        <ele>321</ele>
        <time>2012-03-17T08:16:51Z</time>
      </trkpt>
      <trkpt lat="45.58427" lon="4.71559">
        <ele>320</ele>
        <time>2012-03-17T08:16:59Z</time>
      </trkpt>
      <trkpt lat="45.58392" lon="4.71567">
        <ele>316</ele>
        <time>2012-03-17T08:17:04Z</time>
      </trkpt>
      <trkpt lat="45.58376" lon="4.7157">
        <ele>315</ele>
        <time>2012-03-17T08:17:06Z</time>
      </trkpt>
      <trkpt lat="45.58368" lon="4.7157">
        <ele>314</ele>
        <time>2012-03-17T08:17:07Z</time>
      </trkpt>
      <trkpt lat="45.58359" lon="4.71569">
        <ele>314</ele>
        <time>2012-03-17T08:17:08Z</time>
      </trkpt>
      <trkpt lat="45.58332" lon="4.71562">
        <ele>311</ele>
        <time>2012-03-17T08:17:11Z</time>
      </trkpt>
      <trkpt lat="45.58312" lon="4.71559">
        <ele>309</ele>
        <time>2012-03-17T08:17:13Z</time>
      </trkpt>
      <trkpt lat="45.58302" lon="4.71558">
        <ele>308</ele>
        <time>2012-03-17T08:17:14Z</time>
      </trkpt>
      <trkpt lat="45.58293" lon="4.71556">
        <ele>308</ele>
        <time>2012-03-17T08:17:15Z</time>
      </trkpt>
      <trkpt lat="45.58284" lon="4.71552">
        <ele>307</ele>
        <time>2012-03-17T08:17:16Z</time>
      </trkpt>
      <trkpt lat="45.58274" lon="4.71548">
        <ele>306</ele>
        <time>2012-03-17T08:17:17Z</time>
      </trkpt>
      <trkpt lat="45.58244" lon="4.71537">
        <ele>304</ele>
        <time>2012-03-17T08:17:20Z</time>
      </trkpt>
      <trkpt lat="45.58234" lon="4.71535">
        <ele>303</ele>
        <time>2012-03-17T08:17:21Z</time>
      </trkpt>
      <trkpt lat="45.58189" lon="4.71531">
        <ele>301</ele>
        <time>2012-03-17T08:17:26Z</time>
      </trkpt>
      <trkpt lat="45.5818" lon="4.71527">
        <ele>301</ele>
        <time>2012-03-17T08:17:27Z</time>
      </trkpt>
      <trkpt lat="45.58173" lon="4.71522">
        <ele>301</ele>
        <time>2012-03-17T08:17:28Z</time>
      </trkpt>
      <trkpt lat="45.58157" lon="4.7151">
        <ele>300</ele>
        <time>2012-03-17T08:17:30Z</time>
      </trkpt>
      <trkpt lat="45.58124" lon="4.7148">
        <ele>295</ele>
        <time>2012-03-17T08:17:34Z</time>
      </trkpt>
      <trkpt lat="45.58103" lon="4.7146">
        <ele>291</ele>
        <time>2012-03-17T08:17:37Z</time>
      </trkpt>
      <trkpt lat="45.58087" lon="4.71445">
        <ele>289</ele>
        <time>2012-03-17T08:17:40Z</time>
      </trkpt>
      <trkpt lat="45.58084" lon="4.71442">
        <ele>288</ele>
        <time>2012-03-17T08:17:41Z</time>
      </trkpt>
      <trkpt lat="45.58083" lon="4.71439">
        <ele>287</ele>
        <time>2012-03-17T08:17:42Z</time>
      </trkpt>
      <trkpt lat="45.58082" lon="4.71435">
        <ele>287</ele>
        <time>2012-03-17T08:17:43Z</time>
      </trkpt>
      <trkpt lat="45.58081" lon="4.71432">
        <ele>286</ele>
        <time>2012-03-17T08:17:44Z</time>
      </trkpt>
      <trkpt lat="45.5808" lon="4.71429">
        <ele>286</ele>
        <time>2012-03-17T08:17:45Z</time>
      </trkpt>
      <trkpt lat="45.5808" lon="4.71426">
        <ele>285</ele>
        <time>2012-03-17T08:17:46Z</time>
      </trkpt>
      <trkpt lat="45.5808" lon="4.71422">
        <ele>285</ele>
        <time>2012-03-17T08:17:47Z</time>
      </trkpt>
      <trkpt lat="45.58081" lon="4.71418">
        <ele>285</ele>
        <time>2012-03-17T08:17:48Z</time>
      </trkpt>
      <trkpt lat="45.58081" lon="4.71401">
        <ele>282</ele>
        <time>2012-03-17T08:17:53Z</time>
      </trkpt>
      <trkpt lat="45.58082" lon="4.71399">
        <ele>282</ele>
        <time>2012-03-17T08:17:54Z</time>
      </trkpt>
      <trkpt lat="45.58083" lon="4.71397">
        <ele>282</ele>
        <time>2012-03-17T08:17:55Z</time>
      </trkpt>
      <trkpt lat="45.58086" lon="4.7139">
        <ele>281</ele>
        <time>2012-03-17T08:17:57Z</time>
      </trkpt>
      <trkpt lat="45.58086" lon="4.71386">
        <ele>280</ele>
        <time>2012-03-17T08:17:58Z</time>
      </trkpt>
      <trkpt lat="45.58085" lon="4.71382">
        <ele>280</ele>
        <time>2012-03-17T08:17:59Z</time>
      </trkpt>
      <trkpt lat="45.58082" lon="4.71379">
        <ele>280</ele>
        <time>2012-03-17T08:18:00Z</time>
      </trkpt>
      <trkpt lat="45.58079" lon="4.71375">
        <ele>280</ele>
        <time>2012-03-17T08:18:01Z</time>
      </trkpt>
      <trkpt lat="45.58076" lon="4.71371">
        <ele>279</ele>
        <time>2012-03-17T08:18:02Z</time>
      </trkpt>
      <trkpt lat="45.58054" lon="4.71347">
        <ele>279</ele>
        <time>2012-03-17T08:18:09Z</time>
      </trkpt>
      <trkpt lat="45.58043" lon="4.71331">
        <ele>278</ele>
        <time>2012-03-17T08:18:13Z</time>
      </trkpt>
      <trkpt lat="45.58019" lon="4.71298">
        <ele>277</ele>
        <time>2012-03-17T08:18:18Z</time>
      </trkpt>
      <trkpt lat="45.58013" lon="4.71293">
        <ele>276</ele>
        <time>2012-03-17T08:18:19Z</time>
      </trkpt>
      <trkpt lat="45.58" lon="4.71284">
        <ele>275</ele>
        <time>2012-03-17T08:18:21Z</time>
      </trkpt>
      <trkpt lat="45.57975" lon="4.71271">
        <ele>270</ele>
        <time>2012-03-17T08:18:24Z</time>
      </trkpt>
      <trkpt lat="45.57948" lon="4.71252">
        <ele>264</ele>
        <time>2012-03-17T08:18:27Z</time>
      </trkpt>
      <trkpt lat="45.57935" lon="4.71241">
        <ele>261</ele>
        <time>2012-03-17T08:18:29Z</time>
      </trkpt>
      <trkpt lat="45.57931" lon="4.71237">
        <ele>258</ele>
        <time>2012-03-17T08:18:30Z</time>
      </trkpt>
      <trkpt lat="45.5793" lon="4.71231">
        <ele>257</ele>
        <time>2012-03-17T08:18:31Z</time>
      </trkpt>
      <trkpt lat="45.57931" lon="4.71225">
        <ele>256</ele>
        <time>2012-03-17T08:18:32Z</time>
      </trkpt>
      <trkpt lat="45.57934" lon="4.71218">
        <ele>255</ele>
        <time>2012-03-17T08:18:33Z</time>
      </trkpt>
      <trkpt lat="45.57939" lon="4.71213">
        <ele>254</ele>
        <time>2012-03-17T08:18:34Z</time>
      </trkpt>
      <trkpt lat="45.57945" lon="4.7121">
        <ele>253</ele>
        <time>2012-03-17T08:18:35Z</time>
      </trkpt>
      <trkpt lat="45.57951" lon="4.71207">
        <ele>253</ele>
        <time>2012-03-17T08:18:36Z</time>
      </trkpt>
      <trkpt lat="45.57959" lon="4.71204">
        <ele>252</ele>
        <time>2012-03-17T08:18:37Z</time>
      </trkpt>
      <trkpt lat="45.57974" lon="4.71194">
        <ele>251</ele>
        <time>2012-03-17T08:18:39Z</time>
      </trkpt>
      <trkpt lat="45.57988" lon="4.71183">
        <ele>248</ele>
        <time>2012-03-17T08:18:41Z</time>
      </trkpt>
      <trkpt lat="45.57995" lon="4.71177">
        <ele>247</ele>
        <time>2012-03-17T08:18:42Z</time>
      </trkpt>
      <trkpt lat="45.58002" lon="4.71172">
        <ele>245</ele>
        <time>2012-03-17T08:18:43Z</time>
      </trkpt>
      <trkpt lat="45.58017" lon="4.71162">
        <ele>242</ele>
        <time>2012-03-17T08:18:45Z</time>
      </trkpt>
      <trkpt lat="45.58025" lon="4.7116">
        <ele>241</ele>
        <time>2012-03-17T08:18:46Z</time>
      </trkpt>
      <trkpt lat="45.58032" lon="4.7116">
        <ele>240</ele>
        <time>2012-03-17T08:18:47Z</time>
      </trkpt>
      <trkpt lat="45.58046" lon="4.71162">
        <ele>239</ele>
        <time>2012-03-17T08:18:49Z</time>
      </trkpt>
      <trkpt lat="45.58073" lon="4.71175">
        <ele>237</ele>
        <time>2012-03-17T08:18:54Z</time>
      </trkpt>
      <trkpt lat="45.58077" lon="4.71178">
        <ele>237</ele>
        <time>2012-03-17T08:18:55Z</time>
      </trkpt>
      <trkpt lat="45.58081" lon="4.71183">
        <ele>237</ele>
        <time>2012-03-17T08:18:56Z</time>
      </trkpt>
      <trkpt lat="45.58085" lon="4.71188">
        <ele>236</ele>
        <time>2012-03-17T08:18:57Z</time>
      </trkpt>
      <trkpt lat="45.58097" lon="4.7121">
        <ele>236</ele>
        <time>2012-03-17T08:19:02Z</time>
      </trkpt>
      <trkpt lat="45.58098" lon="4.7121">
        <ele>236</ele>
        <time>2012-03-17T08:19:03Z</time>
      </trkpt>
      <trkpt lat="45.581" lon="4.71208">
        <ele>237</ele>
        <time>2012-03-17T08:19:05Z</time>
      </trkpt>
      <trkpt lat="45.58103" lon="4.71194">
        <ele>237</ele>
        <time>2012-03-17T08:19:10Z</time>
      </trkpt>
      <trkpt lat="45.58103" lon="4.71183">
        <ele>236</ele>
        <time>2012-03-17T08:19:13Z</time>
      </trkpt>
      <trkpt lat="45.58103" lon="4.71176">
        <ele>235</ele>
        <time>2012-03-17T08:19:14Z</time>
      </trkpt>
      <trkpt lat="45.58101" lon="4.71169">
        <ele>235</ele>
        <time>2012-03-17T08:19:15Z</time>
      </trkpt>
      <trkpt lat="45.58099" lon="4.71162">
        <ele>234</ele>
        <time>2012-03-17T08:19:16Z</time>
      </trkpt>
      <trkpt lat="45.58089" lon="4.71135">
        <ele>233</ele>
        <time>2012-03-17T08:19:19Z</time>
      </trkpt>
      <trkpt lat="45.58079" lon="4.71118">
        <ele>232</ele>
        <time>2012-03-17T08:19:21Z</time>
      </trkpt>
      <trkpt lat="45.58073" lon="4.71111">
        <ele>231</ele>
        <time>2012-03-17T08:19:22Z</time>
      </trkpt>
      <trkpt lat="45.58058" lon="4.71096">
        <ele>228</ele>
        <time>2012-03-17T08:19:26Z</time>
      </trkpt>
      <trkpt lat="45.58056" lon="4.71093">
        <ele>228</ele>
        <time>2012-03-17T08:19:27Z</time>
      </trkpt>
      <trkpt lat="45.58038" lon="4.71085">
        <ele>227</ele>
        <time>2012-03-17T08:19:33Z</time>
      </trkpt>
      <trkpt lat="45.58027" lon="4.71084">
        <ele>226</ele>
        <time>2012-03-17T08:19:35Z</time>
      </trkpt>
      <trkpt lat="45.58003" lon="4.71083">
        <ele>223</ele>
        <time>2012-03-17T08:19:39Z</time>
      </trkpt>
      <trkpt lat="45.57995" lon="4.71083">
        <ele>223</ele>
        <time>2012-03-17T08:19:40Z</time>
      </trkpt>
      <trkpt lat="45.57987" lon="4.71081">
        <ele>221</ele>
        <time>2012-03-17T08:19:41Z</time>
      </trkpt>
      <trkpt lat="45.57978" lon="4.71077">
        <ele>220</ele>
        <time>2012-03-17T08:19:42Z</time>
      </trkpt>
      <trkpt lat="45.5797" lon="4.71071">
        <ele>219</ele>
        <time>2012-03-17T08:19:43Z</time>
      </trkpt>
      <trkpt lat="45.57961" lon="4.71066">
        <ele>219</ele>
        <time>2012-03-17T08:19:44Z</time>
      </trkpt>
      <trkpt lat="45.57942" lon="4.71057">
        <ele>218</ele>
        <time>2012-03-17T08:19:46Z</time>
      </trkpt>
      <trkpt lat="45.57931" lon="4.71055">
        <ele>216</ele>
        <time>2012-03-17T08:19:47Z</time>
      </trkpt>
      <trkpt lat="45.57921" lon="4.71053">
        <ele>214</ele>
        <time>2012-03-17T08:19:48Z</time>
      </trkpt>
      <trkpt lat="45.57887" lon="4.71047">
        <ele>212</ele>
        <time>2012-03-17T08:19:51Z</time>
      </trkpt>
      <trkpt lat="45.57876" lon="4.71042">
        <ele>211</ele>
        <time>2012-03-17T08:19:52Z</time>
      </trkpt>
      <trkpt lat="45.57854" lon="4.71031">
        <ele>209</ele>
        <time>2012-03-17T08:19:54Z</time>
      </trkpt>
      <trkpt lat="45.57843" lon="4.71029">
        <ele>209</ele>
        <time>2012-03-17T08:19:55Z</time>
      </trkpt>
      <trkpt lat="45.57833" lon="4.7103">
        <ele>208</ele>
        <time>2012-03-17T08:19:56Z</time>
      </trkpt>
      <trkpt lat="45.57793" lon="4.71039">
        <ele>205</ele>
        <time>2012-03-17T08:20:00Z</time>
      </trkpt>
      <trkpt lat="45.57765" lon="4.71047">
        <ele>202</ele>
        <time>2012-03-17T08:20:03Z</time>
      </trkpt>
      <trkpt lat="45.57756" lon="4.71049">
        <ele>202</ele>
        <time>2012-03-17T08:20:04Z</time>
      </trkpt>
      <trkpt lat="45.57686" lon="4.71056">
        <ele>199</ele>
        <time>2012-03-17T08:20:12Z</time>
      </trkpt>
      <trkpt lat="45.57639" lon="4.71065">
        <ele>198</ele>
        <time>2012-03-17T08:20:19Z</time>
      </trkpt>
      <trkpt lat="45.57604" lon="4.71074">
        <ele>198</ele>
        <time>2012-03-17T08:20:26Z</time>
      </trkpt>
      <trkpt lat="45.57599" lon="4.71078">
        <ele>198</ele>
        <time>2012-03-17T08:20:27Z</time>
      </trkpt>
      <trkpt lat="45.57586" lon="4.71087">
        <ele>199</ele>
        <time>2012-03-17T08:20:30Z</time>
      </trkpt>
      <trkpt lat="45.57554" lon="4.71108">
        <ele>198</ele>
        <time>2012-03-17T08:20:37Z</time>
      </trkpt>
      <trkpt lat="45.57537" lon="4.71124">
        <ele>197</ele>
        <time>2012-03-17T08:20:41Z</time>
      </trkpt>
      <trkpt lat="45.5752" lon="4.71145">
        <ele>196</ele>
        <time>2012-03-17T08:20:45Z</time>
      </trkpt>
      <trkpt lat="45.57512" lon="4.71158">
        <ele>195</ele>
        <time>2012-03-17T08:20:47Z</time>
      </trkpt>
      <trkpt lat="45.57487" lon="4.7119">
        <ele>193</ele>
        <time>2012-03-17T08:20:52Z</time>
      </trkpt>
      <trkpt lat="45.57482" lon="4.71194">
        <ele>192</ele>
        <time>2012-03-17T08:20:53Z</time>
      </trkpt>
      <trkpt lat="45.57477" lon="4.71195">
        <ele>192</ele>
        <time>2012-03-17T08:20:54Z</time>
      </trkpt>
      <trkpt lat="45.57472" lon="4.71191">
        <ele>191</ele>
        <time>2012-03-17T08:20:55Z</time>
      </trkpt>
      <trkpt lat="45.5747" lon="4.71186">
        <ele>191</ele>
        <time>2012-03-17T08:20:56Z</time>
      </trkpt>
      <trkpt lat="45.5747" lon="4.71179">
        <ele>191</ele>
        <time>2012-03-17T08:20:57Z</time>
      </trkpt>
      <trkpt lat="45.5747" lon="4.71174">
        <ele>191</ele>
        <time>2012-03-17T08:20:58Z</time>
      </trkpt>
      <trkpt lat="45.57469" lon="4.71169">
        <ele>191</ele>
        <time>2012-03-17T08:20:59Z</time>
      </trkpt>
      <trkpt lat="45.57468" lon="4.71164">
        <ele>192</ele>
        <time>2012-03-17T08:21:00Z</time>
      </trkpt>
      <trkpt lat="45.57466" lon="4.7116">
        <ele>192</ele>
        <time>2012-03-17T08:21:01Z</time>
      </trkpt>
      <trkpt lat="45.57464" lon="4.71156">
        <ele>192</ele>
        <time>2012-03-17T08:21:02Z</time>
      </trkpt>
      <trkpt lat="45.57462" lon="4.71152">
        <ele>193</ele>
        <time>2012-03-17T08:21:03Z</time>
      </trkpt>
      <trkpt lat="45.5746" lon="4.71149">
        <ele>193</ele>
        <time>2012-03-17T08:21:04Z</time>
      </trkpt>
      <trkpt lat="45.57458" lon="4.71146">
        <ele>193</ele>
        <time>2012-03-17T08:21:05Z</time>
      </trkpt>
      <trkpt lat="45.57437" lon="4.71114">
        <ele>195</ele>
        <time>2012-03-17T08:21:15Z</time>
      </trkpt>
      <trkpt lat="45.57417" lon="4.71082">
        <ele>197</ele>
        <time>2012-03-17T08:21:25Z</time>
      </trkpt>
      <trkpt lat="45.57407" lon="4.71065">
        <ele>198</ele>
        <time>2012-03-17T08:21:30Z</time>
      </trkpt>
      <trkpt lat="45.57388" lon="4.71035">
        <ele>201</ele>
        <time>2012-03-17T08:21:40Z</time>
      </trkpt>
      <trkpt lat="45.57379" lon="4.71012">
        <ele>202</ele>
        <time>2012-03-17T08:21:47Z</time>
      </trkpt>
      <trkpt lat="45.57375" lon="4.70977">
        <ele>204</ele>
        <time>2012-03-17T08:21:56Z</time>
      </trkpt>
      <trkpt lat="45.57376" lon="4.70948">
        <ele>204</ele>
        <time>2012-03-17T08:22:04Z</time>
      </trkpt>
      <trkpt lat="45.57379" lon="4.70915">
        <ele>207</ele>
        <time>2012-03-17T08:22:13Z</time>
      </trkpt>
      <trkpt lat="45.57382" lon="4.70888">
        <ele>209</ele>
        <time>2012-03-17T08:22:21Z</time>
      </trkpt>
      <trkpt lat="45.57384" lon="4.70852">
        <ele>210</ele>
        <time>2012-03-17T08:22:31Z</time>
      </trkpt>
      <trkpt lat="45.57386" lon="4.70829">
        <ele>211</ele>
        <time>2012-03-17T08:22:38Z</time>
      </trkpt>
      <trkpt lat="45.57387" lon="4.70803">
        <ele>213</ele>
        <time>2012-03-17T08:22:46Z</time>
      </trkpt>
      <trkpt lat="45.57389" lon="4.70788">
        <ele>213</ele>
        <time>2012-03-17T08:22:53Z</time>
      </trkpt>
      <trkpt lat="45.57388" lon="4.70781">
        <ele>213</ele>
        <time>2012-03-17T08:22:56Z</time>
      </trkpt>
      <trkpt lat="45.57388" lon="4.70779">
        <ele>214</ele>
        <time>2012-03-17T08:22:57Z</time>
      </trkpt>
      <trkpt lat="45.57389" lon="4.70777">
        <ele>214</ele>
        <time>2012-03-17T08:22:58Z</time>
      </trkpt>
      <trkpt lat="45.57395" lon="4.70779">
        <ele>214</ele>
        <time>2012-03-17T08:23:02Z</time>
      </trkpt>
      <trkpt lat="45.57396" lon="4.70781">
        <ele>214</ele>
        <time>2012-03-17T08:23:03Z</time>
      </trkpt>
      <trkpt lat="45.57397" lon="4.70785">
        <ele>215</ele>
        <time>2012-03-17T08:23:05Z</time>
      </trkpt>
      <trkpt lat="45.57402" lon="4.70799">
        <ele>217</ele>
        <time>2012-03-17T08:23:13Z</time>
      </trkpt>
      <trkpt lat="45.57405" lon="4.70805">
        <ele>219</ele>
        <time>2012-03-17T08:23:17Z</time>
      </trkpt>
      <trkpt lat="45.57407" lon="4.7081">
        <ele>220</ele>
        <time>2012-03-17T08:23:20Z</time>
      </trkpt>
      <trkpt lat="45.5741" lon="4.70818">
        <ele>221</ele>
        <time>2012-03-17T08:23:25Z</time>
      </trkpt>
      <trkpt lat="45.57414" lon="4.7083">
        <ele>223</ele>
        <time>2012-03-17T08:23:32Z</time>
      </trkpt>
      <trkpt lat="45.57416" lon="4.70842">
        <ele>224</ele>
        <time>2012-03-17T08:23:39Z</time>
      </trkpt>
      <trkpt lat="45.57419" lon="4.70857">
        <ele>227</ele>
        <time>2012-03-17T08:23:48Z</time>
      </trkpt>
      <trkpt lat="45.57421" lon="4.70863">
        <ele>227</ele>
        <time>2012-03-17T08:23:52Z</time>
      </trkpt>
      <trkpt lat="45.57427" lon="4.70878">
        <ele>229</ele>
        <time>2012-03-17T08:24:01Z</time>
      </trkpt>
      <trkpt lat="45.57429" lon="4.70888">
        <ele>230</ele>
        <time>2012-03-17T08:24:07Z</time>
      </trkpt>
      <trkpt lat="45.57433" lon="4.70901">
        <ele>231</ele>
        <time>2012-03-17T08:24:16Z</time>
      </trkpt>
      <trkpt lat="45.57437" lon="4.7091">
        <ele>232</ele>
        <time>2012-03-17T08:24:22Z</time>
      </trkpt>
      <trkpt lat="45.57443" lon="4.70922">
        <ele>234</ele>
        <time>2012-03-17T08:24:30Z</time>
      </trkpt>
      <trkpt lat="45.57449" lon="4.70932">
        <ele>234</ele>
        <time>2012-03-17T08:24:36Z</time>
      </trkpt>
      <trkpt lat="45.57457" lon="4.70946">
        <ele>236</ele>
        <time>2012-03-17T08:24:45Z</time>
      </trkpt>
      <trkpt lat="45.57466" lon="4.70958">
        <ele>237</ele>
        <time>2012-03-17T08:24:53Z</time>
      </trkpt>
      <trkpt lat="45.57467" lon="4.70959">
        <ele>238</ele>
        <time>2012-03-17T08:24:54Z</time>
      </trkpt>
      <trkpt lat="45.57477" lon="4.70967">
        <ele>239</ele>
        <time>2012-03-17T08:25:01Z</time>
      </trkpt>
      <trkpt lat="45.57484" lon="4.70972">
        <ele>240</ele>
        <time>2012-03-17T08:25:07Z</time>
      </trkpt>
      <trkpt lat="45.57491" lon="4.70968">
        <ele>241</ele>
        <time>2012-03-17T08:25:13Z</time>
      </trkpt>
      <trkpt lat="45.57492" lon="4.70963">
        <ele>241</ele>
        <time>2012-03-17T08:25:16Z</time>
      </trkpt>
      <trkpt lat="45.5749" lon="4.70948">
        <ele>244</ele>
        <time>2012-03-17T08:25:24Z</time>
      </trkpt>
      <trkpt lat="45.57489" lon="4.70934">
        <ele>247</ele>
        <time>2012-03-17T08:25:32Z</time>
      </trkpt>
      <trkpt lat="45.57489" lon="4.70929">
        <ele>248</ele>
        <time>2012-03-17T08:25:35Z</time>
      </trkpt>
      <trkpt lat="45.57489" lon="4.70921">
        <ele>249</ele>
        <time>2012-03-17T08:25:39Z</time>
      </trkpt>
      <trkpt lat="45.57487" lon="4.70902">
        <ele>252</ele>
        <time>2012-03-17T08:25:50Z</time>
      </trkpt>
      <trkpt lat="45.57486" lon="4.70887">
        <ele>255</ele>
        <time>2012-03-17T08:25:59Z</time>
      </trkpt>
      <trkpt lat="45.57486" lon="4.70877">
        <ele>256</ele>
        <time>2012-03-17T08:26:06Z</time>
      </trkpt>
      <trkpt lat="45.57487" lon="4.70871">
        <ele>257</ele>
        <time>2012-03-17T08:26:10Z</time>
      </trkpt>
      <trkpt lat="45.5749" lon="4.70864">
        <ele>258</ele>
        <time>2012-03-17T08:26:15Z</time>
      </trkpt>
      <trkpt lat="45.57492" lon="4.70863">
        <ele>259</ele>
        <time>2012-03-17T08:26:17Z</time>
      </trkpt>
      <trkpt lat="45.57498" lon="4.70865">
        <ele>259</ele>
        <time>2012-03-17T08:26:22Z</time>
      </trkpt>
      <trkpt lat="45.57508" lon="4.70869">
        <ele>262</ele>
        <time>2012-03-17T08:26:32Z</time>
      </trkpt>
      <trkpt lat="45.57511" lon="4.70869">
        <ele>263</ele>
        <time>2012-03-17T08:26:35Z</time>
      </trkpt>
      <trkpt lat="45.57516" lon="4.70864">
        <ele>264</ele>
        <time>2012-03-17T08:26:41Z</time>
      </trkpt>
      <trkpt lat="45.57522" lon="4.70862">
        <ele>265</ele>
        <time>2012-03-17T08:26:46Z</time>
      </trkpt>
      <trkpt lat="45.57531" lon="4.70851">
        <ele>266</ele>
        <time>2012-03-17T08:26:57Z</time>
      </trkpt>
      <trkpt lat="45.57538" lon="4.70843">
        <ele>268</ele>
        <time>2012-03-17T08:27:05Z</time>
      </trkpt>
      <trkpt lat="45.57547" lon="4.70832">
        <ele>269</ele>
        <time>2012-03-17T08:27:15Z</time>
      </trkpt>
      <trkpt lat="45.57552" lon="4.70824">
        <ele>270</ele>
        <time>2012-03-17T08:27:22Z</time>
      </trkpt>
      <trkpt lat="45.57553" lon="4.70823">
        <ele>271</ele>
        <time>2012-03-17T08:27:23Z</time>
      </trkpt>
      <trkpt lat="45.57561" lon="4.70808">
        <ele>273</ele>
        <time>2012-03-17T08:27:34Z</time>
      </trkpt>
      <trkpt lat="45.57563" lon="4.70802">
        <ele>274</ele>
        <time>2012-03-17T08:27:38Z</time>
      </trkpt>
      <trkpt lat="45.5757" lon="4.70789">
        <ele>276</ele>
        <time>2012-03-17T08:27:48Z</time>
      </trkpt>
      <trkpt lat="45.57577" lon="4.70777">
        <ele>279</ele>
        <time>2012-03-17T08:27:57Z</time>
      </trkpt>
      <trkpt lat="45.57584" lon="4.70764">
        <ele>281</ele>
        <time>2012-03-17T08:28:07Z</time>
      </trkpt>
      <trkpt lat="45.57591" lon="4.70753">
        <ele>283</ele>
        <time>2012-03-17T08:28:14Z</time>
      </trkpt>
      <trkpt lat="45.576" lon="4.70741">
        <ele>285</ele>
        <time>2012-03-17T08:28:23Z</time>
      </trkpt>
      <trkpt lat="45.57611" lon="4.7073">
        <ele>286</ele>
        <time>2012-03-17T08:28:32Z</time>
      </trkpt>
      <trkpt lat="45.57612" lon="4.70729">
        <ele>286</ele>
        <time>2012-03-17T08:28:33Z</time>
      </trkpt>
      <trkpt lat="45.57609" lon="4.7072">
        <ele>287</ele>
        <time>2012-03-17T08:28:41Z</time>
      </trkpt>
      <trkpt lat="45.57609" lon="4.7072">
        <ele>287</ele>
        <time>2012-03-17T08:28:47Z</time>
      </trkpt>
      <trkpt lat="45.57609" lon="4.7072">
        <ele>287</ele>
        <time>2012-03-17T08:28:56Z</time>
      </trkpt>
      <trkpt lat="45.57609" lon="4.7072">
        <ele>287</ele>
        <time>2012-03-17T08:29:19Z</time>
      </trkpt>
      <trkpt lat="45.5761" lon="4.7072">
        <ele>287</ele>
        <time>2012-03-17T08:29:46Z</time>
      </trkpt>
      <trkpt lat="45.5761" lon="4.7072">
        <ele>287</ele>
        <time>2012-03-17T08:30:06Z</time>
      </trkpt>
      <trkpt lat="45.5761" lon="4.7072">
        <ele>287</ele>
        <time>2012-03-17T08:30:26Z</time>
      </trkpt>
      <trkpt lat="45.57609" lon="4.7072">
        <ele>287</ele>
        <time>2012-03-17T08:30:49Z</time>
      </trkpt>
      <trkpt lat="45.57609" lon="4.7072">
        <ele>287</ele>
        <time>2012-03-17T08:31:14Z</time>
      </trkpt>
      <trkpt lat="45.57609" lon="4.7072">
        <ele>287</ele>
        <time>2012-03-17T08:31:36Z</time>
      </trkpt>
      <trkpt lat="45.57609" lon="4.7072">
        <ele>287</ele>
        <time>2012-03-17T08:31:59Z</time>
      </trkpt>
      <trkpt lat="45.57609" lon="4.7072">
        <ele>287</ele>
        <time>2012-03-17T08:32:19Z</time>
      </trkpt>
      <trkpt lat="45.57609" lon="4.7072">
        <ele>287</ele>
        <time>2012-03-17T08:32:40Z</time>
      </trkpt>
      <trkpt lat="45.57609" lon="4.7072">
        <ele>287</ele>
        <time>2012-03-17T08:33:01Z</time>
      </trkpt>
      <trkpt lat="45.57609" lon="4.7072">
        <ele>287</ele>
        <time>2012-03-17T08:33:21Z</time>
      </trkpt>
      <trkpt lat="45.57609" lon="4.7072">
        <ele>286</ele>
        <time>2012-03-17T08:33:43Z</time>
      </trkpt>
      <trkpt lat="45.57609" lon="4.7072">
        <ele>287</ele>
        <time>2012-03-17T08:34:04Z</time>
      </trkpt>
      <trkpt lat="45.57609" lon="4.70719">
        <ele>287</ele>
        <time>2012-03-17T08:34:26Z</time>
      </trkpt>
      <trkpt lat="45.57609" lon="4.70719">
        <ele>286</ele>
        <time>2012-03-17T08:34:47Z</time>
      </trkpt>
      <trkpt lat="45.57609" lon="4.70719">
        <ele>287</ele>
        <time>2012-03-17T08:35:09Z</time>
      </trkpt>
      <trkpt lat="45.57609" lon="4.7072">
        <ele>286</ele>
        <time>2012-03-17T08:35:30Z</time>
      </trkpt>
      <trkpt lat="45.57609" lon="4.7072">
        <ele>286</ele>
        <time>2012-03-17T08:35:51Z</time>
      </trkpt>
      <trkpt lat="45.57609" lon="4.7072">
        <ele>286</ele>
        <time>2012-03-17T08:36:15Z</time>
      </trkpt>
      <trkpt lat="45.57609" lon="4.7072">
        <ele>286</ele>
        <time>2012-03-17T08:36:44Z</time>
      </trkpt>
      <trkpt lat="45.5761" lon="4.7072">
        <ele>286</ele>
        <time>2012-03-17T08:37:07Z</time>
      </trkpt>
      <trkpt lat="45.5761" lon="4.7072">
        <ele>287</ele>
        <time>2012-03-17T08:37:24Z</time>
      </trkpt>
      <trkpt lat="45.57609" lon="4.70723">
        <ele>286</ele>
        <time>2012-03-17T08:37:29Z</time>
      </trkpt>
      <trkpt lat="45.5762" lon="4.70725">
        <ele>286</ele>
        <time>2012-03-17T08:37:35Z</time>
      </trkpt>
      <trkpt lat="45.57638" lon="4.7071">
        <ele>287</ele>
        <time>2012-03-17T08:37:42Z</time>
      </trkpt>
      <trkpt lat="45.57658" lon="4.7069">
        <ele>288</ele>
        <time>2012-03-17T08:37:51Z</time>
      </trkpt>
      <trkpt lat="45.57678" lon="4.70669">
        <ele>291</ele>
        <time>2012-03-17T08:38:00Z</time>
      </trkpt>
      <trkpt lat="45.57691" lon="4.70654">
        <ele>292</ele>
        <time>2012-03-17T08:38:07Z</time>
      </trkpt>
      <trkpt lat="45.5771" lon="4.70636">
        <ele>293</ele>
        <time>2012-03-17T08:38:16Z</time>
      </trkpt>
      <trkpt lat="45.57731" lon="4.70614">
        <ele>294</ele>
        <time>2012-03-17T08:38:26Z</time>
      </trkpt>
      <trkpt lat="45.57751" lon="4.70592">
        <ele>295</ele>
        <time>2012-03-17T08:38:34Z</time>
      </trkpt>
      <trkpt lat="45.57778" lon="4.70567">
        <ele>296</ele>
        <time>2012-03-17T08:38:43Z</time>
      </trkpt>
      <trkpt lat="45.57814" lon="4.70545">
        <ele>297</ele>
        <time>2012-03-17T08:38:54Z</time>
      </trkpt>
      <trkpt lat="45.57847" lon="4.70536">
        <ele>297</ele>
        <time>2012-03-17T08:39:03Z</time>
      </trkpt>
      <trkpt lat="45.57875" lon="4.70528">
        <ele>297</ele>
        <time>2012-03-17T08:39:10Z</time>
      </trkpt>
      <trkpt lat="45.57886" lon="4.70524">
        <ele>297</ele>
        <time>2012-03-17T08:39:13Z</time>
      </trkpt>
      <trkpt lat="45.57922" lon="4.70506">
        <ele>297</ele>
        <time>2012-03-17T08:39:22Z</time>
      </trkpt>
      <trkpt lat="45.57941" lon="4.7049">
        <ele>298</ele>
        <time>2012-03-17T08:39:27Z</time>
      </trkpt>
      <trkpt lat="45.57948" lon="4.70482">
        <ele>298</ele>
        <time>2012-03-17T08:39:29Z</time>
      </trkpt>
      <trkpt lat="45.57974" lon="4.70447">
        <ele>298</ele>
        <time>2012-03-17T08:39:37Z</time>
      </trkpt>
      <trkpt lat="45.58007" lon="4.70406">
        <ele>300</ele>
        <time>2012-03-17T08:39:47Z</time>
      </trkpt>
      <trkpt lat="45.58037" lon="4.70382">
        <ele>300</ele>
        <time>2012-03-17T08:39:55Z</time>
      </trkpt>
      <trkpt lat="45.58041" lon="4.70379">
        <ele>300</ele>
        <time>2012-03-17T08:39:56Z</time>
      </trkpt>
      <trkpt lat="45.58045" lon="4.70376">
        <ele>300</ele>
        <time>2012-03-17T08:39:57Z</time>
      </trkpt>
      <trkpt lat="45.58074" lon="4.70355">
        <ele>301</ele>
        <time>2012-03-17T08:40:05Z</time>
      </trkpt>
      <trkpt lat="45.58099" lon="4.70332">
        <ele>303</ele>
        <time>2012-03-17T08:40:13Z</time>
      </trkpt>
      <trkpt lat="45.58116" lon="4.70296">
        <ele>304</ele>
        <time>2012-03-17T08:40:22Z</time>
      </trkpt>
      <trkpt lat="45.58128" lon="4.70271">
        <ele>306</ele>
        <time>2012-03-17T08:40:28Z</time>
      </trkpt>
      <trkpt lat="45.58143" lon="4.70226">
        <ele>306</ele>
        <time>2012-03-17T08:40:38Z</time>
      </trkpt>
      <trkpt lat="45.58156" lon="4.70185">
        <ele>306</ele>
        <time>2012-03-17T08:40:47Z</time>
      </trkpt>
      <trkpt lat="45.58167" lon="4.70155">
        <ele>307</ele>
        <time>2012-03-17T08:40:54Z</time>
      </trkpt>
      <trkpt lat="45.58183" lon="4.70102">
        <ele>308</ele>
        <time>2012-03-17T08:41:06Z</time>
      </trkpt>
      <trkpt lat="45.58196" lon="4.70062">
        <ele>309</ele>
        <time>2012-03-17T08:41:15Z</time>
      </trkpt>
      <trkpt lat="45.58208" lon="4.70022">
        <ele>310</ele>
        <time>2012-03-17T08:41:24Z</time>
      </trkpt>
      <trkpt lat="45.58224" lon="4.69978">
        <ele>312</ele>
        <time>2012-03-17T08:41:34Z</time>
      </trkpt>
      <trkpt lat="45.58248" lon="4.69929">
        <ele>314</ele>
        <time>2012-03-17T08:41:46Z</time>
      </trkpt>
      <trkpt lat="45.5826" lon="4.69909">
        <ele>313</ele>
        <time>2012-03-17T08:41:51Z</time>
      </trkpt>
      <trkpt lat="45.58269" lon="4.69898">
        <ele>314</ele>
        <time>2012-03-17T08:41:54Z</time>
      </trkpt>
      <trkpt lat="45.58278" lon="4.69886">
        <ele>313</ele>
        <time>2012-03-17T08:41:57Z</time>
      </trkpt>
      <trkpt lat="45.58281" lon="4.69882">
        <ele>313</ele>
        <time>2012-03-17T08:41:58Z</time>
      </trkpt>
      <trkpt lat="45.5831" lon="4.69844">
        <ele>313</ele>
        <time>2012-03-17T08:42:07Z</time>
      </trkpt>
      <trkpt lat="45.58347" lon="4.69815">
        <ele>312</ele>
        <time>2012-03-17T08:42:16Z</time>
      </trkpt>
      <trkpt lat="45.58379" lon="4.69799">
        <ele>313</ele>
        <time>2012-03-17T08:42:23Z</time>
      </trkpt>
      <trkpt lat="45.58384" lon="4.69797">
        <ele>312</ele>
        <time>2012-03-17T08:42:24Z</time>
      </trkpt>
      <trkpt lat="45.58417" lon="4.69784">
        <ele>312</ele>
        <time>2012-03-17T08:42:31Z</time>
      </trkpt>
      <trkpt lat="45.58431" lon="4.69782">
        <ele>312</ele>
        <time>2012-03-17T08:42:34Z</time>
      </trkpt>
      <trkpt lat="45.58449" lon="4.69774">
        <ele>313</ele>
        <time>2012-03-17T08:42:38Z</time>
      </trkpt>
      <trkpt lat="45.58453" lon="4.69771">
        <ele>313</ele>
        <time>2012-03-17T08:42:39Z</time>
      </trkpt>
      <trkpt lat="45.58472" lon="4.69751">
        <ele>313</ele>
        <time>2012-03-17T08:42:44Z</time>
      </trkpt>
      <trkpt lat="45.58483" lon="4.69739">
        <ele>314</ele>
        <time>2012-03-17T08:42:47Z</time>
      </trkpt>
      <trkpt lat="45.58487" lon="4.69736">
        <ele>314</ele>
        <time>2012-03-17T08:42:48Z</time>
      </trkpt>
      <trkpt lat="45.58511" lon="4.69717">
        <ele>315</ele>
        <time>2012-03-17T08:42:55Z</time>
      </trkpt>
      <trkpt lat="45.58521" lon="4.69706">
        <ele>317</ele>
        <time>2012-03-17T08:42:59Z</time>
      </trkpt>
      <trkpt lat="45.58522" lon="4.69702">
        <ele>316</ele>
        <time>2012-03-17T08:43:00Z</time>
      </trkpt>
      <trkpt lat="45.58521" lon="4.69698">
        <ele>317</ele>
        <time>2012-03-17T08:43:01Z</time>
      </trkpt>
      <trkpt lat="45.58519" lon="4.69693">
        <ele>317</ele>
        <time>2012-03-17T08:43:02Z</time>
      </trkpt>
      <trkpt lat="45.58518" lon="4.69688">
        <ele>317</ele>
        <time>2012-03-17T08:43:03Z</time>
      </trkpt>
      <trkpt lat="45.58509" lon="4.69646">
        <ele>317</ele>
        <time>2012-03-17T08:43:11Z</time>
      </trkpt>
      <trkpt lat="45.58511" lon="4.69636">
        <ele>318</ele>
        <time>2012-03-17T08:43:13Z</time>
      </trkpt>
      <trkpt lat="45.58515" lon="4.69634">
        <ele>318</ele>
        <time>2012-03-17T08:43:14Z</time>
      </trkpt>
      <trkpt lat="45.58522" lon="4.69633">
        <ele>319</ele>
        <time>2012-03-17T08:43:16Z</time>
      </trkpt>
      <trkpt lat="45.58543" lon="4.69626">
        <ele>320</ele>
        <time>2012-03-17T08:43:22Z</time>
      </trkpt>
      <trkpt lat="45.58568" lon="4.69612">
        <ele>321</ele>
        <time>2012-03-17T08:43:29Z</time>
      </trkpt>
      <trkpt lat="45.58594" lon="4.69589">
        <ele>322</ele>
        <time>2012-03-17T08:43:37Z</time>
      </trkpt>
      <trkpt lat="45.58623" lon="4.69572">
        <ele>323</ele>
        <time>2012-03-17T08:43:45Z</time>
      </trkpt>
      <trkpt lat="45.58649" lon="4.69567">
        <ele>325</ele>
        <time>2012-03-17T08:43:52Z</time>
      </trkpt>
      <trkpt lat="45.58679" lon="4.69561">
        <ele>326</ele>
        <time>2012-03-17T08:44:00Z</time>
      </trkpt>
      <trkpt lat="45.58717" lon="4.69548">
        <ele>328</ele>
        <time>2012-03-17T08:44:10Z</time>
      </trkpt>
      <trkpt lat="45.58733" lon="4.69542">
        <ele>329</ele>
        <time>2012-03-17T08:44:14Z</time>
      </trkpt>
      <trkpt lat="45.58767" lon="4.69532">
        <ele>330</ele>
        <time>2012-03-17T08:44:23Z</time>
      </trkpt>
      <trkpt lat="45.58797" lon="4.69529">
        <ele>331</ele>
        <time>2012-03-17T08:44:31Z</time>
      </trkpt>
      <trkpt lat="45.588" lon="4.69532">
        <ele>331</ele>
        <time>2012-03-17T08:44:32Z</time>
      </trkpt>
      <trkpt lat="45.58803" lon="4.69536">
        <ele>331</ele>
        <time>2012-03-17T08:44:33Z</time>
      </trkpt>
      <trkpt lat="45.58805" lon="4.69541">
        <ele>331</ele>
        <time>2012-03-17T08:44:34Z</time>
      </trkpt>
      <trkpt lat="45.58806" lon="4.69546">
        <ele>331</ele>
        <time>2012-03-17T08:44:35Z</time>
      </trkpt>
      <trkpt lat="45.58808" lon="4.69552">
        <ele>332</ele>
        <time>2012-03-17T08:44:36Z</time>
      </trkpt>
      <trkpt lat="45.58812" lon="4.69562">
        <ele>332</ele>
        <time>2012-03-17T08:44:38Z</time>
      </trkpt>
      <trkpt lat="45.58815" lon="4.69567">
        <ele>332</ele>
        <time>2012-03-17T08:44:39Z</time>
      </trkpt>
      <trkpt lat="45.5883" lon="4.69607">
        <ele>331</ele>
        <time>2012-03-17T08:44:46Z</time>
      </trkpt>
      <trkpt lat="45.5886" lon="4.69652">
        <ele>330</ele>
        <time>2012-03-17T08:44:55Z</time>
      </trkpt>
      <trkpt lat="45.58882" lon="4.69674">
        <ele>330</ele>
        <time>2012-03-17T08:45:01Z</time>
      </trkpt>
      <trkpt lat="45.58887" lon="4.69676">
        <ele>329</ele>
        <time>2012-03-17T08:45:02Z</time>
      </trkpt>
      <trkpt lat="45.58891" lon="4.69679">
        <ele>330</ele>
        <time>2012-03-17T08:45:03Z</time>
      </trkpt>
      <trkpt lat="45.58896" lon="4.6968">
        <ele>329</ele>
        <time>2012-03-17T08:45:04Z</time>
      </trkpt>
      <trkpt lat="45.589" lon="4.69681">
        <ele>330</ele>
        <time>2012-03-17T08:45:05Z</time>
      </trkpt>
      <trkpt lat="45.58928" lon="4.69691">
        <ele>330</ele>
        <time>2012-03-17T08:45:11Z</time>
      </trkpt>
      <trkpt lat="45.58932" lon="4.69695">
        <ele>330</ele>
        <time>2012-03-17T08:45:12Z</time>
      </trkpt>
      <trkpt lat="45.58935" lon="4.69701">
        <ele>329</ele>
        <time>2012-03-17T08:45:13Z</time>
      </trkpt>
      <trkpt lat="45.58939" lon="4.69708">
        <ele>329</ele>
        <time>2012-03-17T08:45:14Z</time>
      </trkpt>
      <trkpt lat="45.58941" lon="4.69714">
        <ele>329</ele>
        <time>2012-03-17T08:45:15Z</time>
      </trkpt>
      <trkpt lat="45.58963" lon="4.69764">
        <ele>327</ele>
        <time>2012-03-17T08:45:22Z</time>
      </trkpt>
      <trkpt lat="45.58982" lon="4.69797">
        <ele>327</ele>
        <time>2012-03-17T08:45:27Z</time>
      </trkpt>
      <trkpt lat="45.58984" lon="4.69805">
        <ele>326</ele>
        <time>2012-03-17T08:45:28Z</time>
      </trkpt>
      <trkpt lat="45.58988" lon="4.69821">
        <ele>326</ele>
        <time>2012-03-17T08:45:30Z</time>
      </trkpt>
      <trkpt lat="45.58991" lon="4.69827">
        <ele>326</ele>
        <time>2012-03-17T08:45:31Z</time>
      </trkpt>
      <trkpt lat="45.58995" lon="4.69832">
        <ele>326</ele>
        <time>2012-03-17T08:45:32Z</time>
      </trkpt>
      <trkpt lat="45.59003" lon="4.6984">
        <ele>326</ele>
        <time>2012-03-17T08:45:34Z</time>
      </trkpt>
      <trkpt lat="45.59023" lon="4.6986">
        <ele>326</ele>
        <time>2012-03-17T08:45:39Z</time>
      </trkpt>
      <trkpt lat="45.59027" lon="4.69864">
        <ele>326</ele>
        <time>2012-03-17T08:45:40Z</time>
      </trkpt>
      <trkpt lat="45.59056" lon="4.69898">
        <ele>328</ele>
        <time>2012-03-17T08:45:48Z</time>
      </trkpt>
      <trkpt lat="45.59059" lon="4.69903">
        <ele>328</ele>
        <time>2012-03-17T08:45:49Z</time>
      </trkpt>
      <trkpt lat="45.59062" lon="4.69908">
        <ele>328</ele>
        <time>2012-03-17T08:45:50Z</time>
      </trkpt>
      <trkpt lat="45.59064" lon="4.69914">
        <ele>328</ele>
        <time>2012-03-17T08:45:51Z</time>
      </trkpt>
      <trkpt lat="45.5907" lon="4.69932">
        <ele>328</ele>
        <time>2012-03-17T08:45:54Z</time>
      </trkpt>
      <trkpt lat="45.59087" lon="4.69967">
        <ele>328</ele>
        <time>2012-03-17T08:46:00Z</time>
      </trkpt>
      <trkpt lat="45.59091" lon="4.69971">
        <ele>328</ele>
        <time>2012-03-17T08:46:01Z</time>
      </trkpt>
      <trkpt lat="45.59095" lon="4.69975">
        <ele>328</ele>
        <time>2012-03-17T08:46:02Z</time>
      </trkpt>
      <trkpt lat="45.59104" lon="4.69982">
        <ele>329</ele>
        <time>2012-03-17T08:46:04Z</time>
      </trkpt>
      <trkpt lat="45.59108" lon="4.69986">
        <ele>328</ele>
        <time>2012-03-17T08:46:05Z</time>
      </trkpt>
      <trkpt lat="45.59139" lon="4.7001">
        <ele>328</ele>
        <time>2012-03-17T08:46:12Z</time>
      </trkpt>
      <trkpt lat="45.59144" lon="4.70013">
        <ele>328</ele>
        <time>2012-03-17T08:46:13Z</time>
      </trkpt>
      <trkpt lat="45.5918" lon="4.70038">
        <ele>329</ele>
        <time>2012-03-17T08:46:21Z</time>
      </trkpt>
      <trkpt lat="45.5922" lon="4.70065">
        <ele>330</ele>
        <time>2012-03-17T08:46:30Z</time>
      </trkpt>
      <trkpt lat="45.59255" lon="4.70091">
        <ele>330</ele>
        <time>2012-03-17T08:46:37Z</time>
      </trkpt>
      <trkpt lat="45.59304" lon="4.70129">
        <ele>330</ele>
        <time>2012-03-17T08:46:46Z</time>
      </trkpt>
      <trkpt lat="45.5934" lon="4.70161">
        <ele>330</ele>
        <time>2012-03-17T08:46:53Z</time>
      </trkpt>
      <trkpt lat="45.59398" lon="4.70218">
        <ele>329</ele>
        <time>2012-03-17T08:47:04Z</time>
      </trkpt>
      <trkpt lat="45.59445" lon="4.70265">
        <ele>328</ele>
        <time>2012-03-17T08:47:12Z</time>
      </trkpt>
      <trkpt lat="45.5945" lon="4.70271">
        <ele>328</ele>
        <time>2012-03-17T08:47:13Z</time>
      </trkpt>
      <trkpt lat="45.59502" lon="4.70324">
        <ele>327</ele>
        <time>2012-03-17T08:47:22Z</time>
      </trkpt>
      <trkpt lat="45.59516" lon="4.70342">
        <ele>327</ele>
        <time>2012-03-17T08:47:25Z</time>
      </trkpt>
      <trkpt lat="45.59519" lon="4.7035">
        <ele>327</ele>
        <time>2012-03-17T08:47:26Z</time>
      </trkpt>
      <trkpt lat="45.59522" lon="4.70358">
        <ele>327</ele>
        <time>2012-03-17T08:47:27Z</time>
      </trkpt>
      <trkpt lat="45.59535" lon="4.70397">
        <ele>327</ele>
        <time>2012-03-17T08:47:32Z</time>
      </trkpt>
      <trkpt lat="45.59538" lon="4.70403">
        <ele>327</ele>
        <time>2012-03-17T08:47:33Z</time>
      </trkpt>
      <trkpt lat="45.59568" lon="4.7044">
        <ele>326</ele>
        <time>2012-03-17T08:47:39Z</time>
      </trkpt>
      <trkpt lat="45.59579" lon="4.7046">
        <ele>326</ele>
        <time>2012-03-17T08:47:42Z</time>
      </trkpt>
      <trkpt lat="45.59582" lon="4.70467">
        <ele>326</ele>
        <time>2012-03-17T08:47:43Z</time>
      </trkpt>
      <trkpt lat="45.59585" lon="4.70473">
        <ele>326</ele>
        <time>2012-03-17T08:47:44Z</time>
      </trkpt>
      <trkpt lat="45.59589" lon="4.70484">
        <ele>326</ele>
        <time>2012-03-17T08:47:46Z</time>
      </trkpt>
      <trkpt lat="45.59593" lon="4.70487">
        <ele>326</ele>
        <time>2012-03-17T08:47:47Z</time>
      </trkpt>
      <trkpt lat="45.59605" lon="4.70497">
        <ele>326</ele>
        <time>2012-03-17T08:47:50Z</time>
      </trkpt>
      <trkpt lat="45.5961" lon="4.70502">
        <ele>326</ele>
        <time>2012-03-17T08:47:51Z</time>
      </trkpt>
      <trkpt lat="45.59623" lon="4.70517">
        <ele>326</ele>
        <time>2012-03-17T08:47:54Z</time>
      </trkpt>
      <trkpt lat="45.59637" lon="4.70531">
        <ele>327</ele>
        <time>2012-03-17T08:47:57Z</time>
      </trkpt>
      <trkpt lat="45.59676" lon="4.70583">
        <ele>326</ele>
        <time>2012-03-17T08:48:06Z</time>
      </trkpt>
      <trkpt lat="45.59695" lon="4.70607">
        <ele>326</ele>
        <time>2012-03-17T08:48:10Z</time>
      </trkpt>
      <trkpt lat="45.59714" lon="4.70626">
        <ele>324</ele>
        <time>2012-03-17T08:48:13Z</time>
      </trkpt>
      <trkpt lat="45.59721" lon="4.70632">
        <ele>323</ele>
        <time>2012-03-17T08:48:14Z</time>
      </trkpt>
      <trkpt lat="45.59727" lon="4.70639">
        <ele>322</ele>
        <time>2012-03-17T08:48:15Z</time>
      </trkpt>
      <trkpt lat="45.59733" lon="4.70648">
        <ele>322</ele>
        <time>2012-03-17T08:48:16Z</time>
      </trkpt>
      <trkpt lat="45.59738" lon="4.70657">
        <ele>321</ele>
        <time>2012-03-17T08:48:17Z</time>
      </trkpt>
      <trkpt lat="45.59743" lon="4.70668">
        <ele>320</ele>
        <time>2012-03-17T08:48:18Z</time>
      </trkpt>
      <trkpt lat="45.59748" lon="4.70678">
        <ele>320</ele>
        <time>2012-03-17T08:48:19Z</time>
      </trkpt>
      <trkpt lat="45.59754" lon="4.70688">
        <ele>320</ele>
        <time>2012-03-17T08:48:20Z</time>
      </trkpt>
      <trkpt lat="45.59765" lon="4.70707">
        <ele>319</ele>
        <time>2012-03-17T08:48:22Z</time>
      </trkpt>
      <trkpt lat="45.5977" lon="4.70717">
        <ele>319</ele>
        <time>2012-03-17T08:48:23Z</time>
      </trkpt>
      <trkpt lat="45.59775" lon="4.70726">
        <ele>318</ele>
        <time>2012-03-17T08:48:24Z</time>
      </trkpt>
      <trkpt lat="45.59781" lon="4.70735">
        <ele>319</ele>
        <time>2012-03-17T08:48:25Z</time>
      </trkpt>
      <trkpt lat="45.59785" lon="4.70744">
        <ele>318</ele>
        <time>2012-03-17T08:48:26Z</time>
      </trkpt>
      <trkpt lat="45.59788" lon="4.70751">
        <ele>317</ele>
        <time>2012-03-17T08:48:27Z</time>
      </trkpt>
      <trkpt lat="45.59791" lon="4.70757">
        <ele>316</ele>
        <time>2012-03-17T08:48:28Z</time>
      </trkpt>
      <trkpt lat="45.59792" lon="4.7076">
        <ele>316</ele>
        <time>2012-03-17T08:48:29Z</time>
      </trkpt>
      <trkpt lat="45.59794" lon="4.70762">
        <ele>316</ele>
        <time>2012-03-17T08:48:30Z</time>
      </trkpt>
      <trkpt lat="45.59797" lon="4.70763">
        <ele>316</ele>
        <time>2012-03-17T08:48:31Z</time>
      </trkpt>
      <trkpt lat="45.598" lon="4.70763">
        <ele>316</ele>
        <time>2012-03-17T08:48:32Z</time>
      </trkpt>
      <trkpt lat="45.59803" lon="4.70761">
        <ele>316</ele>
        <time>2012-03-17T08:48:33Z</time>
      </trkpt>
      <trkpt lat="45.59806" lon="4.70758">
        <ele>316</ele>
        <time>2012-03-17T08:48:34Z</time>
      </trkpt>
      <trkpt lat="45.59809" lon="4.70754">
        <ele>317</ele>
        <time>2012-03-17T08:48:35Z</time>
      </trkpt>
      <trkpt lat="45.59811" lon="4.70749">
        <ele>316</ele>
        <time>2012-03-17T08:48:36Z</time>
      </trkpt>
      <trkpt lat="45.59835" lon="4.70708">
        <ele>316</ele>
        <time>2012-03-17T08:48:43Z</time>
      </trkpt>
      <trkpt lat="45.5987" lon="4.70642">
        <ele>315</ele>
        <time>2012-03-17T08:48:52Z</time>
      </trkpt>
      <trkpt lat="45.59887" lon="4.706">
        <ele>314</ele>
        <time>2012-03-17T08:48:58Z</time>
      </trkpt>
      <trkpt lat="45.59893" lon="4.70591">
        <ele>314</ele>
        <time>2012-03-17T08:49:03Z</time>
      </trkpt>
      <trkpt lat="45.59894" lon="4.70589">
        <ele>313</ele>
        <time>2012-03-17T08:49:05Z</time>
      </trkpt>
      <trkpt lat="45.59894" lon="4.70587">
        <ele>314</ele>
        <time>2012-03-17T08:49:06Z</time>
      </trkpt>
      <trkpt lat="45.59895" lon="4.70585">
        <ele>314</ele>
        <time>2012-03-17T08:49:08Z</time>
      </trkpt>
      <trkpt lat="45.59896" lon="4.70583">
        <ele>313</ele>
        <time>2012-03-17T08:49:09Z</time>
      </trkpt>
      <trkpt lat="45.59896" lon="4.70581">
        <ele>314</ele>
        <time>2012-03-17T08:49:10Z</time>
      </trkpt>
      <trkpt lat="45.59895" lon="4.70579">
        <ele>314</ele>
        <time>2012-03-17T08:49:11Z</time>
      </trkpt>
      <trkpt lat="45.59888" lon="4.70581">
        <ele>313</ele>
        <time>2012-03-17T08:49:14Z</time>
      </trkpt>
      <trkpt lat="45.59886" lon="4.70587">
        <ele>314</ele>
        <time>2012-03-17T08:49:15Z</time>
      </trkpt>
      <trkpt lat="45.59884" lon="4.70593">
        <ele>313</ele>
        <time>2012-03-17T08:49:16Z</time>
      </trkpt>
      <trkpt lat="45.59865" lon="4.70636">
        <ele>314</ele>
        <time>2012-03-17T08:49:22Z</time>
      </trkpt>
      <trkpt lat="45.59832" lon="4.70701">
        <ele>316</ele>
        <time>2012-03-17T08:49:31Z</time>
      </trkpt>
      <trkpt lat="45.59805" lon="4.70748">
        <ele>317</ele>
        <time>2012-03-17T08:49:39Z</time>
      </trkpt>
      <trkpt lat="45.59798" lon="4.70763">
        <ele>317</ele>
        <time>2012-03-17T08:49:42Z</time>
      </trkpt>
      <trkpt lat="45.59799" lon="4.70769">
        <ele>317</ele>
        <time>2012-03-17T08:49:43Z</time>
      </trkpt>
      <trkpt lat="45.59801" lon="4.70774">
        <ele>316</ele>
        <time>2012-03-17T08:49:44Z</time>
      </trkpt>
      <trkpt lat="45.59815" lon="4.70795">
        <ele>317</ele>
        <time>2012-03-17T08:49:48Z</time>
      </trkpt>
      <trkpt lat="45.59818" lon="4.708">
        <ele>317</ele>
        <time>2012-03-17T08:49:49Z</time>
      </trkpt>
      <trkpt lat="45.59837" lon="4.70835">
        <ele>317</ele>
        <time>2012-03-17T08:49:55Z</time>
      </trkpt>
      <trkpt lat="45.5984" lon="4.7084">
        <ele>316</ele>
        <time>2012-03-17T08:49:56Z</time>
      </trkpt>
      <trkpt lat="45.59844" lon="4.70845">
        <ele>316</ele>
        <time>2012-03-17T08:49:57Z</time>
      </trkpt>
      <trkpt lat="45.59856" lon="4.70859">
        <ele>316</ele>
        <time>2012-03-17T08:50:00Z</time>
      </trkpt>
      <trkpt lat="45.59862" lon="4.70862">
        <ele>315</ele>
        <time>2012-03-17T08:50:01Z</time>
      </trkpt>
      <trkpt lat="45.59869" lon="4.70864">
        <ele>314</ele>
        <time>2012-03-17T08:50:02Z</time>
      </trkpt>
      <trkpt lat="45.59875" lon="4.70864">
        <ele>314</ele>
        <time>2012-03-17T08:50:03Z</time>
      </trkpt>
      <trkpt lat="45.59882" lon="4.70863">
        <ele>314</ele>
        <time>2012-03-17T08:50:04Z</time>
      </trkpt>
      <trkpt lat="45.59887" lon="4.70863">
        <ele>313</ele>
        <time>2012-03-17T08:50:05Z</time>
      </trkpt>
      <trkpt lat="45.59892" lon="4.70863">
        <ele>313</ele>
        <time>2012-03-17T08:50:06Z</time>
      </trkpt>
      <trkpt lat="45.59896" lon="4.70864">
        <ele>312</ele>
        <time>2012-03-17T08:50:07Z</time>
      </trkpt>
      <trkpt lat="45.59901" lon="4.70865">
        <ele>313</ele>
        <time>2012-03-17T08:50:08Z</time>
      </trkpt>
      <trkpt lat="45.59906" lon="4.70866">
        <ele>311</ele>
        <time>2012-03-17T08:50:09Z</time>
      </trkpt>
      <trkpt lat="45.59909" lon="4.70866">
        <ele>311</ele>
        <time>2012-03-17T08:50:10Z</time>
      </trkpt>
      <trkpt lat="45.59914" lon="4.70861">
        <ele>310</ele>
        <time>2012-03-17T08:50:14Z</time>
      </trkpt>
      <trkpt lat="45.59926" lon="4.70841">
        <ele>309</ele>
        <time>2012-03-17T08:50:20Z</time>
      </trkpt>
      <trkpt lat="45.59952" lon="4.70803">
        <ele>308</ele>
        <time>2012-03-17T08:50:29Z</time>
      </trkpt>
      <trkpt lat="45.59978" lon="4.70779">
        <ele>305</ele>
        <time>2012-03-17T08:50:35Z</time>
      </trkpt>
      <trkpt lat="45.59982" lon="4.70777">
        <ele>305</ele>
        <time>2012-03-17T08:50:36Z</time>
      </trkpt>
      <trkpt lat="45.59998" lon="4.70774">
        <ele>303</ele>
        <time>2012-03-17T08:50:40Z</time>
      </trkpt>
      <trkpt lat="45.60003" lon="4.70775">
        <ele>302</ele>
        <time>2012-03-17T08:50:41Z</time>
      </trkpt>
      <trkpt lat="45.60013" lon="4.70779">
        <ele>301</ele>
        <time>2012-03-17T08:50:43Z</time>
      </trkpt>
      <trkpt lat="45.60019" lon="4.70781">
        <ele>301</ele>
        <time>2012-03-17T08:50:44Z</time>
      </trkpt>
      <trkpt lat="45.60024" lon="4.70783">
        <ele>301</ele>
        <time>2012-03-17T08:50:45Z</time>
      </trkpt>
      <trkpt lat="45.60029" lon="4.70784">
        <ele>300</ele>
        <time>2012-03-17T08:50:46Z</time>
      </trkpt>
      <trkpt lat="45.60035" lon="4.70786">
        <ele>300</ele>
        <time>2012-03-17T08:50:47Z</time>
      </trkpt>
      <trkpt lat="45.6004" lon="4.70788">
        <ele>300</ele>
        <time>2012-03-17T08:50:48Z</time>
      </trkpt>
      <trkpt lat="45.60045" lon="4.7079">
        <ele>299</ele>
        <time>2012-03-17T08:50:49Z</time>
      </trkpt>
      <trkpt lat="45.6005" lon="4.70793">
        <ele>299</ele>
        <time>2012-03-17T08:50:50Z</time>
      </trkpt>
      <trkpt lat="45.60056" lon="4.70795">
        <ele>299</ele>
        <time>2012-03-17T08:50:51Z</time>
      </trkpt>
      <trkpt lat="45.60061" lon="4.70797">
        <ele>298</ele>
        <time>2012-03-17T08:50:52Z</time>
      </trkpt>
      <trkpt lat="45.60067" lon="4.70799">
        <ele>298</ele>
        <time>2012-03-17T08:50:53Z</time>
      </trkpt>
      <trkpt lat="45.60072" lon="4.70801">
        <ele>298</ele>
        <time>2012-03-17T08:50:54Z</time>
      </trkpt>
      <trkpt lat="45.60077" lon="4.70803">
        <ele>297</ele>
        <time>2012-03-17T08:50:55Z</time>
      </trkpt>
      <trkpt lat="45.60082" lon="4.70804">
        <ele>297</ele>
        <time>2012-03-17T08:50:56Z</time>
      </trkpt>
      <trkpt lat="45.60088" lon="4.70806">
        <ele>297</ele>
        <time>2012-03-17T08:50:57Z</time>
      </trkpt>
      <trkpt lat="45.60093" lon="4.70808">
        <ele>297</ele>
        <time>2012-03-17T08:50:58Z</time>
      </trkpt>
      <trkpt lat="45.60124" lon="4.70817">
        <ele>296</ele>
        <time>2012-03-17T08:51:04Z</time>
      </trkpt>
      <trkpt lat="45.60129" lon="4.70817">
        <ele>296</ele>
        <time>2012-03-17T08:51:05Z</time>
      </trkpt>
      <trkpt lat="45.60155" lon="4.70816">
        <ele>295</ele>
        <time>2012-03-17T08:51:10Z</time>
      </trkpt>
      <trkpt lat="45.60166" lon="4.70815">
        <ele>295</ele>
        <time>2012-03-17T08:51:12Z</time>
      </trkpt>
      <trkpt lat="45.60198" lon="4.70814">
        <ele>294</ele>
        <time>2012-03-17T08:51:18Z</time>
      </trkpt>
      <trkpt lat="45.60208" lon="4.70814">
        <ele>294</ele>
        <time>2012-03-17T08:51:20Z</time>
      </trkpt>
      <trkpt lat="45.60214" lon="4.70814">
        <ele>294</ele>
        <time>2012-03-17T08:51:21Z</time>
      </trkpt>
      <trkpt lat="45.60256" lon="4.70809">
        <ele>293</ele>
        <time>2012-03-17T08:51:29Z</time>
      </trkpt>
      <trkpt lat="45.60269" lon="4.70806">
        <ele>291</ele>
        <time>2012-03-17T08:51:32Z</time>
      </trkpt>
      <trkpt lat="45.60301" lon="4.70806">
        <ele>290</ele>
        <time>2012-03-17T08:51:38Z</time>
      </trkpt>
      <trkpt lat="45.60345" lon="4.70809">
        <ele>290</ele>
        <time>2012-03-17T08:51:46Z</time>
      </trkpt>
      <trkpt lat="45.60367" lon="4.70814">
        <ele>288</ele>
        <time>2012-03-17T08:51:50Z</time>
      </trkpt>
      <trkpt lat="45.60393" lon="4.70819">
        <ele>289</ele>
        <time>2012-03-17T08:51:55Z</time>
      </trkpt>
      <trkpt lat="45.60403" lon="4.7082">
        <ele>288</ele>
        <time>2012-03-17T08:51:57Z</time>
      </trkpt>
      <trkpt lat="45.60408" lon="4.70822">
        <ele>288</ele>
        <time>2012-03-17T08:51:58Z</time>
      </trkpt>
      <trkpt lat="45.60413" lon="4.70822">
        <ele>288</ele>
        <time>2012-03-17T08:51:59Z</time>
      </trkpt>
      <trkpt lat="45.60432" lon="4.70825">
        <ele>287</ele>
        <time>2012-03-17T08:52:03Z</time>
      </trkpt>
      <trkpt lat="45.60437" lon="4.70827">
        <ele>287</ele>
        <time>2012-03-17T08:52:04Z</time>
      </trkpt>
      <trkpt lat="45.60442" lon="4.70829">
        <ele>287</ele>
        <time>2012-03-17T08:52:05Z</time>
      </trkpt>
      <trkpt lat="45.60481" lon="4.70848">
        <ele>286</ele>
        <time>2012-03-17T08:52:12Z</time>
      </trkpt>
      <trkpt lat="45.60493" lon="4.70851">
        <ele>284</ele>
        <time>2012-03-17T08:52:14Z</time>
      </trkpt>
      <trkpt lat="45.60506" lon="4.70859">
        <ele>282</ele>
        <time>2012-03-17T08:52:17Z</time>
      </trkpt>
      <trkpt lat="45.60517" lon="4.70867">
        <ele>282</ele>
        <time>2012-03-17T08:52:22Z</time>
      </trkpt>
      <trkpt lat="45.60527" lon="4.70873">
        <ele>281</ele>
        <time>2012-03-17T08:52:27Z</time>
      </trkpt>
      <trkpt lat="45.60548" lon="4.70883">
        <ele>282</ele>
        <time>2012-03-17T08:52:33Z</time>
      </trkpt>
      <trkpt lat="45.60571" lon="4.70891">
        <ele>284</ele>
        <time>2012-03-17T08:52:39Z</time>
      </trkpt>
      <trkpt lat="45.6059" lon="4.70899">
        <ele>285</ele>
        <time>2012-03-17T08:52:45Z</time>
      </trkpt>
      <trkpt lat="45.60611" lon="4.70903">
        <ele>287</ele>
        <time>2012-03-17T08:52:52Z</time>
      </trkpt>
      <trkpt lat="45.60631" lon="4.70903">
        <ele>287</ele>
        <time>2012-03-17T08:52:59Z</time>
      </trkpt>
      <trkpt lat="45.60651" lon="4.70908">
        <ele>288</ele>
        <time>2012-03-17T08:53:07Z</time>
      </trkpt>
      <trkpt lat="45.60653" lon="4.7091">
        <ele>288</ele>
        <time>2012-03-17T08:53:08Z</time>
      </trkpt>
      <trkpt lat="45.60654" lon="4.70913">
        <ele>288</ele>
        <time>2012-03-17T08:53:09Z</time>
      </trkpt>
      <trkpt lat="45.60654" lon="4.70916">
        <ele>288</ele>
        <time>2012-03-17T08:53:10Z</time>
      </trkpt>
      <trkpt lat="45.60653" lon="4.7092">
        <ele>288</ele>
        <time>2012-03-17T08:53:11Z</time>
      </trkpt>
      <trkpt lat="45.60647" lon="4.70955">
        <ele>288</ele>
        <time>2012-03-17T08:53:19Z</time>
      </trkpt>
      <trkpt lat="45.60648" lon="4.70963">
        <ele>289</ele>
        <time>2012-03-17T08:53:21Z</time>
      </trkpt>
      <trkpt lat="45.6065" lon="4.70966">
        <ele>288</ele>
        <time>2012-03-17T08:53:22Z</time>
      </trkpt>
      <trkpt lat="45.60653" lon="4.70968">
        <ele>288</ele>
        <time>2012-03-17T08:53:23Z</time>
      </trkpt>
      <trkpt lat="45.60656" lon="4.70969">
        <ele>288</ele>
        <time>2012-03-17T08:53:24Z</time>
      </trkpt>
      <trkpt lat="45.60659" lon="4.70969">
        <ele>289</ele>
        <time>2012-03-17T08:53:25Z</time>
      </trkpt>
      <trkpt lat="45.60679" lon="4.7098">
        <ele>290</ele>
        <time>2012-03-17T08:53:32Z</time>
      </trkpt>
      <trkpt lat="45.60694" lon="4.70991">
        <ele>291</ele>
        <time>2012-03-17T08:53:38Z</time>
      </trkpt>
      <trkpt lat="45.60712" lon="4.71011">
        <ele>292</ele>
        <time>2012-03-17T08:53:46Z</time>
      </trkpt>
      <trkpt lat="45.60731" lon="4.7104">
        <ele>292</ele>
        <time>2012-03-17T08:53:55Z</time>
      </trkpt>
      <trkpt lat="45.60762" lon="4.71081">
        <ele>295</ele>
        <time>2012-03-17T08:54:09Z</time>
      </trkpt>
      <trkpt lat="45.60779" lon="4.71101">
        <ele>297</ele>
        <time>2012-03-17T08:54:17Z</time>
      </trkpt>
      <trkpt lat="45.60802" lon="4.71132">
        <ele>298</ele>
        <time>2012-03-17T08:54:28Z</time>
      </trkpt>
      <trkpt lat="45.60826" lon="4.71163">
        <ele>300</ele>
        <time>2012-03-17T08:54:39Z</time>
      </trkpt>
      <trkpt lat="45.60848" lon="4.71185">
        <ele>302</ele>
        <time>2012-03-17T08:54:49Z</time>
      </trkpt>
      <trkpt lat="45.6087" lon="4.71203">
        <ele>304</ele>
        <time>2012-03-17T08:54:59Z</time>
      </trkpt>
      <trkpt lat="45.6088" lon="4.71212">
        <ele>306</ele>
        <time>2012-03-17T08:55:06Z</time>
      </trkpt>
      <trkpt lat="45.60892" lon="4.71221">
        <ele>309</ele>
        <time>2012-03-17T08:55:14Z</time>
      </trkpt>
      <trkpt lat="45.60908" lon="4.71233">
        <ele>311</ele>
        <time>2012-03-17T08:55:24Z</time>
      </trkpt>
      <trkpt lat="45.60923" lon="4.71243">
        <ele>313</ele>
        <time>2012-03-17T08:55:34Z</time>
      </trkpt>
      <trkpt lat="45.6093" lon="4.71246">
        <ele>314</ele>
        <time>2012-03-17T08:55:39Z</time>
      </trkpt>
      <trkpt lat="45.60932" lon="4.71247">
        <ele>314</ele>
        <time>2012-03-17T08:55:40Z</time>
      </trkpt>
      <trkpt lat="45.60932" lon="4.7125">
        <ele>315</ele>
        <time>2012-03-17T08:55:41Z</time>
      </trkpt>
      <trkpt lat="45.60933" lon="4.71252">
        <ele>315</ele>
        <time>2012-03-17T08:55:42Z</time>
      </trkpt>
      <trkpt lat="45.60932" lon="4.71254">
        <ele>315</ele>
        <time>2012-03-17T08:55:43Z</time>
      </trkpt>
      <trkpt lat="45.60931" lon="4.71257">
        <ele>315</ele>
        <time>2012-03-17T08:55:44Z</time>
      </trkpt>
      <trkpt lat="45.6093" lon="4.71259">
        <ele>315</ele>
        <time>2012-03-17T08:55:45Z</time>
      </trkpt>
      <trkpt lat="45.60929" lon="4.71261">
        <ele>315</ele>
        <time>2012-03-17T08:55:46Z</time>
      </trkpt>
      <trkpt lat="45.60923" lon="4.71283">
        <ele>316</ele>
        <time>2012-03-17T08:55:55Z</time>
      </trkpt>
      <trkpt lat="45.60918" lon="4.71306">
        <ele>318</ele>
        <time>2012-03-17T08:56:04Z</time>
      </trkpt>
      <trkpt lat="45.60916" lon="4.71329">
        <ele>320</ele>
        <time>2012-03-17T08:56:12Z</time>
      </trkpt>
      <trkpt lat="45.60913" lon="4.71353">
        <ele>321</ele>
        <time>2012-03-17T08:56:20Z</time>
      </trkpt>
      <trkpt lat="45.60909" lon="4.71382">
        <ele>322</ele>
        <time>2012-03-17T08:56:28Z</time>
      </trkpt>
      <trkpt lat="45.60907" lon="4.71409">
        <ele>322</ele>
        <time>2012-03-17T08:56:35Z</time>
      </trkpt>
      <trkpt lat="45.60908" lon="4.71453">
        <ele>322</ele>
        <time>2012-03-17T08:56:45Z</time>
      </trkpt>
      <trkpt lat="45.60909" lon="4.71464">
        <ele>322</ele>
        <time>2012-03-17T08:56:47Z</time>
      </trkpt>
      <trkpt lat="45.60905" lon="4.7152">
        <ele>322</ele>
        <time>2012-03-17T08:56:56Z</time>
      </trkpt>
      <trkpt lat="45.60898" lon="4.71563">
        <ele>322</ele>
        <time>2012-03-17T08:57:03Z</time>
      </trkpt>
      <trkpt lat="45.60894" lon="4.71581">
        <ele>321</ele>
        <time>2012-03-17T08:57:06Z</time>
      </trkpt>
      <trkpt lat="45.60893" lon="4.71587">
        <ele>321</ele>
        <time>2012-03-17T08:57:07Z</time>
      </trkpt>
      <trkpt lat="45.60891" lon="4.71593">
        <ele>321</ele>
        <time>2012-03-17T08:57:08Z</time>
      </trkpt>
      <trkpt lat="45.6089" lon="4.71599">
        <ele>321</ele>
        <time>2012-03-17T08:57:09Z</time>
      </trkpt>
      <trkpt lat="45.60888" lon="4.71605">
        <ele>321</ele>
        <time>2012-03-17T08:57:10Z</time>
      </trkpt>
      <trkpt lat="45.60878" lon="4.71662">
        <ele>319</ele>
        <time>2012-03-17T08:57:18Z</time>
      </trkpt>
      <trkpt lat="45.60876" lon="4.71671">
        <ele>318</ele>
        <time>2012-03-17T08:57:19Z</time>
      </trkpt>
      <trkpt lat="45.60875" lon="4.71679">
        <ele>318</ele>
        <time>2012-03-17T08:57:20Z</time>
      </trkpt>
      <trkpt lat="45.60874" lon="4.71689">
        <ele>318</ele>
        <time>2012-03-17T08:57:21Z</time>
      </trkpt>
      <trkpt lat="45.60873" lon="4.71735">
        <ele>314</ele>
        <time>2012-03-17T08:57:25Z</time>
      </trkpt>
      <trkpt lat="45.60874" lon="4.71748">
        <ele>314</ele>
        <time>2012-03-17T08:57:26Z</time>
      </trkpt>
      <trkpt lat="45.60874" lon="4.71774">
        <ele>313</ele>
        <time>2012-03-17T08:57:28Z</time>
      </trkpt>
      <trkpt lat="45.60873" lon="4.71785">
        <ele>313</ele>
        <time>2012-03-17T08:57:29Z</time>
      </trkpt>
      <trkpt lat="45.60869" lon="4.71796">
        <ele>313</ele>
        <time>2012-03-17T08:57:30Z</time>
      </trkpt>
      <trkpt lat="45.60864" lon="4.71803">
        <ele>313</ele>
        <time>2012-03-17T08:57:31Z</time>
      </trkpt>
      <trkpt lat="45.60859" lon="4.7181">
        <ele>313</ele>
        <time>2012-03-17T08:57:32Z</time>
      </trkpt>
      <trkpt lat="45.60844" lon="4.71836">
        <ele>313</ele>
        <time>2012-03-17T08:57:37Z</time>
      </trkpt>
      <trkpt lat="45.60839" lon="4.71852">
        <ele>314</ele>
        <time>2012-03-17T08:57:42Z</time>
      </trkpt>
      <trkpt lat="45.60836" lon="4.71864">
        <ele>315</ele>
        <time>2012-03-17T08:57:47Z</time>
      </trkpt>
      <trkpt lat="45.60837" lon="4.71872">
        <ele>317</ele>
        <time>2012-03-17T08:57:51Z</time>
      </trkpt>
      <trkpt lat="45.60838" lon="4.71874">
        <ele>316</ele>
        <time>2012-03-17T08:57:52Z</time>
      </trkpt>
      <trkpt lat="45.60839" lon="4.71876">
        <ele>317</ele>
        <time>2012-03-17T08:57:53Z</time>
      </trkpt>
      <trkpt lat="45.60853" lon="4.71883">
        <ele>318</ele>
        <time>2012-03-17T08:58:01Z</time>
      </trkpt>
      <trkpt lat="45.60864" lon="4.71895">
        <ele>319</ele>
        <time>2012-03-17T08:58:09Z</time>
      </trkpt>
      <trkpt lat="45.60874" lon="4.71906">
        <ele>321</ele>
        <time>2012-03-17T08:58:17Z</time>
      </trkpt>
      <trkpt lat="45.60889" lon="4.7192">
        <ele>324</ele>
        <time>2012-03-17T08:58:27Z</time>
      </trkpt>
      <trkpt lat="45.60899" lon="4.7193">
        <ele>326</ele>
        <time>2012-03-17T08:58:34Z</time>
      </trkpt>
      <trkpt lat="45.60911" lon="4.71945">
        <ele>327</ele>
        <time>2012-03-17T08:58:43Z</time>
      </trkpt>
      <trkpt lat="45.60924" lon="4.71961">
        <ele>328</ele>
        <time>2012-03-17T08:58:51Z</time>
      </trkpt>
      <trkpt lat="45.60937" lon="4.71976">
        <ele>329</ele>
        <time>2012-03-17T08:58:59Z</time>
      </trkpt>
      <trkpt lat="45.60954" lon="4.72">
        <ele>329</ele>
        <time>2012-03-17T08:59:08Z</time>
      </trkpt>
      <trkpt lat="45.60974" lon="4.7203">
        <ele>330</ele>
        <time>2012-03-17T08:59:17Z</time>
      </trkpt>
      <trkpt lat="45.60991" lon="4.72063">
        <ele>331</ele>
        <time>2012-03-17T08:59:25Z</time>
      </trkpt>
      <trkpt lat="45.61017" lon="4.72113">
        <ele>331</ele>
        <time>2012-03-17T08:59:36Z</time>
      </trkpt>
      <trkpt lat="45.61039" lon="4.72156">
        <ele>331</ele>
        <time>2012-03-17T08:59:45Z</time>
      </trkpt>
      <trkpt lat="45.61052" lon="4.72179">
        <ele>331</ele>
        <time>2012-03-17T08:59:50Z</time>
      </trkpt>
      <trkpt lat="45.61055" lon="4.72184">
        <ele>330</ele>
        <time>2012-03-17T08:59:51Z</time>
      </trkpt>
      <trkpt lat="45.61065" lon="4.72205">
        <ele>330</ele>
        <time>2012-03-17T08:59:55Z</time>
      </trkpt>
      <trkpt lat="45.61074" lon="4.72222">
        <ele>329</ele>
        <time>2012-03-17T08:59:59Z</time>
      </trkpt>
      <trkpt lat="45.61078" lon="4.72222">
        <ele>328</ele>
        <time>2012-03-17T09:00:00Z</time>
      </trkpt>
      <trkpt lat="45.61081" lon="4.72221">
        <ele>329</ele>
        <time>2012-03-17T09:00:01Z</time>
      </trkpt>
      <trkpt lat="45.61083" lon="4.72217">
        <ele>329</ele>
        <time>2012-03-17T09:00:02Z</time>
      </trkpt>
      <trkpt lat="45.61085" lon="4.72211">
        <ele>329</ele>
        <time>2012-03-17T09:00:03Z</time>
      </trkpt>
      <trkpt lat="45.61086" lon="4.72206">
        <ele>329</ele>
        <time>2012-03-17T09:00:04Z</time>
      </trkpt>
      <trkpt lat="45.61091" lon="4.72182">
        <ele>328</ele>
        <time>2012-03-17T09:00:08Z</time>
      </trkpt>
      <trkpt lat="45.61092" lon="4.72175">
        <ele>328</ele>
        <time>2012-03-17T09:00:09Z</time>
      </trkpt>
      <trkpt lat="45.61094" lon="4.72168">
        <ele>328</ele>
        <time>2012-03-17T09:00:10Z</time>
      </trkpt>
      <trkpt lat="45.6111" lon="4.72095">
        <ele>326</ele>
        <time>2012-03-17T09:00:19Z</time>
      </trkpt>
      <trkpt lat="45.61124" lon="4.72048">
        <ele>325</ele>
        <time>2012-03-17T09:00:25Z</time>
      </trkpt>
      <trkpt lat="45.61129" lon="4.72044">
        <ele>325</ele>
        <time>2012-03-17T09:00:26Z</time>
      </trkpt>
      <trkpt lat="45.61134" lon="4.72041">
        <ele>324</ele>
        <time>2012-03-17T09:00:27Z</time>
      </trkpt>
      <trkpt lat="45.61139" lon="4.72039">
        <ele>324</ele>
        <time>2012-03-17T09:00:28Z</time>
      </trkpt>
      <trkpt lat="45.61144" lon="4.72039">
        <ele>324</ele>
        <time>2012-03-17T09:00:29Z</time>
      </trkpt>
      <trkpt lat="45.61188" lon="4.72035">
        <ele>322</ele>
        <time>2012-03-17T09:00:36Z</time>
      </trkpt>
      <trkpt lat="45.61202" lon="4.72034">
        <ele>322</ele>
        <time>2012-03-17T09:00:38Z</time>
      </trkpt>
      <trkpt lat="45.61209" lon="4.72034">
        <ele>322</ele>
        <time>2012-03-17T09:00:39Z</time>
      </trkpt>
      <trkpt lat="45.61253" lon="4.72031">
        <ele>319</ele>
        <time>2012-03-17T09:00:45Z</time>
      </trkpt>
      <trkpt lat="45.61284" lon="4.7203">
        <ele>317</ele>
        <time>2012-03-17T09:00:49Z</time>
      </trkpt>
      <trkpt lat="45.61292" lon="4.72032">
        <ele>317</ele>
        <time>2012-03-17T09:00:50Z</time>
      </trkpt>
      <trkpt lat="45.61301" lon="4.72035">
        <ele>317</ele>
        <time>2012-03-17T09:00:51Z</time>
      </trkpt>
      <trkpt lat="45.61309" lon="4.72038">
        <ele>316</ele>
        <time>2012-03-17T09:00:52Z</time>
      </trkpt>
      <trkpt lat="45.61327" lon="4.72043">
        <ele>315</ele>
        <time>2012-03-17T09:00:54Z</time>
      </trkpt>
      <trkpt lat="45.61379" lon="4.72064">
        <ele>312</ele>
        <time>2012-03-17T09:01:00Z</time>
      </trkpt>
      <trkpt lat="45.61415" lon="4.7208">
        <ele>309</ele>
        <time>2012-03-17T09:01:04Z</time>
      </trkpt>
      <trkpt lat="45.61453" lon="4.72098">
        <ele>306</ele>
        <time>2012-03-17T09:01:08Z</time>
      </trkpt>
      <trkpt lat="45.61482" lon="4.72111">
        <ele>304</ele>
        <time>2012-03-17T09:01:11Z</time>
      </trkpt>
      <trkpt lat="45.61528" lon="4.72133">
        <ele>301</ele>
        <time>2012-03-17T09:01:16Z</time>
      </trkpt>
      <trkpt lat="45.61539" lon="4.72138">
        <ele>299</ele>
        <time>2012-03-17T09:01:18Z</time>
      </trkpt>
      <trkpt lat="45.61547" lon="4.72146">
        <ele>298</ele>
        <time>2012-03-17T09:01:22Z</time>
      </trkpt>
      <trkpt lat="45.61547" lon="4.72148">
        <ele>298</ele>
        <time>2012-03-17T09:01:23Z</time>
      </trkpt>
      <trkpt lat="45.61546" lon="4.72151">
        <ele>298</ele>
        <time>2012-03-17T09:01:24Z</time>
      </trkpt>
      <trkpt lat="45.61545" lon="4.72154">
        <ele>298</ele>
        <time>2012-03-17T09:01:25Z</time>
      </trkpt>
      <trkpt lat="45.61544" lon="4.72157">
        <ele>298</ele>
        <time>2012-03-17T09:01:26Z</time>
      </trkpt>
      <trkpt lat="45.61542" lon="4.72161">
        <ele>298</ele>
        <time>2012-03-17T09:01:27Z</time>
      </trkpt>
      <trkpt lat="45.61541" lon="4.72165">
        <ele>298</ele>
        <time>2012-03-17T09:01:28Z</time>
      </trkpt>
      <trkpt lat="45.61539" lon="4.72169">
        <ele>298</ele>
        <time>2012-03-17T09:01:29Z</time>
      </trkpt>
      <trkpt lat="45.61538" lon="4.72173">
        <ele>298</ele>
        <time>2012-03-17T09:01:30Z</time>
      </trkpt>
      <trkpt lat="45.61537" lon="4.72177">
        <ele>298</ele>
        <time>2012-03-17T09:01:31Z</time>
      </trkpt>
      <trkpt lat="45.61535" lon="4.72181">
        <ele>298</ele>
        <time>2012-03-17T09:01:32Z</time>
      </trkpt>
      <trkpt lat="45.61534" lon="4.72185">
        <ele>298</ele>
        <time>2012-03-17T09:01:33Z</time>
      </trkpt>
      <trkpt lat="45.61533" lon="4.72189">
        <ele>298</ele>
        <time>2012-03-17T09:01:34Z</time>
      </trkpt>
      <trkpt lat="45.61533" lon="4.72192">
        <ele>298</ele>
        <time>2012-03-17T09:01:35Z</time>
      </trkpt>
      <trkpt lat="45.61532" lon="4.72195">
        <ele>298</ele>
        <time>2012-03-17T09:01:36Z</time>
      </trkpt>
      <trkpt lat="45.61532" lon="4.72198">
        <ele>298</ele>
        <time>2012-03-17T09:01:37Z</time>
      </trkpt>
      <trkpt lat="45.61532" lon="4.72201">
        <ele>298</ele>
        <time>2012-03-17T09:01:38Z</time>
      </trkpt>
      <trkpt lat="45.61531" lon="4.72204">
        <ele>298</ele>
        <time>2012-03-17T09:01:39Z</time>
      </trkpt>
      <trkpt lat="45.6153" lon="4.72207">
        <ele>298</ele>
        <time>2012-03-17T09:01:40Z</time>
      </trkpt>
      <trkpt lat="45.61529" lon="4.72211">
        <ele>298</ele>
        <time>2012-03-17T09:01:41Z</time>
      </trkpt>
      <trkpt lat="45.61523" lon="4.72234">
        <ele>298</ele>
        <time>2012-03-17T09:01:47Z</time>
      </trkpt>
      <trkpt lat="45.61528" lon="4.7225">
        <ele>297</ele>
        <time>2012-03-17T09:01:52Z</time>
      </trkpt>
      <trkpt lat="45.61529" lon="4.72251">
        <ele>297</ele>
        <time>2012-03-17T09:01:58Z</time>
      </trkpt>
      <trkpt lat="45.61532" lon="4.72254">
        <ele>298</ele>
        <time>2012-03-17T09:02:05Z</time>
      </trkpt>
      <trkpt lat="45.61532" lon="4.72255">
        <ele>298</ele>
        <time>2012-03-17T09:02:13Z</time>
      </trkpt>
      <trkpt lat="45.61532" lon="4.72254">
        <ele>297</ele>
        <time>2012-03-17T09:02:22Z</time>
      </trkpt>
      <trkpt lat="45.61532" lon="4.72254">
        <ele>297</ele>
        <time>2012-03-17T09:02:32Z</time>
      </trkpt>
      <trkpt lat="45.61539" lon="4.72259">
        <ele>296</ele>
        <time>2012-03-17T09:02:38Z</time>
      </trkpt>
      <trkpt lat="45.61548" lon="4.72263">
        <ele>296</ele>
        <time>2012-03-17T09:02:44Z</time>
      </trkpt>
      <trkpt lat="45.61552" lon="4.72264">
        <ele>296</ele>
        <time>2012-03-17T09:02:53Z</time>
      </trkpt>
      <trkpt lat="45.61558" lon="4.72266">
        <ele>296</ele>
        <time>2012-03-17T09:03:00Z</time>
      </trkpt>
      <trkpt lat="45.61562" lon="4.72268">
        <ele>296</ele>
        <time>2012-03-17T09:03:06Z</time>
      </trkpt>
      <trkpt lat="45.61568" lon="4.7227">
        <ele>295</ele>
        <time>2012-03-17T09:03:14Z</time>
      </trkpt>
      <trkpt lat="45.61571" lon="4.72272">
        <ele>295</ele>
        <time>2012-03-17T09:03:22Z</time>
      </trkpt>
      <trkpt lat="45.6158" lon="4.72276">
        <ele>296</ele>
        <time>2012-03-17T09:03:29Z</time>
      </trkpt>
      <trkpt lat="45.61585" lon="4.72278">
        <ele>296</ele>
        <time>2012-03-17T09:03:35Z</time>
      </trkpt>
      <trkpt lat="45.61586" lon="4.7228">
        <ele>297</ele>
        <time>2012-03-17T09:03:42Z</time>
      </trkpt>
      <trkpt lat="45.61591" lon="4.72282">
        <ele>296</ele>
        <time>2012-03-17T09:03:48Z</time>
      </trkpt>
      <trkpt lat="45.61591" lon="4.72282">
        <ele>296</ele>
        <time>2012-03-17T09:04:01Z</time>
      </trkpt>
      <trkpt lat="45.61596" lon="4.72286">
        <ele>296</ele>
        <time>2012-03-17T09:04:08Z</time>
      </trkpt>
      <trkpt lat="45.61609" lon="4.72292">
        <ele>297</ele>
        <time>2012-03-17T09:04:13Z</time>
      </trkpt>
      <trkpt lat="45.61627" lon="4.723">
        <ele>297</ele>
        <time>2012-03-17T09:04:19Z</time>
      </trkpt>
      <trkpt lat="45.61644" lon="4.72308">
        <ele>296</ele>
        <time>2012-03-17T09:04:25Z</time>
      </trkpt>
      <trkpt lat="45.61662" lon="4.72309">
        <ele>297</ele>
        <time>2012-03-17T09:04:31Z</time>
      </trkpt>
      <trkpt lat="45.61665" lon="4.72308">
        <ele>297</ele>
        <time>2012-03-17T09:04:32Z</time>
      </trkpt>
      <trkpt lat="45.61668" lon="4.72308">
        <ele>297</ele>
        <time>2012-03-17T09:04:33Z</time>
      </trkpt>
      <trkpt lat="45.61672" lon="4.72308">
        <ele>297</ele>
        <time>2012-03-17T09:04:34Z</time>
      </trkpt>
      <trkpt lat="45.61675" lon="4.72308">
        <ele>297</ele>
        <time>2012-03-17T09:04:35Z</time>
      </trkpt>
      <trkpt lat="45.61678" lon="4.72309">
        <ele>297</ele>
        <time>2012-03-17T09:04:36Z</time>
      </trkpt>
      <trkpt lat="45.61689" lon="4.72312">
        <ele>296</ele>
        <time>2012-03-17T09:04:39Z</time>
      </trkpt>
      <trkpt lat="45.61693" lon="4.72311">
        <ele>296</ele>
        <time>2012-03-17T09:04:40Z</time>
      </trkpt>
      <trkpt lat="45.61696" lon="4.7231">
        <ele>296</ele>
        <time>2012-03-17T09:04:41Z</time>
      </trkpt>
      <trkpt lat="45.617" lon="4.7231">
        <ele>296</ele>
        <time>2012-03-17T09:04:42Z</time>
      </trkpt>
      <trkpt lat="45.61704" lon="4.7231">
        <ele>296</ele>
        <time>2012-03-17T09:04:43Z</time>
      </trkpt>
      <trkpt lat="45.61707" lon="4.72311">
        <ele>296</ele>
        <time>2012-03-17T09:04:44Z</time>
      </trkpt>
      <trkpt lat="45.61711" lon="4.72312">
        <ele>296</ele>
        <time>2012-03-17T09:04:45Z</time>
      </trkpt>
      <trkpt lat="45.61715" lon="4.72312">
        <ele>296</ele>
        <time>2012-03-17T09:04:46Z</time>
      </trkpt>
      <trkpt lat="45.61719" lon="4.7231">
        <ele>296</ele>
        <time>2012-03-17T09:04:47Z</time>
      </trkpt>
      <trkpt lat="45.61721" lon="4.72307">
        <ele>296</ele>
        <time>2012-03-17T09:04:48Z</time>
      </trkpt>
      <trkpt lat="45.61738" lon="4.72293">
        <ele>296</ele>
        <time>2012-03-17T09:04:54Z</time>
      </trkpt>
      <trkpt lat="45.61742" lon="4.72295">
        <ele>296</ele>
        <time>2012-03-17T09:04:55Z</time>
      </trkpt>
      <trkpt lat="45.61745" lon="4.72297">
        <ele>296</ele>
        <time>2012-03-17T09:04:56Z</time>
      </trkpt>
      <trkpt lat="45.61748" lon="4.72301">
        <ele>296</ele>
        <time>2012-03-17T09:04:57Z</time>
      </trkpt>
      <trkpt lat="45.6175" lon="4.72304">
        <ele>296</ele>
        <time>2012-03-17T09:04:58Z</time>
      </trkpt>
      <trkpt lat="45.61752" lon="4.72308">
        <ele>296</ele>
        <time>2012-03-17T09:04:59Z</time>
      </trkpt>
      <trkpt lat="45.61754" lon="4.72311">
        <ele>296</ele>
        <time>2012-03-17T09:05:00Z</time>
      </trkpt>
      <trkpt lat="45.61756" lon="4.72313">
        <ele>295</ele>
        <time>2012-03-17T09:05:01Z</time>
      </trkpt>
      <trkpt lat="45.61758" lon="4.72314">
        <ele>295</ele>
        <time>2012-03-17T09:05:02Z</time>
      </trkpt>
      <trkpt lat="45.6176" lon="4.72313">
        <ele>295</ele>
        <time>2012-03-17T09:05:03Z</time>
      </trkpt>
      <trkpt lat="45.61763" lon="4.72312">
        <ele>296</ele>
        <time>2012-03-17T09:05:04Z</time>
      </trkpt>
      <trkpt lat="45.61783" lon="4.72308">
        <ele>297</ele>
        <time>2012-03-17T09:05:10Z</time>
      </trkpt>
      <trkpt lat="45.61797" lon="4.72308">
        <ele>297</ele>
        <time>2012-03-17T09:05:14Z</time>
      </trkpt>
      <trkpt lat="45.61829" lon="4.72308">
        <ele>297</ele>
        <time>2012-03-17T09:05:23Z</time>
      </trkpt>
      <trkpt lat="45.61863" lon="4.72304">
        <ele>297</ele>
        <time>2012-03-17T09:05:32Z</time>
      </trkpt>
      <trkpt lat="45.61885" lon="4.72294">
        <ele>296</ele>
        <time>2012-03-17T09:05:39Z</time>
      </trkpt>
      <trkpt lat="45.6191" lon="4.72284">
        <ele>295</ele>
        <time>2012-03-17T09:05:47Z</time>
      </trkpt>
      <trkpt lat="45.61929" lon="4.72277">
        <ele>294</ele>
        <time>2012-03-17T09:05:53Z</time>
      </trkpt>
      <trkpt lat="45.6195" lon="4.72268">
        <ele>295</ele>
        <time>2012-03-17T09:05:59Z</time>
      </trkpt>
      <trkpt lat="45.61966" lon="4.72263">
        <ele>295</ele>
        <time>2012-03-17T09:06:04Z</time>
      </trkpt>
      <trkpt lat="45.61981" lon="4.72251">
        <ele>295</ele>
        <time>2012-03-17T09:06:09Z</time>
      </trkpt>
      <trkpt lat="45.62004" lon="4.72246">
        <ele>294</ele>
        <time>2012-03-17T09:06:15Z</time>
      </trkpt>
      <trkpt lat="45.62027" lon="4.72237">
        <ele>296</ele>
        <time>2012-03-17T09:06:21Z</time>
      </trkpt>
      <trkpt lat="45.6206" lon="4.72216">
        <ele>295</ele>
        <time>2012-03-17T09:06:30Z</time>
      </trkpt>
      <trkpt lat="45.62093" lon="4.72198">
        <ele>296</ele>
        <time>2012-03-17T09:06:39Z</time>
      </trkpt>
      <trkpt lat="45.62116" lon="4.72189">
        <ele>296</ele>
        <time>2012-03-17T09:06:45Z</time>
      </trkpt>
      <trkpt lat="45.62131" lon="4.72182">
        <ele>296</ele>
        <time>2012-03-17T09:06:49Z</time>
      </trkpt>
      <trkpt lat="45.62166" lon="4.7216">
        <ele>297</ele>
        <time>2012-03-17T09:06:59Z</time>
      </trkpt>
      <trkpt lat="45.62178" lon="4.7215">
        <ele>296</ele>
        <time>2012-03-17T09:07:03Z</time>
      </trkpt>
      <trkpt lat="45.62189" lon="4.72131">
        <ele>298</ele>
        <time>2012-03-17T09:07:09Z</time>
      </trkpt>
      <trkpt lat="45.62192" lon="4.7213">
        <ele>298</ele>
        <time>2012-03-17T09:07:10Z</time>
      </trkpt>
      <trkpt lat="45.62216" lon="4.72121">
        <ele>298</ele>
        <time>2012-03-17T09:07:18Z</time>
      </trkpt>
      <trkpt lat="45.62234" lon="4.72119">
        <ele>299</ele>
        <time>2012-03-17T09:07:24Z</time>
      </trkpt>
      <trkpt lat="45.62254" lon="4.72116">
        <ele>299</ele>
        <time>2012-03-17T09:07:30Z</time>
      </trkpt>
      <trkpt lat="45.62271" lon="4.72113">
        <ele>299</ele>
        <time>2012-03-17T09:07:35Z</time>
      </trkpt>
      <trkpt lat="45.62291" lon="4.72109">
        <ele>299</ele>
        <time>2012-03-17T09:07:42Z</time>
      </trkpt>
      <trkpt lat="45.62309" lon="4.72106">
        <ele>300</ele>
        <time>2012-03-17T09:07:48Z</time>
      </trkpt>
      <trkpt lat="45.62324" lon="4.72115">
        <ele>300</ele>
        <time>2012-03-17T09:07:54Z</time>
      </trkpt>
      <trkpt lat="45.62347" lon="4.72127">
        <ele>300</ele>
        <time>2012-03-17T09:08:02Z</time>
      </trkpt>
      <trkpt lat="45.62364" lon="4.72139">
        <ele>300</ele>
        <time>2012-03-17T09:08:08Z</time>
      </trkpt>
      <trkpt lat="45.62387" lon="4.72153">
        <ele>300</ele>
        <time>2012-03-17T09:08:16Z</time>
      </trkpt>
      <trkpt lat="45.62411" lon="4.72166">
        <ele>301</ele>
        <time>2012-03-17T09:08:24Z</time>
      </trkpt>
      <trkpt lat="45.62435" lon="4.72175">
        <ele>301</ele>
        <time>2012-03-17T09:08:32Z</time>
      </trkpt>
      <trkpt lat="45.62454" lon="4.72175">
        <ele>302</ele>
        <time>2012-03-17T09:08:38Z</time>
      </trkpt>
      <trkpt lat="45.62485" lon="4.7218">
        <ele>303</ele>
        <time>2012-03-17T09:08:48Z</time>
      </trkpt>
      <trkpt lat="45.62494" lon="4.72184">
        <ele>304</ele>
        <time>2012-03-17T09:08:52Z</time>
      </trkpt>
      <trkpt lat="45.62503" lon="4.7219">
        <ele>305</ele>
        <time>2012-03-17T09:08:57Z</time>
      </trkpt>
      <trkpt lat="45.62494" lon="4.7222">
        <ele>305</ele>
        <time>2012-03-17T09:09:05Z</time>
      </trkpt>
      <trkpt lat="45.62489" lon="4.7225">
        <ele>304</ele>
        <time>2012-03-17T09:09:11Z</time>
      </trkpt>
      <trkpt lat="45.62488" lon="4.72256">
        <ele>304</ele>
        <time>2012-03-17T09:09:12Z</time>
      </trkpt>
      <trkpt lat="45.62486" lon="4.72263">
        <ele>304</ele>
        <time>2012-03-17T09:09:13Z</time>
      </trkpt>
      <trkpt lat="45.62486" lon="4.72269">
        <ele>304</ele>
        <time>2012-03-17T09:09:14Z</time>
      </trkpt>
      <trkpt lat="45.62486" lon="4.72276">
        <ele>303</ele>
        <time>2012-03-17T09:09:15Z</time>
      </trkpt>
      <trkpt lat="45.62487" lon="4.72284">
        <ele>303</ele>
        <time>2012-03-17T09:09:16Z</time>
      </trkpt>
      <trkpt lat="45.6249" lon="4.72309">
        <ele>302</ele>
        <time>2012-03-17T09:09:19Z</time>
      </trkpt>
      <trkpt lat="45.62491" lon="4.72318">
        <ele>301</ele>
        <time>2012-03-17T09:09:20Z</time>
      </trkpt>
      <trkpt lat="45.62493" lon="4.72326">
        <ele>301</ele>
        <time>2012-03-17T09:09:21Z</time>
      </trkpt>
      <trkpt lat="45.62495" lon="4.72335">
        <ele>301</ele>
        <time>2012-03-17T09:09:22Z</time>
      </trkpt>
      <trkpt lat="45.62497" lon="4.72343">
        <ele>301</ele>
        <time>2012-03-17T09:09:23Z</time>
      </trkpt>
      <trkpt lat="45.62499" lon="4.72351">
        <ele>301</ele>
        <time>2012-03-17T09:09:24Z</time>
      </trkpt>
      <trkpt lat="45.62502" lon="4.72359">
        <ele>301</ele>
        <time>2012-03-17T09:09:25Z</time>
      </trkpt>
      <trkpt lat="45.62505" lon="4.72366">
        <ele>301</ele>
        <time>2012-03-17T09:09:26Z</time>
      </trkpt>
      <trkpt lat="45.62507" lon="4.72375">
        <ele>300</ele>
        <time>2012-03-17T09:09:27Z</time>
      </trkpt>
      <trkpt lat="45.62508" lon="4.72384">
        <ele>300</ele>
        <time>2012-03-17T09:09:28Z</time>
      </trkpt>
      <trkpt lat="45.62506" lon="4.72393">
        <ele>300</ele>
        <time>2012-03-17T09:09:29Z</time>
      </trkpt>
      <trkpt lat="45.62503" lon="4.72401">
        <ele>300</ele>
        <time>2012-03-17T09:09:30Z</time>
      </trkpt>
      <trkpt lat="45.62499" lon="4.72408">
        <ele>300</ele>
        <time>2012-03-17T09:09:31Z</time>
      </trkpt>
      <trkpt lat="45.62494" lon="4.72414">
        <ele>299</ele>
        <time>2012-03-17T09:09:32Z</time>
      </trkpt>
      <trkpt lat="45.62489" lon="4.72419">
        <ele>299</ele>
        <time>2012-03-17T09:09:33Z</time>
      </trkpt>
      <trkpt lat="45.62479" lon="4.72429">
        <ele>298</ele>
        <time>2012-03-17T09:09:35Z</time>
      </trkpt>
      <trkpt lat="45.62475" lon="4.72433">
        <ele>299</ele>
        <time>2012-03-17T09:09:36Z</time>
      </trkpt>
      <trkpt lat="45.62446" lon="4.72468">
        <ele>298</ele>
        <time>2012-03-17T09:09:43Z</time>
      </trkpt>
      <trkpt lat="45.62433" lon="4.72482">
        <ele>297</ele>
        <time>2012-03-17T09:09:46Z</time>
      </trkpt>
      <trkpt lat="45.62399" lon="4.72507">
        <ele>297</ele>
        <time>2012-03-17T09:09:53Z</time>
      </trkpt>
      <trkpt lat="45.62363" lon="4.72548">
        <ele>294</ele>
        <time>2012-03-17T09:10:01Z</time>
      </trkpt>
      <trkpt lat="45.6233" lon="4.72575">
        <ele>293</ele>
        <time>2012-03-17T09:10:08Z</time>
      </trkpt>
      <trkpt lat="45.62286" lon="4.72607">
        <ele>292</ele>
        <time>2012-03-17T09:10:18Z</time>
      </trkpt>
      <trkpt lat="45.62247" lon="4.72634">
        <ele>292</ele>
        <time>2012-03-17T09:10:27Z</time>
      </trkpt>
      <trkpt lat="45.62243" lon="4.72637">
        <ele>292</ele>
        <time>2012-03-17T09:10:28Z</time>
      </trkpt>
      <trkpt lat="45.62208" lon="4.72663">
        <ele>292</ele>
        <time>2012-03-17T09:10:36Z</time>
      </trkpt>
      <trkpt lat="45.62204" lon="4.72667">
        <ele>292</ele>
        <time>2012-03-17T09:10:37Z</time>
      </trkpt>
      <trkpt lat="45.62196" lon="4.72676">
        <ele>293</ele>
        <time>2012-03-17T09:10:39Z</time>
      </trkpt>
      <trkpt lat="45.6219" lon="4.72686">
        <ele>293</ele>
        <time>2012-03-17T09:10:41Z</time>
      </trkpt>
      <trkpt lat="45.62187" lon="4.72691">
        <ele>293</ele>
        <time>2012-03-17T09:10:42Z</time>
      </trkpt>
      <trkpt lat="45.62172" lon="4.72711">
        <ele>294</ele>
        <time>2012-03-17T09:10:46Z</time>
      </trkpt>
      <trkpt lat="45.62168" lon="4.72714">
        <ele>293</ele>
        <time>2012-03-17T09:10:47Z</time>
      </trkpt>
      <trkpt lat="45.62163" lon="4.72717">
        <ele>293</ele>
        <time>2012-03-17T09:10:48Z</time>
      </trkpt>
      <trkpt lat="45.62158" lon="4.72722">
        <ele>292</ele>
        <time>2012-03-17T09:10:49Z</time>
      </trkpt>
      <trkpt lat="45.62156" lon="4.72728">
        <ele>292</ele>
        <time>2012-03-17T09:10:50Z</time>
      </trkpt>
      <trkpt lat="45.62155" lon="4.72736">
        <ele>292</ele>
        <time>2012-03-17T09:10:51Z</time>
      </trkpt>
      <trkpt lat="45.62156" lon="4.72744">
        <ele>291</ele>
        <time>2012-03-17T09:10:52Z</time>
      </trkpt>
      <trkpt lat="45.62158" lon="4.72812">
        <ele>292</ele>
        <time>2012-03-17T09:11:01Z</time>
      </trkpt>
      <trkpt lat="45.62158" lon="4.72819">
        <ele>292</ele>
        <time>2012-03-17T09:11:02Z</time>
      </trkpt>
      <trkpt lat="45.62159" lon="4.72825">
        <ele>293</ele>
        <time>2012-03-17T09:11:03Z</time>
      </trkpt>
      <trkpt lat="45.62159" lon="4.72831">
        <ele>293</ele>
        <time>2012-03-17T09:11:04Z</time>
      </trkpt>
      <trkpt lat="45.6216" lon="4.72838">
        <ele>294</ele>
        <time>2012-03-17T09:11:05Z</time>
      </trkpt>
      <trkpt lat="45.62161" lon="4.72844">
        <ele>294</ele>
        <time>2012-03-17T09:11:06Z</time>
      </trkpt>
      <trkpt lat="45.62163" lon="4.72875">
        <ele>292</ele>
        <time>2012-03-17T09:11:10Z</time>
      </trkpt>
      <trkpt lat="45.62164" lon="4.7289">
        <ele>293</ele>
        <time>2012-03-17T09:11:12Z</time>
      </trkpt>
      <trkpt lat="45.62168" lon="4.7291">
        <ele>292</ele>
        <time>2012-03-17T09:11:15Z</time>
      </trkpt>
      <trkpt lat="45.62171" lon="4.72923">
        <ele>292</ele>
        <time>2012-03-17T09:11:17Z</time>
      </trkpt>
      <trkpt lat="45.62174" lon="4.72942">
        <ele>292</ele>
        <time>2012-03-17T09:11:20Z</time>
      </trkpt>
      <trkpt lat="45.62172" lon="4.72948">
        <ele>293</ele>
        <time>2012-03-17T09:11:21Z</time>
      </trkpt>
      <trkpt lat="45.62169" lon="4.72951">
        <ele>293</ele>
        <time>2012-03-17T09:11:22Z</time>
      </trkpt>
      <trkpt lat="45.62165" lon="4.72952">
        <ele>293</ele>
        <time>2012-03-17T09:11:23Z</time>
      </trkpt>
      <trkpt lat="45.62161" lon="4.72952">
        <ele>293</ele>
        <time>2012-03-17T09:11:24Z</time>
      </trkpt>
      <trkpt lat="45.62157" lon="4.72952">
        <ele>293</ele>
        <time>2012-03-17T09:11:25Z</time>
      </trkpt>
      <trkpt lat="45.62153" lon="4.72952">
        <ele>294</ele>
        <time>2012-03-17T09:11:26Z</time>
      </trkpt>
      <trkpt lat="45.62134" lon="4.72949">
        <ele>294</ele>
        <time>2012-03-17T09:11:31Z</time>
      </trkpt>
      <trkpt lat="45.6213" lon="4.72951">
        <ele>293</ele>
        <time>2012-03-17T09:11:32Z</time>
      </trkpt>
      <trkpt lat="45.62116" lon="4.72959">
        <ele>293</ele>
        <time>2012-03-17T09:11:35Z</time>
      </trkpt>
      <trkpt lat="45.62108" lon="4.72967">
        <ele>293</ele>
        <time>2012-03-17T09:11:37Z</time>
      </trkpt>
      <trkpt lat="45.62096" lon="4.72979">
        <ele>292</ele>
        <time>2012-03-17T09:11:40Z</time>
      </trkpt>
      <trkpt lat="45.62092" lon="4.72982">
        <ele>292</ele>
        <time>2012-03-17T09:11:41Z</time>
      </trkpt>
      <trkpt lat="45.62087" lon="4.72983">
        <ele>291</ele>
        <time>2012-03-17T09:11:42Z</time>
      </trkpt>
      <trkpt lat="45.62083" lon="4.72984">
        <ele>292</ele>
        <time>2012-03-17T09:11:43Z</time>
      </trkpt>
      <trkpt lat="45.62078" lon="4.72987">
        <ele>292</ele>
        <time>2012-03-17T09:11:44Z</time>
      </trkpt>
      <trkpt lat="45.62074" lon="4.72989">
        <ele>291</ele>
        <time>2012-03-17T09:11:45Z</time>
      </trkpt>
      <trkpt lat="45.62069" lon="4.7299">
        <ele>292</ele>
        <time>2012-03-17T09:11:46Z</time>
      </trkpt>
      <trkpt lat="45.62065" lon="4.72993">
        <ele>291</ele>
        <time>2012-03-17T09:11:47Z</time>
      </trkpt>
      <trkpt lat="45.62037" lon="4.73025">
        <ele>291</ele>
        <time>2012-03-17T09:11:54Z</time>
      </trkpt>
      <trkpt lat="45.61989" lon="4.73073">
        <ele>291</ele>
        <time>2012-03-17T09:12:05Z</time>
      </trkpt>
      <trkpt lat="45.61976" lon="4.73082">
        <ele>291</ele>
        <time>2012-03-17T09:12:08Z</time>
      </trkpt>
      <trkpt lat="45.61966" lon="4.73087">
        <ele>290</ele>
        <time>2012-03-17T09:12:10Z</time>
      </trkpt>
      <trkpt lat="45.61961" lon="4.73087">
        <ele>291</ele>
        <time>2012-03-17T09:12:11Z</time>
      </trkpt>
      <trkpt lat="45.61956" lon="4.73088">
        <ele>291</ele>
        <time>2012-03-17T09:12:12Z</time>
      </trkpt>
      <trkpt lat="45.61941" lon="4.73091">
        <ele>290</ele>
        <time>2012-03-17T09:12:16Z</time>
      </trkpt>
      <trkpt lat="45.6194" lon="4.73094">
        <ele>290</ele>
        <time>2012-03-17T09:12:17Z</time>
      </trkpt>
      <trkpt lat="45.61941" lon="4.73097">
        <ele>290</ele>
        <time>2012-03-17T09:12:18Z</time>
      </trkpt>
      <trkpt lat="45.61941" lon="4.731">
        <ele>290</ele>
        <time>2012-03-17T09:12:19Z</time>
      </trkpt>
      <trkpt lat="45.6194" lon="4.73104">
        <ele>290</ele>
        <time>2012-03-17T09:12:20Z</time>
      </trkpt>
      <trkpt lat="45.61935" lon="4.73122">
        <ele>291</ele>
        <time>2012-03-17T09:12:23Z</time>
      </trkpt>
      <trkpt lat="45.61934" lon="4.73129">
        <ele>291</ele>
        <time>2012-03-17T09:12:24Z</time>
      </trkpt>
      <trkpt lat="45.61933" lon="4.73136">
        <ele>291</ele>
        <time>2012-03-17T09:12:25Z</time>
      </trkpt>
      <trkpt lat="45.61931" lon="4.73144">
        <ele>291</ele>
        <time>2012-03-17T09:12:26Z</time>
      </trkpt>
      <trkpt lat="45.61929" lon="4.7315">
        <ele>291</ele>
        <time>2012-03-17T09:12:27Z</time>
      </trkpt>
      <trkpt lat="45.61927" lon="4.73157">
        <ele>291</ele>
        <time>2012-03-17T09:12:28Z</time>
      </trkpt>
      <trkpt lat="45.61917" lon="4.73192">
        <ele>291</ele>
        <time>2012-03-17T09:12:33Z</time>
      </trkpt>
      <trkpt lat="45.61902" lon="4.73233">
        <ele>290</ele>
        <time>2012-03-17T09:12:39Z</time>
      </trkpt>
      <trkpt lat="45.61888" lon="4.73292">
        <ele>290</ele>
        <time>2012-03-17T09:12:47Z</time>
      </trkpt>
      <trkpt lat="45.6188" lon="4.73334">
        <ele>290</ele>
        <time>2012-03-17T09:12:53Z</time>
      </trkpt>
      <trkpt lat="45.61871" lon="4.73383">
        <ele>290</ele>
        <time>2012-03-17T09:13:00Z</time>
      </trkpt>
      <trkpt lat="45.61855" lon="4.73446">
        <ele>289</ele>
        <time>2012-03-17T09:13:09Z</time>
      </trkpt>
      <trkpt lat="45.61851" lon="4.7346">
        <ele>289</ele>
        <time>2012-03-17T09:13:11Z</time>
      </trkpt>
      <trkpt lat="45.6185" lon="4.73467">
        <ele>289</ele>
        <time>2012-03-17T09:13:12Z</time>
      </trkpt>
      <trkpt lat="45.61832" lon="4.73535">
        <ele>290</ele>
        <time>2012-03-17T09:13:22Z</time>
      </trkpt>
      <trkpt lat="45.61822" lon="4.73567">
        <ele>290</ele>
        <time>2012-03-17T09:13:27Z</time>
      </trkpt>
      <trkpt lat="45.61813" lon="4.73581">
        <ele>291</ele>
        <time>2012-03-17T09:13:30Z</time>
      </trkpt>
      <trkpt lat="45.6181" lon="4.73584">
        <ele>290</ele>
        <time>2012-03-17T09:13:31Z</time>
      </trkpt>
      <trkpt lat="45.61806" lon="4.73585">
        <ele>290</ele>
        <time>2012-03-17T09:13:32Z</time>
      </trkpt>
      <trkpt lat="45.61802" lon="4.73586">
        <ele>290</ele>
        <time>2012-03-17T09:13:33Z</time>
      </trkpt>
      <trkpt lat="45.61798" lon="4.73587">
        <ele>291</ele>
        <time>2012-03-17T09:13:34Z</time>
      </trkpt>
      <trkpt lat="45.61794" lon="4.73587">
        <ele>290</ele>
        <time>2012-03-17T09:13:35Z</time>
      </trkpt>
      <trkpt lat="45.61789" lon="4.73587">
        <ele>291</ele>
        <time>2012-03-17T09:13:36Z</time>
      </trkpt>
      <trkpt lat="45.61785" lon="4.73587">
        <ele>291</ele>
        <time>2012-03-17T09:13:37Z</time>
      </trkpt>
      <trkpt lat="45.61766" lon="4.73587">
        <ele>291</ele>
        <time>2012-03-17T09:13:41Z</time>
      </trkpt>
      <trkpt lat="45.61762" lon="4.73588">
        <ele>291</ele>
        <time>2012-03-17T09:13:42Z</time>
      </trkpt>
      <trkpt lat="45.61758" lon="4.7359">
        <ele>291</ele>
        <time>2012-03-17T09:13:43Z</time>
      </trkpt>
      <trkpt lat="45.61755" lon="4.73594">
        <ele>291</ele>
        <time>2012-03-17T09:13:44Z</time>
      </trkpt>
      <trkpt lat="45.61754" lon="4.736">
        <ele>291</ele>
        <time>2012-03-17T09:13:45Z</time>
      </trkpt>
      <trkpt lat="45.61751" lon="4.73611">
        <ele>291</ele>
        <time>2012-03-17T09:13:47Z</time>
      </trkpt>
      <trkpt lat="45.61742" lon="4.73657">
        <ele>291</ele>
        <time>2012-03-17T09:13:55Z</time>
      </trkpt>
      <trkpt lat="45.6173" lon="4.7372">
        <ele>293</ele>
        <time>2012-03-17T09:14:06Z</time>
      </trkpt>
      <trkpt lat="45.6173" lon="4.73725">
        <ele>292</ele>
        <time>2012-03-17T09:14:07Z</time>
      </trkpt>
      <trkpt lat="45.61732" lon="4.73729">
        <ele>293</ele>
        <time>2012-03-17T09:14:08Z</time>
      </trkpt>
      <trkpt lat="45.61736" lon="4.73731">
        <ele>293</ele>
        <time>2012-03-17T09:14:09Z</time>
      </trkpt>
      <trkpt lat="45.6177" lon="4.73743">
        <ele>294</ele>
        <time>2012-03-17T09:14:18Z</time>
      </trkpt>
      <trkpt lat="45.61801" lon="4.73758">
        <ele>294</ele>
        <time>2012-03-17T09:14:26Z</time>
      </trkpt>
      <trkpt lat="45.61827" lon="4.73777">
        <ele>295</ele>
        <time>2012-03-17T09:14:32Z</time>
      </trkpt>
      <trkpt lat="45.61831" lon="4.73778">
        <ele>295</ele>
        <time>2012-03-17T09:14:33Z</time>
      </trkpt>
      <trkpt lat="45.61835" lon="4.73779">
        <ele>295</ele>
        <time>2012-03-17T09:14:34Z</time>
      </trkpt>
      <trkpt lat="45.61863" lon="4.73776">
        <ele>295</ele>
        <time>2012-03-17T09:14:41Z</time>
      </trkpt>
      <trkpt lat="45.61868" lon="4.73775">
        <ele>295</ele>
        <time>2012-03-17T09:14:42Z</time>
      </trkpt>
      <trkpt lat="45.61873" lon="4.73773">
        <ele>295</ele>
        <time>2012-03-17T09:14:43Z</time>
      </trkpt>
      <trkpt lat="45.6189" lon="4.7377">
        <ele>294</ele>
        <time>2012-03-17T09:14:46Z</time>
      </trkpt>
      <trkpt lat="45.61931" lon="4.7377">
        <ele>293</ele>
        <time>2012-03-17T09:14:52Z</time>
      </trkpt>
      <trkpt lat="45.61938" lon="4.73768">
        <ele>292</ele>
        <time>2012-03-17T09:14:53Z</time>
      </trkpt>
      <trkpt lat="45.61944" lon="4.73767">
        <ele>293</ele>
        <time>2012-03-17T09:14:54Z</time>
      </trkpt>
      <trkpt lat="45.61956" lon="4.73766">
        <ele>293</ele>
        <time>2012-03-17T09:14:56Z</time>
      </trkpt>
      <trkpt lat="45.61979" lon="4.73771">
        <ele>292</ele>
        <time>2012-03-17T09:15:00Z</time>
      </trkpt>
      <trkpt lat="45.61984" lon="4.73774">
        <ele>292</ele>
        <time>2012-03-17T09:15:01Z</time>
      </trkpt>
      <trkpt lat="45.62027" lon="4.73807">
        <ele>292</ele>
        <time>2012-03-17T09:15:10Z</time>
      </trkpt>
      <trkpt lat="45.62036" lon="4.73818">
        <ele>292</ele>
        <time>2012-03-17T09:15:12Z</time>
      </trkpt>
      <trkpt lat="45.6204" lon="4.73822">
        <ele>291</ele>
        <time>2012-03-17T09:15:13Z</time>
      </trkpt>
      <trkpt lat="45.62044" lon="4.73827">
        <ele>292</ele>
        <time>2012-03-17T09:15:14Z</time>
      </trkpt>
      <trkpt lat="45.62048" lon="4.73832">
        <ele>291</ele>
        <time>2012-03-17T09:15:15Z</time>
      </trkpt>
      <trkpt lat="45.62053" lon="4.73837">
        <ele>292</ele>
        <time>2012-03-17T09:15:16Z</time>
      </trkpt>
      <trkpt lat="45.62057" lon="4.73841">
        <ele>291</ele>
        <time>2012-03-17T09:15:17Z</time>
      </trkpt>
      <trkpt lat="45.62067" lon="4.73849">
        <ele>291</ele>
        <time>2012-03-17T09:15:19Z</time>
      </trkpt>
      <trkpt lat="45.62072" lon="4.73852">
        <ele>290</ele>
        <time>2012-03-17T09:15:20Z</time>
      </trkpt>
      <trkpt lat="45.62115" lon="4.73867">
        <ele>289</ele>
        <time>2012-03-17T09:15:27Z</time>
      </trkpt>
      <trkpt lat="45.62128" lon="4.73868">
        <ele>289</ele>
        <time>2012-03-17T09:15:29Z</time>
      </trkpt>
      <trkpt lat="45.62149" lon="4.73868">
        <ele>288</ele>
        <time>2012-03-17T09:15:32Z</time>
      </trkpt>
      <trkpt lat="45.62155" lon="4.73869">
        <ele>288</ele>
        <time>2012-03-17T09:15:33Z</time>
      </trkpt>
      <trkpt lat="45.62207" lon="4.73886">
        <ele>287</ele>
        <time>2012-03-17T09:15:41Z</time>
      </trkpt>
      <trkpt lat="45.62226" lon="4.73893">
        <ele>287</ele>
        <time>2012-03-17T09:15:44Z</time>
      </trkpt>
      <trkpt lat="45.62231" lon="4.73894">
        <ele>287</ele>
        <time>2012-03-17T09:15:45Z</time>
      </trkpt>
      <trkpt lat="45.62256" lon="4.73896">
        <ele>287</ele>
        <time>2012-03-17T09:15:49Z</time>
      </trkpt>
      <trkpt lat="45.62262" lon="4.73895">
        <ele>287</ele>
        <time>2012-03-17T09:15:50Z</time>
      </trkpt>
      <trkpt lat="45.62268" lon="4.73896">
        <ele>287</ele>
        <time>2012-03-17T09:15:51Z</time>
      </trkpt>
      <trkpt lat="45.62274" lon="4.73895">
        <ele>287</ele>
        <time>2012-03-17T09:15:52Z</time>
      </trkpt>
      <trkpt lat="45.6228" lon="4.73895">
        <ele>287</ele>
        <time>2012-03-17T09:15:53Z</time>
      </trkpt>
      <trkpt lat="45.62322" lon="4.7389">
        <ele>287</ele>
        <time>2012-03-17T09:16:00Z</time>
      </trkpt>
      <trkpt lat="45.62328" lon="4.73888">
        <ele>287</ele>
        <time>2012-03-17T09:16:01Z</time>
      </trkpt>
      <trkpt lat="45.62334" lon="4.73887">
        <ele>286</ele>
        <time>2012-03-17T09:16:02Z</time>
      </trkpt>
      <trkpt lat="45.62385" lon="4.73882">
        <ele>287</ele>
        <time>2012-03-17T09:16:11Z</time>
      </trkpt>
      <trkpt lat="45.62391" lon="4.73881">
        <ele>286</ele>
        <time>2012-03-17T09:16:12Z</time>
      </trkpt>
      <trkpt lat="45.62396" lon="4.73881">
        <ele>286</ele>
        <time>2012-03-17T09:16:13Z</time>
      </trkpt>
      <trkpt lat="45.62402" lon="4.73882">
        <ele>286</ele>
        <time>2012-03-17T09:16:14Z</time>
      </trkpt>
      <trkpt lat="45.62407" lon="4.73885">
        <ele>286</ele>
        <time>2012-03-17T09:16:15Z</time>
      </trkpt>
      <trkpt lat="45.62412" lon="4.73889">
        <ele>286</ele>
        <time>2012-03-17T09:16:16Z</time>
      </trkpt>
      <trkpt lat="45.62446" lon="4.73922">
        <ele>287</ele>
        <time>2012-03-17T09:16:23Z</time>
      </trkpt>
      <trkpt lat="45.6248" lon="4.73962">
        <ele>287</ele>
        <time>2012-03-17T09:16:31Z</time>
      </trkpt>
      <trkpt lat="45.62503" lon="4.74005">
        <ele>288</ele>
        <time>2012-03-17T09:16:39Z</time>
      </trkpt>
      <trkpt lat="45.62524" lon="4.74039">
        <ele>289</ele>
        <time>2012-03-17T09:16:48Z</time>
      </trkpt>
      <trkpt lat="45.6254" lon="4.74066">
        <ele>290</ele>
        <time>2012-03-17T09:16:56Z</time>
      </trkpt>
      <trkpt lat="45.62551" lon="4.7409">
        <ele>292</ele>
        <time>2012-03-17T09:17:03Z</time>
      </trkpt>
      <trkpt lat="45.62567" lon="4.74121">
        <ele>293</ele>
        <time>2012-03-17T09:17:12Z</time>
      </trkpt>
      <trkpt lat="45.62585" lon="4.74158">
        <ele>292</ele>
        <time>2012-03-17T09:17:21Z</time>
      </trkpt>
      <trkpt lat="45.626" lon="4.742">
        <ele>292</ele>
        <time>2012-03-17T09:17:30Z</time>
      </trkpt>
      <trkpt lat="45.62613" lon="4.74243">
        <ele>293</ele>
        <time>2012-03-17T09:17:39Z</time>
      </trkpt>
      <trkpt lat="45.62623" lon="4.74275">
        <ele>293</ele>
        <time>2012-03-17T09:17:46Z</time>
      </trkpt>
      <trkpt lat="45.62633" lon="4.74308">
        <ele>294</ele>
        <time>2012-03-17T09:17:54Z</time>
      </trkpt>
      <trkpt lat="45.62642" lon="4.74337">
        <ele>295</ele>
        <time>2012-03-17T09:18:01Z</time>
      </trkpt>
      <trkpt lat="45.62649" lon="4.74364">
        <ele>297</ele>
        <time>2012-03-17T09:18:09Z</time>
      </trkpt>
      <trkpt lat="45.6266" lon="4.74389">
        <ele>298</ele>
        <time>2012-03-17T09:18:18Z</time>
      </trkpt>
      <trkpt lat="45.62667" lon="4.74402">
        <ele>299</ele>
        <time>2012-03-17T09:18:25Z</time>
      </trkpt>
      <trkpt lat="45.62675" lon="4.7442">
        <ele>301</ele>
        <time>2012-03-17T09:18:34Z</time>
      </trkpt>
      <trkpt lat="45.62683" lon="4.74439">
        <ele>303</ele>
        <time>2012-03-17T09:18:43Z</time>
      </trkpt>
      <trkpt lat="45.62691" lon="4.7446">
        <ele>305</ele>
        <time>2012-03-17T09:18:53Z</time>
      </trkpt>
      <trkpt lat="45.62698" lon="4.74471">
        <ele>307</ele>
        <time>2012-03-17T09:19:00Z</time>
      </trkpt>
      <trkpt lat="45.62708" lon="4.74482">
        <ele>308</ele>
        <time>2012-03-17T09:19:08Z</time>
      </trkpt>
      <trkpt lat="45.62718" lon="4.74487">
        <ele>311</ele>
        <time>2012-03-17T09:19:16Z</time>
      </trkpt>
      <trkpt lat="45.6273" lon="4.74493">
        <ele>313</ele>
        <time>2012-03-17T09:19:25Z</time>
      </trkpt>
      <trkpt lat="45.62743" lon="4.7449">
        <ele>314</ele>
        <time>2012-03-17T09:19:33Z</time>
      </trkpt>
      <trkpt lat="45.62759" lon="4.74477">
        <ele>315</ele>
        <time>2012-03-17T09:19:44Z</time>
      </trkpt>
      <trkpt lat="45.62775" lon="4.74466">
        <ele>316</ele>
        <time>2012-03-17T09:19:54Z</time>
      </trkpt>
      <trkpt lat="45.62788" lon="4.74459">
        <ele>315</ele>
        <time>2012-03-17T09:20:01Z</time>
      </trkpt>
      <trkpt lat="45.62812" lon="4.74446">
        <ele>315</ele>
        <time>2012-03-17T09:20:09Z</time>
      </trkpt>
      <trkpt lat="45.6282" lon="4.74443">
        <ele>314</ele>
        <time>2012-03-17T09:20:11Z</time>
      </trkpt>
      <trkpt lat="45.62825" lon="4.74444">
        <ele>314</ele>
        <time>2012-03-17T09:20:12Z</time>
      </trkpt>
      <trkpt lat="45.6283" lon="4.74446">
        <ele>314</ele>
        <time>2012-03-17T09:20:13Z</time>
      </trkpt>
      <trkpt lat="45.62835" lon="4.7445">
        <ele>314</ele>
        <time>2012-03-17T09:20:14Z</time>
      </trkpt>
      <trkpt lat="45.62838" lon="4.74455">
        <ele>314</ele>
        <time>2012-03-17T09:20:15Z</time>
      </trkpt>
      <trkpt lat="45.6284" lon="4.74459">
        <ele>314</ele>
        <time>2012-03-17T09:20:16Z</time>
      </trkpt>
      <trkpt lat="45.62848" lon="4.74472">
        <ele>316</ele>
        <time>2012-03-17T09:20:21Z</time>
      </trkpt>
      <trkpt lat="45.62862" lon="4.74491">
        <ele>317</ele>
        <time>2012-03-17T09:20:30Z</time>
      </trkpt>
      <trkpt lat="45.62877" lon="4.74508">
        <ele>320</ele>
        <time>2012-03-17T09:20:39Z</time>
      </trkpt>
      <trkpt lat="45.62891" lon="4.7453">
        <ele>321</ele>
        <time>2012-03-17T09:20:49Z</time>
      </trkpt>
      <trkpt lat="45.62892" lon="4.74532">
        <ele>321</ele>
        <time>2012-03-17T09:20:50Z</time>
      </trkpt>
      <trkpt lat="45.62894" lon="4.74533">
        <ele>322</ele>
        <time>2012-03-17T09:20:51Z</time>
      </trkpt>
      <trkpt lat="45.62896" lon="4.74535">
        <ele>322</ele>
        <time>2012-03-17T09:20:52Z</time>
      </trkpt>
      <trkpt lat="45.62898" lon="4.74537">
        <ele>322</ele>
        <time>2012-03-17T09:20:53Z</time>
      </trkpt>
      <trkpt lat="45.629" lon="4.74539">
        <ele>321</ele>
        <time>2012-03-17T09:20:54Z</time>
      </trkpt>
      <trkpt lat="45.62901" lon="4.74541">
        <ele>322</ele>
        <time>2012-03-17T09:20:55Z</time>
      </trkpt>
      <trkpt lat="45.62902" lon="4.74542">
        <ele>322</ele>
        <time>2012-03-17T09:20:56Z</time>
      </trkpt>
      <trkpt lat="45.62903" lon="4.74542">
        <ele>322</ele>
        <time>2012-03-17T09:20:57Z</time>
      </trkpt>
      <trkpt lat="45.62904" lon="4.7454">
        <ele>322</ele>
        <time>2012-03-17T09:20:58Z</time>
      </trkpt>
      <trkpt lat="45.62906" lon="4.74538">
        <ele>321</ele>
        <time>2012-03-17T09:20:59Z</time>
      </trkpt>
      <trkpt lat="45.62907" lon="4.74536">
        <ele>321</ele>
        <time>2012-03-17T09:21:00Z</time>
      </trkpt>
      <trkpt lat="45.62908" lon="4.74534">
        <ele>321</ele>
        <time>2012-03-17T09:21:01Z</time>
      </trkpt>
      <trkpt lat="45.62914" lon="4.74526">
        <ele>320</ele>
        <time>2012-03-17T09:21:03Z</time>
      </trkpt>
      <trkpt lat="45.62917" lon="4.7452">
        <ele>319</ele>
        <time>2012-03-17T09:21:04Z</time>
      </trkpt>
      <trkpt lat="45.6293" lon="4.74496">
        <ele>315</ele>
        <time>2012-03-17T09:21:07Z</time>
      </trkpt>
      <trkpt lat="45.62936" lon="4.74488">
        <ele>313</ele>
        <time>2012-03-17T09:21:08Z</time>
      </trkpt>
      <trkpt lat="45.62956" lon="4.74461">
        <ele>309</ele>
        <time>2012-03-17T09:21:11Z</time>
      </trkpt>
      <trkpt lat="45.6297" lon="4.74442">
        <ele>306</ele>
        <time>2012-03-17T09:21:13Z</time>
      </trkpt>
      <trkpt lat="45.62977" lon="4.74432">
        <ele>306</ele>
        <time>2012-03-17T09:21:14Z</time>
      </trkpt>
      <trkpt lat="45.62984" lon="4.74421">
        <ele>304</ele>
        <time>2012-03-17T09:21:15Z</time>
      </trkpt>
      <trkpt lat="45.62999" lon="4.74392">
        <ele>301</ele>
        <time>2012-03-17T09:21:18Z</time>
      </trkpt>
      <trkpt lat="45.6301" lon="4.74372">
        <ele>297</ele>
        <time>2012-03-17T09:21:21Z</time>
      </trkpt>
      <trkpt lat="45.63013" lon="4.74366">
        <ele>296</ele>
        <time>2012-03-17T09:21:22Z</time>
      </trkpt>
      <trkpt lat="45.63018" lon="4.74362">
        <ele>295</ele>
        <time>2012-03-17T09:21:23Z</time>
      </trkpt>
      <trkpt lat="45.63023" lon="4.74357">
        <ele>295</ele>
        <time>2012-03-17T09:21:24Z</time>
      </trkpt>
      <trkpt lat="45.63046" lon="4.74332">
        <ele>293</ele>
        <time>2012-03-17T09:21:28Z</time>
      </trkpt>
      <trkpt lat="45.63052" lon="4.74328">
        <ele>292</ele>
        <time>2012-03-17T09:21:29Z</time>
      </trkpt>
      <trkpt lat="45.63058" lon="4.74327">
        <ele>292</ele>
        <time>2012-03-17T09:21:30Z</time>
      </trkpt>
      <trkpt lat="45.63063" lon="4.7433">
        <ele>292</ele>
        <time>2012-03-17T09:21:31Z</time>
      </trkpt>
      <trkpt lat="45.63067" lon="4.74336">
        <ele>291</ele>
        <time>2012-03-17T09:21:32Z</time>
      </trkpt>
      <trkpt lat="45.6307" lon="4.74343">
        <ele>290</ele>
        <time>2012-03-17T09:21:33Z</time>
      </trkpt>
      <trkpt lat="45.63072" lon="4.74349">
        <ele>291</ele>
        <time>2012-03-17T09:21:34Z</time>
      </trkpt>
      <trkpt lat="45.63075" lon="4.74354">
        <ele>291</ele>
        <time>2012-03-17T09:21:35Z</time>
      </trkpt>
      <trkpt lat="45.63091" lon="4.74386">
        <ele>290</ele>
        <time>2012-03-17T09:21:42Z</time>
      </trkpt>
      <trkpt lat="45.63111" lon="4.74416">
        <ele>292</ele>
        <time>2012-03-17T09:21:50Z</time>
      </trkpt>
      <trkpt lat="45.63129" lon="4.74458">
        <ele>293</ele>
        <time>2012-03-17T09:22:00Z</time>
      </trkpt>
      <trkpt lat="45.6314" lon="4.74484">
        <ele>293</ele>
        <time>2012-03-17T09:22:07Z</time>
      </trkpt>
      <trkpt lat="45.63142" lon="4.74487">
        <ele>293</ele>
        <time>2012-03-17T09:22:08Z</time>
      </trkpt>
      <trkpt lat="45.63144" lon="4.74487">
        <ele>293</ele>
        <time>2012-03-17T09:22:09Z</time>
      </trkpt>
      <trkpt lat="45.63146" lon="4.74486">
        <ele>293</ele>
        <time>2012-03-17T09:22:10Z</time>
      </trkpt>
      <trkpt lat="45.63148" lon="4.74485">
        <ele>293</ele>
        <time>2012-03-17T09:22:11Z</time>
      </trkpt>
      <trkpt lat="45.63157" lon="4.74481">
        <ele>293</ele>
        <time>2012-03-17T09:22:18Z</time>
      </trkpt>
      <trkpt lat="45.6316" lon="4.7448">
        <ele>292</ele>
        <time>2012-03-17T09:22:24Z</time>
      </trkpt>
      <trkpt lat="45.6316" lon="4.7448">
        <ele>292</ele>
        <time>2012-03-17T09:22:34Z</time>
      </trkpt>
      <trkpt lat="45.63163" lon="4.74478">
        <ele>291</ele>
        <time>2012-03-17T09:22:40Z</time>
      </trkpt>
      <trkpt lat="45.63177" lon="4.74472">
        <ele>290</ele>
        <time>2012-03-17T09:22:47Z</time>
      </trkpt>
      <trkpt lat="45.63184" lon="4.74472">
        <ele>289</ele>
        <time>2012-03-17T09:22:53Z</time>
      </trkpt>
      <trkpt lat="45.63184" lon="4.74472">
        <ele>289</ele>
        <time>2012-03-17T09:22:59Z</time>
      </trkpt>
      <trkpt lat="45.63184" lon="4.74472">
        <ele>289</ele>
        <time>2012-03-17T09:23:18Z</time>
      </trkpt>
      <trkpt lat="45.63184" lon="4.74472">
        <ele>289</ele>
        <time>2012-03-17T09:23:41Z</time>
      </trkpt>
      <trkpt lat="45.63184" lon="4.74472">
        <ele>289</ele>
        <time>2012-03-17T09:24:00Z</time>
      </trkpt>
      <trkpt lat="45.63184" lon="4.74473">
        <ele>289</ele>
        <time>2012-03-17T09:24:25Z</time>
      </trkpt>
      <trkpt lat="45.63184" lon="4.74473">
        <ele>289</ele>
        <time>2012-03-17T09:24:51Z</time>
      </trkpt>
      <trkpt lat="45.63184" lon="4.74473">
        <ele>289</ele>
        <time>2012-03-17T09:25:12Z</time>
      </trkpt>
      <trkpt lat="45.63184" lon="4.74473">
        <ele>289</ele>
        <time>2012-03-17T09:25:35Z</time>
      </trkpt>
      <trkpt lat="45.63184" lon="4.74473">
        <ele>289</ele>
        <time>2012-03-17T09:25:59Z</time>
      </trkpt>
      <trkpt lat="45.63184" lon="4.74473">
        <ele>289</ele>
        <time>2012-03-17T09:26:24Z</time>
      </trkpt>
      <trkpt lat="45.63184" lon="4.74473">
        <ele>289</ele>
        <time>2012-03-17T09:26:45Z</time>
      </trkpt>
      <trkpt lat="45.63184" lon="4.74473">
        <ele>289</ele>
        <time>2012-03-17T09:27:06Z</time>
      </trkpt>
      <trkpt lat="45.63184" lon="4.74473">
        <ele>289</ele>
        <time>2012-03-17T09:27:33Z</time>
      </trkpt>
      <trkpt lat="45.63184" lon="4.74473">
        <ele>289</ele>
        <time>2012-03-17T09:27:55Z</time>
      </trkpt>
      <trkpt lat="45.63185" lon="4.74473">
        <ele>289</ele>
        <time>2012-03-17T09:28:18Z</time>
      </trkpt>
      <trkpt lat="45.63185" lon="4.74473">
        <ele>289</ele>
        <time>2012-03-17T09:28:43Z</time>
      </trkpt>
      <trkpt lat="45.63185" lon="4.74473">
        <ele>289</ele>
        <time>2012-03-17T09:29:06Z</time>
      </trkpt>
      <trkpt lat="45.63185" lon="4.74473">
        <ele>289</ele>
        <time>2012-03-17T09:29:26Z</time>
      </trkpt>
      <trkpt lat="45.63185" lon="4.74473">
        <ele>289</ele>
        <time>2012-03-17T09:29:48Z</time>
      </trkpt>
      <trkpt lat="45.63185" lon="4.74473">
        <ele>289</ele>
        <time>2012-03-17T09:30:08Z</time>
      </trkpt>
      <trkpt lat="45.63184" lon="4.74473">
        <ele>289</ele>
        <time>2012-03-17T09:30:30Z</time>
      </trkpt>
      <trkpt lat="45.63184" lon="4.74473">
        <ele>289</ele>
        <time>2012-03-17T09:30:52Z</time>
      </trkpt>
      <trkpt lat="45.63185" lon="4.74472">
        <ele>290</ele>
        <time>2012-03-17T09:31:22Z</time>
      </trkpt>
      <trkpt lat="45.63185" lon="4.74472">
        <ele>290</ele>
        <time>2012-03-17T09:31:44Z</time>
      </trkpt>
      <trkpt lat="45.63185" lon="4.74472">
        <ele>289</ele>
        <time>2012-03-17T09:32:08Z</time>
      </trkpt>
      <trkpt lat="45.63185" lon="4.74472">
        <ele>290</ele>
        <time>2012-03-17T09:32:34Z</time>
      </trkpt>
      <trkpt lat="45.63186" lon="4.74472">
        <ele>291</ele>
        <time>2012-03-17T09:32:46Z</time>
      </trkpt>
      <trkpt lat="45.63186" lon="4.74473">
        <ele>291</ele>
        <time>2012-03-17T09:32:58Z</time>
      </trkpt>
      <trkpt lat="45.63186" lon="4.74473">
        <ele>290</ele>
        <time>2012-03-17T09:33:01Z</time>
      </trkpt>
      <trkpt lat="45.63187" lon="4.74472">
        <ele>290</ele>
        <time>2012-03-17T09:33:02Z</time>
      </trkpt>
      <trkpt lat="45.63188" lon="4.74471">
        <ele>290</ele>
        <time>2012-03-17T09:33:03Z</time>
      </trkpt>
      <trkpt lat="45.63189" lon="4.74471">
        <ele>289</ele>
        <time>2012-03-17T09:33:04Z</time>
      </trkpt>
      <trkpt lat="45.63191" lon="4.7447">
        <ele>290</ele>
        <time>2012-03-17T09:33:05Z</time>
      </trkpt>
      <trkpt lat="45.63194" lon="4.74469">
        <ele>289</ele>
        <time>2012-03-17T09:33:06Z</time>
      </trkpt>
      <trkpt lat="45.63196" lon="4.74469">
        <ele>289</ele>
        <time>2012-03-17T09:33:07Z</time>
      </trkpt>
      <trkpt lat="45.63199" lon="4.74468">
        <ele>289</ele>
        <time>2012-03-17T09:33:08Z</time>
      </trkpt>
      <trkpt lat="45.63206" lon="4.74468">
        <ele>289</ele>
        <time>2012-03-17T09:33:10Z</time>
      </trkpt>
      <trkpt lat="45.63211" lon="4.74466">
        <ele>289</ele>
        <time>2012-03-17T09:33:11Z</time>
      </trkpt>
      <trkpt lat="45.63219" lon="4.74462">
        <ele>287</ele>
        <time>2012-03-17T09:33:13Z</time>
      </trkpt>
      <trkpt lat="45.63223" lon="4.74457">
        <ele>287</ele>
        <time>2012-03-17T09:33:14Z</time>
      </trkpt>
      <trkpt lat="45.63228" lon="4.74454">
        <ele>286</ele>
        <time>2012-03-17T09:33:15Z</time>
      </trkpt>
      <trkpt lat="45.63234" lon="4.74451">
        <ele>285</ele>
        <time>2012-03-17T09:33:16Z</time>
      </trkpt>
      <trkpt lat="45.63241" lon="4.74449">
        <ele>284</ele>
        <time>2012-03-17T09:33:17Z</time>
      </trkpt>
      <trkpt lat="45.63255" lon="4.74442">
        <ele>282</ele>
        <time>2012-03-17T09:33:19Z</time>
      </trkpt>
      <trkpt lat="45.63263" lon="4.74442">
        <ele>282</ele>
        <time>2012-03-17T09:33:20Z</time>
      </trkpt>
      <trkpt lat="45.63297" lon="4.74448">
        <ele>277</ele>
        <time>2012-03-17T09:33:24Z</time>
      </trkpt>
      <trkpt lat="45.63304" lon="4.74449">
        <ele>276</ele>
        <time>2012-03-17T09:33:25Z</time>
      </trkpt>
      <trkpt lat="45.63315" lon="4.74448">
        <ele>274</ele>
        <time>2012-03-17T09:33:27Z</time>
      </trkpt>
      <trkpt lat="45.63318" lon="4.74446">
        <ele>273</ele>
        <time>2012-03-17T09:33:28Z</time>
      </trkpt>
      <trkpt lat="45.63322" lon="4.74443">
        <ele>273</ele>
        <time>2012-03-17T09:33:29Z</time>
      </trkpt>
      <trkpt lat="45.63325" lon="4.74439">
        <ele>273</ele>
        <time>2012-03-17T09:33:30Z</time>
      </trkpt>
      <trkpt lat="45.63327" lon="4.74434">
        <ele>272</ele>
        <time>2012-03-17T09:33:31Z</time>
      </trkpt>
      <trkpt lat="45.63327" lon="4.74428">
        <ele>272</ele>
        <time>2012-03-17T09:33:32Z</time>
      </trkpt>
      <trkpt lat="45.63326" lon="4.74423">
        <ele>272</ele>
        <time>2012-03-17T09:33:33Z</time>
      </trkpt>
      <trkpt lat="45.63326" lon="4.74412">
        <ele>271</ele>
        <time>2012-03-17T09:33:35Z</time>
      </trkpt>
      <trkpt lat="45.63327" lon="4.744">
        <ele>269</ele>
        <time>2012-03-17T09:33:37Z</time>
      </trkpt>
      <trkpt lat="45.63327" lon="4.74394">
        <ele>269</ele>
        <time>2012-03-17T09:33:38Z</time>
      </trkpt>
      <trkpt lat="45.63327" lon="4.74388">
        <ele>269</ele>
        <time>2012-03-17T09:33:39Z</time>
      </trkpt>
      <trkpt lat="45.63327" lon="4.74382">
        <ele>268</ele>
        <time>2012-03-17T09:33:40Z</time>
      </trkpt>
      <trkpt lat="45.63325" lon="4.74377">
        <ele>267</ele>
        <time>2012-03-17T09:33:41Z</time>
      </trkpt>
      <trkpt lat="45.63324" lon="4.74374">
        <ele>266</ele>
        <time>2012-03-17T09:33:42Z</time>
      </trkpt>
      <trkpt lat="45.63322" lon="4.74369">
        <ele>266</ele>
        <time>2012-03-17T09:33:43Z</time>
      </trkpt>
      <trkpt lat="45.6332" lon="4.74364">
        <ele>264</ele>
        <time>2012-03-17T09:33:44Z</time>
      </trkpt>
      <trkpt lat="45.63319" lon="4.74351">
        <ele>262</ele>
        <time>2012-03-17T09:33:46Z</time>
      </trkpt>
      <trkpt lat="45.63318" lon="4.74339">
        <ele>259</ele>
        <time>2012-03-17T09:33:49Z</time>
      </trkpt>
      <trkpt lat="45.63325" lon="4.74344">
        <ele>256</ele>
        <time>2012-03-17T09:33:52Z</time>
      </trkpt>
      <trkpt lat="45.63333" lon="4.74351">
        <ele>251</ele>
        <time>2012-03-17T09:33:57Z</time>
      </trkpt>
      <trkpt lat="45.6334" lon="4.74361">
        <ele>247</ele>
        <time>2012-03-17T09:34:00Z</time>
      </trkpt>
      <trkpt lat="45.63346" lon="4.74369">
        <ele>244</ele>
        <time>2012-03-17T09:34:02Z</time>
      </trkpt>
      <trkpt lat="45.63352" lon="4.74379">
        <ele>242</ele>
        <time>2012-03-17T09:34:05Z</time>
      </trkpt>
      <trkpt lat="45.63363" lon="4.74382">
        <ele>242</ele>
        <time>2012-03-17T09:34:09Z</time>
      </trkpt>
      <trkpt lat="45.63375" lon="4.74381">
        <ele>244</ele>
        <time>2012-03-17T09:34:17Z</time>
      </trkpt>
      <trkpt lat="45.63375" lon="4.74381">
        <ele>244</ele>
        <time>2012-03-17T09:34:26Z</time>
      </trkpt>
      <trkpt lat="45.63376" lon="4.74381">
        <ele>244</ele>
        <time>2012-03-17T09:34:31Z</time>
      </trkpt>
      <trkpt lat="45.63381" lon="4.74395">
        <ele>242</ele>
        <time>2012-03-17T09:34:36Z</time>
      </trkpt>
      <trkpt lat="45.63389" lon="4.74409">
        <ele>240</ele>
        <time>2012-03-17T09:34:41Z</time>
      </trkpt>
      <trkpt lat="45.63395" lon="4.74415">
        <ele>239</ele>
        <time>2012-03-17T09:34:43Z</time>
      </trkpt>
      <trkpt lat="45.63397" lon="4.7442">
        <ele>238</ele>
        <time>2012-03-17T09:34:45Z</time>
      </trkpt>
      <trkpt lat="45.63397" lon="4.74428">
        <ele>236</ele>
        <time>2012-03-17T09:34:48Z</time>
      </trkpt>
      <trkpt lat="45.63407" lon="4.7444">
        <ele>237</ele>
        <time>2012-03-17T09:34:53Z</time>
      </trkpt>
      <trkpt lat="45.63409" lon="4.74444">
        <ele>236</ele>
        <time>2012-03-17T09:34:54Z</time>
      </trkpt>
      <trkpt lat="45.63418" lon="4.74477">
        <ele>235</ele>
        <time>2012-03-17T09:34:59Z</time>
      </trkpt>
      <trkpt lat="45.63421" lon="4.74483">
        <ele>235</ele>
        <time>2012-03-17T09:35:00Z</time>
      </trkpt>
      <trkpt lat="45.63423" lon="4.74488">
        <ele>235</ele>
        <time>2012-03-17T09:35:01Z</time>
      </trkpt>
      <trkpt lat="45.63426" lon="4.74493">
        <ele>236</ele>
        <time>2012-03-17T09:35:02Z</time>
      </trkpt>
      <trkpt lat="45.63428" lon="4.74496">
        <ele>236</ele>
        <time>2012-03-17T09:35:03Z</time>
      </trkpt>
      <trkpt lat="45.6344" lon="4.7452">
        <ele>236</ele>
        <time>2012-03-17T09:35:09Z</time>
      </trkpt>
      <trkpt lat="45.63443" lon="4.74522">
        <ele>236</ele>
        <time>2012-03-17T09:35:10Z</time>
      </trkpt>
      <trkpt lat="45.63462" lon="4.74547">
        <ele>234</ele>
        <time>2012-03-17T09:35:16Z</time>
      </trkpt>
      <trkpt lat="45.63478" lon="4.74578">
        <ele>232</ele>
        <time>2012-03-17T09:35:22Z</time>
      </trkpt>
      <trkpt lat="45.63486" lon="4.74596">
        <ele>228</ele>
        <time>2012-03-17T09:35:24Z</time>
      </trkpt>
      <trkpt lat="45.635" lon="4.74636">
        <ele>225</ele>
        <time>2012-03-17T09:35:28Z</time>
      </trkpt>
      <trkpt lat="45.63506" lon="4.74657">
        <ele>223</ele>
        <time>2012-03-17T09:35:30Z</time>
      </trkpt>
      <trkpt lat="45.6351" lon="4.74667">
        <ele>222</ele>
        <time>2012-03-17T09:35:31Z</time>
      </trkpt>
      <trkpt lat="45.63518" lon="4.74686">
        <ele>221</ele>
        <time>2012-03-17T09:35:33Z</time>
      </trkpt>
      <trkpt lat="45.63531" lon="4.74718">
        <ele>217</ele>
        <time>2012-03-17T09:35:36Z</time>
      </trkpt>
      <trkpt lat="45.63536" lon="4.74729">
        <ele>217</ele>
        <time>2012-03-17T09:35:37Z</time>
      </trkpt>
      <trkpt lat="45.63547" lon="4.74753">
        <ele>216</ele>
        <time>2012-03-17T09:35:39Z</time>
      </trkpt>
      <trkpt lat="45.6357" lon="4.74802">
        <ele>215</ele>
        <time>2012-03-17T09:35:44Z</time>
      </trkpt>
      <trkpt lat="45.63578" lon="4.74818">
        <ele>214</ele>
        <time>2012-03-17T09:35:46Z</time>
      </trkpt>
      <trkpt lat="45.6358" lon="4.74826">
        <ele>215</ele>
        <time>2012-03-17T09:35:47Z</time>
      </trkpt>
      <trkpt lat="45.63589" lon="4.74872">
        <ele>212</ele>
        <time>2012-03-17T09:35:53Z</time>
      </trkpt>
      <trkpt lat="45.63591" lon="4.7488">
        <ele>212</ele>
        <time>2012-03-17T09:35:54Z</time>
      </trkpt>
      <trkpt lat="45.63593" lon="4.74889">
        <ele>212</ele>
        <time>2012-03-17T09:35:55Z</time>
      </trkpt>
      <trkpt lat="45.63596" lon="4.74897">
        <ele>212</ele>
        <time>2012-03-17T09:35:56Z</time>
      </trkpt>
      <trkpt lat="45.63607" lon="4.74918">
        <ele>211</ele>
        <time>2012-03-17T09:35:59Z</time>
      </trkpt>
      <trkpt lat="45.6361" lon="4.74924">
        <ele>211</ele>
        <time>2012-03-17T09:36:00Z</time>
      </trkpt>
      <trkpt lat="45.63614" lon="4.7493">
        <ele>211</ele>
        <time>2012-03-17T09:36:01Z</time>
      </trkpt>
      <trkpt lat="45.63622" lon="4.74941">
        <ele>210</ele>
        <time>2012-03-17T09:36:03Z</time>
      </trkpt>
      <trkpt lat="45.63626" lon="4.74947">
        <ele>210</ele>
        <time>2012-03-17T09:36:04Z</time>
      </trkpt>
      <trkpt lat="45.6363" lon="4.74952">
        <ele>210</ele>
        <time>2012-03-17T09:36:05Z</time>
      </trkpt>
      <trkpt lat="45.63642" lon="4.74967">
        <ele>211</ele>
        <time>2012-03-17T09:36:08Z</time>
      </trkpt>
      <trkpt lat="45.63664" lon="4.75009">
        <ele>210</ele>
        <time>2012-03-17T09:36:14Z</time>
      </trkpt>
      <trkpt lat="45.63668" lon="4.75017">
        <ele>209</ele>
        <time>2012-03-17T09:36:15Z</time>
      </trkpt>
      <trkpt lat="45.63671" lon="4.75025">
        <ele>209</ele>
        <time>2012-03-17T09:36:16Z</time>
      </trkpt>
      <trkpt lat="45.63677" lon="4.75041">
        <ele>208</ele>
        <time>2012-03-17T09:36:18Z</time>
      </trkpt>
      <trkpt lat="45.63681" lon="4.7505">
        <ele>208</ele>
        <time>2012-03-17T09:36:19Z</time>
      </trkpt>
      <trkpt lat="45.63694" lon="4.75073">
        <ele>207</ele>
        <time>2012-03-17T09:36:22Z</time>
      </trkpt>
      <trkpt lat="45.63697" lon="4.75077">
        <ele>206</ele>
        <time>2012-03-17T09:36:23Z</time>
      </trkpt>
      <trkpt lat="45.637" lon="4.75081">
        <ele>206</ele>
        <time>2012-03-17T09:36:24Z</time>
      </trkpt>
      <trkpt lat="45.63703" lon="4.75085">
        <ele>206</ele>
        <time>2012-03-17T09:36:25Z</time>
      </trkpt>
      <trkpt lat="45.63706" lon="4.75088">
        <ele>205</ele>
        <time>2012-03-17T09:36:26Z</time>
      </trkpt>
      <trkpt lat="45.63709" lon="4.75092">
        <ele>206</ele>
        <time>2012-03-17T09:36:27Z</time>
      </trkpt>
      <trkpt lat="45.63728" lon="4.75109">
        <ele>204</ele>
        <time>2012-03-17T09:36:34Z</time>
      </trkpt>
      <trkpt lat="45.6373" lon="4.75112">
        <ele>204</ele>
        <time>2012-03-17T09:36:36Z</time>
      </trkpt>
      <trkpt lat="45.63731" lon="4.75116">
        <ele>204</ele>
        <time>2012-03-17T09:36:37Z</time>
      </trkpt>
      <trkpt lat="45.63731" lon="4.75121">
        <ele>204</ele>
        <time>2012-03-17T09:36:38Z</time>
      </trkpt>
      <trkpt lat="45.6373" lon="4.75127">
        <ele>204</ele>
        <time>2012-03-17T09:36:39Z</time>
      </trkpt>
      <trkpt lat="45.6373" lon="4.75133">
        <ele>203</ele>
        <time>2012-03-17T09:36:40Z</time>
      </trkpt>
      <trkpt lat="45.6373" lon="4.75138">
        <ele>203</ele>
        <time>2012-03-17T09:36:41Z</time>
      </trkpt>
      <trkpt lat="45.63731" lon="4.75142">
        <ele>202</ele>
        <time>2012-03-17T09:36:42Z</time>
      </trkpt>
      <trkpt lat="45.63735" lon="4.75144">
        <ele>202</ele>
        <time>2012-03-17T09:36:43Z</time>
      </trkpt>
      <trkpt lat="45.63739" lon="4.75146">
        <ele>202</ele>
        <time>2012-03-17T09:36:44Z</time>
      </trkpt>
      <trkpt lat="45.63743" lon="4.75147">
        <ele>202</ele>
        <time>2012-03-17T09:36:45Z</time>
      </trkpt>
      <trkpt lat="45.63748" lon="4.75147">
        <ele>202</ele>
        <time>2012-03-17T09:36:46Z</time>
      </trkpt>
      <trkpt lat="45.63753" lon="4.75147">
        <ele>202</ele>
        <time>2012-03-17T09:36:47Z</time>
      </trkpt>
      <trkpt lat="45.63765" lon="4.75146">
        <ele>202</ele>
        <time>2012-03-17T09:36:51Z</time>
      </trkpt>
      <trkpt lat="45.63767" lon="4.75144">
        <ele>202</ele>
        <time>2012-03-17T09:36:52Z</time>
      </trkpt>
      <trkpt lat="45.63766" lon="4.75142">
        <ele>202</ele>
        <time>2012-03-17T09:36:53Z</time>
      </trkpt>
      <trkpt lat="45.63765" lon="4.75141">
        <ele>202</ele>
        <time>2012-03-17T09:36:54Z</time>
      </trkpt>
      <trkpt lat="45.63764" lon="4.75141">
        <ele>202</ele>
        <time>2012-03-17T09:36:55Z</time>
      </trkpt>
      <trkpt lat="45.63762" lon="4.75142">
        <ele>202</ele>
        <time>2012-03-17T09:36:56Z</time>
      </trkpt>
      <trkpt lat="45.6376" lon="4.75144">
        <ele>202</ele>
        <time>2012-03-17T09:36:57Z</time>
      </trkpt>
      <trkpt lat="45.63756" lon="4.75145">
        <ele>202</ele>
        <time>2012-03-17T09:36:58Z</time>
      </trkpt>
      <trkpt lat="45.63751" lon="4.75145">
        <ele>202</ele>
        <time>2012-03-17T09:36:59Z</time>
      </trkpt>
      <trkpt lat="45.63747" lon="4.75145">
        <ele>203</ele>
        <time>2012-03-17T09:37:00Z</time>
      </trkpt>
      <trkpt lat="45.63707" lon="4.75148">
        <ele>203</ele>
        <time>2012-03-17T09:37:09Z</time>
      </trkpt>
      <trkpt lat="45.63694" lon="4.75153">
        <ele>203</ele>
        <time>2012-03-17T09:37:12Z</time>
      </trkpt>
      <trkpt lat="45.6369" lon="4.75155">
        <ele>203</ele>
        <time>2012-03-17T09:37:13Z</time>
      </trkpt>
      <trkpt lat="45.63646" lon="4.75173">
        <ele>203</ele>
        <time>2012-03-17T09:37:23Z</time>
      </trkpt>
      <trkpt lat="45.63633" lon="4.75177">
        <ele>204</ele>
        <time>2012-03-17T09:37:26Z</time>
      </trkpt>
      <trkpt lat="45.63613" lon="4.75186">
        <ele>203</ele>
        <time>2012-03-17T09:37:31Z</time>
      </trkpt>
      <trkpt lat="45.63577" lon="4.75199">
        <ele>203</ele>
        <time>2012-03-17T09:37:39Z</time>
      </trkpt>
      <trkpt lat="45.63542" lon="4.75217">
        <ele>204</ele>
        <time>2012-03-17T09:37:47Z</time>
      </trkpt>
      <trkpt lat="45.63534" lon="4.75222">
        <ele>205</ele>
        <time>2012-03-17T09:37:49Z</time>
      </trkpt>
      <trkpt lat="45.63504" lon="4.75245">
        <ele>206</ele>
        <time>2012-03-17T09:37:57Z</time>
      </trkpt>
      <trkpt lat="45.63492" lon="4.75254">
        <ele>206</ele>
        <time>2012-03-17T09:38:02Z</time>
      </trkpt>
      <trkpt lat="45.63489" lon="4.75257">
        <ele>205</ele>
        <time>2012-03-17T09:38:03Z</time>
      </trkpt>
      <trkpt lat="45.63485" lon="4.7526">
        <ele>206</ele>
        <time>2012-03-17T09:38:04Z</time>
      </trkpt>
      <trkpt lat="45.63482" lon="4.75265">
        <ele>206</ele>
        <time>2012-03-17T09:38:05Z</time>
      </trkpt>
      <trkpt lat="45.63457" lon="4.75306">
        <ele>206</ele>
        <time>2012-03-17T09:38:13Z</time>
      </trkpt>
      <trkpt lat="45.63454" lon="4.75312">
        <ele>205</ele>
        <time>2012-03-17T09:38:14Z</time>
      </trkpt>
      <trkpt lat="45.63447" lon="4.75322">
        <ele>204</ele>
        <time>2012-03-17T09:38:16Z</time>
      </trkpt>
      <trkpt lat="45.63431" lon="4.75349">
        <ele>204</ele>
        <time>2012-03-17T09:38:21Z</time>
      </trkpt>
      <trkpt lat="45.63428" lon="4.75355">
        <ele>204</ele>
        <time>2012-03-17T09:38:22Z</time>
      </trkpt>
      <trkpt lat="45.63424" lon="4.7536">
        <ele>204</ele>
        <time>2012-03-17T09:38:23Z</time>
      </trkpt>
      <trkpt lat="45.6339" lon="4.75397">
        <ele>204</ele>
        <time>2012-03-17T09:38:32Z</time>
      </trkpt>
      <trkpt lat="45.63381" lon="4.75404">
        <ele>204</ele>
        <time>2012-03-17T09:38:34Z</time>
      </trkpt>
      <trkpt lat="45.63347" lon="4.75426">
        <ele>205</ele>
        <time>2012-03-17T09:38:42Z</time>
      </trkpt>
      <trkpt lat="45.63342" lon="4.75429">
        <ele>205</ele>
        <time>2012-03-17T09:38:43Z</time>
      </trkpt>
      <trkpt lat="45.63338" lon="4.75431">
        <ele>205</ele>
        <time>2012-03-17T09:38:44Z</time>
      </trkpt>
      <trkpt lat="45.63325" lon="4.75431">
        <ele>206</ele>
        <time>2012-03-17T09:38:48Z</time>
      </trkpt>
      <trkpt lat="45.63322" lon="4.75429">
        <ele>206</ele>
        <time>2012-03-17T09:38:49Z</time>
      </trkpt>
      <trkpt lat="45.6332" lon="4.75426">
        <ele>206</ele>
        <time>2012-03-17T09:38:50Z</time>
      </trkpt>
      <trkpt lat="45.63305" lon="4.75409">
        <ele>208</ele>
        <time>2012-03-17T09:38:57Z</time>
      </trkpt>
      <trkpt lat="45.63294" lon="4.75403">
        <ele>209</ele>
        <time>2012-03-17T09:39:05Z</time>
      </trkpt>
      <trkpt lat="45.63283" lon="4.75405">
        <ele>210</ele>
        <time>2012-03-17T09:39:12Z</time>
      </trkpt>
      <trkpt lat="45.63275" lon="4.75407">
        <ele>212</ele>
        <time>2012-03-17T09:39:17Z</time>
      </trkpt>
      <trkpt lat="45.63269" lon="4.75407">
        <ele>213</ele>
        <time>2012-03-17T09:39:21Z</time>
      </trkpt>
      <trkpt lat="45.63267" lon="4.75407">
        <ele>213</ele>
        <time>2012-03-17T09:39:22Z</time>
      </trkpt>
      <trkpt lat="45.63266" lon="4.75407">
        <ele>212</ele>
        <time>2012-03-17T09:39:23Z</time>
      </trkpt>
      <trkpt lat="45.63264" lon="4.75407">
        <ele>213</ele>
        <time>2012-03-17T09:39:24Z</time>
      </trkpt>
      <trkpt lat="45.63262" lon="4.75406">
        <ele>213</ele>
        <time>2012-03-17T09:39:25Z</time>
      </trkpt>
      <trkpt lat="45.63261" lon="4.75406">
        <ele>214</ele>
        <time>2012-03-17T09:39:26Z</time>
      </trkpt>
      <trkpt lat="45.63253" lon="4.7541">
        <ele>214</ele>
        <time>2012-03-17T09:39:32Z</time>
      </trkpt>
      <trkpt lat="45.63246" lon="4.7541">
        <ele>214</ele>
        <time>2012-03-17T09:39:37Z</time>
      </trkpt>
      <trkpt lat="45.63243" lon="4.75406">
        <ele>214</ele>
        <time>2012-03-17T09:39:40Z</time>
      </trkpt>
      <trkpt lat="45.63241" lon="4.75405">
        <ele>214</ele>
        <time>2012-03-17T09:39:41Z</time>
      </trkpt>
      <trkpt lat="45.63236" lon="4.75402">
        <ele>214</ele>
        <time>2012-03-17T09:39:45Z</time>
      </trkpt>
      <trkpt lat="45.63235" lon="4.754">
        <ele>215</ele>
        <time>2012-03-17T09:39:46Z</time>
      </trkpt>
      <trkpt lat="45.63234" lon="4.75398">
        <ele>215</ele>
        <time>2012-03-17T09:39:47Z</time>
      </trkpt>
      <trkpt lat="45.63233" lon="4.75396">
        <ele>215</ele>
        <time>2012-03-17T09:39:48Z</time>
      </trkpt>
      <trkpt lat="45.63232" lon="4.75395">
        <ele>215</ele>
        <time>2012-03-17T09:39:49Z</time>
      </trkpt>
      <trkpt lat="45.63231" lon="4.75394">
        <ele>216</ele>
        <time>2012-03-17T09:39:50Z</time>
      </trkpt>
      <trkpt lat="45.63229" lon="4.75393">
        <ele>216</ele>
        <time>2012-03-17T09:39:51Z</time>
      </trkpt>
      <trkpt lat="45.63229" lon="4.75392">
        <ele>216</ele>
        <time>2012-03-17T09:39:52Z</time>
      </trkpt>
      <trkpt lat="45.63228" lon="4.7539">
        <ele>216</ele>
        <time>2012-03-17T09:39:53Z</time>
      </trkpt>
      <trkpt lat="45.63226" lon="4.75387">
        <ele>216</ele>
        <time>2012-03-17T09:39:54Z</time>
      </trkpt>
      <trkpt lat="45.63225" lon="4.75384">
        <ele>216</ele>
        <time>2012-03-17T09:39:55Z</time>
      </trkpt>
      <trkpt lat="45.63222" lon="4.75381">
        <ele>215</ele>
        <time>2012-03-17T09:39:56Z</time>
      </trkpt>
      <trkpt lat="45.6322" lon="4.75379">
        <ele>215</ele>
        <time>2012-03-17T09:39:57Z</time>
      </trkpt>
      <trkpt lat="45.63216" lon="4.75377">
        <ele>215</ele>
        <time>2012-03-17T09:39:58Z</time>
      </trkpt>
      <trkpt lat="45.63213" lon="4.75377">
        <ele>215</ele>
        <time>2012-03-17T09:39:59Z</time>
      </trkpt>
      <trkpt lat="45.6321" lon="4.75379">
        <ele>215</ele>
        <time>2012-03-17T09:40:00Z</time>
      </trkpt>
      <trkpt lat="45.63207" lon="4.75381">
        <ele>214</ele>
        <time>2012-03-17T09:40:01Z</time>
      </trkpt>
      <trkpt lat="45.63205" lon="4.75383">
        <ele>215</ele>
        <time>2012-03-17T09:40:02Z</time>
      </trkpt>
      <trkpt lat="45.63203" lon="4.75386">
        <ele>214</ele>
        <time>2012-03-17T09:40:03Z</time>
      </trkpt>
      <trkpt lat="45.632" lon="4.75389">
        <ele>214</ele>
        <time>2012-03-17T09:40:04Z</time>
      </trkpt>
      <trkpt lat="45.63198" lon="4.75392">
        <ele>214</ele>
        <time>2012-03-17T09:40:05Z</time>
      </trkpt>
      <trkpt lat="45.63174" lon="4.75413">
        <ele>216</ele>
        <time>2012-03-17T09:40:13Z</time>
      </trkpt>
      <trkpt lat="45.63151" lon="4.75426">
        <ele>217</ele>
        <time>2012-03-17T09:40:20Z</time>
      </trkpt>
      <trkpt lat="45.63126" lon="4.75444">
        <ele>217</ele>
        <time>2012-03-17T09:40:28Z</time>
      </trkpt>
      <trkpt lat="45.63104" lon="4.7546">
        <ele>218</ele>
        <time>2012-03-17T09:40:35Z</time>
      </trkpt>
      <trkpt lat="45.63075" lon="4.75472">
        <ele>220</ele>
        <time>2012-03-17T09:40:44Z</time>
      </trkpt>
      <trkpt lat="45.63056" lon="4.75473">
        <ele>220</ele>
        <time>2012-03-17T09:40:51Z</time>
      </trkpt>
      <trkpt lat="45.63031" lon="4.75475">
        <ele>221</ele>
        <time>2012-03-17T09:41:01Z</time>
      </trkpt>
      <trkpt lat="45.63007" lon="4.75477">
        <ele>222</ele>
        <time>2012-03-17T09:41:10Z</time>
      </trkpt>
      <trkpt lat="45.62993" lon="4.75475">
        <ele>223</ele>
        <time>2012-03-17T09:41:17Z</time>
      </trkpt>
      <trkpt lat="45.62982" lon="4.75469">
        <ele>225</ele>
        <time>2012-03-17T09:41:24Z</time>
      </trkpt>
      <trkpt lat="45.62976" lon="4.75461">
        <ele>227</ele>
        <time>2012-03-17T09:41:29Z</time>
      </trkpt>
      <trkpt lat="45.62975" lon="4.7546">
        <ele>227</ele>
        <time>2012-03-17T09:41:30Z</time>
      </trkpt>
      <trkpt lat="45.62973" lon="4.75461">
        <ele>227</ele>
        <time>2012-03-17T09:41:32Z</time>
      </trkpt>
      <trkpt lat="45.62973" lon="4.75463">
        <ele>227</ele>
        <time>2012-03-17T09:41:33Z</time>
      </trkpt>
      <trkpt lat="45.62973" lon="4.75465">
        <ele>227</ele>
        <time>2012-03-17T09:41:34Z</time>
      </trkpt>
      <trkpt lat="45.62975" lon="4.75493">
        <ele>227</ele>
        <time>2012-03-17T09:41:41Z</time>
      </trkpt>
      <trkpt lat="45.62978" lon="4.75513">
        <ele>224</ele>
        <time>2012-03-17T09:41:45Z</time>
      </trkpt>
      <trkpt lat="45.6298" lon="4.75518">
        <ele>224</ele>
        <time>2012-03-17T09:41:46Z</time>
      </trkpt>
      <trkpt lat="45.62981" lon="4.75524">
        <ele>224</ele>
        <time>2012-03-17T09:41:47Z</time>
      </trkpt>
      <trkpt lat="45.62981" lon="4.75529">
        <ele>223</ele>
        <time>2012-03-17T09:41:48Z</time>
      </trkpt>
      <trkpt lat="45.62981" lon="4.75534">
        <ele>223</ele>
        <time>2012-03-17T09:41:49Z</time>
      </trkpt>
      <trkpt lat="45.62981" lon="4.7554">
        <ele>222</ele>
        <time>2012-03-17T09:41:50Z</time>
      </trkpt>
      <trkpt lat="45.62979" lon="4.75547">
        <ele>222</ele>
        <time>2012-03-17T09:41:51Z</time>
      </trkpt>
      <trkpt lat="45.62977" lon="4.75554">
        <ele>221</ele>
        <time>2012-03-17T09:41:52Z</time>
      </trkpt>
      <trkpt lat="45.62974" lon="4.75559">
        <ele>220</ele>
        <time>2012-03-17T09:41:53Z</time>
      </trkpt>
      <trkpt lat="45.62971" lon="4.75564">
        <ele>218</ele>
        <time>2012-03-17T09:41:54Z</time>
      </trkpt>
      <trkpt lat="45.62966" lon="4.75568">
        <ele>217</ele>
        <time>2012-03-17T09:41:55Z</time>
      </trkpt>
      <trkpt lat="45.62954" lon="4.75571">
        <ele>213</ele>
        <time>2012-03-17T09:41:57Z</time>
      </trkpt>
      <trkpt lat="45.6294" lon="4.75568">
        <ele>211</ele>
        <time>2012-03-17T09:42:00Z</time>
      </trkpt>
      <trkpt lat="45.62938" lon="4.75575">
        <ele>209</ele>
        <time>2012-03-17T09:42:03Z</time>
      </trkpt>
      <trkpt lat="45.6294" lon="4.75579">
        <ele>207</ele>
        <time>2012-03-17T09:42:04Z</time>
      </trkpt>
      <trkpt lat="45.62944" lon="4.75584">
        <ele>207</ele>
        <time>2012-03-17T09:42:05Z</time>
      </trkpt>
      <trkpt lat="45.62949" lon="4.7559">
        <ele>204</ele>
        <time>2012-03-17T09:42:06Z</time>
      </trkpt>
      <trkpt lat="45.62954" lon="4.75597">
        <ele>203</ele>
        <time>2012-03-17T09:42:07Z</time>
      </trkpt>
      <trkpt lat="45.62958" lon="4.75605">
        <ele>201</ele>
        <time>2012-03-17T09:42:08Z</time>
      </trkpt>
      <trkpt lat="45.62963" lon="4.75617">
        <ele>199</ele>
        <time>2012-03-17T09:42:09Z</time>
      </trkpt>
      <trkpt lat="45.62967" lon="4.7563">
        <ele>198</ele>
        <time>2012-03-17T09:42:10Z</time>
      </trkpt>
      <trkpt lat="45.6297" lon="4.75643">
        <ele>196</ele>
        <time>2012-03-17T09:42:11Z</time>
      </trkpt>
      <trkpt lat="45.62978" lon="4.7568">
        <ele>193</ele>
        <time>2012-03-17T09:42:14Z</time>
      </trkpt>
      <trkpt lat="45.62981" lon="4.75703">
        <ele>189</ele>
        <time>2012-03-17T09:42:16Z</time>
      </trkpt>
      <trkpt lat="45.62983" lon="4.75713">
        <ele>187</ele>
        <time>2012-03-17T09:42:17Z</time>
      </trkpt>
      <trkpt lat="45.62984" lon="4.75723">
        <ele>186</ele>
        <time>2012-03-17T09:42:18Z</time>
      </trkpt>
      <trkpt lat="45.62985" lon="4.75731">
        <ele>184</ele>
        <time>2012-03-17T09:42:19Z</time>
      </trkpt>
      <trkpt lat="45.62984" lon="4.75739">
        <ele>183</ele>
        <time>2012-03-17T09:42:20Z</time>
      </trkpt>
      <trkpt lat="45.62981" lon="4.75746">
        <ele>182</ele>
        <time>2012-03-17T09:42:21Z</time>
      </trkpt>
      <trkpt lat="45.62979" lon="4.75752">
        <ele>182</ele>
        <time>2012-03-17T09:42:22Z</time>
      </trkpt>
      <trkpt lat="45.62978" lon="4.75758">
        <ele>183</ele>
        <time>2012-03-17T09:42:23Z</time>
      </trkpt>
      <trkpt lat="45.62978" lon="4.75763">
        <ele>182</ele>
        <time>2012-03-17T09:42:24Z</time>
      </trkpt>
      <trkpt lat="45.62979" lon="4.75768">
        <ele>181</ele>
        <time>2012-03-17T09:42:25Z</time>
      </trkpt>
      <trkpt lat="45.6298" lon="4.75773">
        <ele>181</ele>
        <time>2012-03-17T09:42:26Z</time>
      </trkpt>
      <trkpt lat="45.62982" lon="4.75781">
        <ele>179</ele>
        <time>2012-03-17T09:42:28Z</time>
      </trkpt>
      <trkpt lat="45.62981" lon="4.75788">
        <ele>179</ele>
        <time>2012-03-17T09:42:30Z</time>
      </trkpt>
      <trkpt lat="45.6298" lon="4.75791">
        <ele>180</ele>
        <time>2012-03-17T09:42:31Z</time>
      </trkpt>
      <trkpt lat="45.62977" lon="4.75795">
        <ele>179</ele>
        <time>2012-03-17T09:42:32Z</time>
      </trkpt>
      <trkpt lat="45.62973" lon="4.75798">
        <ele>179</ele>
        <time>2012-03-17T09:42:33Z</time>
      </trkpt>
      <trkpt lat="45.62969" lon="4.758">
        <ele>179</ele>
        <time>2012-03-17T09:42:34Z</time>
      </trkpt>
      <trkpt lat="45.62951" lon="4.75821">
        <ele>179</ele>
        <time>2012-03-17T09:42:40Z</time>
      </trkpt>
      <trkpt lat="45.62949" lon="4.75823">
        <ele>180</ele>
        <time>2012-03-17T09:42:41Z</time>
      </trkpt>
      <trkpt lat="45.62948" lon="4.75827">
        <ele>180</ele>
        <time>2012-03-17T09:42:42Z</time>
      </trkpt>
      <trkpt lat="45.62948" lon="4.75832">
        <ele>179</ele>
        <time>2012-03-17T09:42:43Z</time>
      </trkpt>
      <trkpt lat="45.62949" lon="4.75837">
        <ele>179</ele>
        <time>2012-03-17T09:42:44Z</time>
      </trkpt>
      <trkpt lat="45.62949" lon="4.75842">
        <ele>178</ele>
        <time>2012-03-17T09:42:45Z</time>
      </trkpt>
      <trkpt lat="45.6295" lon="4.75847">
        <ele>178</ele>
        <time>2012-03-17T09:42:46Z</time>
      </trkpt>
      <trkpt lat="45.62952" lon="4.75853">
        <ele>178</ele>
        <time>2012-03-17T09:42:47Z</time>
      </trkpt>
      <trkpt lat="45.62954" lon="4.75858">
        <ele>177</ele>
        <time>2012-03-17T09:42:48Z</time>
      </trkpt>
      <trkpt lat="45.62957" lon="4.75864">
        <ele>178</ele>
        <time>2012-03-17T09:42:49Z</time>
      </trkpt>
      <trkpt lat="45.62959" lon="4.7587">
        <ele>177</ele>
        <time>2012-03-17T09:42:50Z</time>
      </trkpt>
      <trkpt lat="45.62961" lon="4.75877">
        <ele>177</ele>
        <time>2012-03-17T09:42:51Z</time>
      </trkpt>
      <trkpt lat="45.62961" lon="4.75884">
        <ele>178</ele>
        <time>2012-03-17T09:42:52Z</time>
      </trkpt>
      <trkpt lat="45.62961" lon="4.75892">
        <ele>177</ele>
        <time>2012-03-17T09:42:53Z</time>
      </trkpt>
      <trkpt lat="45.62961" lon="4.75899">
        <ele>178</ele>
        <time>2012-03-17T09:42:54Z</time>
      </trkpt>
      <trkpt lat="45.62955" lon="4.75958">
        <ele>177</ele>
        <time>2012-03-17T09:43:02Z</time>
      </trkpt>
      <trkpt lat="45.62954" lon="4.75965">
        <ele>177</ele>
        <time>2012-03-17T09:43:03Z</time>
      </trkpt>
      <trkpt lat="45.62953" lon="4.75972">
        <ele>177</ele>
        <time>2012-03-17T09:43:04Z</time>
      </trkpt>
      <trkpt lat="45.62951" lon="4.75994">
        <ele>177</ele>
        <time>2012-03-17T09:43:07Z</time>
      </trkpt>
      <trkpt lat="45.62944" lon="4.76055">
        <ele>179</ele>
        <time>2012-03-17T09:43:16Z</time>
      </trkpt>
      <trkpt lat="45.6294" lon="4.76059">
        <ele>179</ele>
        <time>2012-03-17T09:43:17Z</time>
      </trkpt>
      <trkpt lat="45.62936" lon="4.76061">
        <ele>178</ele>
        <time>2012-03-17T09:43:18Z</time>
      </trkpt>
      <trkpt lat="45.6293" lon="4.76061">
        <ele>178</ele>
        <time>2012-03-17T09:43:19Z</time>
      </trkpt>
      <trkpt lat="45.62924" lon="4.7606">
        <ele>178</ele>
        <time>2012-03-17T09:43:20Z</time>
      </trkpt>
      <trkpt lat="45.62917" lon="4.76059">
        <ele>177</ele>
        <time>2012-03-17T09:43:21Z</time>
      </trkpt>
      <trkpt lat="45.62911" lon="4.76058">
        <ele>177</ele>
        <time>2012-03-17T09:43:22Z</time>
      </trkpt>
      <trkpt lat="45.62904" lon="4.76058">
        <ele>177</ele>
        <time>2012-03-17T09:43:23Z</time>
      </trkpt>
      <trkpt lat="45.62848" lon="4.76068">
        <ele>177</ele>
        <time>2012-03-17T09:43:32Z</time>
      </trkpt>
      <trkpt lat="45.62817" lon="4.76072">
        <ele>177</ele>
        <time>2012-03-17T09:43:37Z</time>
      </trkpt>
      <trkpt lat="45.6277" lon="4.76065">
        <ele>176</ele>
        <time>2012-03-17T09:43:45Z</time>
      </trkpt>
      <trkpt lat="45.62748" lon="4.76069">
        <ele>175</ele>
        <time>2012-03-17T09:43:49Z</time>
      </trkpt>
      <trkpt lat="45.62743" lon="4.76071">
        <ele>176</ele>
        <time>2012-03-17T09:43:50Z</time>
      </trkpt>
      <trkpt lat="45.62727" lon="4.76077">
        <ele>176</ele>
        <time>2012-03-17T09:43:53Z</time>
      </trkpt>
      <trkpt lat="45.62723" lon="4.76081">
        <ele>177</ele>
        <time>2012-03-17T09:43:54Z</time>
      </trkpt>
      <trkpt lat="45.6272" lon="4.76086">
        <ele>176</ele>
        <time>2012-03-17T09:43:55Z</time>
      </trkpt>
      <trkpt lat="45.62714" lon="4.76095">
        <ele>175</ele>
        <time>2012-03-17T09:43:57Z</time>
      </trkpt>
      <trkpt lat="45.62706" lon="4.76108">
        <ele>176</ele>
        <time>2012-03-17T09:44:00Z</time>
      </trkpt>
      <trkpt lat="45.62704" lon="4.76114">
        <ele>175</ele>
        <time>2012-03-17T09:44:01Z</time>
      </trkpt>
      <trkpt lat="45.62692" lon="4.76146">
        <ele>175</ele>
        <time>2012-03-17T09:44:06Z</time>
      </trkpt>
      <trkpt lat="45.62682" lon="4.76166">
        <ele>175</ele>
        <time>2012-03-17T09:44:09Z</time>
      </trkpt>
      <trkpt lat="45.62667" lon="4.762">
        <ele>175</ele>
        <time>2012-03-17T09:44:14Z</time>
      </trkpt>
      <trkpt lat="45.62664" lon="4.76207">
        <ele>175</ele>
        <time>2012-03-17T09:44:15Z</time>
      </trkpt>
      <trkpt lat="45.62657" lon="4.7622">
        <ele>175</ele>
        <time>2012-03-17T09:44:17Z</time>
      </trkpt>
      <trkpt lat="45.62653" lon="4.76225">
        <ele>175</ele>
        <time>2012-03-17T09:44:18Z</time>
      </trkpt>
      <trkpt lat="45.6264" lon="4.7624">
        <ele>174</ele>
        <time>2012-03-17T09:44:21Z</time>
      </trkpt>
      <trkpt lat="45.62637" lon="4.76246">
        <ele>174</ele>
        <time>2012-03-17T09:44:22Z</time>
      </trkpt>
      <trkpt lat="45.62633" lon="4.76252">
        <ele>174</ele>
        <time>2012-03-17T09:44:23Z</time>
      </trkpt>
      <trkpt lat="45.6263" lon="4.76258">
        <ele>174</ele>
        <time>2012-03-17T09:44:24Z</time>
      </trkpt>
      <trkpt lat="45.62626" lon="4.76265">
        <ele>175</ele>
        <time>2012-03-17T09:44:25Z</time>
      </trkpt>
      <trkpt lat="45.62623" lon="4.76271">
        <ele>174</ele>
        <time>2012-03-17T09:44:26Z</time>
      </trkpt>
      <trkpt lat="45.62612" lon="4.76298">
        <ele>174</ele>
        <time>2012-03-17T09:44:30Z</time>
      </trkpt>
      <trkpt lat="45.62595" lon="4.76345">
        <ele>173</ele>
        <time>2012-03-17T09:44:37Z</time>
      </trkpt>
      <trkpt lat="45.62592" lon="4.7635">
        <ele>173</ele>
        <time>2012-03-17T09:44:38Z</time>
      </trkpt>
      <trkpt lat="45.62574" lon="4.76379">
        <ele>172</ele>
        <time>2012-03-17T09:44:43Z</time>
      </trkpt>
      <trkpt lat="45.62559" lon="4.76419">
        <ele>173</ele>
        <time>2012-03-17T09:44:50Z</time>
      </trkpt>
      <trkpt lat="45.62563" lon="4.76452">
        <ele>173</ele>
        <time>2012-03-17T09:44:56Z</time>
      </trkpt>
      <trkpt lat="45.62567" lon="4.76463">
        <ele>173</ele>
        <time>2012-03-17T09:44:58Z</time>
      </trkpt>
      <trkpt lat="45.6257" lon="4.76468">
        <ele>173</ele>
        <time>2012-03-17T09:44:59Z</time>
      </trkpt>
      <trkpt lat="45.62573" lon="4.76473">
        <ele>174</ele>
        <time>2012-03-17T09:45:00Z</time>
      </trkpt>
      <trkpt lat="45.62576" lon="4.76477">
        <ele>174</ele>
        <time>2012-03-17T09:45:01Z</time>
      </trkpt>
      <trkpt lat="45.6258" lon="4.76481">
        <ele>173</ele>
        <time>2012-03-17T09:45:02Z</time>
      </trkpt>
      <trkpt lat="45.62595" lon="4.76495">
        <ele>174</ele>
        <time>2012-03-17T09:45:08Z</time>
      </trkpt>
      <trkpt lat="45.62597" lon="4.76498">
        <ele>174</ele>
        <time>2012-03-17T09:45:09Z</time>
      </trkpt>
      <trkpt lat="45.62599" lon="4.76502">
        <ele>173</ele>
        <time>2012-03-17T09:45:10Z</time>
      </trkpt>
      <trkpt lat="45.62599" lon="4.76525">
        <ele>175</ele>
        <time>2012-03-17T09:45:16Z</time>
      </trkpt>
      <trkpt lat="45.62597" lon="4.76546">
        <ele>175</ele>
        <time>2012-03-17T09:45:22Z</time>
      </trkpt>
      <trkpt lat="45.62599" lon="4.76569">
        <ele>177</ele>
        <time>2012-03-17T09:45:29Z</time>
      </trkpt>
      <trkpt lat="45.62606" lon="4.76593">
        <ele>178</ele>
        <time>2012-03-17T09:45:37Z</time>
      </trkpt>
      <trkpt lat="45.62606" lon="4.76596">
        <ele>178</ele>
        <time>2012-03-17T09:45:38Z</time>
      </trkpt>
      <trkpt lat="45.62607" lon="4.76599">
        <ele>178</ele>
        <time>2012-03-17T09:45:39Z</time>
      </trkpt>
      <trkpt lat="45.6261" lon="4.76612">
        <ele>178</ele>
        <time>2012-03-17T09:45:47Z</time>
      </trkpt>
      <trkpt lat="45.6261" lon="4.76614">
        <ele>179</ele>
        <time>2012-03-17T09:45:48Z</time>
      </trkpt>
      <trkpt lat="45.6261" lon="4.76617">
        <ele>179</ele>
        <time>2012-03-17T09:45:49Z</time>
      </trkpt>
      <trkpt lat="45.62611" lon="4.76619">
        <ele>179</ele>
        <time>2012-03-17T09:45:50Z</time>
      </trkpt>
      <trkpt lat="45.6261" lon="4.76621">
        <ele>179</ele>
        <time>2012-03-17T09:45:51Z</time>
      </trkpt>
      <trkpt lat="45.6261" lon="4.76623">
        <ele>179</ele>
        <time>2012-03-17T09:45:52Z</time>
      </trkpt>
      <trkpt lat="45.62611" lon="4.76638">
        <ele>180</ele>
        <time>2012-03-17T09:45:59Z</time>
      </trkpt>
      <trkpt lat="45.62612" lon="4.76653">
        <ele>181</ele>
        <time>2012-03-17T09:46:06Z</time>
      </trkpt>
      <trkpt lat="45.62611" lon="4.76673">
        <ele>184</ele>
        <time>2012-03-17T09:46:15Z</time>
      </trkpt>
      <trkpt lat="45.62611" lon="4.76675">
        <ele>184</ele>
        <time>2012-03-17T09:46:16Z</time>
      </trkpt>
      <trkpt lat="45.62611" lon="4.76677">
        <ele>184</ele>
        <time>2012-03-17T09:46:17Z</time>
      </trkpt>
      <trkpt lat="45.6261" lon="4.76679">
        <ele>184</ele>
        <time>2012-03-17T09:46:18Z</time>
      </trkpt>
      <trkpt lat="45.62609" lon="4.76681">
        <ele>185</ele>
        <time>2012-03-17T09:46:19Z</time>
      </trkpt>
      <trkpt lat="45.62608" lon="4.76683">
        <ele>185</ele>
        <time>2012-03-17T09:46:20Z</time>
      </trkpt>
      <trkpt lat="45.62608" lon="4.76685">
        <ele>185</ele>
        <time>2012-03-17T09:46:21Z</time>
      </trkpt>
      <trkpt lat="45.62607" lon="4.76687">
        <ele>185</ele>
        <time>2012-03-17T09:46:22Z</time>
      </trkpt>
      <trkpt lat="45.62606" lon="4.76688">
        <ele>185</ele>
        <time>2012-03-17T09:46:23Z</time>
      </trkpt>
      <trkpt lat="45.62605" lon="4.7669">
        <ele>186</ele>
        <time>2012-03-17T09:46:24Z</time>
      </trkpt>
      <trkpt lat="45.62603" lon="4.7669">
        <ele>186</ele>
        <time>2012-03-17T09:46:25Z</time>
      </trkpt>
      <trkpt lat="45.62602" lon="4.7669">
        <ele>186</ele>
        <time>2012-03-17T09:46:26Z</time>
      </trkpt>
      <trkpt lat="45.626" lon="4.76688">
        <ele>186</ele>
        <time>2012-03-17T09:46:28Z</time>
      </trkpt>
      <trkpt lat="45.62598" lon="4.76687">
        <ele>186</ele>
        <time>2012-03-17T09:46:29Z</time>
      </trkpt>
      <trkpt lat="45.62595" lon="4.76684">
        <ele>186</ele>
        <time>2012-03-17T09:46:31Z</time>
      </trkpt>
      <trkpt lat="45.62594" lon="4.76682">
        <ele>186</ele>
        <time>2012-03-17T09:46:32Z</time>
      </trkpt>
      <trkpt lat="45.62593" lon="4.76681">
        <ele>186</ele>
        <time>2012-03-17T09:46:33Z</time>
      </trkpt>
      <trkpt lat="45.62588" lon="4.76671">
        <ele>187</ele>
        <time>2012-03-17T09:46:38Z</time>
      </trkpt>
      <trkpt lat="45.62586" lon="4.7667">
        <ele>186</ele>
        <time>2012-03-17T09:46:39Z</time>
      </trkpt>
      <trkpt lat="45.62584" lon="4.76669">
        <ele>187</ele>
        <time>2012-03-17T09:46:40Z</time>
      </trkpt>
      <trkpt lat="45.62583" lon="4.76669">
        <ele>187</ele>
        <time>2012-03-17T09:46:41Z</time>
      </trkpt>
      <trkpt lat="45.62581" lon="4.76668">
        <ele>187</ele>
        <time>2012-03-17T09:46:42Z</time>
      </trkpt>
      <trkpt lat="45.6258" lon="4.76666">
        <ele>188</ele>
        <time>2012-03-17T09:46:43Z</time>
      </trkpt>
      <trkpt lat="45.62579" lon="4.76665">
        <ele>188</ele>
        <time>2012-03-17T09:46:44Z</time>
      </trkpt>
      <trkpt lat="45.62579" lon="4.76664">
        <ele>188</ele>
        <time>2012-03-17T09:46:45Z</time>
      </trkpt>
      <trkpt lat="45.62575" lon="4.76659">
        <ele>189</ele>
        <time>2012-03-17T09:46:49Z</time>
      </trkpt>
      <trkpt lat="45.62563" lon="4.76661">
        <ele>191</ele>
        <time>2012-03-17T09:46:57Z</time>
      </trkpt>
      <trkpt lat="45.6256" lon="4.76663">
        <ele>192</ele>
        <time>2012-03-17T09:46:59Z</time>
      </trkpt>
      <trkpt lat="45.62559" lon="4.76663">
        <ele>192</ele>
        <time>2012-03-17T09:47:00Z</time>
      </trkpt>
      <trkpt lat="45.62556" lon="4.76665">
        <ele>192</ele>
        <time>2012-03-17T09:47:03Z</time>
      </trkpt>
      <trkpt lat="45.62555" lon="4.76666">
        <ele>192</ele>
        <time>2012-03-17T09:47:04Z</time>
      </trkpt>
      <trkpt lat="45.62546" lon="4.76678">
        <ele>193</ele>
        <time>2012-03-17T09:47:14Z</time>
      </trkpt>
      <trkpt lat="45.62537" lon="4.76689">
        <ele>195</ele>
        <time>2012-03-17T09:47:22Z</time>
      </trkpt>
      <trkpt lat="45.62527" lon="4.76702">
        <ele>196</ele>
        <time>2012-03-17T09:47:31Z</time>
      </trkpt>
      <trkpt lat="45.62511" lon="4.76719">
        <ele>197</ele>
        <time>2012-03-17T09:47:39Z</time>
      </trkpt>
      <trkpt lat="45.62496" lon="4.76736">
        <ele>196</ele>
        <time>2012-03-17T09:47:46Z</time>
      </trkpt>
      <trkpt lat="45.62483" lon="4.76753">
        <ele>197</ele>
        <time>2012-03-17T09:47:52Z</time>
      </trkpt>
      <trkpt lat="45.62482" lon="4.76754">
        <ele>196</ele>
        <time>2012-03-17T09:47:53Z</time>
      </trkpt>
      <trkpt lat="45.62479" lon="4.76756">
        <ele>196</ele>
        <time>2012-03-17T09:47:54Z</time>
      </trkpt>
      <trkpt lat="45.62463" lon="4.76765">
        <ele>195</ele>
        <time>2012-03-17T09:47:58Z</time>
      </trkpt>
      <trkpt lat="45.62458" lon="4.7677">
        <ele>194</ele>
        <time>2012-03-17T09:47:59Z</time>
      </trkpt>
      <trkpt lat="45.62453" lon="4.76776">
        <ele>194</ele>
        <time>2012-03-17T09:48:00Z</time>
      </trkpt>
      <trkpt lat="45.6245" lon="4.76783">
        <ele>193</ele>
        <time>2012-03-17T09:48:01Z</time>
      </trkpt>
      <trkpt lat="45.62447" lon="4.76789">
        <ele>193</ele>
        <time>2012-03-17T09:48:02Z</time>
      </trkpt>
      <trkpt lat="45.62444" lon="4.76795">
        <ele>193</ele>
        <time>2012-03-17T09:48:03Z</time>
      </trkpt>
      <trkpt lat="45.62441" lon="4.768">
        <ele>193</ele>
        <time>2012-03-17T09:48:04Z</time>
      </trkpt>
      <trkpt lat="45.62438" lon="4.76804">
        <ele>193</ele>
        <time>2012-03-17T09:48:05Z</time>
      </trkpt>
      <trkpt lat="45.62436" lon="4.76809">
        <ele>192</ele>
        <time>2012-03-17T09:48:06Z</time>
      </trkpt>
      <trkpt lat="45.62425" lon="4.76829">
        <ele>192</ele>
        <time>2012-03-17T09:48:11Z</time>
      </trkpt>
      <trkpt lat="45.62421" lon="4.76835">
        <ele>193</ele>
        <time>2012-03-17T09:48:13Z</time>
      </trkpt>
      <trkpt lat="45.62418" lon="4.76836">
        <ele>193</ele>
        <time>2012-03-17T09:48:14Z</time>
      </trkpt>
      <trkpt lat="45.62415" lon="4.76839">
        <ele>193</ele>
        <time>2012-03-17T09:48:15Z</time>
      </trkpt>
      <trkpt lat="45.62412" lon="4.76841">
        <ele>193</ele>
        <time>2012-03-17T09:48:16Z</time>
      </trkpt>
      <trkpt lat="45.62409" lon="4.76842">
        <ele>193</ele>
        <time>2012-03-17T09:48:17Z</time>
      </trkpt>
      <trkpt lat="45.62406" lon="4.76844">
        <ele>191</ele>
        <time>2012-03-17T09:48:18Z</time>
      </trkpt>
      <trkpt lat="45.62404" lon="4.76845">
        <ele>191</ele>
        <time>2012-03-17T09:48:19Z</time>
      </trkpt>
      <trkpt lat="45.62402" lon="4.76845">
        <ele>191</ele>
        <time>2012-03-17T09:48:20Z</time>
      </trkpt>
      <trkpt lat="45.62399" lon="4.76845">
        <ele>190</ele>
        <time>2012-03-17T09:48:21Z</time>
      </trkpt>
      <trkpt lat="45.62395" lon="4.76847">
        <ele>190</ele>
        <time>2012-03-17T09:48:22Z</time>
      </trkpt>
      <trkpt lat="45.62391" lon="4.7685">
        <ele>190</ele>
        <time>2012-03-17T09:48:23Z</time>
      </trkpt>
      <trkpt lat="45.62389" lon="4.76854">
        <ele>189</ele>
        <time>2012-03-17T09:48:24Z</time>
      </trkpt>
      <trkpt lat="45.62388" lon="4.76857">
        <ele>189</ele>
        <time>2012-03-17T09:48:25Z</time>
      </trkpt>
      <trkpt lat="45.62386" lon="4.76858">
        <ele>190</ele>
        <time>2012-03-17T09:48:26Z</time>
      </trkpt>
      <trkpt lat="45.62385" lon="4.7686">
        <ele>190</ele>
        <time>2012-03-17T09:48:27Z</time>
      </trkpt>
      <trkpt lat="45.62384" lon="4.76862">
        <ele>189</ele>
        <time>2012-03-17T09:48:28Z</time>
      </trkpt>
      <trkpt lat="45.62382" lon="4.76863">
        <ele>190</ele>
        <time>2012-03-17T09:48:29Z</time>
      </trkpt>
      <trkpt lat="45.62381" lon="4.76865">
        <ele>190</ele>
        <time>2012-03-17T09:48:30Z</time>
      </trkpt>
      <trkpt lat="45.62381" lon="4.76867">
        <ele>190</ele>
        <time>2012-03-17T09:48:31Z</time>
      </trkpt>
      <trkpt lat="45.6238" lon="4.76868">
        <ele>190</ele>
        <time>2012-03-17T09:48:32Z</time>
      </trkpt>
      <trkpt lat="45.62378" lon="4.76869">
        <ele>190</ele>
        <time>2012-03-17T09:48:33Z</time>
      </trkpt>
      <trkpt lat="45.62378" lon="4.76871">
        <ele>190</ele>
        <time>2012-03-17T09:48:34Z</time>
      </trkpt>
      <trkpt lat="45.62368" lon="4.76886">
        <ele>190</ele>
        <time>2012-03-17T09:48:44Z</time>
      </trkpt>
      <trkpt lat="45.62367" lon="4.76888">
        <ele>190</ele>
        <time>2012-03-17T09:48:45Z</time>
      </trkpt>
      <trkpt lat="45.62366" lon="4.76889">
        <ele>190</ele>
        <time>2012-03-17T09:48:46Z</time>
      </trkpt>
      <trkpt lat="45.62365" lon="4.7689">
        <ele>190</ele>
        <time>2012-03-17T09:48:47Z</time>
      </trkpt>
      <trkpt lat="45.62364" lon="4.76891">
        <ele>190</ele>
        <time>2012-03-17T09:48:48Z</time>
      </trkpt>
      <trkpt lat="45.62357" lon="4.76905">
        <ele>190</ele>
        <time>2012-03-17T09:48:55Z</time>
      </trkpt>
      <trkpt lat="45.62352" lon="4.76911">
        <ele>190</ele>
        <time>2012-03-17T09:49:01Z</time>
      </trkpt>
      <trkpt lat="45.62344" lon="4.76919">
        <ele>192</ele>
        <time>2012-03-17T09:49:09Z</time>
      </trkpt>
      <trkpt lat="45.62336" lon="4.76935">
        <ele>194</ele>
        <time>2012-03-17T09:49:16Z</time>
      </trkpt>
      <trkpt lat="45.62333" lon="4.7694">
        <ele>194</ele>
        <time>2012-03-17T09:49:18Z</time>
      </trkpt>
      <trkpt lat="45.62317" lon="4.76956">
        <ele>195</ele>
        <time>2012-03-17T09:49:24Z</time>
      </trkpt>
      <trkpt lat="45.62301" lon="4.7697">
        <ele>196</ele>
        <time>2012-03-17T09:49:29Z</time>
      </trkpt>
      <trkpt lat="45.62297" lon="4.76974">
        <ele>196</ele>
        <time>2012-03-17T09:49:31Z</time>
      </trkpt>
      <trkpt lat="45.62294" lon="4.76974">
        <ele>195</ele>
        <time>2012-03-17T09:49:32Z</time>
      </trkpt>
      <trkpt lat="45.62289" lon="4.76973">
        <ele>195</ele>
        <time>2012-03-17T09:49:33Z</time>
      </trkpt>
      <trkpt lat="45.62285" lon="4.7697">
        <ele>194</ele>
        <time>2012-03-17T09:49:34Z</time>
      </trkpt>
      <trkpt lat="45.6228" lon="4.76968">
        <ele>192</ele>
        <time>2012-03-17T09:49:35Z</time>
      </trkpt>
      <trkpt lat="45.62274" lon="4.76965">
        <ele>191</ele>
        <time>2012-03-17T09:49:36Z</time>
      </trkpt>
      <trkpt lat="45.62263" lon="4.7696">
        <ele>188</ele>
        <time>2012-03-17T09:49:38Z</time>
      </trkpt>
      <trkpt lat="45.62256" lon="4.76959">
        <ele>187</ele>
        <time>2012-03-17T09:49:39Z</time>
      </trkpt>
      <trkpt lat="45.6225" lon="4.7696">
        <ele>185</ele>
        <time>2012-03-17T09:49:40Z</time>
      </trkpt>
      <trkpt lat="45.62243" lon="4.76963">
        <ele>184</ele>
        <time>2012-03-17T09:49:41Z</time>
      </trkpt>
      <trkpt lat="45.62237" lon="4.76966">
        <ele>183</ele>
        <time>2012-03-17T09:49:42Z</time>
      </trkpt>
      <trkpt lat="45.62232" lon="4.76967">
        <ele>182</ele>
        <time>2012-03-17T09:49:43Z</time>
      </trkpt>
      <trkpt lat="45.62227" lon="4.76969">
        <ele>181</ele>
        <time>2012-03-17T09:49:44Z</time>
      </trkpt>
      <trkpt lat="45.62221" lon="4.76971">
        <ele>180</ele>
        <time>2012-03-17T09:49:45Z</time>
      </trkpt>
      <trkpt lat="45.62216" lon="4.76971">
        <ele>179</ele>
        <time>2012-03-17T09:49:46Z</time>
      </trkpt>
      <trkpt lat="45.62212" lon="4.76972">
        <ele>178</ele>
        <time>2012-03-17T09:49:47Z</time>
      </trkpt>
      <trkpt lat="45.62207" lon="4.76972">
        <ele>178</ele>
        <time>2012-03-17T09:49:48Z</time>
      </trkpt>
      <trkpt lat="45.62202" lon="4.76974">
        <ele>177</ele>
        <time>2012-03-17T09:49:49Z</time>
      </trkpt>
      <trkpt lat="45.62199" lon="4.7698">
        <ele>177</ele>
        <time>2012-03-17T09:49:50Z</time>
      </trkpt>
      <trkpt lat="45.62196" lon="4.76988">
        <ele>177</ele>
        <time>2012-03-17T09:49:51Z</time>
      </trkpt>
      <trkpt lat="45.62188" lon="4.77004">
        <ele>176</ele>
        <time>2012-03-17T09:49:54Z</time>
      </trkpt>
      <trkpt lat="45.62185" lon="4.77008">
        <ele>177</ele>
        <time>2012-03-17T09:49:55Z</time>
      </trkpt>
      <trkpt lat="45.62182" lon="4.7701">
        <ele>176</ele>
        <time>2012-03-17T09:49:56Z</time>
      </trkpt>
      <trkpt lat="45.62179" lon="4.77011">
        <ele>176</ele>
        <time>2012-03-17T09:49:57Z</time>
      </trkpt>
      <trkpt lat="45.62176" lon="4.77012">
        <ele>176</ele>
        <time>2012-03-17T09:49:58Z</time>
      </trkpt>
      <trkpt lat="45.62172" lon="4.77012">
        <ele>176</ele>
        <time>2012-03-17T09:49:59Z</time>
      </trkpt>
      <trkpt lat="45.62149" lon="4.77022">
        <ele>176</ele>
        <time>2012-03-17T09:50:05Z</time>
      </trkpt>
      <trkpt lat="45.62137" lon="4.7703">
        <ele>175</ele>
        <time>2012-03-17T09:50:08Z</time>
      </trkpt>
      <trkpt lat="45.6213" lon="4.77036">
        <ele>175</ele>
        <time>2012-03-17T09:50:10Z</time>
      </trkpt>
      <trkpt lat="45.62122" lon="4.7704">
        <ele>176</ele>
        <time>2012-03-17T09:50:12Z</time>
      </trkpt>
      <trkpt lat="45.62113" lon="4.77042">
        <ele>175</ele>
        <time>2012-03-17T09:50:14Z</time>
      </trkpt>
      <trkpt lat="45.62109" lon="4.77044">
        <ele>175</ele>
        <time>2012-03-17T09:50:15Z</time>
      </trkpt>
      <trkpt lat="45.62105" lon="4.77046">
        <ele>176</ele>
        <time>2012-03-17T09:50:16Z</time>
      </trkpt>
      <trkpt lat="45.62096" lon="4.7705">
        <ele>175</ele>
        <time>2012-03-17T09:50:18Z</time>
      </trkpt>
      <trkpt lat="45.62062" lon="4.77076">
        <ele>176</ele>
        <time>2012-03-17T09:50:27Z</time>
      </trkpt>
      <trkpt lat="45.62034" lon="4.77103">
        <ele>177</ele>
        <time>2012-03-17T09:50:35Z</time>
      </trkpt>
      <trkpt lat="45.62017" lon="4.77122">
        <ele>178</ele>
        <time>2012-03-17T09:50:42Z</time>
      </trkpt>
      <trkpt lat="45.62015" lon="4.77125">
        <ele>178</ele>
        <time>2012-03-17T09:50:43Z</time>
      </trkpt>
      <trkpt lat="45.62013" lon="4.77126">
        <ele>179</ele>
        <time>2012-03-17T09:50:44Z</time>
      </trkpt>
      <trkpt lat="45.61994" lon="4.77141">
        <ele>179</ele>
        <time>2012-03-17T09:50:51Z</time>
      </trkpt>
      <trkpt lat="45.61962" lon="4.77164">
        <ele>177</ele>
        <time>2012-03-17T09:50:58Z</time>
      </trkpt>
      <trkpt lat="45.61956" lon="4.77168">
        <ele>177</ele>
        <time>2012-03-17T09:50:59Z</time>
      </trkpt>
      <trkpt lat="45.61922" lon="4.7719">
        <ele>175</ele>
        <time>2012-03-17T09:51:06Z</time>
      </trkpt>
      <trkpt lat="45.61917" lon="4.77193">
        <ele>175</ele>
        <time>2012-03-17T09:51:07Z</time>
      </trkpt>
      <trkpt lat="45.61897" lon="4.77204">
        <ele>176</ele>
        <time>2012-03-17T09:51:13Z</time>
      </trkpt>
      <trkpt lat="45.6188" lon="4.77215">
        <ele>178</ele>
        <time>2012-03-17T09:51:21Z</time>
      </trkpt>
      <trkpt lat="45.61863" lon="4.77227">
        <ele>180</ele>
        <time>2012-03-17T09:51:29Z</time>
      </trkpt>
      <trkpt lat="45.61851" lon="4.77236">
        <ele>180</ele>
        <time>2012-03-17T09:51:36Z</time>
      </trkpt>
      <trkpt lat="45.61851" lon="4.77238">
        <ele>180</ele>
        <time>2012-03-17T09:51:37Z</time>
      </trkpt>
      <trkpt lat="45.61852" lon="4.7724">
        <ele>180</ele>
        <time>2012-03-17T09:51:38Z</time>
      </trkpt>
      <trkpt lat="45.61853" lon="4.77242">
        <ele>181</ele>
        <time>2012-03-17T09:51:39Z</time>
      </trkpt>
      <trkpt lat="45.61854" lon="4.77243">
        <ele>181</ele>
        <time>2012-03-17T09:51:40Z</time>
      </trkpt>
      <trkpt lat="45.61855" lon="4.77243">
        <ele>182</ele>
        <time>2012-03-17T09:51:41Z</time>
      </trkpt>
      <trkpt lat="45.61858" lon="4.77243">
        <ele>182</ele>
        <time>2012-03-17T09:51:43Z</time>
      </trkpt>
      <trkpt lat="45.61859" lon="4.77244">
        <ele>182</ele>
        <time>2012-03-17T09:51:44Z</time>
      </trkpt>
      <trkpt lat="45.6186" lon="4.77244">
        <ele>182</ele>
        <time>2012-03-17T09:51:45Z</time>
      </trkpt>
      <trkpt lat="45.61861" lon="4.77245">
        <ele>183</ele>
        <time>2012-03-17T09:51:46Z</time>
      </trkpt>
      <trkpt lat="45.61862" lon="4.77245">
        <ele>183</ele>
        <time>2012-03-17T09:51:47Z</time>
      </trkpt>
      <trkpt lat="45.61864" lon="4.77245">
        <ele>183</ele>
        <time>2012-03-17T09:51:48Z</time>
      </trkpt>
      <trkpt lat="45.61865" lon="4.77245">
        <ele>183</ele>
        <time>2012-03-17T09:51:49Z</time>
      </trkpt>
      <trkpt lat="45.61866" lon="4.77245">
        <ele>183</ele>
        <time>2012-03-17T09:51:50Z</time>
      </trkpt>
      <trkpt lat="45.61867" lon="4.77245">
        <ele>184</ele>
        <time>2012-03-17T09:51:51Z</time>
      </trkpt>
      <trkpt lat="45.61869" lon="4.77245">
        <ele>184</ele>
        <time>2012-03-17T09:51:52Z</time>
      </trkpt>
      <trkpt lat="45.6187" lon="4.77245">
        <ele>184</ele>
        <time>2012-03-17T09:51:53Z</time>
      </trkpt>
      <trkpt lat="45.61871" lon="4.77245">
        <ele>185</ele>
        <time>2012-03-17T09:51:54Z</time>
      </trkpt>
      <trkpt lat="45.61873" lon="4.77245">
        <ele>185</ele>
        <time>2012-03-17T09:51:55Z</time>
      </trkpt>
      <trkpt lat="45.61874" lon="4.77245">
        <ele>185</ele>
        <time>2012-03-17T09:51:56Z</time>
      </trkpt>
      <trkpt lat="45.61875" lon="4.77244">
        <ele>185</ele>
        <time>2012-03-17T09:51:57Z</time>
      </trkpt>
      <trkpt lat="45.61876" lon="4.77244">
        <ele>186</ele>
        <time>2012-03-17T09:51:58Z</time>
      </trkpt>
      <trkpt lat="45.61878" lon="4.77244">
        <ele>185</ele>
        <time>2012-03-17T09:51:59Z</time>
      </trkpt>
      <trkpt lat="45.61879" lon="4.77244">
        <ele>185</ele>
        <time>2012-03-17T09:52:00Z</time>
      </trkpt>
      <trkpt lat="45.6189" lon="4.77246">
        <ele>187</ele>
        <time>2012-03-17T09:52:08Z</time>
      </trkpt>
      <trkpt lat="45.619" lon="4.77249">
        <ele>188</ele>
        <time>2012-03-17T09:52:15Z</time>
      </trkpt>
      <trkpt lat="45.61911" lon="4.77255">
        <ele>190</ele>
        <time>2012-03-17T09:52:23Z</time>
      </trkpt>
      <trkpt lat="45.61918" lon="4.77265">
        <ele>192</ele>
        <time>2012-03-17T09:52:30Z</time>
      </trkpt>
      <trkpt lat="45.61918" lon="4.77267">
        <ele>191</ele>
        <time>2012-03-17T09:52:31Z</time>
      </trkpt>
      <trkpt lat="45.61917" lon="4.77269">
        <ele>192</ele>
        <time>2012-03-17T09:52:32Z</time>
      </trkpt>
      <trkpt lat="45.61917" lon="4.7727">
        <ele>192</ele>
        <time>2012-03-17T09:52:33Z</time>
      </trkpt>
      <trkpt lat="45.61916" lon="4.77271">
        <ele>193</ele>
        <time>2012-03-17T09:52:34Z</time>
      </trkpt>
      <trkpt lat="45.61915" lon="4.77272">
        <ele>193</ele>
        <time>2012-03-17T09:52:35Z</time>
      </trkpt>
      <trkpt lat="45.61904" lon="4.77276">
        <ele>195</ele>
        <time>2012-03-17T09:52:44Z</time>
      </trkpt>
      <trkpt lat="45.61902" lon="4.77277">
        <ele>195</ele>
        <time>2012-03-17T09:52:45Z</time>
      </trkpt>
      <trkpt lat="45.61892" lon="4.7728">
        <ele>196</ele>
        <time>2012-03-17T09:52:53Z</time>
      </trkpt>
      <trkpt lat="45.6188" lon="4.77289">
        <ele>196</ele>
        <time>2012-03-17T09:53:02Z</time>
      </trkpt>
      <trkpt lat="45.6188" lon="4.77297">
        <ele>197</ele>
        <time>2012-03-17T09:53:06Z</time>
      </trkpt>
      <trkpt lat="45.61881" lon="4.77298">
        <ele>197</ele>
        <time>2012-03-17T09:53:07Z</time>
      </trkpt>
      <trkpt lat="45.61882" lon="4.773">
        <ele>198</ele>
        <time>2012-03-17T09:53:08Z</time>
      </trkpt>
      <trkpt lat="45.61884" lon="4.77301">
        <ele>198</ele>
        <time>2012-03-17T09:53:09Z</time>
      </trkpt>
      <trkpt lat="45.61885" lon="4.77301">
        <ele>198</ele>
        <time>2012-03-17T09:53:10Z</time>
      </trkpt>
      <trkpt lat="45.61886" lon="4.77302">
        <ele>198</ele>
        <time>2012-03-17T09:53:11Z</time>
      </trkpt>
      <trkpt lat="45.61896" lon="4.77312">
        <ele>200</ele>
        <time>2012-03-17T09:53:19Z</time>
      </trkpt>
      <trkpt lat="45.6191" lon="4.77326">
        <ele>200</ele>
        <time>2012-03-17T09:53:29Z</time>
      </trkpt>
      <trkpt lat="45.61921" lon="4.77343">
        <ele>202</ele>
        <time>2012-03-17T09:53:38Z</time>
      </trkpt>
      <trkpt lat="45.61932" lon="4.77355">
        <ele>203</ele>
        <time>2012-03-17T09:53:46Z</time>
      </trkpt>
      <trkpt lat="45.61943" lon="4.77368">
        <ele>204</ele>
        <time>2012-03-17T09:53:54Z</time>
      </trkpt>
      <trkpt lat="45.61954" lon="4.77382">
        <ele>205</ele>
        <time>2012-03-17T09:54:03Z</time>
      </trkpt>
      <trkpt lat="45.61964" lon="4.77396">
        <ele>207</ele>
        <time>2012-03-17T09:54:12Z</time>
      </trkpt>
      <trkpt lat="45.61971" lon="4.77409">
        <ele>208</ele>
        <time>2012-03-17T09:54:20Z</time>
      </trkpt>
      <trkpt lat="45.61974" lon="4.77416">
        <ele>209</ele>
        <time>2012-03-17T09:54:24Z</time>
      </trkpt>
      <trkpt lat="45.61982" lon="4.77434">
        <ele>211</ele>
        <time>2012-03-17T09:54:35Z</time>
      </trkpt>
      <trkpt lat="45.61989" lon="4.77448">
        <ele>213</ele>
        <time>2012-03-17T09:54:44Z</time>
      </trkpt>
      <trkpt lat="45.61999" lon="4.77463">
        <ele>215</ele>
        <time>2012-03-17T09:54:55Z</time>
      </trkpt>
      <trkpt lat="45.6201" lon="4.77479">
        <ele>218</ele>
        <time>2012-03-17T09:55:07Z</time>
      </trkpt>
      <trkpt lat="45.6201" lon="4.7748">
        <ele>218</ele>
        <time>2012-03-17T09:55:08Z</time>
      </trkpt>
      <trkpt lat="45.62011" lon="4.77482">
        <ele>218</ele>
        <time>2012-03-17T09:55:09Z</time>
      </trkpt>
      <trkpt lat="45.62012" lon="4.77485">
        <ele>218</ele>
        <time>2012-03-17T09:55:11Z</time>
      </trkpt>
      <trkpt lat="45.62014" lon="4.77486">
        <ele>219</ele>
        <time>2012-03-17T09:55:12Z</time>
      </trkpt>
      <trkpt lat="45.62015" lon="4.77487">
        <ele>219</ele>
        <time>2012-03-17T09:55:13Z</time>
      </trkpt>
      <trkpt lat="45.62016" lon="4.77488">
        <ele>220</ele>
        <time>2012-03-17T09:55:14Z</time>
      </trkpt>
      <trkpt lat="45.62017" lon="4.77489">
        <ele>219</ele>
        <time>2012-03-17T09:55:15Z</time>
      </trkpt>
      <trkpt lat="45.62018" lon="4.7749">
        <ele>219</ele>
        <time>2012-03-17T09:55:16Z</time>
      </trkpt>
      <trkpt lat="45.62027" lon="4.77497">
        <ele>220</ele>
        <time>2012-03-17T09:55:24Z</time>
      </trkpt>
      <trkpt lat="45.62034" lon="4.77503">
        <ele>222</ele>
        <time>2012-03-17T09:55:30Z</time>
      </trkpt>
      <trkpt lat="45.62035" lon="4.77504">
        <ele>222</ele>
        <time>2012-03-17T09:55:31Z</time>
      </trkpt>
      <trkpt lat="45.62046" lon="4.77511">
        <ele>222</ele>
        <time>2012-03-17T09:55:40Z</time>
      </trkpt>
      <trkpt lat="45.6205" lon="4.77516">
        <ele>223</ele>
        <time>2012-03-17T09:55:45Z</time>
      </trkpt>
      <trkpt lat="45.62052" lon="4.77519">
        <ele>224</ele>
        <time>2012-03-17T09:55:47Z</time>
      </trkpt>
      <trkpt lat="45.62053" lon="4.77519">
        <ele>223</ele>
        <time>2012-03-17T09:55:48Z</time>
      </trkpt>
      <trkpt lat="45.62055" lon="4.7752">
        <ele>224</ele>
        <time>2012-03-17T09:55:49Z</time>
      </trkpt>
      <trkpt lat="45.62057" lon="4.77521">
        <ele>224</ele>
        <time>2012-03-17T09:55:50Z</time>
      </trkpt>
      <trkpt lat="45.62065" lon="4.77527">
        <ele>225</ele>
        <time>2012-03-17T09:55:57Z</time>
      </trkpt>
      <trkpt lat="45.62077" lon="4.77536">
        <ele>227</ele>
        <time>2012-03-17T09:56:07Z</time>
      </trkpt>
      <trkpt lat="45.6208" lon="4.77539">
        <ele>228</ele>
        <time>2012-03-17T09:56:09Z</time>
      </trkpt>
      <trkpt lat="45.62078" lon="4.77541">
        <ele>228</ele>
        <time>2012-03-17T09:56:12Z</time>
      </trkpt>
      <trkpt lat="45.62074" lon="4.77539">
        <ele>227</ele>
        <time>2012-03-17T09:56:16Z</time>
      </trkpt>
      <trkpt lat="45.62071" lon="4.77541">
        <ele>227</ele>
        <time>2012-03-17T09:56:24Z</time>
      </trkpt>
      <trkpt lat="45.62071" lon="4.77542">
        <ele>227</ele>
        <time>2012-03-17T09:56:34Z</time>
      </trkpt>
      <trkpt lat="45.62068" lon="4.77552">
        <ele>226</ele>
        <time>2012-03-17T09:56:37Z</time>
      </trkpt>
      <trkpt lat="45.62068" lon="4.77557">
        <ele>225</ele>
        <time>2012-03-17T09:56:38Z</time>
      </trkpt>
      <trkpt lat="45.6207" lon="4.77578">
        <ele>220</ele>
        <time>2012-03-17T09:56:42Z</time>
      </trkpt>
      <trkpt lat="45.62074" lon="4.77598">
        <ele>217</ele>
        <time>2012-03-17T09:56:46Z</time>
      </trkpt>
      <trkpt lat="45.62075" lon="4.77602">
        <ele>217</ele>
        <time>2012-03-17T09:56:47Z</time>
      </trkpt>
      <trkpt lat="45.62078" lon="4.77612">
        <ele>217</ele>
        <time>2012-03-17T09:56:50Z</time>
      </trkpt>
      <trkpt lat="45.62077" lon="4.77629">
        <ele>217</ele>
        <time>2012-03-17T09:56:56Z</time>
      </trkpt>
      <trkpt lat="45.62081" lon="4.77636">
        <ele>219</ele>
        <time>2012-03-17T09:57:01Z</time>
      </trkpt>
      <trkpt lat="45.62083" lon="4.77638">
        <ele>219</ele>
        <time>2012-03-17T09:57:03Z</time>
      </trkpt>
      <trkpt lat="45.62086" lon="4.77641">
        <ele>220</ele>
        <time>2012-03-17T09:57:06Z</time>
      </trkpt>
      <trkpt lat="45.62094" lon="4.77654">
        <ele>222</ele>
        <time>2012-03-17T09:57:15Z</time>
      </trkpt>
      <trkpt lat="45.621" lon="4.77664">
        <ele>223</ele>
        <time>2012-03-17T09:57:22Z</time>
      </trkpt>
      <trkpt lat="45.62103" lon="4.7767">
        <ele>224</ele>
        <time>2012-03-17T09:57:26Z</time>
      </trkpt>
      <trkpt lat="45.62099" lon="4.77676">
        <ele>227</ele>
        <time>2012-03-17T09:57:31Z</time>
      </trkpt>
      <trkpt lat="45.621" lon="4.77683">
        <ele>228</ele>
        <time>2012-03-17T09:57:35Z</time>
      </trkpt>
      <trkpt lat="45.62099" lon="4.77686">
        <ele>229</ele>
        <time>2012-03-17T09:57:37Z</time>
      </trkpt>
      <trkpt lat="45.62094" lon="4.77691">
        <ele>230</ele>
        <time>2012-03-17T09:57:44Z</time>
      </trkpt>
      <trkpt lat="45.62093" lon="4.77691">
        <ele>231</ele>
        <time>2012-03-17T09:57:45Z</time>
      </trkpt>
      <trkpt lat="45.62084" lon="4.77692">
        <ele>232</ele>
        <time>2012-03-17T09:57:54Z</time>
      </trkpt>
      <trkpt lat="45.6207" lon="4.77701">
        <ele>231</ele>
        <time>2012-03-17T09:58:01Z</time>
      </trkpt>
      <trkpt lat="45.62056" lon="4.77708">
        <ele>230</ele>
        <time>2012-03-17T09:58:07Z</time>
      </trkpt>
      <trkpt lat="45.62043" lon="4.77713">
        <ele>231</ele>
        <time>2012-03-17T09:58:14Z</time>
      </trkpt>
      <trkpt lat="45.62041" lon="4.77714">
        <ele>231</ele>
        <time>2012-03-17T09:58:19Z</time>
      </trkpt>
      <trkpt lat="45.62041" lon="4.77714">
        <ele>231</ele>
        <time>2012-03-17T09:58:33Z</time>
      </trkpt>
      <trkpt lat="45.62038" lon="4.77714">
        <ele>231</ele>
        <time>2012-03-17T09:58:40Z</time>
      </trkpt>
      <trkpt lat="45.62026" lon="4.77719">
        <ele>232</ele>
        <time>2012-03-17T09:58:46Z</time>
      </trkpt>
      <trkpt lat="45.62011" lon="4.77727">
        <ele>231</ele>
        <time>2012-03-17T09:58:53Z</time>
      </trkpt>
      <trkpt lat="45.61998" lon="4.77746">
        <ele>232</ele>
        <time>2012-03-17T09:59:00Z</time>
      </trkpt>
      <trkpt lat="45.61997" lon="4.7775">
        <ele>232</ele>
        <time>2012-03-17T09:59:01Z</time>
      </trkpt>
      <trkpt lat="45.61992" lon="4.77772">
        <ele>232</ele>
        <time>2012-03-17T09:59:08Z</time>
      </trkpt>
      <trkpt lat="45.6199" lon="4.77782">
        <ele>233</ele>
        <time>2012-03-17T09:59:11Z</time>
      </trkpt>
      <trkpt lat="45.62004" lon="4.77813">
        <ele>233</ele>
        <time>2012-03-17T09:59:20Z</time>
      </trkpt>
      <trkpt lat="45.62017" lon="4.77833">
        <ele>234</ele>
        <time>2012-03-17T09:59:27Z</time>
      </trkpt>
      <trkpt lat="45.62033" lon="4.77846">
        <ele>236</ele>
        <time>2012-03-17T09:59:34Z</time>
      </trkpt>
      <trkpt lat="45.62034" lon="4.77848">
        <ele>236</ele>
        <time>2012-03-17T09:59:35Z</time>
      </trkpt>
      <trkpt lat="45.6203" lon="4.77859">
        <ele>236</ele>
        <time>2012-03-17T09:59:39Z</time>
      </trkpt>
      <trkpt lat="45.62004" lon="4.77875">
        <ele>235</ele>
        <time>2012-03-17T09:59:47Z</time>
      </trkpt>
      <trkpt lat="45.61995" lon="4.77876">
        <ele>235</ele>
        <time>2012-03-17T09:59:52Z</time>
      </trkpt>
      <trkpt lat="45.61983" lon="4.77872">
        <ele>234</ele>
        <time>2012-03-17T09:59:58Z</time>
      </trkpt>
      <trkpt lat="45.61962" lon="4.77867">
        <ele>234</ele>
        <time>2012-03-17T10:00:04Z</time>
      </trkpt>
      <trkpt lat="45.61931" lon="4.77856">
        <ele>233</ele>
        <time>2012-03-17T10:00:11Z</time>
      </trkpt>
      <trkpt lat="45.61926" lon="4.77853">
        <ele>232</ele>
        <time>2012-03-17T10:00:12Z</time>
      </trkpt>
      <trkpt lat="45.61921" lon="4.7785">
        <ele>232</ele>
        <time>2012-03-17T10:00:13Z</time>
      </trkpt>
      <trkpt lat="45.61904" lon="4.77842">
        <ele>231</ele>
        <time>2012-03-17T10:00:16Z</time>
      </trkpt>
      <trkpt lat="45.61899" lon="4.77839">
        <ele>230</ele>
        <time>2012-03-17T10:00:17Z</time>
      </trkpt>
      <trkpt lat="45.61893" lon="4.77837">
        <ele>230</ele>
        <time>2012-03-17T10:00:18Z</time>
      </trkpt>
      <trkpt lat="45.61882" lon="4.77834">
        <ele>229</ele>
        <time>2012-03-17T10:00:20Z</time>
      </trkpt>
      <trkpt lat="45.61877" lon="4.77834">
        <ele>230</ele>
        <time>2012-03-17T10:00:21Z</time>
      </trkpt>
      <trkpt lat="45.61872" lon="4.77835">
        <ele>229</ele>
        <time>2012-03-17T10:00:22Z</time>
      </trkpt>
      <trkpt lat="45.61868" lon="4.77837">
        <ele>229</ele>
        <time>2012-03-17T10:00:23Z</time>
      </trkpt>
      <trkpt lat="45.61864" lon="4.7784">
        <ele>230</ele>
        <time>2012-03-17T10:00:24Z</time>
      </trkpt>
      <trkpt lat="45.61857" lon="4.77845">
        <ele>229</ele>
        <time>2012-03-17T10:00:26Z</time>
      </trkpt>
      <trkpt lat="45.61832" lon="4.77864">
        <ele>230</ele>
        <time>2012-03-17T10:00:34Z</time>
      </trkpt>
      <trkpt lat="45.61828" lon="4.77866">
        <ele>230</ele>
        <time>2012-03-17T10:00:35Z</time>
      </trkpt>
      <trkpt lat="45.61824" lon="4.77869">
        <ele>229</ele>
        <time>2012-03-17T10:00:36Z</time>
      </trkpt>
      <trkpt lat="45.6182" lon="4.77871">
        <ele>230</ele>
        <time>2012-03-17T10:00:37Z</time>
      </trkpt>
      <trkpt lat="45.61815" lon="4.77872">
        <ele>229</ele>
        <time>2012-03-17T10:00:38Z</time>
      </trkpt>
      <trkpt lat="45.6181" lon="4.77873">
        <ele>228</ele>
        <time>2012-03-17T10:00:39Z</time>
      </trkpt>
      <trkpt lat="45.61805" lon="4.77871">
        <ele>228</ele>
        <time>2012-03-17T10:00:40Z</time>
      </trkpt>
      <trkpt lat="45.618" lon="4.7787">
        <ele>228</ele>
        <time>2012-03-17T10:00:41Z</time>
      </trkpt>
      <trkpt lat="45.61795" lon="4.77871">
        <ele>227</ele>
        <time>2012-03-17T10:00:42Z</time>
      </trkpt>
      <trkpt lat="45.61791" lon="4.77876">
        <ele>228</ele>
        <time>2012-03-17T10:00:43Z</time>
      </trkpt>
      <trkpt lat="45.61788" lon="4.77882">
        <ele>227</ele>
        <time>2012-03-17T10:00:44Z</time>
      </trkpt>
      <trkpt lat="45.61785" lon="4.77888">
        <ele>227</ele>
        <time>2012-03-17T10:00:45Z</time>
      </trkpt>
      <trkpt lat="45.61781" lon="4.77892">
        <ele>227</ele>
        <time>2012-03-17T10:00:46Z</time>
      </trkpt>
      <trkpt lat="45.61776" lon="4.77895">
        <ele>227</ele>
        <time>2012-03-17T10:00:47Z</time>
      </trkpt>
      <trkpt lat="45.61765" lon="4.77896">
        <ele>226</ele>
        <time>2012-03-17T10:00:49Z</time>
      </trkpt>
      <trkpt lat="45.61758" lon="4.77895">
        <ele>225</ele>
        <time>2012-03-17T10:00:50Z</time>
      </trkpt>
      <trkpt lat="45.61697" lon="4.77893">
        <ele>220</ele>
        <time>2012-03-17T10:00:58Z</time>
      </trkpt>
      <trkpt lat="45.61689" lon="4.77892">
        <ele>219</ele>
        <time>2012-03-17T10:00:59Z</time>
      </trkpt>
      <trkpt lat="45.61668" lon="4.77906">
        <ele>216</ele>
        <time>2012-03-17T10:01:03Z</time>
      </trkpt>
      <trkpt lat="45.61668" lon="4.77915">
        <ele>216</ele>
        <time>2012-03-17T10:01:04Z</time>
      </trkpt>
      <trkpt lat="45.61669" lon="4.77924">
        <ele>216</ele>
        <time>2012-03-17T10:01:05Z</time>
      </trkpt>
      <trkpt lat="45.61671" lon="4.77981">
        <ele>214</ele>
        <time>2012-03-17T10:01:11Z</time>
      </trkpt>
      <trkpt lat="45.6166" lon="4.77985">
        <ele>213</ele>
        <time>2012-03-17T10:01:13Z</time>
      </trkpt>
      <trkpt lat="45.61643" lon="4.77988">
        <ele>211</ele>
        <time>2012-03-17T10:01:16Z</time>
      </trkpt>
      <trkpt lat="45.61635" lon="4.7801">
        <ele>209</ele>
        <time>2012-03-17T10:01:19Z</time>
      </trkpt>
      <trkpt lat="45.61629" lon="4.78015">
        <ele>207</ele>
        <time>2012-03-17T10:01:21Z</time>
      </trkpt>
      <trkpt lat="45.61626" lon="4.77999">
        <ele>206</ele>
        <time>2012-03-17T10:01:24Z</time>
      </trkpt>
      <trkpt lat="45.61626" lon="4.77991">
        <ele>205</ele>
        <time>2012-03-17T10:01:25Z</time>
      </trkpt>
      <trkpt lat="45.61632" lon="4.77967">
        <ele>203</ele>
        <time>2012-03-17T10:01:28Z</time>
      </trkpt>
      <trkpt lat="45.61633" lon="4.77933">
        <ele>201</ele>
        <time>2012-03-17T10:01:31Z</time>
      </trkpt>
      <trkpt lat="45.6163" lon="4.7792">
        <ele>200</ele>
        <time>2012-03-17T10:01:32Z</time>
      </trkpt>
      <trkpt lat="45.6162" lon="4.77899">
        <ele>199</ele>
        <time>2012-03-17T10:01:35Z</time>
      </trkpt>
      <trkpt lat="45.61612" lon="4.77901">
        <ele>198</ele>
        <time>2012-03-17T10:01:37Z</time>
      </trkpt>
      <trkpt lat="45.61579" lon="4.77903">
        <ele>198</ele>
        <time>2012-03-17T10:01:45Z</time>
      </trkpt>
      <trkpt lat="45.61555" lon="4.77911">
        <ele>200</ele>
        <time>2012-03-17T10:01:54Z</time>
      </trkpt>
      <trkpt lat="45.61541" lon="4.77913">
        <ele>201</ele>
        <time>2012-03-17T10:02:01Z</time>
      </trkpt>
      <trkpt lat="45.61529" lon="4.77916">
        <ele>202</ele>
        <time>2012-03-17T10:02:08Z</time>
      </trkpt>
      <trkpt lat="45.61515" lon="4.77922">
        <ele>204</ele>
        <time>2012-03-17T10:02:16Z</time>
      </trkpt>
      <trkpt lat="45.61503" lon="4.77927">
        <ele>205</ele>
        <time>2012-03-17T10:02:24Z</time>
      </trkpt>
      <trkpt lat="45.61489" lon="4.77931">
        <ele>207</ele>
        <time>2012-03-17T10:02:32Z</time>
      </trkpt>
      <trkpt lat="45.61484" lon="4.77942">
        <ele>208</ele>
        <time>2012-03-17T10:02:38Z</time>
      </trkpt>
      <trkpt lat="45.61483" lon="4.77945">
        <ele>207</ele>
        <time>2012-03-17T10:02:39Z</time>
      </trkpt>
      <trkpt lat="45.61482" lon="4.77957">
        <ele>209</ele>
        <time>2012-03-17T10:02:44Z</time>
      </trkpt>
      <trkpt lat="45.61479" lon="4.77981">
        <ele>209</ele>
        <time>2012-03-17T10:02:52Z</time>
      </trkpt>
      <trkpt lat="45.61476" lon="4.78019">
        <ele>211</ele>
        <time>2012-03-17T10:03:03Z</time>
      </trkpt>
      <trkpt lat="45.61478" lon="4.78049">
        <ele>212</ele>
        <time>2012-03-17T10:03:12Z</time>
      </trkpt>
      <trkpt lat="45.61484" lon="4.78076">
        <ele>212</ele>
        <time>2012-03-17T10:03:19Z</time>
      </trkpt>
      <trkpt lat="45.61493" lon="4.78115">
        <ele>214</ele>
        <time>2012-03-17T10:03:28Z</time>
      </trkpt>
      <trkpt lat="45.61498" lon="4.78137">
        <ele>214</ele>
        <time>2012-03-17T10:03:33Z</time>
      </trkpt>
      <trkpt lat="45.61502" lon="4.78141">
        <ele>214</ele>
        <time>2012-03-17T10:03:38Z</time>
      </trkpt>
      <trkpt lat="45.61494" lon="4.78137">
        <ele>214</ele>
        <time>2012-03-17T10:03:41Z</time>
      </trkpt>
      <trkpt lat="45.61491" lon="4.78139">
        <ele>214</ele>
        <time>2012-03-17T10:03:42Z</time>
      </trkpt>
      <trkpt lat="45.61456" lon="4.78152">
        <ele>214</ele>
        <time>2012-03-17T10:03:51Z</time>
      </trkpt>
      <trkpt lat="45.61421" lon="4.7816">
        <ele>214</ele>
        <time>2012-03-17T10:03:59Z</time>
      </trkpt>
      <trkpt lat="45.6139" lon="4.78166">
        <ele>214</ele>
        <time>2012-03-17T10:04:06Z</time>
      </trkpt>
      <trkpt lat="45.61371" lon="4.78166">
        <ele>214</ele>
        <time>2012-03-17T10:04:11Z</time>
      </trkpt>
      <trkpt lat="45.61366" lon="4.78167">
        <ele>214</ele>
        <time>2012-03-17T10:04:12Z</time>
      </trkpt>
      <trkpt lat="45.61362" lon="4.78168">
        <ele>214</ele>
        <time>2012-03-17T10:04:13Z</time>
      </trkpt>
      <trkpt lat="45.61358" lon="4.78168">
        <ele>214</ele>
        <time>2012-03-17T10:04:14Z</time>
      </trkpt>
      <trkpt lat="45.61353" lon="4.78169">
        <ele>214</ele>
        <time>2012-03-17T10:04:15Z</time>
      </trkpt>
      <trkpt lat="45.61349" lon="4.78171">
        <ele>214</ele>
        <time>2012-03-17T10:04:16Z</time>
      </trkpt>
      <trkpt lat="45.61346" lon="4.78175">
        <ele>213</ele>
        <time>2012-03-17T10:04:17Z</time>
      </trkpt>
      <trkpt lat="45.61344" lon="4.7818">
        <ele>213</ele>
        <time>2012-03-17T10:04:18Z</time>
      </trkpt>
      <trkpt lat="45.61344" lon="4.78186">
        <ele>214</ele>
        <time>2012-03-17T10:04:19Z</time>
      </trkpt>
      <trkpt lat="45.61345" lon="4.78192">
        <ele>214</ele>
        <time>2012-03-17T10:04:20Z</time>
      </trkpt>
      <trkpt lat="45.61345" lon="4.78199">
        <ele>214</ele>
        <time>2012-03-17T10:04:21Z</time>
      </trkpt>
      <trkpt lat="45.61346" lon="4.78205">
        <ele>214</ele>
        <time>2012-03-17T10:04:22Z</time>
      </trkpt>
      <trkpt lat="45.61347" lon="4.78211">
        <ele>214</ele>
        <time>2012-03-17T10:04:23Z</time>
      </trkpt>
      <trkpt lat="45.61353" lon="4.78261">
        <ele>214</ele>
        <time>2012-03-17T10:04:31Z</time>
      </trkpt>
      <trkpt lat="45.61362" lon="4.78322">
        <ele>214</ele>
        <time>2012-03-17T10:04:41Z</time>
      </trkpt>
      <trkpt lat="45.61366" lon="4.78345">
        <ele>215</ele>
        <time>2012-03-17T10:04:45Z</time>
      </trkpt>
      <trkpt lat="45.61368" lon="4.78368">
        <ele>215</ele>
        <time>2012-03-17T10:04:49Z</time>
      </trkpt>
      <trkpt lat="45.61368" lon="4.78381">
        <ele>215</ele>
        <time>2012-03-17T10:04:51Z</time>
      </trkpt>
      <trkpt lat="45.61367" lon="4.78387">
        <ele>215</ele>
        <time>2012-03-17T10:04:52Z</time>
      </trkpt>
      <trkpt lat="45.61366" lon="4.78393">
        <ele>214</ele>
        <time>2012-03-17T10:04:53Z</time>
      </trkpt>
      <trkpt lat="45.61365" lon="4.784">
        <ele>214</ele>
        <time>2012-03-17T10:04:54Z</time>
      </trkpt>
      <trkpt lat="45.61357" lon="4.78447">
        <ele>215</ele>
        <time>2012-03-17T10:05:02Z</time>
      </trkpt>
      <trkpt lat="45.61346" lon="4.78502">
        <ele>216</ele>
        <time>2012-03-17T10:05:12Z</time>
      </trkpt>
      <trkpt lat="45.61333" lon="4.78559">
        <ele>217</ele>
        <time>2012-03-17T10:05:22Z</time>
      </trkpt>
      <trkpt lat="45.61326" lon="4.78599">
        <ele>218</ele>
        <time>2012-03-17T10:05:29Z</time>
      </trkpt>
      <trkpt lat="45.61322" lon="4.78628">
        <ele>216</ele>
        <time>2012-03-17T10:05:34Z</time>
      </trkpt>
      <trkpt lat="45.61321" lon="4.78634">
        <ele>216</ele>
        <time>2012-03-17T10:05:35Z</time>
      </trkpt>
      <trkpt lat="45.61318" lon="4.78676">
        <ele>217</ele>
        <time>2012-03-17T10:05:42Z</time>
      </trkpt>
      <trkpt lat="45.61317" lon="4.78681">
        <ele>217</ele>
        <time>2012-03-17T10:05:43Z</time>
      </trkpt>
      <trkpt lat="45.61316" lon="4.78687">
        <ele>217</ele>
        <time>2012-03-17T10:05:44Z</time>
      </trkpt>
      <trkpt lat="45.6131" lon="4.78733">
        <ele>217</ele>
        <time>2012-03-17T10:05:52Z</time>
      </trkpt>
      <trkpt lat="45.61307" lon="4.78748">
        <ele>217</ele>
        <time>2012-03-17T10:05:55Z</time>
      </trkpt>
      <trkpt lat="45.61308" lon="4.78753">
        <ele>217</ele>
        <time>2012-03-17T10:05:56Z</time>
      </trkpt>
      <trkpt lat="45.61311" lon="4.78756">
        <ele>217</ele>
        <time>2012-03-17T10:05:57Z</time>
      </trkpt>
      <trkpt lat="45.61314" lon="4.78757">
        <ele>217</ele>
        <time>2012-03-17T10:05:58Z</time>
      </trkpt>
      <trkpt lat="45.61318" lon="4.78755">
        <ele>217</ele>
        <time>2012-03-17T10:05:59Z</time>
      </trkpt>
      <trkpt lat="45.61322" lon="4.78752">
        <ele>218</ele>
        <time>2012-03-17T10:06:00Z</time>
      </trkpt>
      <trkpt lat="45.61354" lon="4.78722">
        <ele>219</ele>
        <time>2012-03-17T10:06:09Z</time>
      </trkpt>
      <trkpt lat="45.61397" lon="4.78681">
        <ele>220</ele>
        <time>2012-03-17T10:06:21Z</time>
      </trkpt>
      <trkpt lat="45.61404" lon="4.78673">
        <ele>219</ele>
        <time>2012-03-17T10:06:23Z</time>
      </trkpt>
      <trkpt lat="45.61408" lon="4.78672">
        <ele>219</ele>
        <time>2012-03-17T10:06:24Z</time>
      </trkpt>
      <trkpt lat="45.61412" lon="4.78674">
        <ele>219</ele>
        <time>2012-03-17T10:06:25Z</time>
      </trkpt>
      <trkpt lat="45.61414" lon="4.78678">
        <ele>219</ele>
        <time>2012-03-17T10:06:26Z</time>
      </trkpt>
      <trkpt lat="45.61415" lon="4.78684">
        <ele>220</ele>
        <time>2012-03-17T10:06:27Z</time>
      </trkpt>
      <trkpt lat="45.61416" lon="4.7869">
        <ele>219</ele>
        <time>2012-03-17T10:06:28Z</time>
      </trkpt>
      <trkpt lat="45.61417" lon="4.78695">
        <ele>220</ele>
        <time>2012-03-17T10:06:29Z</time>
      </trkpt>
      <trkpt lat="45.61418" lon="4.78701">
        <ele>219</ele>
        <time>2012-03-17T10:06:30Z</time>
      </trkpt>
      <trkpt lat="45.6142" lon="4.78706">
        <ele>219</ele>
        <time>2012-03-17T10:06:31Z</time>
      </trkpt>
      <trkpt lat="45.61421" lon="4.78712">
        <ele>220</ele>
        <time>2012-03-17T10:06:32Z</time>
      </trkpt>
      <trkpt lat="45.61427" lon="4.78741">
        <ele>219</ele>
        <time>2012-03-17T10:06:37Z</time>
      </trkpt>
      <trkpt lat="45.61428" lon="4.78746">
        <ele>219</ele>
        <time>2012-03-17T10:06:38Z</time>
      </trkpt>
      <trkpt lat="45.61433" lon="4.78776">
        <ele>219</ele>
        <time>2012-03-17T10:06:43Z</time>
      </trkpt>
      <trkpt lat="45.61434" lon="4.78782">
        <ele>220</ele>
        <time>2012-03-17T10:06:44Z</time>
      </trkpt>
      <trkpt lat="45.61445" lon="4.78834">
        <ele>220</ele>
        <time>2012-03-17T10:06:53Z</time>
      </trkpt>
      <trkpt lat="45.61456" lon="4.78884">
        <ele>221</ele>
        <time>2012-03-17T10:07:02Z</time>
      </trkpt>
      <trkpt lat="45.61463" lon="4.78907">
        <ele>221</ele>
        <time>2012-03-17T10:07:06Z</time>
      </trkpt>
      <trkpt lat="45.61465" lon="4.78912">
        <ele>222</ele>
        <time>2012-03-17T10:07:07Z</time>
      </trkpt>
      <trkpt lat="45.61467" lon="4.78917">
        <ele>223</ele>
        <time>2012-03-17T10:07:08Z</time>
      </trkpt>
      <trkpt lat="45.61474" lon="4.7893">
        <ele>223</ele>
        <time>2012-03-17T10:07:11Z</time>
      </trkpt>
      <trkpt lat="45.61478" lon="4.78941">
        <ele>223</ele>
        <time>2012-03-17T10:07:13Z</time>
      </trkpt>
      <trkpt lat="45.6148" lon="4.78946">
        <ele>223</ele>
        <time>2012-03-17T10:07:14Z</time>
      </trkpt>
      <trkpt lat="45.61502" lon="4.79002">
        <ele>224</ele>
        <time>2012-03-17T10:07:25Z</time>
      </trkpt>
      <trkpt lat="45.61512" lon="4.79022">
        <ele>224</ele>
        <time>2012-03-17T10:07:29Z</time>
      </trkpt>
      <trkpt lat="45.61522" lon="4.7904">
        <ele>223</ele>
        <time>2012-03-17T10:07:33Z</time>
      </trkpt>
      <trkpt lat="45.61524" lon="4.79044">
        <ele>223</ele>
        <time>2012-03-17T10:07:34Z</time>
      </trkpt>
      <trkpt lat="45.61527" lon="4.79049">
        <ele>224</ele>
        <time>2012-03-17T10:07:35Z</time>
      </trkpt>
      <trkpt lat="45.61542" lon="4.79078">
        <ele>224</ele>
        <time>2012-03-17T10:07:42Z</time>
      </trkpt>
      <trkpt lat="45.61546" lon="4.79078">
        <ele>224</ele>
        <time>2012-03-17T10:07:43Z</time>
      </trkpt>
      <trkpt lat="45.61549" lon="4.79078">
        <ele>224</ele>
        <time>2012-03-17T10:07:44Z</time>
      </trkpt>
      <trkpt lat="45.61553" lon="4.79076">
        <ele>224</ele>
        <time>2012-03-17T10:07:45Z</time>
      </trkpt>
      <trkpt lat="45.61557" lon="4.79074">
        <ele>225</ele>
        <time>2012-03-17T10:07:46Z</time>
      </trkpt>
      <trkpt lat="45.61585" lon="4.79055">
        <ele>227</ele>
        <time>2012-03-17T10:07:54Z</time>
      </trkpt>
      <trkpt lat="45.61613" lon="4.79037">
        <ele>227</ele>
        <time>2012-03-17T10:08:02Z</time>
      </trkpt>
      <trkpt lat="45.61644" lon="4.79017">
        <ele>227</ele>
        <time>2012-03-17T10:08:11Z</time>
      </trkpt>
      <trkpt lat="45.61657" lon="4.79011">
        <ele>227</ele>
        <time>2012-03-17T10:08:15Z</time>
      </trkpt>
      <trkpt lat="45.61659" lon="4.79013">
        <ele>227</ele>
        <time>2012-03-17T10:08:16Z</time>
      </trkpt>
      <trkpt lat="45.61662" lon="4.79017">
        <ele>227</ele>
        <time>2012-03-17T10:08:17Z</time>
      </trkpt>
      <trkpt lat="45.61673" lon="4.79053">
        <ele>226</ele>
        <time>2012-03-17T10:08:24Z</time>
      </trkpt>
      <trkpt lat="45.6168" lon="4.79075">
        <ele>227</ele>
        <time>2012-03-17T10:08:28Z</time>
      </trkpt>
      <trkpt lat="45.61698" lon="4.79134">
        <ele>228</ele>
        <time>2012-03-17T10:08:39Z</time>
      </trkpt>
      <trkpt lat="45.61705" lon="4.79149">
        <ele>228</ele>
        <time>2012-03-17T10:08:42Z</time>
      </trkpt>
      <trkpt lat="45.61726" lon="4.79187">
        <ele>228</ele>
        <time>2012-03-17T10:08:50Z</time>
      </trkpt>
      <trkpt lat="45.61734" lon="4.79201">
        <ele>228</ele>
        <time>2012-03-17T10:08:53Z</time>
      </trkpt>
      <trkpt lat="45.61736" lon="4.79206">
        <ele>228</ele>
        <time>2012-03-17T10:08:54Z</time>
      </trkpt>
      <trkpt lat="45.61747" lon="4.79224">
        <ele>228</ele>
        <time>2012-03-17T10:08:58Z</time>
      </trkpt>
      <trkpt lat="45.6175" lon="4.79229">
        <ele>228</ele>
        <time>2012-03-17T10:08:59Z</time>
      </trkpt>
      <trkpt lat="45.61753" lon="4.79234">
        <ele>228</ele>
        <time>2012-03-17T10:09:00Z</time>
      </trkpt>
      <trkpt lat="45.61761" lon="4.79249">
        <ele>227</ele>
        <time>2012-03-17T10:09:03Z</time>
      </trkpt>
      <trkpt lat="45.61764" lon="4.79254">
        <ele>228</ele>
        <time>2012-03-17T10:09:04Z</time>
      </trkpt>
      <trkpt lat="45.61774" lon="4.79275">
        <ele>228</ele>
        <time>2012-03-17T10:09:08Z</time>
      </trkpt>
      <trkpt lat="45.61796" lon="4.79319">
        <ele>229</ele>
        <time>2012-03-17T10:09:17Z</time>
      </trkpt>
      <trkpt lat="45.61802" lon="4.79332">
        <ele>230</ele>
        <time>2012-03-17T10:09:20Z</time>
      </trkpt>
      <trkpt lat="45.61802" lon="4.79336">
        <ele>230</ele>
        <time>2012-03-17T10:09:21Z</time>
      </trkpt>
      <trkpt lat="45.618" lon="4.7934">
        <ele>230</ele>
        <time>2012-03-17T10:09:22Z</time>
      </trkpt>
      <trkpt lat="45.61796" lon="4.79343">
        <ele>230</ele>
        <time>2012-03-17T10:09:23Z</time>
      </trkpt>
      <trkpt lat="45.61793" lon="4.79346">
        <ele>230</ele>
        <time>2012-03-17T10:09:24Z</time>
      </trkpt>
      <trkpt lat="45.61771" lon="4.79366">
        <ele>230</ele>
        <time>2012-03-17T10:09:30Z</time>
      </trkpt>
      <trkpt lat="45.61768" lon="4.7937">
        <ele>230</ele>
        <time>2012-03-17T10:09:31Z</time>
      </trkpt>
      <trkpt lat="45.61764" lon="4.79373">
        <ele>229</ele>
        <time>2012-03-17T10:09:32Z</time>
      </trkpt>
      <trkpt lat="45.61735" lon="4.79402">
        <ele>229</ele>
        <time>2012-03-17T10:09:40Z</time>
      </trkpt>
      <trkpt lat="45.61732" lon="4.79406">
        <ele>229</ele>
        <time>2012-03-17T10:09:41Z</time>
      </trkpt>
      <trkpt lat="45.6171" lon="4.79431">
        <ele>229</ele>
        <time>2012-03-17T10:09:48Z</time>
      </trkpt>
      <trkpt lat="45.61681" lon="4.79459">
        <ele>228</ele>
        <time>2012-03-17T10:09:57Z</time>
      </trkpt>
      <trkpt lat="45.61677" lon="4.7947">
        <ele>227</ele>
        <time>2012-03-17T10:10:00Z</time>
      </trkpt>
      <trkpt lat="45.61679" lon="4.79473">
        <ele>228</ele>
        <time>2012-03-17T10:10:01Z</time>
      </trkpt>
      <trkpt lat="45.61681" lon="4.79477">
        <ele>228</ele>
        <time>2012-03-17T10:10:02Z</time>
      </trkpt>
      <trkpt lat="45.61691" lon="4.79488">
        <ele>228</ele>
        <time>2012-03-17T10:10:05Z</time>
      </trkpt>
      <trkpt lat="45.61695" lon="4.79492">
        <ele>227</ele>
        <time>2012-03-17T10:10:06Z</time>
      </trkpt>
      <trkpt lat="45.61705" lon="4.79503">
        <ele>228</ele>
        <time>2012-03-17T10:10:09Z</time>
      </trkpt>
      <trkpt lat="45.61713" lon="4.7951">
        <ele>228</ele>
        <time>2012-03-17T10:10:11Z</time>
      </trkpt>
      <trkpt lat="45.61716" lon="4.79513">
        <ele>228</ele>
        <time>2012-03-17T10:10:12Z</time>
      </trkpt>
      <trkpt lat="45.6172" lon="4.79516">
        <ele>228</ele>
        <time>2012-03-17T10:10:13Z</time>
      </trkpt>
      <trkpt lat="45.61749" lon="4.79542">
        <ele>228</ele>
        <time>2012-03-17T10:10:21Z</time>
      </trkpt>
      <trkpt lat="45.61753" lon="4.79545">
        <ele>229</ele>
        <time>2012-03-17T10:10:22Z</time>
      </trkpt>
      <trkpt lat="45.61757" lon="4.79547">
        <ele>229</ele>
        <time>2012-03-17T10:10:23Z</time>
      </trkpt>
      <trkpt lat="45.61762" lon="4.79549">
        <ele>229</ele>
        <time>2012-03-17T10:10:24Z</time>
      </trkpt>
      <trkpt lat="45.61797" lon="4.79565">
        <ele>229</ele>
        <time>2012-03-17T10:10:33Z</time>
      </trkpt>
      <trkpt lat="45.61814" lon="4.79579">
        <ele>230</ele>
        <time>2012-03-17T10:10:39Z</time>
      </trkpt>
      <trkpt lat="45.61814" lon="4.79583">
        <ele>230</ele>
        <time>2012-03-17T10:10:40Z</time>
      </trkpt>
      <trkpt lat="45.61814" lon="4.79586">
        <ele>230</ele>
        <time>2012-03-17T10:10:41Z</time>
      </trkpt>
      <trkpt lat="45.61802" lon="4.79606">
        <ele>229</ele>
        <time>2012-03-17T10:10:46Z</time>
      </trkpt>
      <trkpt lat="45.61782" lon="4.79638">
        <ele>227</ele>
        <time>2012-03-17T10:10:52Z</time>
      </trkpt>
      <trkpt lat="45.61762" lon="4.7967">
        <ele>227</ele>
        <time>2012-03-17T10:10:59Z</time>
      </trkpt>
      <trkpt lat="45.61754" lon="4.79687">
        <ele>227</ele>
        <time>2012-03-17T10:11:04Z</time>
      </trkpt>
      <trkpt lat="45.61757" lon="4.79695">
        <ele>227</ele>
        <time>2012-03-17T10:11:10Z</time>
      </trkpt>
      <trkpt lat="45.61757" lon="4.79694">
        <ele>228</ele>
        <time>2012-03-17T10:11:18Z</time>
      </trkpt>
      <trkpt lat="45.61757" lon="4.79694">
        <ele>227</ele>
        <time>2012-03-17T10:11:21Z</time>
      </trkpt>
      <trkpt lat="45.61757" lon="4.79694">
        <ele>227</ele>
        <time>2012-03-17T10:11:28Z</time>
      </trkpt>
      <trkpt lat="45.61757" lon="4.79693">
        <ele>228</ele>
        <time>2012-03-17T10:11:33Z</time>
      </trkpt>
      <trkpt lat="45.61755" lon="4.79694">
        <ele>227</ele>
        <time>2012-03-17T10:11:35Z</time>
      </trkpt>
      <trkpt lat="45.61755" lon="4.79694">
        <ele>227</ele>
        <time>2012-03-17T10:11:37Z</time>
      </trkpt>
      <trkpt lat="45.61751" lon="4.797">
        <ele>227</ele>
        <time>2012-03-17T10:11:41Z</time>
      </trkpt>
      <trkpt lat="45.61753" lon="4.79705">
        <ele>226</ele>
        <time>2012-03-17T10:11:45Z</time>
      </trkpt>
      <trkpt lat="45.61762" lon="4.79712">
        <ele>224</ele>
        <time>2012-03-17T10:11:49Z</time>
      </trkpt>
      <trkpt lat="45.61773" lon="4.79725">
        <ele>222</ele>
        <time>2012-03-17T10:11:56Z</time>
      </trkpt>
      <trkpt lat="45.61774" lon="4.79729">
        <ele>222</ele>
        <time>2012-03-17T10:11:59Z</time>
      </trkpt>
      <trkpt lat="45.61771" lon="4.79749">
        <ele>221</ele>
        <time>2012-03-17T10:12:05Z</time>
      </trkpt>
      <trkpt lat="45.6177" lon="4.79765">
        <ele>220</ele>
        <time>2012-03-17T10:12:08Z</time>
      </trkpt>
      <trkpt lat="45.61771" lon="4.79772">
        <ele>219</ele>
        <time>2012-03-17T10:12:09Z</time>
      </trkpt>
      <trkpt lat="45.61772" lon="4.79779">
        <ele>219</ele>
        <time>2012-03-17T10:12:10Z</time>
      </trkpt>
      <trkpt lat="45.61776" lon="4.79794">
        <ele>219</ele>
        <time>2012-03-17T10:12:12Z</time>
      </trkpt>
      <trkpt lat="45.61779" lon="4.79801">
        <ele>218</ele>
        <time>2012-03-17T10:12:13Z</time>
      </trkpt>
      <trkpt lat="45.61783" lon="4.79807">
        <ele>217</ele>
        <time>2012-03-17T10:12:14Z</time>
      </trkpt>
      <trkpt lat="45.61788" lon="4.79813">
        <ele>217</ele>
        <time>2012-03-17T10:12:15Z</time>
      </trkpt>
      <trkpt lat="45.61793" lon="4.7982">
        <ele>215</ele>
        <time>2012-03-17T10:12:16Z</time>
      </trkpt>
      <trkpt lat="45.61797" lon="4.79827">
        <ele>215</ele>
        <time>2012-03-17T10:12:17Z</time>
      </trkpt>
      <trkpt lat="45.61801" lon="4.79836">
        <ele>215</ele>
        <time>2012-03-17T10:12:18Z</time>
      </trkpt>
      <trkpt lat="45.61806" lon="4.79844">
        <ele>214</ele>
        <time>2012-03-17T10:12:19Z</time>
      </trkpt>
      <trkpt lat="45.61831" lon="4.79888">
        <ele>211</ele>
        <time>2012-03-17T10:12:24Z</time>
      </trkpt>
      <trkpt lat="45.61849" lon="4.79913">
        <ele>208</ele>
        <time>2012-03-17T10:12:27Z</time>
      </trkpt>
      <trkpt lat="45.61861" lon="4.79932">
        <ele>206</ele>
        <time>2012-03-17T10:12:29Z</time>
      </trkpt>
      <trkpt lat="45.61883" lon="4.7996">
        <ele>202</ele>
        <time>2012-03-17T10:12:32Z</time>
      </trkpt>
      <trkpt lat="45.61894" lon="4.7997">
        <ele>200</ele>
        <time>2012-03-17T10:12:34Z</time>
      </trkpt>
      <trkpt lat="45.61898" lon="4.79973">
        <ele>199</ele>
        <time>2012-03-17T10:12:35Z</time>
      </trkpt>
      <trkpt lat="45.61899" lon="4.79979">
        <ele>197</ele>
        <time>2012-03-17T10:12:38Z</time>
      </trkpt>
      <trkpt lat="45.61883" lon="4.79976">
        <ele>196</ele>
        <time>2012-03-17T10:12:42Z</time>
      </trkpt>
      <trkpt lat="45.61878" lon="4.79972">
        <ele>195</ele>
        <time>2012-03-17T10:12:43Z</time>
      </trkpt>
      <trkpt lat="45.61851" lon="4.79948">
        <ele>195</ele>
        <time>2012-03-17T10:12:50Z</time>
      </trkpt>
      <trkpt lat="45.61835" lon="4.79935">
        <ele>195</ele>
        <time>2012-03-17T10:12:56Z</time>
      </trkpt>
      <trkpt lat="45.61806" lon="4.79915">
        <ele>193</ele>
        <time>2012-03-17T10:13:04Z</time>
      </trkpt>
      <trkpt lat="45.61783" lon="4.79899">
        <ele>192</ele>
        <time>2012-03-17T10:13:11Z</time>
      </trkpt>
      <trkpt lat="45.61766" lon="4.7989">
        <ele>190</ele>
        <time>2012-03-17T10:13:17Z</time>
      </trkpt>
      <trkpt lat="45.6176" lon="4.79892">
        <ele>188</ele>
        <time>2012-03-17T10:13:20Z</time>
      </trkpt>
      <trkpt lat="45.61757" lon="4.79893">
        <ele>187</ele>
        <time>2012-03-17T10:13:21Z</time>
      </trkpt>
      <trkpt lat="45.61747" lon="4.79906">
        <ele>185</ele>
        <time>2012-03-17T10:13:28Z</time>
      </trkpt>
      <trkpt lat="45.61745" lon="4.79919">
        <ele>182</ele>
        <time>2012-03-17T10:13:32Z</time>
      </trkpt>
      <trkpt lat="45.61746" lon="4.79925">
        <ele>180</ele>
        <time>2012-03-17T10:13:34Z</time>
      </trkpt>
      <trkpt lat="45.61748" lon="4.79928">
        <ele>180</ele>
        <time>2012-03-17T10:13:40Z</time>
      </trkpt>
      <trkpt lat="45.61747" lon="4.79929">
        <ele>179</ele>
        <time>2012-03-17T10:13:47Z</time>
      </trkpt>
      <trkpt lat="45.61747" lon="4.79929">
        <ele>178</ele>
        <time>2012-03-17T10:13:53Z</time>
      </trkpt>
      <trkpt lat="45.61735" lon="4.79936">
        <ele>177</ele>
        <time>2012-03-17T10:13:58Z</time>
      </trkpt>
      <trkpt lat="45.61733" lon="4.79943">
        <ele>177</ele>
        <time>2012-03-17T10:13:59Z</time>
      </trkpt>
      <trkpt lat="45.61732" lon="4.7995">
        <ele>176</ele>
        <time>2012-03-17T10:14:00Z</time>
      </trkpt>
      <trkpt lat="45.61732" lon="4.79958">
        <ele>176</ele>
        <time>2012-03-17T10:14:01Z</time>
      </trkpt>
      <trkpt lat="45.61732" lon="4.79965">
        <ele>174</ele>
        <time>2012-03-17T10:14:02Z</time>
      </trkpt>
      <trkpt lat="45.61731" lon="4.79972">
        <ele>174</ele>
        <time>2012-03-17T10:14:03Z</time>
      </trkpt>
      <trkpt lat="45.61729" lon="4.79979">
        <ele>173</ele>
        <time>2012-03-17T10:14:04Z</time>
      </trkpt>
      <trkpt lat="45.61726" lon="4.79983">
        <ele>172</ele>
        <time>2012-03-17T10:14:05Z</time>
      </trkpt>
      <trkpt lat="45.61721" lon="4.79983">
        <ele>172</ele>
        <time>2012-03-17T10:14:06Z</time>
      </trkpt>
      <trkpt lat="45.61716" lon="4.79981">
        <ele>171</ele>
        <time>2012-03-17T10:14:07Z</time>
      </trkpt>
      <trkpt lat="45.6171" lon="4.79979">
        <ele>170</ele>
        <time>2012-03-17T10:14:08Z</time>
      </trkpt>
      <trkpt lat="45.61703" lon="4.7998">
        <ele>170</ele>
        <time>2012-03-17T10:14:09Z</time>
      </trkpt>
      <trkpt lat="45.61697" lon="4.79982">
        <ele>170</ele>
        <time>2012-03-17T10:14:10Z</time>
      </trkpt>
      <trkpt lat="45.61686" lon="4.79984">
        <ele>169</ele>
        <time>2012-03-17T10:14:12Z</time>
      </trkpt>
      <trkpt lat="45.61681" lon="4.79983">
        <ele>169</ele>
        <time>2012-03-17T10:14:13Z</time>
      </trkpt>
      <trkpt lat="45.61677" lon="4.79981">
        <ele>169</ele>
        <time>2012-03-17T10:14:14Z</time>
      </trkpt>
      <trkpt lat="45.61672" lon="4.79979">
        <ele>168</ele>
        <time>2012-03-17T10:14:15Z</time>
      </trkpt>
      <trkpt lat="45.61667" lon="4.79979">
        <ele>169</ele>
        <time>2012-03-17T10:14:16Z</time>
      </trkpt>
      <trkpt lat="45.61662" lon="4.79979">
        <ele>169</ele>
        <time>2012-03-17T10:14:17Z</time>
      </trkpt>
      <trkpt lat="45.61657" lon="4.79982">
        <ele>169</ele>
        <time>2012-03-17T10:14:18Z</time>
      </trkpt>
      <trkpt lat="45.61653" lon="4.79989">
        <ele>169</ele>
        <time>2012-03-17T10:14:19Z</time>
      </trkpt>
      <trkpt lat="45.6165" lon="4.79997">
        <ele>169</ele>
        <time>2012-03-17T10:14:20Z</time>
      </trkpt>
      <trkpt lat="45.61649" lon="4.80006">
        <ele>168</ele>
        <time>2012-03-17T10:14:21Z</time>
      </trkpt>
      <trkpt lat="45.6165" lon="4.80015">
        <ele>168</ele>
        <time>2012-03-17T10:14:22Z</time>
      </trkpt>
      <trkpt lat="45.61652" lon="4.80024">
        <ele>168</ele>
        <time>2012-03-17T10:14:23Z</time>
      </trkpt>
      <trkpt lat="45.61652" lon="4.80032">
        <ele>168</ele>
        <time>2012-03-17T10:14:24Z</time>
      </trkpt>
      <trkpt lat="45.61651" lon="4.8004">
        <ele>168</ele>
        <time>2012-03-17T10:14:25Z</time>
      </trkpt>
      <trkpt lat="45.6165" lon="4.80048">
        <ele>167</ele>
        <time>2012-03-17T10:14:26Z</time>
      </trkpt>
      <trkpt lat="45.61652" lon="4.80055">
        <ele>166</ele>
        <time>2012-03-17T10:14:27Z</time>
      </trkpt>
      <trkpt lat="45.61656" lon="4.80061">
        <ele>166</ele>
        <time>2012-03-17T10:14:28Z</time>
      </trkpt>
      <trkpt lat="45.61661" lon="4.80065">
        <ele>166</ele>
        <time>2012-03-17T10:14:29Z</time>
      </trkpt>
      <trkpt lat="45.61667" lon="4.80066">
        <ele>166</ele>
        <time>2012-03-17T10:14:30Z</time>
      </trkpt>
      <trkpt lat="45.61673" lon="4.80064">
        <ele>166</ele>
        <time>2012-03-17T10:14:31Z</time>
      </trkpt>
      <trkpt lat="45.61678" lon="4.80061">
        <ele>165</ele>
        <time>2012-03-17T10:14:32Z</time>
      </trkpt>
      <trkpt lat="45.61684" lon="4.80058">
        <ele>165</ele>
        <time>2012-03-17T10:14:33Z</time>
      </trkpt>
      <trkpt lat="45.61689" lon="4.80057">
        <ele>165</ele>
        <time>2012-03-17T10:14:34Z</time>
      </trkpt>
      <trkpt lat="45.61694" lon="4.80057">
        <ele>165</ele>
        <time>2012-03-17T10:14:35Z</time>
      </trkpt>
      <trkpt lat="45.61698" lon="4.80058">
        <ele>165</ele>
        <time>2012-03-17T10:14:36Z</time>
      </trkpt>
      <trkpt lat="45.61701" lon="4.80057">
        <ele>165</ele>
        <time>2012-03-17T10:14:37Z</time>
      </trkpt>
      <trkpt lat="45.61702" lon="4.80055">
        <ele>165</ele>
        <time>2012-03-17T10:14:38Z</time>
      </trkpt>
      <trkpt lat="45.61701" lon="4.80053">
        <ele>165</ele>
        <time>2012-03-17T10:14:42Z</time>
      </trkpt>
      <trkpt lat="45.61701" lon="4.80053">
        <ele>166</ele>
        <time>2012-03-17T10:15:01Z</time>
      </trkpt>
      <trkpt lat="45.61701" lon="4.80053">
        <ele>161</ele>
        <time>2012-03-17T10:15:09Z</time>
      </trkpt>
      <trkpt lat="45.61701" lon="4.80053">
        <ele>164</ele>
        <time>2012-03-17T10:15:10Z</time>
      </trkpt>
    </trkseg>
  </trk>
</gpx>